<?xml version="1.0" encoding="UTF-8" standalone="no" ?>
<gpx xmlns="http://www.topografix.com/GPX/1/1" xmlns:xsi="http://www.w3.org/2001/XMLSchema-instance" xsi:schemaLocation="http://www.topografix.com/GPX/1/1 http://www.topografix.com/GPX/1/1/gpx.xsd" version="1.1" creator="VisuGPX - https://www.visugpx.com">
  <metadata>
    <name>VTT - Tour de la Ste Victoire</name>
    <desc><![CDATA[Parcours sans difficulté technique]]></desc>
  </metadata>
  <trk>
    <name><![CDATA[VTT - Tour de la Ste Victoire]]></name>
    <trkseg>
      <trkpt lat="43.63692" lon="5.63809">
        <ele>270.39999389648</ele>
        <time>2013-03-23T07:24:49.000Z</time>
      </trkpt>
      <trkpt lat="43.63693" lon="5.63809">
        <ele>270.39999389648</ele>
        <time>2013-03-23T07:24:50.000Z</time>
      </trkpt>
      <trkpt lat="43.63693" lon="5.63808">
        <ele>270.39999389648</ele>
        <time>2013-03-23T07:24:54.000Z</time>
      </trkpt>
      <trkpt lat="43.63693" lon="5.63803">
        <ele>270.60000610352</ele>
        <time>2013-03-23T07:25:01.000Z</time>
      </trkpt>
      <trkpt lat="43.63693" lon="5.63801">
        <ele>270.60000610352</ele>
        <time>2013-03-23T07:25:02.000Z</time>
      </trkpt>
      <trkpt lat="43.63685" lon="5.63772">
        <ele>269.60000610352</ele>
        <time>2013-03-23T07:25:10.000Z</time>
      </trkpt>
      <trkpt lat="43.63669" lon="5.6373">
        <ele>268.39999389648</ele>
        <time>2013-03-23T07:25:18.000Z</time>
      </trkpt>
      <trkpt lat="43.63667" lon="5.63724">
        <ele>268.60000610352</ele>
        <time>2013-03-23T07:25:19.000Z</time>
      </trkpt>
      <trkpt lat="43.63663" lon="5.63663">
        <ele>271.20001220703</ele>
        <time>2013-03-23T07:25:29.000Z</time>
      </trkpt>
      <trkpt lat="43.63662" lon="5.63632">
        <ele>269.39999389648</ele>
        <time>2013-03-23T07:25:34.000Z</time>
      </trkpt>
      <trkpt lat="43.63663" lon="5.63619">
        <ele>268.79998779297</ele>
        <time>2013-03-23T07:25:36.000Z</time>
      </trkpt>
      <trkpt lat="43.63682" lon="5.63531">
        <ele>264.60000610352</ele>
        <time>2013-03-23T07:25:48.000Z</time>
      </trkpt>
      <trkpt lat="43.63704" lon="5.63441">
        <ele>262.60000610352</ele>
        <time>2013-03-23T07:26:00.000Z</time>
      </trkpt>
      <trkpt lat="43.63724" lon="5.63372">
        <ele>259.39999389648</ele>
        <time>2013-03-23T07:26:10.000Z</time>
      </trkpt>
      <trkpt lat="43.63726" lon="5.63361">
        <ele>258.60000610352</ele>
        <time>2013-03-23T07:26:12.000Z</time>
      </trkpt>
      <trkpt lat="43.63725" lon="5.63354">
        <ele>258.20001220703</ele>
        <time>2013-03-23T07:26:13.000Z</time>
      </trkpt>
      <trkpt lat="43.63724" lon="5.63348">
        <ele>258</ele>
        <time>2013-03-23T07:26:14.000Z</time>
      </trkpt>
      <trkpt lat="43.63721" lon="5.63343">
        <ele>257.79998779297</ele>
        <time>2013-03-23T07:26:15.000Z</time>
      </trkpt>
      <trkpt lat="43.63718" lon="5.63338">
        <ele>257.79998779297</ele>
        <time>2013-03-23T07:26:16.000Z</time>
      </trkpt>
      <trkpt lat="43.63701" lon="5.63313">
        <ele>258.79998779297</ele>
        <time>2013-03-23T07:26:21.000Z</time>
      </trkpt>
      <trkpt lat="43.6369" lon="5.63299">
        <ele>259.60000610352</ele>
        <time>2013-03-23T07:26:24.000Z</time>
      </trkpt>
      <trkpt lat="43.6368" lon="5.63283">
        <ele>260.39999389648</ele>
        <time>2013-03-23T07:26:27.000Z</time>
      </trkpt>
      <trkpt lat="43.6367" lon="5.63269">
        <ele>260.79998779297</ele>
        <time>2013-03-23T07:26:30.000Z</time>
      </trkpt>
      <trkpt lat="43.63625" lon="5.63227">
        <ele>260.20001220703</ele>
        <time>2013-03-23T07:26:39.000Z</time>
      </trkpt>
      <trkpt lat="43.63555" lon="5.63169">
        <ele>258.60000610352</ele>
        <time>2013-03-23T07:26:52.000Z</time>
      </trkpt>
      <trkpt lat="43.63535" lon="5.63153">
        <ele>257.60000610352</ele>
        <time>2013-03-23T07:26:55.000Z</time>
      </trkpt>
      <trkpt lat="43.63529" lon="5.63147">
        <ele>257.20001220703</ele>
        <time>2013-03-23T07:26:56.000Z</time>
      </trkpt>
      <trkpt lat="43.63524" lon="5.6314">
        <ele>257</ele>
        <time>2013-03-23T07:26:57.000Z</time>
      </trkpt>
      <trkpt lat="43.63518" lon="5.63133">
        <ele>257</ele>
        <time>2013-03-23T07:26:58.000Z</time>
      </trkpt>
      <trkpt lat="43.63514" lon="5.63124">
        <ele>256.79998779297</ele>
        <time>2013-03-23T07:26:59.000Z</time>
      </trkpt>
      <trkpt lat="43.63511" lon="5.63114">
        <ele>256.79998779297</ele>
        <time>2013-03-23T07:27:00.000Z</time>
      </trkpt>
      <trkpt lat="43.63509" lon="5.63104">
        <ele>256.79998779297</ele>
        <time>2013-03-23T07:27:01.000Z</time>
      </trkpt>
      <trkpt lat="43.63508" lon="5.63093">
        <ele>257</ele>
        <time>2013-03-23T07:27:02.000Z</time>
      </trkpt>
      <trkpt lat="43.63508" lon="5.63082">
        <ele>257</ele>
        <time>2013-03-23T07:27:03.000Z</time>
      </trkpt>
      <trkpt lat="43.63508" lon="5.6304">
        <ele>255.39999389648</ele>
        <time>2013-03-23T07:27:07.000Z</time>
      </trkpt>
      <trkpt lat="43.6351" lon="5.6302">
        <ele>254.80000305176</ele>
        <time>2013-03-23T07:27:09.000Z</time>
      </trkpt>
      <trkpt lat="43.63512" lon="5.62979">
        <ele>254.39999389648</ele>
        <time>2013-03-23T07:27:13.000Z</time>
      </trkpt>
      <trkpt lat="43.63516" lon="5.6293">
        <ele>255.19999694824</ele>
        <time>2013-03-23T07:27:18.000Z</time>
      </trkpt>
      <trkpt lat="43.63523" lon="5.62821">
        <ele>254.19999694824</ele>
        <time>2013-03-23T07:27:30.000Z</time>
      </trkpt>
      <trkpt lat="43.63527" lon="5.62732">
        <ele>252.60000610352</ele>
        <time>2013-03-23T07:27:42.000Z</time>
      </trkpt>
      <trkpt lat="43.63531" lon="5.62654">
        <ele>252</ele>
        <time>2013-03-23T07:27:50.000Z</time>
      </trkpt>
      <trkpt lat="43.63534" lon="5.62629">
        <ele>251.19999694824</ele>
        <time>2013-03-23T07:27:53.000Z</time>
      </trkpt>
      <trkpt lat="43.63534" lon="5.62617">
        <ele>251</ele>
        <time>2013-03-23T07:27:55.000Z</time>
      </trkpt>
      <trkpt lat="43.63532" lon="5.62614">
        <ele>250.60000610352</ele>
        <time>2013-03-23T07:27:56.000Z</time>
      </trkpt>
      <trkpt lat="43.63529" lon="5.62612">
        <ele>250.39999389648</ele>
        <time>2013-03-23T07:27:57.000Z</time>
      </trkpt>
      <trkpt lat="43.63525" lon="5.62611">
        <ele>250</ele>
        <time>2013-03-23T07:27:58.000Z</time>
      </trkpt>
      <trkpt lat="43.63521" lon="5.62608">
        <ele>249.60000610352</ele>
        <time>2013-03-23T07:27:59.000Z</time>
      </trkpt>
      <trkpt lat="43.63519" lon="5.62604">
        <ele>249.39999389648</ele>
        <time>2013-03-23T07:28:00.000Z</time>
      </trkpt>
      <trkpt lat="43.63519" lon="5.62598">
        <ele>249</ele>
        <time>2013-03-23T07:28:01.000Z</time>
      </trkpt>
      <trkpt lat="43.63519" lon="5.62592">
        <ele>248.80000305176</ele>
        <time>2013-03-23T07:28:02.000Z</time>
      </trkpt>
      <trkpt lat="43.63527" lon="5.62496">
        <ele>248</ele>
        <time>2013-03-23T07:28:15.000Z</time>
      </trkpt>
      <trkpt lat="43.63539" lon="5.62406">
        <ele>246</ele>
        <time>2013-03-23T07:28:25.000Z</time>
      </trkpt>
      <trkpt lat="43.63542" lon="5.62398">
        <ele>246.60000610352</ele>
        <time>2013-03-23T07:28:26.000Z</time>
      </trkpt>
      <trkpt lat="43.63549" lon="5.62374">
        <ele>248.19999694824</ele>
        <time>2013-03-23T07:28:29.000Z</time>
      </trkpt>
      <trkpt lat="43.63587" lon="5.62285">
        <ele>250.19999694824</ele>
        <time>2013-03-23T07:28:42.000Z</time>
      </trkpt>
      <trkpt lat="43.63592" lon="5.62267">
        <ele>249.80000305176</ele>
        <time>2013-03-23T07:28:47.000Z</time>
      </trkpt>
      <trkpt lat="43.63588" lon="5.62262">
        <ele>249.80000305176</ele>
        <time>2013-03-23T07:28:50.000Z</time>
      </trkpt>
      <trkpt lat="43.63563" lon="5.62265">
        <ele>251.39999389648</ele>
        <time>2013-03-23T07:28:58.000Z</time>
      </trkpt>
      <trkpt lat="43.63529" lon="5.62261">
        <ele>254</ele>
        <time>2013-03-23T07:29:08.000Z</time>
      </trkpt>
      <trkpt lat="43.63497" lon="5.62261">
        <ele>256.20001220703</ele>
        <time>2013-03-23T07:29:18.000Z</time>
      </trkpt>
      <trkpt lat="43.6348" lon="5.62241">
        <ele>257</ele>
        <time>2013-03-23T07:29:25.000Z</time>
      </trkpt>
      <trkpt lat="43.63473" lon="5.622">
        <ele>256.20001220703</ele>
        <time>2013-03-23T07:29:33.000Z</time>
      </trkpt>
      <trkpt lat="43.63464" lon="5.62189">
        <ele>256.39999389648</ele>
        <time>2013-03-23T07:29:36.000Z</time>
      </trkpt>
      <trkpt lat="43.6346" lon="5.62186">
        <ele>256.60000610352</ele>
        <time>2013-03-23T07:29:37.000Z</time>
      </trkpt>
      <trkpt lat="43.63443" lon="5.62174">
        <ele>257.79998779297</ele>
        <time>2013-03-23T07:29:41.000Z</time>
      </trkpt>
      <trkpt lat="43.6344" lon="5.6217">
        <ele>258</ele>
        <time>2013-03-23T07:29:42.000Z</time>
      </trkpt>
      <trkpt lat="43.63434" lon="5.6216">
        <ele>258.20001220703</ele>
        <time>2013-03-23T07:29:44.000Z</time>
      </trkpt>
      <trkpt lat="43.63432" lon="5.62155">
        <ele>258</ele>
        <time>2013-03-23T07:29:45.000Z</time>
      </trkpt>
      <trkpt lat="43.63427" lon="5.62139">
        <ele>257.79998779297</ele>
        <time>2013-03-23T07:29:48.000Z</time>
      </trkpt>
      <trkpt lat="43.63424" lon="5.62135">
        <ele>257.79998779297</ele>
        <time>2013-03-23T07:29:49.000Z</time>
      </trkpt>
      <trkpt lat="43.63421" lon="5.62131">
        <ele>257.79998779297</ele>
        <time>2013-03-23T07:29:50.000Z</time>
      </trkpt>
      <trkpt lat="43.63417" lon="5.62128">
        <ele>258</ele>
        <time>2013-03-23T07:29:51.000Z</time>
      </trkpt>
      <trkpt lat="43.63379" lon="5.62111">
        <ele>257.39999389648</ele>
        <time>2013-03-23T07:29:58.000Z</time>
      </trkpt>
      <trkpt lat="43.63373" lon="5.62107">
        <ele>257.20001220703</ele>
        <time>2013-03-23T07:29:59.000Z</time>
      </trkpt>
      <trkpt lat="43.63368" lon="5.62103">
        <ele>257.20001220703</ele>
        <time>2013-03-23T07:30:00.000Z</time>
      </trkpt>
      <trkpt lat="43.63363" lon="5.62098">
        <ele>257</ele>
        <time>2013-03-23T07:30:01.000Z</time>
      </trkpt>
      <trkpt lat="43.63359" lon="5.62093">
        <ele>256.79998779297</ele>
        <time>2013-03-23T07:30:02.000Z</time>
      </trkpt>
      <trkpt lat="43.63355" lon="5.62087">
        <ele>256.79998779297</ele>
        <time>2013-03-23T07:30:03.000Z</time>
      </trkpt>
      <trkpt lat="43.63352" lon="5.6208">
        <ele>256.60000610352</ele>
        <time>2013-03-23T07:30:04.000Z</time>
      </trkpt>
      <trkpt lat="43.6335" lon="5.62073">
        <ele>256.39999389648</ele>
        <time>2013-03-23T07:30:05.000Z</time>
      </trkpt>
      <trkpt lat="43.63348" lon="5.62065">
        <ele>256.20001220703</ele>
        <time>2013-03-23T07:30:06.000Z</time>
      </trkpt>
      <trkpt lat="43.63347" lon="5.62057">
        <ele>255.80000305176</ele>
        <time>2013-03-23T07:30:07.000Z</time>
      </trkpt>
      <trkpt lat="43.63345" lon="5.62037">
        <ele>255.39999389648</ele>
        <time>2013-03-23T07:30:10.000Z</time>
      </trkpt>
      <trkpt lat="43.63337" lon="5.62011">
        <ele>255</ele>
        <time>2013-03-23T07:30:14.000Z</time>
      </trkpt>
      <trkpt lat="43.6333" lon="5.61996">
        <ele>254.80000305176</ele>
        <time>2013-03-23T07:30:16.000Z</time>
      </trkpt>
      <trkpt lat="43.63284" lon="5.61912">
        <ele>253.39999389648</ele>
        <time>2013-03-23T07:30:27.000Z</time>
      </trkpt>
      <trkpt lat="43.63255" lon="5.61853">
        <ele>253.39999389648</ele>
        <time>2013-03-23T07:30:36.000Z</time>
      </trkpt>
      <trkpt lat="43.63236" lon="5.61818">
        <ele>253</ele>
        <time>2013-03-23T07:30:42.000Z</time>
      </trkpt>
      <trkpt lat="43.63234" lon="5.61811">
        <ele>253</ele>
        <time>2013-03-23T07:30:43.000Z</time>
      </trkpt>
      <trkpt lat="43.63219" lon="5.61761">
        <ele>253</ele>
        <time>2013-03-23T07:30:51.000Z</time>
      </trkpt>
      <trkpt lat="43.63216" lon="5.61757">
        <ele>253.19999694824</ele>
        <time>2013-03-23T07:30:52.000Z</time>
      </trkpt>
      <trkpt lat="43.63213" lon="5.61753">
        <ele>253.19999694824</ele>
        <time>2013-03-23T07:30:53.000Z</time>
      </trkpt>
      <trkpt lat="43.63209" lon="5.61751">
        <ele>253.39999389648</ele>
        <time>2013-03-23T07:30:54.000Z</time>
      </trkpt>
      <trkpt lat="43.63174" lon="5.61748">
        <ele>254.80000305176</ele>
        <time>2013-03-23T07:31:04.000Z</time>
      </trkpt>
      <trkpt lat="43.63164" lon="5.61737">
        <ele>255.60000610352</ele>
        <time>2013-03-23T07:31:08.000Z</time>
      </trkpt>
      <trkpt lat="43.63165" lon="5.61733">
        <ele>255.60000610352</ele>
        <time>2013-03-23T07:31:09.000Z</time>
      </trkpt>
      <trkpt lat="43.63166" lon="5.61729">
        <ele>255.60000610352</ele>
        <time>2013-03-23T07:31:10.000Z</time>
      </trkpt>
      <trkpt lat="43.63167" lon="5.61727">
        <ele>255.80000305176</ele>
        <time>2013-03-23T07:31:11.000Z</time>
      </trkpt>
      <trkpt lat="43.63169" lon="5.61724">
        <ele>255.80000305176</ele>
        <time>2013-03-23T07:31:12.000Z</time>
      </trkpt>
      <trkpt lat="43.63165" lon="5.61702">
        <ele>256.79998779297</ele>
        <time>2013-03-23T07:31:20.000Z</time>
      </trkpt>
      <trkpt lat="43.63149" lon="5.6168">
        <ele>259.20001220703</ele>
        <time>2013-03-23T07:31:30.000Z</time>
      </trkpt>
      <trkpt lat="43.63121" lon="5.61641">
        <ele>262</ele>
        <time>2013-03-23T07:31:42.000Z</time>
      </trkpt>
      <trkpt lat="43.63088" lon="5.61611">
        <ele>264.39999389648</ele>
        <time>2013-03-23T07:31:53.000Z</time>
      </trkpt>
      <trkpt lat="43.63053" lon="5.61576">
        <ele>266</ele>
        <time>2013-03-23T07:32:05.000Z</time>
      </trkpt>
      <trkpt lat="43.63035" lon="5.61538">
        <ele>266</ele>
        <time>2013-03-23T07:32:14.000Z</time>
      </trkpt>
      <trkpt lat="43.63026" lon="5.61486">
        <ele>264.79998779297</ele>
        <time>2013-03-23T07:32:23.000Z</time>
      </trkpt>
      <trkpt lat="43.63021" lon="5.61471">
        <ele>264.79998779297</ele>
        <time>2013-03-23T07:32:25.000Z</time>
      </trkpt>
      <trkpt lat="43.6302" lon="5.61462">
        <ele>264.60000610352</ele>
        <time>2013-03-23T07:32:26.000Z</time>
      </trkpt>
      <trkpt lat="43.6302" lon="5.61454">
        <ele>264.39999389648</ele>
        <time>2013-03-23T07:32:27.000Z</time>
      </trkpt>
      <trkpt lat="43.63015" lon="5.61399">
        <ele>262.79998779297</ele>
        <time>2013-03-23T07:32:34.000Z</time>
      </trkpt>
      <trkpt lat="43.63013" lon="5.61392">
        <ele>262.60000610352</ele>
        <time>2013-03-23T07:32:35.000Z</time>
      </trkpt>
      <trkpt lat="43.63011" lon="5.61385">
        <ele>262.39999389648</ele>
        <time>2013-03-23T07:32:36.000Z</time>
      </trkpt>
      <trkpt lat="43.63" lon="5.61362">
        <ele>261</ele>
        <time>2013-03-23T07:32:39.000Z</time>
      </trkpt>
      <trkpt lat="43.62993" lon="5.61336">
        <ele>259.79998779297</ele>
        <time>2013-03-23T07:32:42.000Z</time>
      </trkpt>
      <trkpt lat="43.62991" lon="5.61326">
        <ele>259.79998779297</ele>
        <time>2013-03-23T07:32:43.000Z</time>
      </trkpt>
      <trkpt lat="43.62989" lon="5.61302">
        <ele>260.20001220703</ele>
        <time>2013-03-23T07:32:46.000Z</time>
      </trkpt>
      <trkpt lat="43.62987" lon="5.61297">
        <ele>260.20001220703</ele>
        <time>2013-03-23T07:32:47.000Z</time>
      </trkpt>
      <trkpt lat="43.62981" lon="5.61287">
        <ele>260.60000610352</ele>
        <time>2013-03-23T07:32:49.000Z</time>
      </trkpt>
      <trkpt lat="43.62979" lon="5.61282">
        <ele>260.60000610352</ele>
        <time>2013-03-23T07:32:50.000Z</time>
      </trkpt>
      <trkpt lat="43.62977" lon="5.61276">
        <ele>260.79998779297</ele>
        <time>2013-03-23T07:32:51.000Z</time>
      </trkpt>
      <trkpt lat="43.62974" lon="5.61265">
        <ele>260.79998779297</ele>
        <time>2013-03-23T07:32:53.000Z</time>
      </trkpt>
      <trkpt lat="43.62973" lon="5.61258">
        <ele>260.60000610352</ele>
        <time>2013-03-23T07:32:54.000Z</time>
      </trkpt>
      <trkpt lat="43.62964" lon="5.61209">
        <ele>262.60000610352</ele>
        <time>2013-03-23T07:33:02.000Z</time>
      </trkpt>
      <trkpt lat="43.62963" lon="5.61204">
        <ele>262.60000610352</ele>
        <time>2013-03-23T07:33:03.000Z</time>
      </trkpt>
      <trkpt lat="43.6296" lon="5.61201">
        <ele>262.79998779297</ele>
        <time>2013-03-23T07:33:04.000Z</time>
      </trkpt>
      <trkpt lat="43.62957" lon="5.61199">
        <ele>262.79998779297</ele>
        <time>2013-03-23T07:33:05.000Z</time>
      </trkpt>
      <trkpt lat="43.62954" lon="5.61197">
        <ele>262.60000610352</ele>
        <time>2013-03-23T07:33:06.000Z</time>
      </trkpt>
      <trkpt lat="43.62951" lon="5.61196">
        <ele>262.60000610352</ele>
        <time>2013-03-23T07:33:07.000Z</time>
      </trkpt>
      <trkpt lat="43.62944" lon="5.61192">
        <ele>262.39999389648</ele>
        <time>2013-03-23T07:33:09.000Z</time>
      </trkpt>
      <trkpt lat="43.62908" lon="5.61155">
        <ele>261.60000610352</ele>
        <time>2013-03-23T07:33:21.000Z</time>
      </trkpt>
      <trkpt lat="43.62883" lon="5.61111">
        <ele>263.39999389648</ele>
        <time>2013-03-23T07:33:32.000Z</time>
      </trkpt>
      <trkpt lat="43.6288" lon="5.61073">
        <ele>265.20001220703</ele>
        <time>2013-03-23T07:33:40.000Z</time>
      </trkpt>
      <trkpt lat="43.62882" lon="5.61028">
        <ele>268.39999389648</ele>
        <time>2013-03-23T07:33:52.000Z</time>
      </trkpt>
      <trkpt lat="43.62886" lon="5.60994">
        <ele>271</ele>
        <time>2013-03-23T07:34:02.000Z</time>
      </trkpt>
      <trkpt lat="43.62889" lon="5.60953">
        <ele>273.60000610352</ele>
        <time>2013-03-23T07:34:14.000Z</time>
      </trkpt>
      <trkpt lat="43.62881" lon="5.60921">
        <ele>275.39999389648</ele>
        <time>2013-03-23T07:34:25.000Z</time>
      </trkpt>
      <trkpt lat="43.62867" lon="5.60896">
        <ele>276.20001220703</ele>
        <time>2013-03-23T07:34:36.000Z</time>
      </trkpt>
      <trkpt lat="43.62851" lon="5.60864">
        <ele>277.20001220703</ele>
        <time>2013-03-23T07:34:49.000Z</time>
      </trkpt>
      <trkpt lat="43.6285" lon="5.60834">
        <ele>278.60000610352</ele>
        <time>2013-03-23T07:34:57.000Z</time>
      </trkpt>
      <trkpt lat="43.6285" lon="5.60829">
        <ele>278.60000610352</ele>
        <time>2013-03-23T07:34:58.000Z</time>
      </trkpt>
      <trkpt lat="43.62851" lon="5.60823">
        <ele>278.39999389648</ele>
        <time>2013-03-23T07:34:59.000Z</time>
      </trkpt>
      <trkpt lat="43.62853" lon="5.60804">
        <ele>277.60000610352</ele>
        <time>2013-03-23T07:35:02.000Z</time>
      </trkpt>
      <trkpt lat="43.62853" lon="5.60797">
        <ele>277.39999389648</ele>
        <time>2013-03-23T07:35:03.000Z</time>
      </trkpt>
      <trkpt lat="43.6285" lon="5.60769">
        <ele>276</ele>
        <time>2013-03-23T07:35:07.000Z</time>
      </trkpt>
      <trkpt lat="43.62849" lon="5.60762">
        <ele>275.79998779297</ele>
        <time>2013-03-23T07:35:08.000Z</time>
      </trkpt>
      <trkpt lat="43.62845" lon="5.60749">
        <ele>275.20001220703</ele>
        <time>2013-03-23T07:35:10.000Z</time>
      </trkpt>
      <trkpt lat="43.62844" lon="5.60742">
        <ele>274.79998779297</ele>
        <time>2013-03-23T07:35:11.000Z</time>
      </trkpt>
      <trkpt lat="43.62845" lon="5.60735">
        <ele>274.60000610352</ele>
        <time>2013-03-23T07:35:12.000Z</time>
      </trkpt>
      <trkpt lat="43.62846" lon="5.60721">
        <ele>274</ele>
        <time>2013-03-23T07:35:14.000Z</time>
      </trkpt>
      <trkpt lat="43.62845" lon="5.60714">
        <ele>273.60000610352</ele>
        <time>2013-03-23T07:35:15.000Z</time>
      </trkpt>
      <trkpt lat="43.62842" lon="5.60708">
        <ele>273.39999389648</ele>
        <time>2013-03-23T07:35:16.000Z</time>
      </trkpt>
      <trkpt lat="43.62838" lon="5.60703">
        <ele>273.20001220703</ele>
        <time>2013-03-23T07:35:17.000Z</time>
      </trkpt>
      <trkpt lat="43.62833" lon="5.60699">
        <ele>273</ele>
        <time>2013-03-23T07:35:18.000Z</time>
      </trkpt>
      <trkpt lat="43.62828" lon="5.60695">
        <ele>272.79998779297</ele>
        <time>2013-03-23T07:35:19.000Z</time>
      </trkpt>
      <trkpt lat="43.62824" lon="5.60689">
        <ele>272.60000610352</ele>
        <time>2013-03-23T07:35:20.000Z</time>
      </trkpt>
      <trkpt lat="43.6282" lon="5.60683">
        <ele>272.39999389648</ele>
        <time>2013-03-23T07:35:21.000Z</time>
      </trkpt>
      <trkpt lat="43.62804" lon="5.60661">
        <ele>272.39999389648</ele>
        <time>2013-03-23T07:35:25.000Z</time>
      </trkpt>
      <trkpt lat="43.62782" lon="5.60642">
        <ele>273</ele>
        <time>2013-03-23T07:35:30.000Z</time>
      </trkpt>
      <trkpt lat="43.62778" lon="5.6064">
        <ele>273.20001220703</ele>
        <time>2013-03-23T07:35:31.000Z</time>
      </trkpt>
      <trkpt lat="43.62775" lon="5.60637">
        <ele>273.39999389648</ele>
        <time>2013-03-23T07:35:32.000Z</time>
      </trkpt>
      <trkpt lat="43.62771" lon="5.60633">
        <ele>273.39999389648</ele>
        <time>2013-03-23T07:35:33.000Z</time>
      </trkpt>
      <trkpt lat="43.62767" lon="5.6063">
        <ele>273.60000610352</ele>
        <time>2013-03-23T07:35:34.000Z</time>
      </trkpt>
      <trkpt lat="43.62764" lon="5.60627">
        <ele>273.60000610352</ele>
        <time>2013-03-23T07:35:35.000Z</time>
      </trkpt>
      <trkpt lat="43.62732" lon="5.60586">
        <ele>275.60000610352</ele>
        <time>2013-03-23T07:35:46.000Z</time>
      </trkpt>
      <trkpt lat="43.62708" lon="5.60548">
        <ele>276.60000610352</ele>
        <time>2013-03-23T07:35:56.000Z</time>
      </trkpt>
      <trkpt lat="43.62685" lon="5.60531">
        <ele>277.60000610352</ele>
        <time>2013-03-23T07:36:04.000Z</time>
      </trkpt>
      <trkpt lat="43.62668" lon="5.60498">
        <ele>278</ele>
        <time>2013-03-23T07:36:12.000Z</time>
      </trkpt>
      <trkpt lat="43.62663" lon="5.60489">
        <ele>278.60000610352</ele>
        <time>2013-03-23T07:36:14.000Z</time>
      </trkpt>
      <trkpt lat="43.62659" lon="5.60479">
        <ele>279.20001220703</ele>
        <time>2013-03-23T07:36:16.000Z</time>
      </trkpt>
      <trkpt lat="43.62657" lon="5.60474">
        <ele>279.39999389648</ele>
        <time>2013-03-23T07:36:17.000Z</time>
      </trkpt>
      <trkpt lat="43.62639" lon="5.60413">
        <ele>282.39999389648</ele>
        <time>2013-03-23T07:36:30.000Z</time>
      </trkpt>
      <trkpt lat="43.62633" lon="5.60373">
        <ele>285.20001220703</ele>
        <time>2013-03-23T07:36:40.000Z</time>
      </trkpt>
      <trkpt lat="43.62614" lon="5.60339">
        <ele>287.79998779297</ele>
        <time>2013-03-23T07:36:50.000Z</time>
      </trkpt>
      <trkpt lat="43.62601" lon="5.60298">
        <ele>290.20001220703</ele>
        <time>2013-03-23T07:37:02.000Z</time>
      </trkpt>
      <trkpt lat="43.62581" lon="5.60288">
        <ele>291.20001220703</ele>
        <time>2013-03-23T07:37:11.000Z</time>
      </trkpt>
      <trkpt lat="43.62562" lon="5.60277">
        <ele>292.20001220703</ele>
        <time>2013-03-23T07:37:20.000Z</time>
      </trkpt>
      <trkpt lat="43.62546" lon="5.60255">
        <ele>293.60000610352</ele>
        <time>2013-03-23T07:37:31.000Z</time>
      </trkpt>
      <trkpt lat="43.62526" lon="5.60233">
        <ele>295</ele>
        <time>2013-03-23T07:37:41.000Z</time>
      </trkpt>
      <trkpt lat="43.62508" lon="5.60209">
        <ele>295.79998779297</ele>
        <time>2013-03-23T07:37:52.000Z</time>
      </trkpt>
      <trkpt lat="43.62504" lon="5.60202">
        <ele>296</ele>
        <time>2013-03-23T07:37:55.000Z</time>
      </trkpt>
      <trkpt lat="43.62502" lon="5.602">
        <ele>296.20001220703</ele>
        <time>2013-03-23T07:37:56.000Z</time>
      </trkpt>
      <trkpt lat="43.6249" lon="5.60172">
        <ele>296.60000610352</ele>
        <time>2013-03-23T07:38:07.000Z</time>
      </trkpt>
      <trkpt lat="43.62487" lon="5.60138">
        <ele>297.60000610352</ele>
        <time>2013-03-23T07:38:17.000Z</time>
      </trkpt>
      <trkpt lat="43.62493" lon="5.60101">
        <ele>299</ele>
        <time>2013-03-23T07:38:28.000Z</time>
      </trkpt>
      <trkpt lat="43.62494" lon="5.60081">
        <ele>299.39999389648</ele>
        <time>2013-03-23T07:38:32.000Z</time>
      </trkpt>
      <trkpt lat="43.62491" lon="5.60075">
        <ele>299.20001220703</ele>
        <time>2013-03-23T07:38:33.000Z</time>
      </trkpt>
      <trkpt lat="43.6249" lon="5.6007">
        <ele>299</ele>
        <time>2013-03-23T07:38:34.000Z</time>
      </trkpt>
      <trkpt lat="43.62489" lon="5.60065">
        <ele>298.79998779297</ele>
        <time>2013-03-23T07:38:35.000Z</time>
      </trkpt>
      <trkpt lat="43.62489" lon="5.6006">
        <ele>298.60000610352</ele>
        <time>2013-03-23T07:38:36.000Z</time>
      </trkpt>
      <trkpt lat="43.62488" lon="5.60055">
        <ele>298.39999389648</ele>
        <time>2013-03-23T07:38:37.000Z</time>
      </trkpt>
      <trkpt lat="43.62487" lon="5.6005">
        <ele>298.20001220703</ele>
        <time>2013-03-23T07:38:38.000Z</time>
      </trkpt>
      <trkpt lat="43.62485" lon="5.60046">
        <ele>298</ele>
        <time>2013-03-23T07:38:39.000Z</time>
      </trkpt>
      <trkpt lat="43.62484" lon="5.6004">
        <ele>297.60000610352</ele>
        <time>2013-03-23T07:38:40.000Z</time>
      </trkpt>
      <trkpt lat="43.62482" lon="5.60034">
        <ele>297.39999389648</ele>
        <time>2013-03-23T07:38:41.000Z</time>
      </trkpt>
      <trkpt lat="43.62481" lon="5.60027">
        <ele>297.20001220703</ele>
        <time>2013-03-23T07:38:42.000Z</time>
      </trkpt>
      <trkpt lat="43.6248" lon="5.6002">
        <ele>296.79998779297</ele>
        <time>2013-03-23T07:38:43.000Z</time>
      </trkpt>
      <trkpt lat="43.62481" lon="5.60013">
        <ele>296.60000610352</ele>
        <time>2013-03-23T07:38:44.000Z</time>
      </trkpt>
      <trkpt lat="43.62483" lon="5.60006">
        <ele>296.60000610352</ele>
        <time>2013-03-23T07:38:45.000Z</time>
      </trkpt>
      <trkpt lat="43.62485" lon="5.6">
        <ele>296.60000610352</ele>
        <time>2013-03-23T07:38:46.000Z</time>
      </trkpt>
      <trkpt lat="43.62492" lon="5.59982">
        <ele>297</ele>
        <time>2013-03-23T07:38:49.000Z</time>
      </trkpt>
      <trkpt lat="43.62493" lon="5.59976">
        <ele>297</ele>
        <time>2013-03-23T07:38:50.000Z</time>
      </trkpt>
      <trkpt lat="43.62494" lon="5.5997">
        <ele>297</ele>
        <time>2013-03-23T07:38:51.000Z</time>
      </trkpt>
      <trkpt lat="43.62495" lon="5.59963">
        <ele>297</ele>
        <time>2013-03-23T07:38:52.000Z</time>
      </trkpt>
      <trkpt lat="43.62495" lon="5.59957">
        <ele>297</ele>
        <time>2013-03-23T07:38:53.000Z</time>
      </trkpt>
      <trkpt lat="43.62494" lon="5.59951">
        <ele>296.79998779297</ele>
        <time>2013-03-23T07:38:54.000Z</time>
      </trkpt>
      <trkpt lat="43.62501" lon="5.59889">
        <ele>296.60000610352</ele>
        <time>2013-03-23T07:39:05.000Z</time>
      </trkpt>
      <trkpt lat="43.62512" lon="5.59858">
        <ele>296.79998779297</ele>
        <time>2013-03-23T07:39:12.000Z</time>
      </trkpt>
      <trkpt lat="43.62512" lon="5.59853">
        <ele>296.79998779297</ele>
        <time>2013-03-23T07:39:13.000Z</time>
      </trkpt>
      <trkpt lat="43.62511" lon="5.59848">
        <ele>296.60000610352</ele>
        <time>2013-03-23T07:39:14.000Z</time>
      </trkpt>
      <trkpt lat="43.62505" lon="5.59834">
        <ele>296.20001220703</ele>
        <time>2013-03-23T07:39:17.000Z</time>
      </trkpt>
      <trkpt lat="43.62501" lon="5.59832">
        <ele>296</ele>
        <time>2013-03-23T07:39:18.000Z</time>
      </trkpt>
      <trkpt lat="43.62496" lon="5.59831">
        <ele>295.60000610352</ele>
        <time>2013-03-23T07:39:19.000Z</time>
      </trkpt>
      <trkpt lat="43.6248" lon="5.59829">
        <ele>294</ele>
        <time>2013-03-23T07:39:23.000Z</time>
      </trkpt>
      <trkpt lat="43.62478" lon="5.59825">
        <ele>293.79998779297</ele>
        <time>2013-03-23T07:39:24.000Z</time>
      </trkpt>
      <trkpt lat="43.62467" lon="5.59807">
        <ele>292.39999389648</ele>
        <time>2013-03-23T07:39:29.000Z</time>
      </trkpt>
      <trkpt lat="43.62462" lon="5.59805">
        <ele>292</ele>
        <time>2013-03-23T07:39:30.000Z</time>
      </trkpt>
      <trkpt lat="43.62457" lon="5.59802">
        <ele>291.39999389648</ele>
        <time>2013-03-23T07:39:31.000Z</time>
      </trkpt>
      <trkpt lat="43.62452" lon="5.59797">
        <ele>290.79998779297</ele>
        <time>2013-03-23T07:39:32.000Z</time>
      </trkpt>
      <trkpt lat="43.62447" lon="5.59793">
        <ele>290.39999389648</ele>
        <time>2013-03-23T07:39:33.000Z</time>
      </trkpt>
      <trkpt lat="43.62392" lon="5.59729">
        <ele>290.20001220703</ele>
        <time>2013-03-23T07:39:44.000Z</time>
      </trkpt>
      <trkpt lat="43.62369" lon="5.59704">
        <ele>292</ele>
        <time>2013-03-23T07:39:49.000Z</time>
      </trkpt>
      <trkpt lat="43.62364" lon="5.59701">
        <ele>292.39999389648</ele>
        <time>2013-03-23T07:39:50.000Z</time>
      </trkpt>
      <trkpt lat="43.62359" lon="5.59698">
        <ele>292.60000610352</ele>
        <time>2013-03-23T07:39:51.000Z</time>
      </trkpt>
      <trkpt lat="43.62302" lon="5.59663">
        <ele>293.60000610352</ele>
        <time>2013-03-23T07:40:03.000Z</time>
      </trkpt>
      <trkpt lat="43.62261" lon="5.59627">
        <ele>299</ele>
        <time>2013-03-23T07:40:15.000Z</time>
      </trkpt>
      <trkpt lat="43.62231" lon="5.59603">
        <ele>301.39999389648</ele>
        <time>2013-03-23T07:40:25.000Z</time>
      </trkpt>
      <trkpt lat="43.62197" lon="5.59585">
        <ele>302.20001220703</ele>
        <time>2013-03-23T07:40:37.000Z</time>
      </trkpt>
      <trkpt lat="43.62159" lon="5.59595">
        <ele>300.20001220703</ele>
        <time>2013-03-23T07:40:48.000Z</time>
      </trkpt>
      <trkpt lat="43.62151" lon="5.59596">
        <ele>300.39999389648</ele>
        <time>2013-03-23T07:40:50.000Z</time>
      </trkpt>
      <trkpt lat="43.62147" lon="5.59595">
        <ele>300.39999389648</ele>
        <time>2013-03-23T07:40:51.000Z</time>
      </trkpt>
      <trkpt lat="43.62097" lon="5.59606">
        <ele>300.39999389648</ele>
        <time>2013-03-23T07:41:04.000Z</time>
      </trkpt>
      <trkpt lat="43.62061" lon="5.59608">
        <ele>300.79998779297</ele>
        <time>2013-03-23T07:41:14.000Z</time>
      </trkpt>
      <trkpt lat="43.62016" lon="5.59606">
        <ele>301.79998779297</ele>
        <time>2013-03-23T07:41:27.000Z</time>
      </trkpt>
      <trkpt lat="43.61983" lon="5.59604">
        <ele>302.20001220703</ele>
        <time>2013-03-23T07:41:37.000Z</time>
      </trkpt>
      <trkpt lat="43.61942" lon="5.59598">
        <ele>302.39999389648</ele>
        <time>2013-03-23T07:41:50.000Z</time>
      </trkpt>
      <trkpt lat="43.61915" lon="5.59599">
        <ele>302.39999389648</ele>
        <time>2013-03-23T07:41:59.000Z</time>
      </trkpt>
      <trkpt lat="43.61888" lon="5.59609">
        <ele>306</ele>
        <time>2013-03-23T07:42:09.000Z</time>
      </trkpt>
      <trkpt lat="43.61886" lon="5.59607">
        <ele>306.39999389648</ele>
        <time>2013-03-23T07:42:10.000Z</time>
      </trkpt>
      <trkpt lat="43.61886" lon="5.59604">
        <ele>306.79998779297</ele>
        <time>2013-03-23T07:42:11.000Z</time>
      </trkpt>
      <trkpt lat="43.61886" lon="5.596">
        <ele>307.20001220703</ele>
        <time>2013-03-23T07:42:12.000Z</time>
      </trkpt>
      <trkpt lat="43.61887" lon="5.59597">
        <ele>307.20001220703</ele>
        <time>2013-03-23T07:42:13.000Z</time>
      </trkpt>
      <trkpt lat="43.61889" lon="5.59595">
        <ele>307.20001220703</ele>
        <time>2013-03-23T07:42:14.000Z</time>
      </trkpt>
      <trkpt lat="43.6189" lon="5.59593">
        <ele>307</ele>
        <time>2013-03-23T07:42:15.000Z</time>
      </trkpt>
      <trkpt lat="43.61906" lon="5.59569">
        <ele>306.79998779297</ele>
        <time>2013-03-23T07:42:24.000Z</time>
      </trkpt>
      <trkpt lat="43.61914" lon="5.59527">
        <ele>311.60000610352</ele>
        <time>2013-03-23T07:42:36.000Z</time>
      </trkpt>
      <trkpt lat="43.61916" lon="5.59492">
        <ele>315.79998779297</ele>
        <time>2013-03-23T07:42:46.000Z</time>
      </trkpt>
      <trkpt lat="43.61933" lon="5.59466">
        <ele>319.39999389648</ele>
        <time>2013-03-23T07:42:57.000Z</time>
      </trkpt>
      <trkpt lat="43.61948" lon="5.59462">
        <ele>320.79998779297</ele>
        <time>2013-03-23T07:43:04.000Z</time>
      </trkpt>
      <trkpt lat="43.6195" lon="5.59462">
        <ele>320.79998779297</ele>
        <time>2013-03-23T07:43:05.000Z</time>
      </trkpt>
      <trkpt lat="43.6196" lon="5.5946">
        <ele>321.79998779297</ele>
        <time>2013-03-23T07:43:10.000Z</time>
      </trkpt>
      <trkpt lat="43.61961" lon="5.59459">
        <ele>322</ele>
        <time>2013-03-23T07:43:11.000Z</time>
      </trkpt>
      <trkpt lat="43.61962" lon="5.59457">
        <ele>322.39999389648</ele>
        <time>2013-03-23T07:43:12.000Z</time>
      </trkpt>
      <trkpt lat="43.61963" lon="5.59454">
        <ele>322.60000610352</ele>
        <time>2013-03-23T07:43:13.000Z</time>
      </trkpt>
      <trkpt lat="43.61963" lon="5.59452">
        <ele>323</ele>
        <time>2013-03-23T07:43:14.000Z</time>
      </trkpt>
      <trkpt lat="43.61963" lon="5.5945">
        <ele>323.20001220703</ele>
        <time>2013-03-23T07:43:15.000Z</time>
      </trkpt>
      <trkpt lat="43.61962" lon="5.59447">
        <ele>323.39999389648</ele>
        <time>2013-03-23T07:43:16.000Z</time>
      </trkpt>
      <trkpt lat="43.61961" lon="5.59445">
        <ele>323.60000610352</ele>
        <time>2013-03-23T07:43:17.000Z</time>
      </trkpt>
      <trkpt lat="43.61961" lon="5.59442">
        <ele>323.79998779297</ele>
        <time>2013-03-23T07:43:18.000Z</time>
      </trkpt>
      <trkpt lat="43.6196" lon="5.5944">
        <ele>324</ele>
        <time>2013-03-23T07:43:19.000Z</time>
      </trkpt>
      <trkpt lat="43.6196" lon="5.59437">
        <ele>324.20001220703</ele>
        <time>2013-03-23T07:43:20.000Z</time>
      </trkpt>
      <trkpt lat="43.61959" lon="5.59434">
        <ele>324.60000610352</ele>
        <time>2013-03-23T07:43:21.000Z</time>
      </trkpt>
      <trkpt lat="43.61958" lon="5.5941">
        <ele>326.79998779297</ele>
        <time>2013-03-23T07:43:30.000Z</time>
      </trkpt>
      <trkpt lat="43.61962" lon="5.59386">
        <ele>328.60000610352</ele>
        <time>2013-03-23T07:43:40.000Z</time>
      </trkpt>
      <trkpt lat="43.61964" lon="5.59367">
        <ele>329.79998779297</ele>
        <time>2013-03-23T07:43:47.000Z</time>
      </trkpt>
      <trkpt lat="43.61958" lon="5.59338">
        <ele>331</ele>
        <time>2013-03-23T07:43:56.000Z</time>
      </trkpt>
      <trkpt lat="43.61962" lon="5.59286">
        <ele>334.20001220703</ele>
        <time>2013-03-23T07:44:09.000Z</time>
      </trkpt>
      <trkpt lat="43.61971" lon="5.59263">
        <ele>335.60000610352</ele>
        <time>2013-03-23T07:44:17.000Z</time>
      </trkpt>
      <trkpt lat="43.61981" lon="5.59254">
        <ele>336.20001220703</ele>
        <time>2013-03-23T07:44:23.000Z</time>
      </trkpt>
      <trkpt lat="43.61983" lon="5.59254">
        <ele>336.39999389648</ele>
        <time>2013-03-23T07:44:24.000Z</time>
      </trkpt>
      <trkpt lat="43.61985" lon="5.59254">
        <ele>336.39999389648</ele>
        <time>2013-03-23T07:44:25.000Z</time>
      </trkpt>
      <trkpt lat="43.61987" lon="5.59251">
        <ele>336.60000610352</ele>
        <time>2013-03-23T07:44:27.000Z</time>
      </trkpt>
      <trkpt lat="43.61989" lon="5.5925">
        <ele>336.60000610352</ele>
        <time>2013-03-23T07:44:28.000Z</time>
      </trkpt>
      <trkpt lat="43.6199" lon="5.59248">
        <ele>336.60000610352</ele>
        <time>2013-03-23T07:44:29.000Z</time>
      </trkpt>
      <trkpt lat="43.61991" lon="5.59247">
        <ele>336.79998779297</ele>
        <time>2013-03-23T07:44:30.000Z</time>
      </trkpt>
      <trkpt lat="43.61993" lon="5.59245">
        <ele>336.79998779297</ele>
        <time>2013-03-23T07:44:31.000Z</time>
      </trkpt>
      <trkpt lat="43.61994" lon="5.59243">
        <ele>336.79998779297</ele>
        <time>2013-03-23T07:44:32.000Z</time>
      </trkpt>
      <trkpt lat="43.61994" lon="5.59238">
        <ele>336.79998779297</ele>
        <time>2013-03-23T07:44:34.000Z</time>
      </trkpt>
      <trkpt lat="43.61994" lon="5.59235">
        <ele>336.79998779297</ele>
        <time>2013-03-23T07:44:35.000Z</time>
      </trkpt>
      <trkpt lat="43.61988" lon="5.59204">
        <ele>337.20001220703</ele>
        <time>2013-03-23T07:44:45.000Z</time>
      </trkpt>
      <trkpt lat="43.61965" lon="5.59185">
        <ele>338.39999389648</ele>
        <time>2013-03-23T07:44:55.000Z</time>
      </trkpt>
      <trkpt lat="43.61957" lon="5.59175">
        <ele>339.20001220703</ele>
        <time>2013-03-23T07:44:59.000Z</time>
      </trkpt>
      <trkpt lat="43.61928" lon="5.59148">
        <ele>341.79998779297</ele>
        <time>2013-03-23T07:45:11.000Z</time>
      </trkpt>
      <trkpt lat="43.61898" lon="5.59136">
        <ele>344.79998779297</ele>
        <time>2013-03-23T07:45:22.000Z</time>
      </trkpt>
      <trkpt lat="43.61879" lon="5.59133">
        <ele>346.79998779297</ele>
        <time>2013-03-23T07:45:29.000Z</time>
      </trkpt>
      <trkpt lat="43.61873" lon="5.59129">
        <ele>347.39999389648</ele>
        <time>2013-03-23T07:45:31.000Z</time>
      </trkpt>
      <trkpt lat="43.6186" lon="5.59107">
        <ele>349.20001220703</ele>
        <time>2013-03-23T07:45:40.000Z</time>
      </trkpt>
      <trkpt lat="43.61856" lon="5.591">
        <ele>349.60000610352</ele>
        <time>2013-03-23T07:45:43.000Z</time>
      </trkpt>
      <trkpt lat="43.61854" lon="5.59099">
        <ele>349.79998779297</ele>
        <time>2013-03-23T07:45:44.000Z</time>
      </trkpt>
      <trkpt lat="43.61852" lon="5.59098">
        <ele>350</ele>
        <time>2013-03-23T07:45:45.000Z</time>
      </trkpt>
      <trkpt lat="43.6185" lon="5.59096">
        <ele>350.20001220703</ele>
        <time>2013-03-23T07:45:46.000Z</time>
      </trkpt>
      <trkpt lat="43.61848" lon="5.59095">
        <ele>350.60000610352</ele>
        <time>2013-03-23T07:45:47.000Z</time>
      </trkpt>
      <trkpt lat="43.61845" lon="5.59094">
        <ele>350.79998779297</ele>
        <time>2013-03-23T07:45:48.000Z</time>
      </trkpt>
      <trkpt lat="43.61843" lon="5.59094">
        <ele>351</ele>
        <time>2013-03-23T07:45:49.000Z</time>
      </trkpt>
      <trkpt lat="43.61841" lon="5.59093">
        <ele>351.20001220703</ele>
        <time>2013-03-23T07:45:50.000Z</time>
      </trkpt>
      <trkpt lat="43.61838" lon="5.59093">
        <ele>351.39999389648</ele>
        <time>2013-03-23T07:45:51.000Z</time>
      </trkpt>
      <trkpt lat="43.61836" lon="5.59092">
        <ele>351.60000610352</ele>
        <time>2013-03-23T07:45:52.000Z</time>
      </trkpt>
      <trkpt lat="43.61834" lon="5.59092">
        <ele>351.79998779297</ele>
        <time>2013-03-23T07:45:53.000Z</time>
      </trkpt>
      <trkpt lat="43.61809" lon="5.59081">
        <ele>353.39999389648</ele>
        <time>2013-03-23T07:46:05.000Z</time>
      </trkpt>
      <trkpt lat="43.61786" lon="5.59072">
        <ele>354.60000610352</ele>
        <time>2013-03-23T07:46:16.000Z</time>
      </trkpt>
      <trkpt lat="43.61755" lon="5.59056">
        <ele>356</ele>
        <time>2013-03-23T07:46:28.000Z</time>
      </trkpt>
      <trkpt lat="43.61736" lon="5.5903">
        <ele>356</ele>
        <time>2013-03-23T07:46:39.000Z</time>
      </trkpt>
      <trkpt lat="43.61711" lon="5.59002">
        <ele>356.79998779297</ele>
        <time>2013-03-23T07:46:49.000Z</time>
      </trkpt>
      <trkpt lat="43.61679" lon="5.58991">
        <ele>358.39999389648</ele>
        <time>2013-03-23T07:47:01.000Z</time>
      </trkpt>
      <trkpt lat="43.61654" lon="5.58992">
        <ele>360.39999389648</ele>
        <time>2013-03-23T07:47:11.000Z</time>
      </trkpt>
      <trkpt lat="43.61623" lon="5.58995">
        <ele>362.39999389648</ele>
        <time>2013-03-23T07:47:23.000Z</time>
      </trkpt>
      <trkpt lat="43.61595" lon="5.58996">
        <ele>364</ele>
        <time>2013-03-23T07:47:34.000Z</time>
      </trkpt>
      <trkpt lat="43.61571" lon="5.58985">
        <ele>363.60000610352</ele>
        <time>2013-03-23T07:47:45.000Z</time>
      </trkpt>
      <trkpt lat="43.6155" lon="5.5897">
        <ele>363</ele>
        <time>2013-03-23T07:47:55.000Z</time>
      </trkpt>
      <trkpt lat="43.61527" lon="5.58963">
        <ele>363.60000610352</ele>
        <time>2013-03-23T07:48:06.000Z</time>
      </trkpt>
      <trkpt lat="43.61505" lon="5.58949">
        <ele>364.79998779297</ele>
        <time>2013-03-23T07:48:16.000Z</time>
      </trkpt>
      <trkpt lat="43.61476" lon="5.58935">
        <ele>367.39999389648</ele>
        <time>2013-03-23T07:48:29.000Z</time>
      </trkpt>
      <trkpt lat="43.61449" lon="5.58929">
        <ele>369.39999389648</ele>
        <time>2013-03-23T07:48:41.000Z</time>
      </trkpt>
      <trkpt lat="43.61428" lon="5.58926">
        <ele>371</ele>
        <time>2013-03-23T07:48:51.000Z</time>
      </trkpt>
      <trkpt lat="43.61402" lon="5.58914">
        <ele>374</ele>
        <time>2013-03-23T07:49:03.000Z</time>
      </trkpt>
      <trkpt lat="43.61384" lon="5.58889">
        <ele>376.79998779297</ele>
        <time>2013-03-23T07:49:15.000Z</time>
      </trkpt>
      <trkpt lat="43.61365" lon="5.58872">
        <ele>379.60000610352</ele>
        <time>2013-03-23T07:49:26.000Z</time>
      </trkpt>
      <trkpt lat="43.61347" lon="5.58868">
        <ele>382</ele>
        <time>2013-03-23T07:49:35.000Z</time>
      </trkpt>
      <trkpt lat="43.61323" lon="5.58858">
        <ele>385.20001220703</ele>
        <time>2013-03-23T07:49:47.000Z</time>
      </trkpt>
      <trkpt lat="43.61298" lon="5.58849">
        <ele>388.60000610352</ele>
        <time>2013-03-23T07:49:59.000Z</time>
      </trkpt>
      <trkpt lat="43.61272" lon="5.58837">
        <ele>392.60000610352</ele>
        <time>2013-03-23T07:50:12.000Z</time>
      </trkpt>
      <trkpt lat="43.61257" lon="5.58825">
        <ele>394.60000610352</ele>
        <time>2013-03-23T07:50:21.000Z</time>
      </trkpt>
      <trkpt lat="43.61243" lon="5.58806">
        <ele>395.39999389648</ele>
        <time>2013-03-23T07:50:31.000Z</time>
      </trkpt>
      <trkpt lat="43.61218" lon="5.58794">
        <ele>397</ele>
        <time>2013-03-23T07:50:44.000Z</time>
      </trkpt>
      <trkpt lat="43.61197" lon="5.58789">
        <ele>398.60000610352</ele>
        <time>2013-03-23T07:50:54.000Z</time>
      </trkpt>
      <trkpt lat="43.61173" lon="5.58771">
        <ele>400.79998779297</ele>
        <time>2013-03-23T07:51:07.000Z</time>
      </trkpt>
      <trkpt lat="43.61151" lon="5.58761">
        <ele>402.79998779297</ele>
        <time>2013-03-23T07:51:18.000Z</time>
      </trkpt>
      <trkpt lat="43.61122" lon="5.5874">
        <ele>406.60000610352</ele>
        <time>2013-03-23T07:51:33.000Z</time>
      </trkpt>
      <trkpt lat="43.61102" lon="5.58729">
        <ele>409</ele>
        <time>2013-03-23T07:51:44.000Z</time>
      </trkpt>
      <trkpt lat="43.61083" lon="5.58717">
        <ele>411.79998779297</ele>
        <time>2013-03-23T07:51:56.000Z</time>
      </trkpt>
      <trkpt lat="43.61077" lon="5.5871">
        <ele>412.79998779297</ele>
        <time>2013-03-23T07:52:01.000Z</time>
      </trkpt>
      <trkpt lat="43.61066" lon="5.58694">
        <ele>415</ele>
        <time>2013-03-23T07:52:12.000Z</time>
      </trkpt>
      <trkpt lat="43.61052" lon="5.5868">
        <ele>417.79998779297</ele>
        <time>2013-03-23T07:52:24.000Z</time>
      </trkpt>
      <trkpt lat="43.61048" lon="5.58677">
        <ele>418.79998779297</ele>
        <time>2013-03-23T07:52:27.000Z</time>
      </trkpt>
      <trkpt lat="43.61035" lon="5.58661">
        <ele>422.39999389648</ele>
        <time>2013-03-23T07:52:39.000Z</time>
      </trkpt>
      <trkpt lat="43.61031" lon="5.58647">
        <ele>424</ele>
        <time>2013-03-23T07:52:46.000Z</time>
      </trkpt>
      <trkpt lat="43.61028" lon="5.58622">
        <ele>426.79998779297</ele>
        <time>2013-03-23T07:52:59.000Z</time>
      </trkpt>
      <trkpt lat="43.61018" lon="5.58601">
        <ele>430</ele>
        <time>2013-03-23T07:53:11.000Z</time>
      </trkpt>
      <trkpt lat="43.61016" lon="5.58599">
        <ele>430.60000610352</ele>
        <time>2013-03-23T07:53:13.000Z</time>
      </trkpt>
      <trkpt lat="43.61005" lon="5.58595">
        <ele>433</ele>
        <time>2013-03-23T07:53:21.000Z</time>
      </trkpt>
      <trkpt lat="43.60987" lon="5.58597">
        <ele>434.39999389648</ele>
        <time>2013-03-23T07:53:32.000Z</time>
      </trkpt>
      <trkpt lat="43.60984" lon="5.58599">
        <ele>434.39999389648</ele>
        <time>2013-03-23T07:53:34.000Z</time>
      </trkpt>
      <trkpt lat="43.60983" lon="5.586">
        <ele>434.39999389648</ele>
        <time>2013-03-23T07:53:35.000Z</time>
      </trkpt>
      <trkpt lat="43.60972" lon="5.58605">
        <ele>434.60000610352</ele>
        <time>2013-03-23T07:53:42.000Z</time>
      </trkpt>
      <trkpt lat="43.60971" lon="5.58605">
        <ele>434.60000610352</ele>
        <time>2013-03-23T07:53:43.000Z</time>
      </trkpt>
      <trkpt lat="43.60969" lon="5.58605">
        <ele>434.79998779297</ele>
        <time>2013-03-23T07:53:44.000Z</time>
      </trkpt>
      <trkpt lat="43.60968" lon="5.58606">
        <ele>434.79998779297</ele>
        <time>2013-03-23T07:53:45.000Z</time>
      </trkpt>
      <trkpt lat="43.60966" lon="5.58606">
        <ele>435</ele>
        <time>2013-03-23T07:53:46.000Z</time>
      </trkpt>
      <trkpt lat="43.60965" lon="5.58606">
        <ele>435</ele>
        <time>2013-03-23T07:53:47.000Z</time>
      </trkpt>
      <trkpt lat="43.60952" lon="5.58605">
        <ele>436</ele>
        <time>2013-03-23T07:53:55.000Z</time>
      </trkpt>
      <trkpt lat="43.60938" lon="5.58588">
        <ele>438.79998779297</ele>
        <time>2013-03-23T07:54:06.000Z</time>
      </trkpt>
      <trkpt lat="43.60929" lon="5.58575">
        <ele>441</ele>
        <time>2013-03-23T07:54:14.000Z</time>
      </trkpt>
      <trkpt lat="43.60928" lon="5.58573">
        <ele>441.39999389648</ele>
        <time>2013-03-23T07:54:15.000Z</time>
      </trkpt>
      <trkpt lat="43.60917" lon="5.58556">
        <ele>444.39999389648</ele>
        <time>2013-03-23T07:54:25.000Z</time>
      </trkpt>
      <trkpt lat="43.609" lon="5.58538">
        <ele>446</ele>
        <time>2013-03-23T07:54:37.000Z</time>
      </trkpt>
      <trkpt lat="43.60874" lon="5.58514">
        <ele>447.20001220703</ele>
        <time>2013-03-23T07:54:48.000Z</time>
      </trkpt>
      <trkpt lat="43.60833" lon="5.58474">
        <ele>449.79998779297</ele>
        <time>2013-03-23T07:55:00.000Z</time>
      </trkpt>
      <trkpt lat="43.60825" lon="5.58463">
        <ele>451.39999389648</ele>
        <time>2013-03-23T07:55:02.000Z</time>
      </trkpt>
      <trkpt lat="43.60804" lon="5.58432">
        <ele>454.39999389648</ele>
        <time>2013-03-23T07:55:08.000Z</time>
      </trkpt>
      <trkpt lat="43.60769" lon="5.58408">
        <ele>453.39999389648</ele>
        <time>2013-03-23T07:55:16.000Z</time>
      </trkpt>
      <trkpt lat="43.60765" lon="5.58404">
        <ele>453.20001220703</ele>
        <time>2013-03-23T07:55:17.000Z</time>
      </trkpt>
      <trkpt lat="43.60762" lon="5.58399">
        <ele>453</ele>
        <time>2013-03-23T07:55:18.000Z</time>
      </trkpt>
      <trkpt lat="43.60759" lon="5.58394">
        <ele>453</ele>
        <time>2013-03-23T07:55:19.000Z</time>
      </trkpt>
      <trkpt lat="43.60757" lon="5.58389">
        <ele>452.79998779297</ele>
        <time>2013-03-23T07:55:20.000Z</time>
      </trkpt>
      <trkpt lat="43.60755" lon="5.58384">
        <ele>452.79998779297</ele>
        <time>2013-03-23T07:55:21.000Z</time>
      </trkpt>
      <trkpt lat="43.60747" lon="5.58371">
        <ele>452.79998779297</ele>
        <time>2013-03-23T07:55:28.000Z</time>
      </trkpt>
      <trkpt lat="43.60748" lon="5.58372">
        <ele>452.79998779297</ele>
        <time>2013-03-23T07:55:53.000Z</time>
      </trkpt>
      <trkpt lat="43.60748" lon="5.58372">
        <ele>452.60000610352</ele>
        <time>2013-03-23T07:56:12.000Z</time>
      </trkpt>
      <trkpt lat="43.60747" lon="5.58372">
        <ele>452.79998779297</ele>
        <time>2013-03-23T07:56:38.000Z</time>
      </trkpt>
      <trkpt lat="43.60748" lon="5.58372">
        <ele>452.79998779297</ele>
        <time>2013-03-23T07:57:08.000Z</time>
      </trkpt>
      <trkpt lat="43.60748" lon="5.58374">
        <ele>452.60000610352</ele>
        <time>2013-03-23T07:57:32.000Z</time>
      </trkpt>
      <trkpt lat="43.60749" lon="5.58372">
        <ele>452.60000610352</ele>
        <time>2013-03-23T07:57:54.000Z</time>
      </trkpt>
      <trkpt lat="43.60749" lon="5.58372">
        <ele>452.60000610352</ele>
        <time>2013-03-23T07:57:59.000Z</time>
      </trkpt>
      <trkpt lat="43.60748" lon="5.58367">
        <ele>452.79998779297</ele>
        <time>2013-03-23T07:58:10.000Z</time>
      </trkpt>
      <trkpt lat="43.60747" lon="5.58364">
        <ele>452.79998779297</ele>
        <time>2013-03-23T07:58:11.000Z</time>
      </trkpt>
      <trkpt lat="43.60746" lon="5.58362">
        <ele>453.20001220703</ele>
        <time>2013-03-23T07:58:12.000Z</time>
      </trkpt>
      <trkpt lat="43.60744" lon="5.58359">
        <ele>453.39999389648</ele>
        <time>2013-03-23T07:58:13.000Z</time>
      </trkpt>
      <trkpt lat="43.60741" lon="5.58357">
        <ele>453.79998779297</ele>
        <time>2013-03-23T07:58:14.000Z</time>
      </trkpt>
      <trkpt lat="43.60738" lon="5.58355">
        <ele>454.20001220703</ele>
        <time>2013-03-23T07:58:15.000Z</time>
      </trkpt>
      <trkpt lat="43.60715" lon="5.58324">
        <ele>457.39999389648</ele>
        <time>2013-03-23T07:58:25.000Z</time>
      </trkpt>
      <trkpt lat="43.60697" lon="5.58293">
        <ele>459.79998779297</ele>
        <time>2013-03-23T07:58:34.000Z</time>
      </trkpt>
      <trkpt lat="43.60687" lon="5.58278">
        <ele>461.60000610352</ele>
        <time>2013-03-23T07:58:40.000Z</time>
      </trkpt>
      <trkpt lat="43.60677" lon="5.58246">
        <ele>463.79998779297</ele>
        <time>2013-03-23T07:58:50.000Z</time>
      </trkpt>
      <trkpt lat="43.60677" lon="5.58241">
        <ele>463.79998779297</ele>
        <time>2013-03-23T07:58:52.000Z</time>
      </trkpt>
      <trkpt lat="43.6068" lon="5.58213">
        <ele>463.39999389648</ele>
        <time>2013-03-23T07:59:02.000Z</time>
      </trkpt>
      <trkpt lat="43.60682" lon="5.5819">
        <ele>463.39999389648</ele>
        <time>2013-03-23T07:59:11.000Z</time>
      </trkpt>
      <trkpt lat="43.60681" lon="5.58176">
        <ele>463.60000610352</ele>
        <time>2013-03-23T07:59:21.000Z</time>
      </trkpt>
      <trkpt lat="43.60683" lon="5.58173">
        <ele>463.39999389648</ele>
        <time>2013-03-23T07:59:28.000Z</time>
      </trkpt>
      <trkpt lat="43.60683" lon="5.58171">
        <ele>463.39999389648</ele>
        <time>2013-03-23T07:59:29.000Z</time>
      </trkpt>
      <trkpt lat="43.60671" lon="5.58149">
        <ele>465.20001220703</ele>
        <time>2013-03-23T07:59:38.000Z</time>
      </trkpt>
      <trkpt lat="43.60662" lon="5.58135">
        <ele>465.39999389648</ele>
        <time>2013-03-23T07:59:42.000Z</time>
      </trkpt>
      <trkpt lat="43.6066" lon="5.58132">
        <ele>465.39999389648</ele>
        <time>2013-03-23T07:59:43.000Z</time>
      </trkpt>
      <trkpt lat="43.60658" lon="5.58128">
        <ele>465</ele>
        <time>2013-03-23T07:59:44.000Z</time>
      </trkpt>
      <trkpt lat="43.60656" lon="5.58124">
        <ele>464.79998779297</ele>
        <time>2013-03-23T07:59:45.000Z</time>
      </trkpt>
      <trkpt lat="43.60654" lon="5.5812">
        <ele>464.39999389648</ele>
        <time>2013-03-23T07:59:46.000Z</time>
      </trkpt>
      <trkpt lat="43.6065" lon="5.58111">
        <ele>463.79998779297</ele>
        <time>2013-03-23T07:59:48.000Z</time>
      </trkpt>
      <trkpt lat="43.60648" lon="5.58107">
        <ele>463.20001220703</ele>
        <time>2013-03-23T07:59:49.000Z</time>
      </trkpt>
      <trkpt lat="43.60647" lon="5.58104">
        <ele>463</ele>
        <time>2013-03-23T07:59:50.000Z</time>
      </trkpt>
      <trkpt lat="43.6064" lon="5.58103">
        <ele>462.60000610352</ele>
        <time>2013-03-23T07:59:54.000Z</time>
      </trkpt>
      <trkpt lat="43.60637" lon="5.58103">
        <ele>462.39999389648</ele>
        <time>2013-03-23T07:59:55.000Z</time>
      </trkpt>
      <trkpt lat="43.60634" lon="5.58103">
        <ele>462.39999389648</ele>
        <time>2013-03-23T07:59:56.000Z</time>
      </trkpt>
      <trkpt lat="43.60631" lon="5.58101">
        <ele>462</ele>
        <time>2013-03-23T07:59:57.000Z</time>
      </trkpt>
      <trkpt lat="43.60628" lon="5.58096">
        <ele>461.20001220703</ele>
        <time>2013-03-23T07:59:58.000Z</time>
      </trkpt>
      <trkpt lat="43.60626" lon="5.5809">
        <ele>460.39999389648</ele>
        <time>2013-03-23T07:59:59.000Z</time>
      </trkpt>
      <trkpt lat="43.60623" lon="5.58083">
        <ele>459.20001220703</ele>
        <time>2013-03-23T08:00:00.000Z</time>
      </trkpt>
      <trkpt lat="43.60619" lon="5.58075">
        <ele>458</ele>
        <time>2013-03-23T08:00:01.000Z</time>
      </trkpt>
      <trkpt lat="43.60616" lon="5.58066">
        <ele>456.39999389648</ele>
        <time>2013-03-23T08:00:02.000Z</time>
      </trkpt>
      <trkpt lat="43.60612" lon="5.58056">
        <ele>454.79998779297</ele>
        <time>2013-03-23T08:00:03.000Z</time>
      </trkpt>
      <trkpt lat="43.60607" lon="5.58046">
        <ele>453</ele>
        <time>2013-03-23T08:00:04.000Z</time>
      </trkpt>
      <trkpt lat="43.60597" lon="5.58024">
        <ele>448.60000610352</ele>
        <time>2013-03-23T08:00:06.000Z</time>
      </trkpt>
      <trkpt lat="43.60583" lon="5.57993">
        <ele>442.60000610352</ele>
        <time>2013-03-23T08:00:09.000Z</time>
      </trkpt>
      <trkpt lat="43.60581" lon="5.57981">
        <ele>442.20001220703</ele>
        <time>2013-03-23T08:00:10.000Z</time>
      </trkpt>
      <trkpt lat="43.6058" lon="5.57969">
        <ele>441.20001220703</ele>
        <time>2013-03-23T08:00:11.000Z</time>
      </trkpt>
      <trkpt lat="43.60579" lon="5.57956">
        <ele>440.39999389648</ele>
        <time>2013-03-23T08:00:12.000Z</time>
      </trkpt>
      <trkpt lat="43.60577" lon="5.57944">
        <ele>440</ele>
        <time>2013-03-23T08:00:13.000Z</time>
      </trkpt>
      <trkpt lat="43.60574" lon="5.57932">
        <ele>439.60000610352</ele>
        <time>2013-03-23T08:00:14.000Z</time>
      </trkpt>
      <trkpt lat="43.60569" lon="5.5792">
        <ele>439.60000610352</ele>
        <time>2013-03-23T08:00:15.000Z</time>
      </trkpt>
      <trkpt lat="43.60564" lon="5.57908">
        <ele>439</ele>
        <time>2013-03-23T08:00:16.000Z</time>
      </trkpt>
      <trkpt lat="43.6056" lon="5.57897">
        <ele>438</ele>
        <time>2013-03-23T08:00:17.000Z</time>
      </trkpt>
      <trkpt lat="43.60557" lon="5.57884">
        <ele>436.39999389648</ele>
        <time>2013-03-23T08:00:18.000Z</time>
      </trkpt>
      <trkpt lat="43.60549" lon="5.57848">
        <ele>431.79998779297</ele>
        <time>2013-03-23T08:00:21.000Z</time>
      </trkpt>
      <trkpt lat="43.60545" lon="5.57838">
        <ele>430.39999389648</ele>
        <time>2013-03-23T08:00:22.000Z</time>
      </trkpt>
      <trkpt lat="43.6054" lon="5.57829">
        <ele>429.79998779297</ele>
        <time>2013-03-23T08:00:23.000Z</time>
      </trkpt>
      <trkpt lat="43.60534" lon="5.5782">
        <ele>430.20001220703</ele>
        <time>2013-03-23T08:00:24.000Z</time>
      </trkpt>
      <trkpt lat="43.60526" lon="5.57814">
        <ele>430.39999389648</ele>
        <time>2013-03-23T08:00:25.000Z</time>
      </trkpt>
      <trkpt lat="43.60519" lon="5.57808">
        <ele>430.79998779297</ele>
        <time>2013-03-23T08:00:26.000Z</time>
      </trkpt>
      <trkpt lat="43.60504" lon="5.57797">
        <ele>431.60000610352</ele>
        <time>2013-03-23T08:00:28.000Z</time>
      </trkpt>
      <trkpt lat="43.60498" lon="5.5779">
        <ele>432</ele>
        <time>2013-03-23T08:00:29.000Z</time>
      </trkpt>
      <trkpt lat="43.60494" lon="5.57783">
        <ele>432.20001220703</ele>
        <time>2013-03-23T08:00:30.000Z</time>
      </trkpt>
      <trkpt lat="43.60491" lon="5.57775">
        <ele>432.20001220703</ele>
        <time>2013-03-23T08:00:31.000Z</time>
      </trkpt>
      <trkpt lat="43.60489" lon="5.57767">
        <ele>432.20001220703</ele>
        <time>2013-03-23T08:00:32.000Z</time>
      </trkpt>
      <trkpt lat="43.60489" lon="5.57759">
        <ele>432</ele>
        <time>2013-03-23T08:00:33.000Z</time>
      </trkpt>
      <trkpt lat="43.60486" lon="5.57743">
        <ele>432.79998779297</ele>
        <time>2013-03-23T08:00:38.000Z</time>
      </trkpt>
      <trkpt lat="43.60482" lon="5.57731">
        <ele>434.79998779297</ele>
        <time>2013-03-23T08:00:45.000Z</time>
      </trkpt>
      <trkpt lat="43.60476" lon="5.57719">
        <ele>436.79998779297</ele>
        <time>2013-03-23T08:00:53.000Z</time>
      </trkpt>
      <trkpt lat="43.6046" lon="5.57718">
        <ele>438</ele>
        <time>2013-03-23T08:01:04.000Z</time>
      </trkpt>
      <trkpt lat="43.60446" lon="5.57713">
        <ele>439.60000610352</ele>
        <time>2013-03-23T08:01:14.000Z</time>
      </trkpt>
      <trkpt lat="43.60433" lon="5.57701">
        <ele>441.79998779297</ele>
        <time>2013-03-23T08:01:26.000Z</time>
      </trkpt>
      <trkpt lat="43.6043" lon="5.57697">
        <ele>442.39999389648</ele>
        <time>2013-03-23T08:01:29.000Z</time>
      </trkpt>
      <trkpt lat="43.60429" lon="5.57696">
        <ele>442.60000610352</ele>
        <time>2013-03-23T08:01:30.000Z</time>
      </trkpt>
      <trkpt lat="43.60421" lon="5.57686">
        <ele>444.39999389648</ele>
        <time>2013-03-23T08:01:40.000Z</time>
      </trkpt>
      <trkpt lat="43.60419" lon="5.57684">
        <ele>444.79998779297</ele>
        <time>2013-03-23T08:01:42.000Z</time>
      </trkpt>
      <trkpt lat="43.60417" lon="5.57683">
        <ele>444.79998779297</ele>
        <time>2013-03-23T08:01:43.000Z</time>
      </trkpt>
      <trkpt lat="43.60416" lon="5.57682">
        <ele>445</ele>
        <time>2013-03-23T08:01:44.000Z</time>
      </trkpt>
      <trkpt lat="43.60415" lon="5.57682">
        <ele>445.20001220703</ele>
        <time>2013-03-23T08:01:45.000Z</time>
      </trkpt>
      <trkpt lat="43.60414" lon="5.57681">
        <ele>445.39999389648</ele>
        <time>2013-03-23T08:01:46.000Z</time>
      </trkpt>
      <trkpt lat="43.60413" lon="5.5768">
        <ele>445.60000610352</ele>
        <time>2013-03-23T08:01:47.000Z</time>
      </trkpt>
      <trkpt lat="43.60412" lon="5.57679">
        <ele>445.79998779297</ele>
        <time>2013-03-23T08:01:48.000Z</time>
      </trkpt>
      <trkpt lat="43.60411" lon="5.57678">
        <ele>446</ele>
        <time>2013-03-23T08:01:49.000Z</time>
      </trkpt>
      <trkpt lat="43.6041" lon="5.57677">
        <ele>446.20001220703</ele>
        <time>2013-03-23T08:01:50.000Z</time>
      </trkpt>
      <trkpt lat="43.60409" lon="5.57676">
        <ele>446.39999389648</ele>
        <time>2013-03-23T08:01:51.000Z</time>
      </trkpt>
      <trkpt lat="43.60407" lon="5.57674">
        <ele>446.79998779297</ele>
        <time>2013-03-23T08:01:53.000Z</time>
      </trkpt>
      <trkpt lat="43.60406" lon="5.57674">
        <ele>447</ele>
        <time>2013-03-23T08:01:54.000Z</time>
      </trkpt>
      <trkpt lat="43.60405" lon="5.57673">
        <ele>447.20001220703</ele>
        <time>2013-03-23T08:01:55.000Z</time>
      </trkpt>
      <trkpt lat="43.60404" lon="5.57673">
        <ele>447.39999389648</ele>
        <time>2013-03-23T08:01:56.000Z</time>
      </trkpt>
      <trkpt lat="43.60402" lon="5.57672">
        <ele>447.60000610352</ele>
        <time>2013-03-23T08:01:57.000Z</time>
      </trkpt>
      <trkpt lat="43.60394" lon="5.5766">
        <ele>449.20001220703</ele>
        <time>2013-03-23T08:02:08.000Z</time>
      </trkpt>
      <trkpt lat="43.60388" lon="5.5765">
        <ele>450.39999389648</ele>
        <time>2013-03-23T08:02:18.000Z</time>
      </trkpt>
      <trkpt lat="43.60385" lon="5.57647">
        <ele>450.79998779297</ele>
        <time>2013-03-23T08:02:26.000Z</time>
      </trkpt>
      <trkpt lat="43.60383" lon="5.57643">
        <ele>451.39999389648</ele>
        <time>2013-03-23T08:02:35.000Z</time>
      </trkpt>
      <trkpt lat="43.6038" lon="5.57639">
        <ele>452</ele>
        <time>2013-03-23T08:02:44.000Z</time>
      </trkpt>
      <trkpt lat="43.60378" lon="5.57639">
        <ele>452.20001220703</ele>
        <time>2013-03-23T08:02:53.000Z</time>
      </trkpt>
      <trkpt lat="43.60367" lon="5.57635">
        <ele>453.79998779297</ele>
        <time>2013-03-23T08:03:03.000Z</time>
      </trkpt>
      <trkpt lat="43.60366" lon="5.57635">
        <ele>454</ele>
        <time>2013-03-23T08:03:04.000Z</time>
      </trkpt>
      <trkpt lat="43.60365" lon="5.57633">
        <ele>454.20001220703</ele>
        <time>2013-03-23T08:03:05.000Z</time>
      </trkpt>
      <trkpt lat="43.60364" lon="5.57632">
        <ele>454.39999389648</ele>
        <time>2013-03-23T08:03:06.000Z</time>
      </trkpt>
      <trkpt lat="43.60359" lon="5.57627">
        <ele>455.60000610352</ele>
        <time>2013-03-23T08:03:11.000Z</time>
      </trkpt>
      <trkpt lat="43.60358" lon="5.57627">
        <ele>455.60000610352</ele>
        <time>2013-03-23T08:03:12.000Z</time>
      </trkpt>
      <trkpt lat="43.60347" lon="5.5762">
        <ele>457.79998779297</ele>
        <time>2013-03-23T08:03:22.000Z</time>
      </trkpt>
      <trkpt lat="43.6034" lon="5.57611">
        <ele>459.79998779297</ele>
        <time>2013-03-23T08:03:29.000Z</time>
      </trkpt>
      <trkpt lat="43.6034" lon="5.57609">
        <ele>460.20001220703</ele>
        <time>2013-03-23T08:03:30.000Z</time>
      </trkpt>
      <trkpt lat="43.60337" lon="5.576">
        <ele>461.39999389648</ele>
        <time>2013-03-23T08:03:39.000Z</time>
      </trkpt>
      <trkpt lat="43.60336" lon="5.57599">
        <ele>461.79998779297</ele>
        <time>2013-03-23T08:03:40.000Z</time>
      </trkpt>
      <trkpt lat="43.60335" lon="5.57599">
        <ele>462</ele>
        <time>2013-03-23T08:03:41.000Z</time>
      </trkpt>
      <trkpt lat="43.60323" lon="5.57601">
        <ele>463.79998779297</ele>
        <time>2013-03-23T08:03:52.000Z</time>
      </trkpt>
      <trkpt lat="43.60321" lon="5.57601">
        <ele>464</ele>
        <time>2013-03-23T08:03:54.000Z</time>
      </trkpt>
      <trkpt lat="43.60309" lon="5.57598">
        <ele>466.39999389648</ele>
        <time>2013-03-23T08:04:06.000Z</time>
      </trkpt>
      <trkpt lat="43.60298" lon="5.57588">
        <ele>469.60000610352</ele>
        <time>2013-03-23T08:04:18.000Z</time>
      </trkpt>
      <trkpt lat="43.60296" lon="5.57584">
        <ele>470.60000610352</ele>
        <time>2013-03-23T08:04:28.000Z</time>
      </trkpt>
      <trkpt lat="43.6029" lon="5.57578">
        <ele>471.79998779297</ele>
        <time>2013-03-23T08:04:37.000Z</time>
      </trkpt>
      <trkpt lat="43.6029" lon="5.57577">
        <ele>472</ele>
        <time>2013-03-23T08:04:38.000Z</time>
      </trkpt>
      <trkpt lat="43.6029" lon="5.57575">
        <ele>472</ele>
        <time>2013-03-23T08:04:39.000Z</time>
      </trkpt>
      <trkpt lat="43.60288" lon="5.57572">
        <ele>472.39999389648</ele>
        <time>2013-03-23T08:04:41.000Z</time>
      </trkpt>
      <trkpt lat="43.60287" lon="5.57571">
        <ele>472.60000610352</ele>
        <time>2013-03-23T08:04:42.000Z</time>
      </trkpt>
      <trkpt lat="43.60286" lon="5.5757">
        <ele>472.79998779297</ele>
        <time>2013-03-23T08:04:43.000Z</time>
      </trkpt>
      <trkpt lat="43.60285" lon="5.57569">
        <ele>473</ele>
        <time>2013-03-23T08:04:44.000Z</time>
      </trkpt>
      <trkpt lat="43.60284" lon="5.57568">
        <ele>473.39999389648</ele>
        <time>2013-03-23T08:04:45.000Z</time>
      </trkpt>
      <trkpt lat="43.60283" lon="5.57568">
        <ele>473.60000610352</ele>
        <time>2013-03-23T08:04:46.000Z</time>
      </trkpt>
      <trkpt lat="43.60281" lon="5.57567">
        <ele>473.79998779297</ele>
        <time>2013-03-23T08:04:47.000Z</time>
      </trkpt>
      <trkpt lat="43.60279" lon="5.57565">
        <ele>474.39999389648</ele>
        <time>2013-03-23T08:04:50.000Z</time>
      </trkpt>
      <trkpt lat="43.60278" lon="5.57563">
        <ele>474.60000610352</ele>
        <time>2013-03-23T08:04:51.000Z</time>
      </trkpt>
      <trkpt lat="43.60275" lon="5.57559">
        <ele>475.20001220703</ele>
        <time>2013-03-23T08:04:54.000Z</time>
      </trkpt>
      <trkpt lat="43.60274" lon="5.57558">
        <ele>475.39999389648</ele>
        <time>2013-03-23T08:04:55.000Z</time>
      </trkpt>
      <trkpt lat="43.60273" lon="5.57557">
        <ele>475.60000610352</ele>
        <time>2013-03-23T08:04:56.000Z</time>
      </trkpt>
      <trkpt lat="43.60272" lon="5.57556">
        <ele>475.79998779297</ele>
        <time>2013-03-23T08:04:57.000Z</time>
      </trkpt>
      <trkpt lat="43.60271" lon="5.57555">
        <ele>476</ele>
        <time>2013-03-23T08:04:58.000Z</time>
      </trkpt>
      <trkpt lat="43.6027" lon="5.57554">
        <ele>476.39999389648</ele>
        <time>2013-03-23T08:04:59.000Z</time>
      </trkpt>
      <trkpt lat="43.60268" lon="5.57551">
        <ele>476.79998779297</ele>
        <time>2013-03-23T08:05:01.000Z</time>
      </trkpt>
      <trkpt lat="43.60267" lon="5.5755">
        <ele>477</ele>
        <time>2013-03-23T08:05:02.000Z</time>
      </trkpt>
      <trkpt lat="43.60266" lon="5.57549">
        <ele>477.20001220703</ele>
        <time>2013-03-23T08:05:03.000Z</time>
      </trkpt>
      <trkpt lat="43.60266" lon="5.57548">
        <ele>477.39999389648</ele>
        <time>2013-03-23T08:05:04.000Z</time>
      </trkpt>
      <trkpt lat="43.60265" lon="5.57546">
        <ele>477.60000610352</ele>
        <time>2013-03-23T08:05:05.000Z</time>
      </trkpt>
      <trkpt lat="43.60264" lon="5.57545">
        <ele>477.79998779297</ele>
        <time>2013-03-23T08:05:06.000Z</time>
      </trkpt>
      <trkpt lat="43.60263" lon="5.57543">
        <ele>478</ele>
        <time>2013-03-23T08:05:07.000Z</time>
      </trkpt>
      <trkpt lat="43.60262" lon="5.57542">
        <ele>478.20001220703</ele>
        <time>2013-03-23T08:05:08.000Z</time>
      </trkpt>
      <trkpt lat="43.6026" lon="5.5754">
        <ele>478.60000610352</ele>
        <time>2013-03-23T08:05:10.000Z</time>
      </trkpt>
      <trkpt lat="43.60257" lon="5.57534">
        <ele>479.39999389648</ele>
        <time>2013-03-23T08:05:14.000Z</time>
      </trkpt>
      <trkpt lat="43.60257" lon="5.57533">
        <ele>479.39999389648</ele>
        <time>2013-03-23T08:05:15.000Z</time>
      </trkpt>
      <trkpt lat="43.60256" lon="5.57531">
        <ele>479.60000610352</ele>
        <time>2013-03-23T08:05:16.000Z</time>
      </trkpt>
      <trkpt lat="43.60255" lon="5.5753">
        <ele>479.79998779297</ele>
        <time>2013-03-23T08:05:17.000Z</time>
      </trkpt>
      <trkpt lat="43.60251" lon="5.57525">
        <ele>480.79998779297</ele>
        <time>2013-03-23T08:05:22.000Z</time>
      </trkpt>
      <trkpt lat="43.60251" lon="5.57524">
        <ele>481</ele>
        <time>2013-03-23T08:05:23.000Z</time>
      </trkpt>
      <trkpt lat="43.6025" lon="5.57523">
        <ele>481</ele>
        <time>2013-03-23T08:05:24.000Z</time>
      </trkpt>
      <trkpt lat="43.60249" lon="5.57522">
        <ele>481.20001220703</ele>
        <time>2013-03-23T08:05:25.000Z</time>
      </trkpt>
      <trkpt lat="43.60247" lon="5.57522">
        <ele>481.60000610352</ele>
        <time>2013-03-23T08:05:27.000Z</time>
      </trkpt>
      <trkpt lat="43.60246" lon="5.57522">
        <ele>481.79998779297</ele>
        <time>2013-03-23T08:05:28.000Z</time>
      </trkpt>
      <trkpt lat="43.60245" lon="5.57522">
        <ele>482</ele>
        <time>2013-03-23T08:05:29.000Z</time>
      </trkpt>
      <trkpt lat="43.60243" lon="5.57522">
        <ele>482.20001220703</ele>
        <time>2013-03-23T08:05:30.000Z</time>
      </trkpt>
      <trkpt lat="43.60242" lon="5.57522">
        <ele>482.39999389648</ele>
        <time>2013-03-23T08:05:31.000Z</time>
      </trkpt>
      <trkpt lat="43.60241" lon="5.57521">
        <ele>482.60000610352</ele>
        <time>2013-03-23T08:05:32.000Z</time>
      </trkpt>
      <trkpt lat="43.6024" lon="5.57521">
        <ele>482.79998779297</ele>
        <time>2013-03-23T08:05:33.000Z</time>
      </trkpt>
      <trkpt lat="43.60239" lon="5.5752">
        <ele>483</ele>
        <time>2013-03-23T08:05:34.000Z</time>
      </trkpt>
      <trkpt lat="43.60226" lon="5.57514">
        <ele>485.60000610352</ele>
        <time>2013-03-23T08:05:47.000Z</time>
      </trkpt>
      <trkpt lat="43.60223" lon="5.57511">
        <ele>486.39999389648</ele>
        <time>2013-03-23T08:05:50.000Z</time>
      </trkpt>
      <trkpt lat="43.60218" lon="5.575">
        <ele>488</ele>
        <time>2013-03-23T08:05:57.000Z</time>
      </trkpt>
      <trkpt lat="43.60212" lon="5.57484">
        <ele>490</ele>
        <time>2013-03-23T08:06:08.000Z</time>
      </trkpt>
      <trkpt lat="43.60208" lon="5.57477">
        <ele>491</ele>
        <time>2013-03-23T08:06:13.000Z</time>
      </trkpt>
      <trkpt lat="43.60201" lon="5.57463">
        <ele>493.39999389648</ele>
        <time>2013-03-23T08:06:24.000Z</time>
      </trkpt>
      <trkpt lat="43.60198" lon="5.57452">
        <ele>494.60000610352</ele>
        <time>2013-03-23T08:06:33.000Z</time>
      </trkpt>
      <trkpt lat="43.60193" lon="5.57439">
        <ele>496.20001220703</ele>
        <time>2013-03-23T08:06:44.000Z</time>
      </trkpt>
      <trkpt lat="43.60186" lon="5.57427">
        <ele>498.39999389648</ele>
        <time>2013-03-23T08:06:53.000Z</time>
      </trkpt>
      <trkpt lat="43.60182" lon="5.57421">
        <ele>499.39999389648</ele>
        <time>2013-03-23T08:06:58.000Z</time>
      </trkpt>
      <trkpt lat="43.60174" lon="5.57404">
        <ele>501.60000610352</ele>
        <time>2013-03-23T08:07:08.000Z</time>
      </trkpt>
      <trkpt lat="43.60166" lon="5.57391">
        <ele>503.20001220703</ele>
        <time>2013-03-23T08:07:16.000Z</time>
      </trkpt>
      <trkpt lat="43.60164" lon="5.57391">
        <ele>503.20001220703</ele>
        <time>2013-03-23T08:07:17.000Z</time>
      </trkpt>
      <trkpt lat="43.60162" lon="5.5739">
        <ele>503.20001220703</ele>
        <time>2013-03-23T08:07:18.000Z</time>
      </trkpt>
      <trkpt lat="43.60161" lon="5.57389">
        <ele>503.20001220703</ele>
        <time>2013-03-23T08:07:19.000Z</time>
      </trkpt>
      <trkpt lat="43.6016" lon="5.57387">
        <ele>503.20001220703</ele>
        <time>2013-03-23T08:07:20.000Z</time>
      </trkpt>
      <trkpt lat="43.60148" lon="5.57369">
        <ele>503.60000610352</ele>
        <time>2013-03-23T08:07:32.000Z</time>
      </trkpt>
      <trkpt lat="43.60146" lon="5.57369">
        <ele>503.60000610352</ele>
        <time>2013-03-23T08:07:33.000Z</time>
      </trkpt>
      <trkpt lat="43.60145" lon="5.57368">
        <ele>503.60000610352</ele>
        <time>2013-03-23T08:07:34.000Z</time>
      </trkpt>
      <trkpt lat="43.60144" lon="5.57367">
        <ele>503.79998779297</ele>
        <time>2013-03-23T08:07:35.000Z</time>
      </trkpt>
      <trkpt lat="43.60142" lon="5.57366">
        <ele>503.79998779297</ele>
        <time>2013-03-23T08:07:36.000Z</time>
      </trkpt>
      <trkpt lat="43.60141" lon="5.57366">
        <ele>503.79998779297</ele>
        <time>2013-03-23T08:07:37.000Z</time>
      </trkpt>
      <trkpt lat="43.60133" lon="5.57349">
        <ele>504.20001220703</ele>
        <time>2013-03-23T08:07:47.000Z</time>
      </trkpt>
      <trkpt lat="43.60132" lon="5.57348">
        <ele>504.39999389648</ele>
        <time>2013-03-23T08:07:48.000Z</time>
      </trkpt>
      <trkpt lat="43.60131" lon="5.57346">
        <ele>504.39999389648</ele>
        <time>2013-03-23T08:07:49.000Z</time>
      </trkpt>
      <trkpt lat="43.6013" lon="5.57342">
        <ele>504.60000610352</ele>
        <time>2013-03-23T08:07:51.000Z</time>
      </trkpt>
      <trkpt lat="43.6013" lon="5.5734">
        <ele>504.60000610352</ele>
        <time>2013-03-23T08:07:52.000Z</time>
      </trkpt>
      <trkpt lat="43.6013" lon="5.57338">
        <ele>504.60000610352</ele>
        <time>2013-03-23T08:07:53.000Z</time>
      </trkpt>
      <trkpt lat="43.60129" lon="5.57336">
        <ele>504.79998779297</ele>
        <time>2013-03-23T08:07:54.000Z</time>
      </trkpt>
      <trkpt lat="43.60128" lon="5.57334">
        <ele>504.79998779297</ele>
        <time>2013-03-23T08:07:55.000Z</time>
      </trkpt>
      <trkpt lat="43.60127" lon="5.57332">
        <ele>504.79998779297</ele>
        <time>2013-03-23T08:07:56.000Z</time>
      </trkpt>
      <trkpt lat="43.60126" lon="5.5733">
        <ele>505</ele>
        <time>2013-03-23T08:07:57.000Z</time>
      </trkpt>
      <trkpt lat="43.60123" lon="5.57314">
        <ele>505.39999389648</ele>
        <time>2013-03-23T08:08:05.000Z</time>
      </trkpt>
      <trkpt lat="43.60121" lon="5.57308">
        <ele>505.60000610352</ele>
        <time>2013-03-23T08:08:15.000Z</time>
      </trkpt>
      <trkpt lat="43.60121" lon="5.57307">
        <ele>505.60000610352</ele>
        <time>2013-03-23T08:08:34.000Z</time>
      </trkpt>
      <trkpt lat="43.60122" lon="5.57303">
        <ele>505.60000610352</ele>
        <time>2013-03-23T08:08:53.000Z</time>
      </trkpt>
      <trkpt lat="43.60119" lon="5.57306">
        <ele>505.60000610352</ele>
        <time>2013-03-23T08:09:13.000Z</time>
      </trkpt>
      <trkpt lat="43.60118" lon="5.57301">
        <ele>505.79998779297</ele>
        <time>2013-03-23T08:09:20.000Z</time>
      </trkpt>
      <trkpt lat="43.60118" lon="5.573">
        <ele>505.79998779297</ele>
        <time>2013-03-23T08:09:21.000Z</time>
      </trkpt>
      <trkpt lat="43.60118" lon="5.57298">
        <ele>506</ele>
        <time>2013-03-23T08:09:22.000Z</time>
      </trkpt>
      <trkpt lat="43.60118" lon="5.57296">
        <ele>506</ele>
        <time>2013-03-23T08:09:23.000Z</time>
      </trkpt>
      <trkpt lat="43.60117" lon="5.57294">
        <ele>506</ele>
        <time>2013-03-23T08:09:24.000Z</time>
      </trkpt>
      <trkpt lat="43.60116" lon="5.57292">
        <ele>506.20001220703</ele>
        <time>2013-03-23T08:09:25.000Z</time>
      </trkpt>
      <trkpt lat="43.60115" lon="5.5729">
        <ele>506.20001220703</ele>
        <time>2013-03-23T08:09:26.000Z</time>
      </trkpt>
      <trkpt lat="43.60114" lon="5.57288">
        <ele>506.20001220703</ele>
        <time>2013-03-23T08:09:27.000Z</time>
      </trkpt>
      <trkpt lat="43.60113" lon="5.57286">
        <ele>506.39999389648</ele>
        <time>2013-03-23T08:09:28.000Z</time>
      </trkpt>
      <trkpt lat="43.60112" lon="5.57284">
        <ele>506.39999389648</ele>
        <time>2013-03-23T08:09:29.000Z</time>
      </trkpt>
      <trkpt lat="43.60111" lon="5.57282">
        <ele>506.39999389648</ele>
        <time>2013-03-23T08:09:30.000Z</time>
      </trkpt>
      <trkpt lat="43.6011" lon="5.57279">
        <ele>506.60000610352</ele>
        <time>2013-03-23T08:09:31.000Z</time>
      </trkpt>
      <trkpt lat="43.60109" lon="5.57275">
        <ele>506.60000610352</ele>
        <time>2013-03-23T08:09:32.000Z</time>
      </trkpt>
      <trkpt lat="43.60108" lon="5.57272">
        <ele>506.79998779297</ele>
        <time>2013-03-23T08:09:33.000Z</time>
      </trkpt>
      <trkpt lat="43.60108" lon="5.57269">
        <ele>506.79998779297</ele>
        <time>2013-03-23T08:09:34.000Z</time>
      </trkpt>
      <trkpt lat="43.60103" lon="5.57238">
        <ele>507.60000610352</ele>
        <time>2013-03-23T08:09:43.000Z</time>
      </trkpt>
      <trkpt lat="43.60086" lon="5.57212">
        <ele>509.20001220703</ele>
        <time>2013-03-23T08:09:50.000Z</time>
      </trkpt>
      <trkpt lat="43.60065" lon="5.57179">
        <ele>511</ele>
        <time>2013-03-23T08:10:00.000Z</time>
      </trkpt>
      <trkpt lat="43.60051" lon="5.5717">
        <ele>511.79998779297</ele>
        <time>2013-03-23T08:10:08.000Z</time>
      </trkpt>
      <trkpt lat="43.6003" lon="5.57154">
        <ele>512</ele>
        <time>2013-03-23T08:10:19.000Z</time>
      </trkpt>
      <trkpt lat="43.60009" lon="5.57144">
        <ele>512.40002441406</ele>
        <time>2013-03-23T08:10:30.000Z</time>
      </trkpt>
      <trkpt lat="43.60007" lon="5.57144">
        <ele>512.59997558594</ele>
        <time>2013-03-23T08:10:31.000Z</time>
      </trkpt>
      <trkpt lat="43.60005" lon="5.57144">
        <ele>512.59997558594</ele>
        <time>2013-03-23T08:10:32.000Z</time>
      </trkpt>
      <trkpt lat="43.60003" lon="5.57143">
        <ele>512.59997558594</ele>
        <time>2013-03-23T08:10:33.000Z</time>
      </trkpt>
      <trkpt lat="43.60001" lon="5.57143">
        <ele>512.79998779297</ele>
        <time>2013-03-23T08:10:34.000Z</time>
      </trkpt>
      <trkpt lat="43.59999" lon="5.57142">
        <ele>513</ele>
        <time>2013-03-23T08:10:35.000Z</time>
      </trkpt>
      <trkpt lat="43.59993" lon="5.57136">
        <ele>514</ele>
        <time>2013-03-23T08:10:39.000Z</time>
      </trkpt>
      <trkpt lat="43.59991" lon="5.57136">
        <ele>514.20001220703</ele>
        <time>2013-03-23T08:10:40.000Z</time>
      </trkpt>
      <trkpt lat="43.59989" lon="5.57135">
        <ele>514.59997558594</ele>
        <time>2013-03-23T08:10:41.000Z</time>
      </trkpt>
      <trkpt lat="43.59986" lon="5.57135">
        <ele>515.40002441406</ele>
        <time>2013-03-23T08:10:43.000Z</time>
      </trkpt>
      <trkpt lat="43.59984" lon="5.57135">
        <ele>515.59997558594</ele>
        <time>2013-03-23T08:10:44.000Z</time>
      </trkpt>
      <trkpt lat="43.59979" lon="5.57134">
        <ele>516.79998779297</ele>
        <time>2013-03-23T08:10:48.000Z</time>
      </trkpt>
      <trkpt lat="43.59976" lon="5.57133">
        <ele>517.40002441406</ele>
        <time>2013-03-23T08:10:50.000Z</time>
      </trkpt>
      <trkpt lat="43.59975" lon="5.57132">
        <ele>517.59997558594</ele>
        <time>2013-03-23T08:10:51.000Z</time>
      </trkpt>
      <trkpt lat="43.59974" lon="5.57131">
        <ele>517.79998779297</ele>
        <time>2013-03-23T08:10:52.000Z</time>
      </trkpt>
      <trkpt lat="43.59966" lon="5.57128">
        <ele>519.59997558594</ele>
        <time>2013-03-23T08:10:58.000Z</time>
      </trkpt>
      <trkpt lat="43.59965" lon="5.57127">
        <ele>519.79998779297</ele>
        <time>2013-03-23T08:10:59.000Z</time>
      </trkpt>
      <trkpt lat="43.59963" lon="5.57127">
        <ele>520</ele>
        <time>2013-03-23T08:11:00.000Z</time>
      </trkpt>
      <trkpt lat="43.59962" lon="5.57127">
        <ele>520.40002441406</ele>
        <time>2013-03-23T08:11:01.000Z</time>
      </trkpt>
      <trkpt lat="43.59961" lon="5.57127">
        <ele>520.59997558594</ele>
        <time>2013-03-23T08:11:02.000Z</time>
      </trkpt>
      <trkpt lat="43.59959" lon="5.57126">
        <ele>521</ele>
        <time>2013-03-23T08:11:03.000Z</time>
      </trkpt>
      <trkpt lat="43.59958" lon="5.57126">
        <ele>521.20001220703</ele>
        <time>2013-03-23T08:11:04.000Z</time>
      </trkpt>
      <trkpt lat="43.59956" lon="5.57126">
        <ele>521.59997558594</ele>
        <time>2013-03-23T08:11:05.000Z</time>
      </trkpt>
      <trkpt lat="43.59955" lon="5.57126">
        <ele>521.79998779297</ele>
        <time>2013-03-23T08:11:06.000Z</time>
      </trkpt>
      <trkpt lat="43.59954" lon="5.57126">
        <ele>522.20001220703</ele>
        <time>2013-03-23T08:11:07.000Z</time>
      </trkpt>
      <trkpt lat="43.59952" lon="5.57126">
        <ele>522.59997558594</ele>
        <time>2013-03-23T08:11:08.000Z</time>
      </trkpt>
      <trkpt lat="43.59951" lon="5.57126">
        <ele>522.79998779297</ele>
        <time>2013-03-23T08:11:09.000Z</time>
      </trkpt>
      <trkpt lat="43.59949" lon="5.57126">
        <ele>523.20001220703</ele>
        <time>2013-03-23T08:11:10.000Z</time>
      </trkpt>
      <trkpt lat="43.59947" lon="5.57126">
        <ele>523.59997558594</ele>
        <time>2013-03-23T08:11:11.000Z</time>
      </trkpt>
      <trkpt lat="43.59946" lon="5.57125">
        <ele>523.79998779297</ele>
        <time>2013-03-23T08:11:12.000Z</time>
      </trkpt>
      <trkpt lat="43.59945" lon="5.57125">
        <ele>524.20001220703</ele>
        <time>2013-03-23T08:11:13.000Z</time>
      </trkpt>
      <trkpt lat="43.5994" lon="5.57125">
        <ele>525.20001220703</ele>
        <time>2013-03-23T08:11:16.000Z</time>
      </trkpt>
      <trkpt lat="43.59934" lon="5.57125">
        <ele>526.59997558594</ele>
        <time>2013-03-23T08:11:21.000Z</time>
      </trkpt>
      <trkpt lat="43.59917" lon="5.57128">
        <ele>530.20001220703</ele>
        <time>2013-03-23T08:11:33.000Z</time>
      </trkpt>
      <trkpt lat="43.59914" lon="5.57129">
        <ele>530.40002441406</ele>
        <time>2013-03-23T08:11:35.000Z</time>
      </trkpt>
      <trkpt lat="43.59912" lon="5.57129">
        <ele>530.59997558594</ele>
        <time>2013-03-23T08:11:36.000Z</time>
      </trkpt>
      <trkpt lat="43.59911" lon="5.5713">
        <ele>530.79998779297</ele>
        <time>2013-03-23T08:11:37.000Z</time>
      </trkpt>
      <trkpt lat="43.59894" lon="5.57134">
        <ele>532.20001220703</ele>
        <time>2013-03-23T08:11:49.000Z</time>
      </trkpt>
      <trkpt lat="43.59882" lon="5.57131">
        <ele>533.59997558594</ele>
        <time>2013-03-23T08:11:57.000Z</time>
      </trkpt>
      <trkpt lat="43.59881" lon="5.5713">
        <ele>533.79998779297</ele>
        <time>2013-03-23T08:11:58.000Z</time>
      </trkpt>
      <trkpt lat="43.59879" lon="5.57129">
        <ele>534.20001220703</ele>
        <time>2013-03-23T08:11:59.000Z</time>
      </trkpt>
      <trkpt lat="43.59878" lon="5.57128">
        <ele>534.40002441406</ele>
        <time>2013-03-23T08:12:00.000Z</time>
      </trkpt>
      <trkpt lat="43.59877" lon="5.57126">
        <ele>534.59997558594</ele>
        <time>2013-03-23T08:12:01.000Z</time>
      </trkpt>
      <trkpt lat="43.59876" lon="5.57124">
        <ele>534.79998779297</ele>
        <time>2013-03-23T08:12:02.000Z</time>
      </trkpt>
      <trkpt lat="43.5986" lon="5.57104">
        <ele>538.59997558594</ele>
        <time>2013-03-23T08:12:14.000Z</time>
      </trkpt>
      <trkpt lat="43.59836" lon="5.57089">
        <ele>543</ele>
        <time>2013-03-23T08:12:26.000Z</time>
      </trkpt>
      <trkpt lat="43.598" lon="5.57076">
        <ele>542.59997558594</ele>
        <time>2013-03-23T08:12:40.000Z</time>
      </trkpt>
      <trkpt lat="43.59767" lon="5.57057">
        <ele>542</ele>
        <time>2013-03-23T08:12:53.000Z</time>
      </trkpt>
      <trkpt lat="43.59754" lon="5.57038">
        <ele>542.20001220703</ele>
        <time>2013-03-23T08:13:03.000Z</time>
      </trkpt>
      <trkpt lat="43.59747" lon="5.57031">
        <ele>542.40002441406</ele>
        <time>2013-03-23T08:13:07.000Z</time>
      </trkpt>
      <trkpt lat="43.59726" lon="5.5702">
        <ele>542.40002441406</ele>
        <time>2013-03-23T08:13:18.000Z</time>
      </trkpt>
      <trkpt lat="43.5972" lon="5.57018">
        <ele>542.40002441406</ele>
        <time>2013-03-23T08:13:22.000Z</time>
      </trkpt>
      <trkpt lat="43.59719" lon="5.57018">
        <ele>542.40002441406</ele>
        <time>2013-03-23T08:13:23.000Z</time>
      </trkpt>
      <trkpt lat="43.59717" lon="5.57017">
        <ele>542.40002441406</ele>
        <time>2013-03-23T08:13:24.000Z</time>
      </trkpt>
      <trkpt lat="43.59715" lon="5.57017">
        <ele>542.40002441406</ele>
        <time>2013-03-23T08:13:25.000Z</time>
      </trkpt>
      <trkpt lat="43.59713" lon="5.57017">
        <ele>542.20001220703</ele>
        <time>2013-03-23T08:13:26.000Z</time>
      </trkpt>
      <trkpt lat="43.59709" lon="5.57017">
        <ele>542.20001220703</ele>
        <time>2013-03-23T08:13:29.000Z</time>
      </trkpt>
      <trkpt lat="43.59707" lon="5.57018">
        <ele>542.20001220703</ele>
        <time>2013-03-23T08:13:30.000Z</time>
      </trkpt>
      <trkpt lat="43.59693" lon="5.57025">
        <ele>541.59997558594</ele>
        <time>2013-03-23T08:13:39.000Z</time>
      </trkpt>
      <trkpt lat="43.59677" lon="5.5704">
        <ele>540.59997558594</ele>
        <time>2013-03-23T08:13:51.000Z</time>
      </trkpt>
      <trkpt lat="43.59663" lon="5.57051">
        <ele>540</ele>
        <time>2013-03-23T08:14:02.000Z</time>
      </trkpt>
      <trkpt lat="43.59653" lon="5.57061">
        <ele>539.59997558594</ele>
        <time>2013-03-23T08:14:13.000Z</time>
      </trkpt>
      <trkpt lat="43.59651" lon="5.57062">
        <ele>539.59997558594</ele>
        <time>2013-03-23T08:14:14.000Z</time>
      </trkpt>
      <trkpt lat="43.5965" lon="5.57063">
        <ele>539.40002441406</ele>
        <time>2013-03-23T08:14:15.000Z</time>
      </trkpt>
      <trkpt lat="43.59649" lon="5.57063">
        <ele>539.40002441406</ele>
        <time>2013-03-23T08:14:22.000Z</time>
      </trkpt>
      <trkpt lat="43.59649" lon="5.57062">
        <ele>539.59997558594</ele>
        <time>2013-03-23T08:14:50.000Z</time>
      </trkpt>
      <trkpt lat="43.59648" lon="5.57062">
        <ele>539.59997558594</ele>
        <time>2013-03-23T08:15:12.000Z</time>
      </trkpt>
      <trkpt lat="43.59647" lon="5.57063">
        <ele>539.40002441406</ele>
        <time>2013-03-23T08:15:23.000Z</time>
      </trkpt>
      <trkpt lat="43.59647" lon="5.57064">
        <ele>539.40002441406</ele>
        <time>2013-03-23T08:15:39.000Z</time>
      </trkpt>
      <trkpt lat="43.59644" lon="5.57064">
        <ele>539.40002441406</ele>
        <time>2013-03-23T08:15:43.000Z</time>
      </trkpt>
      <trkpt lat="43.59643" lon="5.57063">
        <ele>539.40002441406</ele>
        <time>2013-03-23T08:15:44.000Z</time>
      </trkpt>
      <trkpt lat="43.59641" lon="5.5706">
        <ele>539.40002441406</ele>
        <time>2013-03-23T08:15:45.000Z</time>
      </trkpt>
      <trkpt lat="43.59641" lon="5.57056">
        <ele>539.59997558594</ele>
        <time>2013-03-23T08:15:46.000Z</time>
      </trkpt>
      <trkpt lat="43.59641" lon="5.57053">
        <ele>539.59997558594</ele>
        <time>2013-03-23T08:15:47.000Z</time>
      </trkpt>
      <trkpt lat="43.59642" lon="5.5705">
        <ele>539.79998779297</ele>
        <time>2013-03-23T08:15:48.000Z</time>
      </trkpt>
      <trkpt lat="43.59642" lon="5.57046">
        <ele>539.79998779297</ele>
        <time>2013-03-23T08:15:49.000Z</time>
      </trkpt>
      <trkpt lat="43.59641" lon="5.57028">
        <ele>540.20001220703</ele>
        <time>2013-03-23T08:15:52.000Z</time>
      </trkpt>
      <trkpt lat="43.59641" lon="5.57014">
        <ele>540.59997558594</ele>
        <time>2013-03-23T08:15:54.000Z</time>
      </trkpt>
      <trkpt lat="43.59639" lon="5.57007">
        <ele>540.79998779297</ele>
        <time>2013-03-23T08:15:55.000Z</time>
      </trkpt>
      <trkpt lat="43.59638" lon="5.56999">
        <ele>540.79998779297</ele>
        <time>2013-03-23T08:15:56.000Z</time>
      </trkpt>
      <trkpt lat="43.59637" lon="5.56991">
        <ele>541</ele>
        <time>2013-03-23T08:15:57.000Z</time>
      </trkpt>
      <trkpt lat="43.59637" lon="5.56983">
        <ele>541.20001220703</ele>
        <time>2013-03-23T08:15:58.000Z</time>
      </trkpt>
      <trkpt lat="43.59637" lon="5.56975">
        <ele>541.40002441406</ele>
        <time>2013-03-23T08:15:59.000Z</time>
      </trkpt>
      <trkpt lat="43.59638" lon="5.56968">
        <ele>541.59997558594</ele>
        <time>2013-03-23T08:16:00.000Z</time>
      </trkpt>
      <trkpt lat="43.59641" lon="5.56925">
        <ele>542.40002441406</ele>
        <time>2013-03-23T08:16:05.000Z</time>
      </trkpt>
      <trkpt lat="43.59642" lon="5.5687">
        <ele>541.40002441406</ele>
        <time>2013-03-23T08:16:11.000Z</time>
      </trkpt>
      <trkpt lat="43.5964" lon="5.56861">
        <ele>541</ele>
        <time>2013-03-23T08:16:12.000Z</time>
      </trkpt>
      <trkpt lat="43.59637" lon="5.56851">
        <ele>540.59997558594</ele>
        <time>2013-03-23T08:16:13.000Z</time>
      </trkpt>
      <trkpt lat="43.59621" lon="5.56808">
        <ele>538</ele>
        <time>2013-03-23T08:16:18.000Z</time>
      </trkpt>
      <trkpt lat="43.59616" lon="5.56788">
        <ele>536.79998779297</ele>
        <time>2013-03-23T08:16:20.000Z</time>
      </trkpt>
      <trkpt lat="43.59612" lon="5.56778">
        <ele>536.20001220703</ele>
        <time>2013-03-23T08:16:21.000Z</time>
      </trkpt>
      <trkpt lat="43.59607" lon="5.56768">
        <ele>535.40002441406</ele>
        <time>2013-03-23T08:16:22.000Z</time>
      </trkpt>
      <trkpt lat="43.59578" lon="5.56723">
        <ele>532.20001220703</ele>
        <time>2013-03-23T08:16:27.000Z</time>
      </trkpt>
      <trkpt lat="43.59573" lon="5.56713">
        <ele>532</ele>
        <time>2013-03-23T08:16:28.000Z</time>
      </trkpt>
      <trkpt lat="43.59569" lon="5.56702">
        <ele>531.79998779297</ele>
        <time>2013-03-23T08:16:29.000Z</time>
      </trkpt>
      <trkpt lat="43.59563" lon="5.56693">
        <ele>531.59997558594</ele>
        <time>2013-03-23T08:16:30.000Z</time>
      </trkpt>
      <trkpt lat="43.59557" lon="5.56685">
        <ele>531.59997558594</ele>
        <time>2013-03-23T08:16:31.000Z</time>
      </trkpt>
      <trkpt lat="43.59547" lon="5.56666">
        <ele>531.40002441406</ele>
        <time>2013-03-23T08:16:33.000Z</time>
      </trkpt>
      <trkpt lat="43.59544" lon="5.56656">
        <ele>531.20001220703</ele>
        <time>2013-03-23T08:16:34.000Z</time>
      </trkpt>
      <trkpt lat="43.59544" lon="5.56645">
        <ele>530.79998779297</ele>
        <time>2013-03-23T08:16:35.000Z</time>
      </trkpt>
      <trkpt lat="43.59546" lon="5.56602">
        <ele>529.79998779297</ele>
        <time>2013-03-23T08:16:39.000Z</time>
      </trkpt>
      <trkpt lat="43.59548" lon="5.56495">
        <ele>524.59997558594</ele>
        <time>2013-03-23T08:16:49.000Z</time>
      </trkpt>
      <trkpt lat="43.59548" lon="5.56473">
        <ele>524</ele>
        <time>2013-03-23T08:16:51.000Z</time>
      </trkpt>
      <trkpt lat="43.59547" lon="5.56462">
        <ele>523.79998779297</ele>
        <time>2013-03-23T08:16:52.000Z</time>
      </trkpt>
      <trkpt lat="43.59545" lon="5.56451">
        <ele>523.59997558594</ele>
        <time>2013-03-23T08:16:53.000Z</time>
      </trkpt>
      <trkpt lat="43.59543" lon="5.56441">
        <ele>523.40002441406</ele>
        <time>2013-03-23T08:16:54.000Z</time>
      </trkpt>
      <trkpt lat="43.59542" lon="5.5643">
        <ele>523.20001220703</ele>
        <time>2013-03-23T08:16:55.000Z</time>
      </trkpt>
      <trkpt lat="43.59541" lon="5.5642">
        <ele>523</ele>
        <time>2013-03-23T08:16:56.000Z</time>
      </trkpt>
      <trkpt lat="43.59541" lon="5.56409">
        <ele>522.59997558594</ele>
        <time>2013-03-23T08:16:57.000Z</time>
      </trkpt>
      <trkpt lat="43.5954" lon="5.56398">
        <ele>522.20001220703</ele>
        <time>2013-03-23T08:16:58.000Z</time>
      </trkpt>
      <trkpt lat="43.59539" lon="5.56377">
        <ele>521.59997558594</ele>
        <time>2013-03-23T08:17:00.000Z</time>
      </trkpt>
      <trkpt lat="43.59541" lon="5.56367">
        <ele>521.20001220703</ele>
        <time>2013-03-23T08:17:01.000Z</time>
      </trkpt>
      <trkpt lat="43.59543" lon="5.56357">
        <ele>520.79998779297</ele>
        <time>2013-03-23T08:17:02.000Z</time>
      </trkpt>
      <trkpt lat="43.59546" lon="5.56348">
        <ele>520.40002441406</ele>
        <time>2013-03-23T08:17:03.000Z</time>
      </trkpt>
      <trkpt lat="43.59547" lon="5.56339">
        <ele>520</ele>
        <time>2013-03-23T08:17:04.000Z</time>
      </trkpt>
      <trkpt lat="43.59548" lon="5.5633">
        <ele>519.59997558594</ele>
        <time>2013-03-23T08:17:05.000Z</time>
      </trkpt>
      <trkpt lat="43.59547" lon="5.56321">
        <ele>519.40002441406</ele>
        <time>2013-03-23T08:17:06.000Z</time>
      </trkpt>
      <trkpt lat="43.59547" lon="5.56312">
        <ele>519</ele>
        <time>2013-03-23T08:17:07.000Z</time>
      </trkpt>
      <trkpt lat="43.59546" lon="5.56302">
        <ele>518.79998779297</ele>
        <time>2013-03-23T08:17:08.000Z</time>
      </trkpt>
      <trkpt lat="43.59544" lon="5.56281">
        <ele>518</ele>
        <time>2013-03-23T08:17:10.000Z</time>
      </trkpt>
      <trkpt lat="43.59544" lon="5.5627">
        <ele>517.59997558594</ele>
        <time>2013-03-23T08:17:11.000Z</time>
      </trkpt>
      <trkpt lat="43.59541" lon="5.56155">
        <ele>514.59997558594</ele>
        <time>2013-03-23T08:17:21.000Z</time>
      </trkpt>
      <trkpt lat="43.59532" lon="5.56066">
        <ele>512</ele>
        <time>2013-03-23T08:17:30.000Z</time>
      </trkpt>
      <trkpt lat="43.5953" lon="5.56046">
        <ele>511.20001220703</ele>
        <time>2013-03-23T08:17:32.000Z</time>
      </trkpt>
      <trkpt lat="43.59526" lon="5.56028">
        <ele>510.60000610352</ele>
        <time>2013-03-23T08:17:34.000Z</time>
      </trkpt>
      <trkpt lat="43.59522" lon="5.56019">
        <ele>510.20001220703</ele>
        <time>2013-03-23T08:17:35.000Z</time>
      </trkpt>
      <trkpt lat="43.59517" lon="5.56012">
        <ele>509.79998779297</ele>
        <time>2013-03-23T08:17:36.000Z</time>
      </trkpt>
      <trkpt lat="43.59511" lon="5.56007">
        <ele>509.39999389648</ele>
        <time>2013-03-23T08:17:37.000Z</time>
      </trkpt>
      <trkpt lat="43.59504" lon="5.56003">
        <ele>509.20001220703</ele>
        <time>2013-03-23T08:17:38.000Z</time>
      </trkpt>
      <trkpt lat="43.59496" lon="5.55999">
        <ele>508.79998779297</ele>
        <time>2013-03-23T08:17:39.000Z</time>
      </trkpt>
      <trkpt lat="43.59473" lon="5.55988">
        <ele>507.60000610352</ele>
        <time>2013-03-23T08:17:42.000Z</time>
      </trkpt>
      <trkpt lat="43.59465" lon="5.55987">
        <ele>507.39999389648</ele>
        <time>2013-03-23T08:17:43.000Z</time>
      </trkpt>
      <trkpt lat="43.59458" lon="5.55988">
        <ele>507</ele>
        <time>2013-03-23T08:17:44.000Z</time>
      </trkpt>
      <trkpt lat="43.5945" lon="5.5599">
        <ele>506.60000610352</ele>
        <time>2013-03-23T08:17:45.000Z</time>
      </trkpt>
      <trkpt lat="43.59443" lon="5.5599">
        <ele>506.39999389648</ele>
        <time>2013-03-23T08:17:46.000Z</time>
      </trkpt>
      <trkpt lat="43.59435" lon="5.55989">
        <ele>506</ele>
        <time>2013-03-23T08:17:47.000Z</time>
      </trkpt>
      <trkpt lat="43.59427" lon="5.55988">
        <ele>505.60000610352</ele>
        <time>2013-03-23T08:17:48.000Z</time>
      </trkpt>
      <trkpt lat="43.59419" lon="5.55987">
        <ele>505.39999389648</ele>
        <time>2013-03-23T08:17:49.000Z</time>
      </trkpt>
      <trkpt lat="43.59377" lon="5.55974">
        <ele>503.60000610352</ele>
        <time>2013-03-23T08:17:54.000Z</time>
      </trkpt>
      <trkpt lat="43.59369" lon="5.55977">
        <ele>503</ele>
        <time>2013-03-23T08:17:55.000Z</time>
      </trkpt>
      <trkpt lat="43.59362" lon="5.55982">
        <ele>502.20001220703</ele>
        <time>2013-03-23T08:17:56.000Z</time>
      </trkpt>
      <trkpt lat="43.59355" lon="5.55989">
        <ele>501.39999389648</ele>
        <time>2013-03-23T08:17:57.000Z</time>
      </trkpt>
      <trkpt lat="43.59349" lon="5.55997">
        <ele>500.20001220703</ele>
        <time>2013-03-23T08:17:58.000Z</time>
      </trkpt>
      <trkpt lat="43.59343" lon="5.56004">
        <ele>499.79998779297</ele>
        <time>2013-03-23T08:17:59.000Z</time>
      </trkpt>
      <trkpt lat="43.59337" lon="5.56008">
        <ele>499.60000610352</ele>
        <time>2013-03-23T08:18:00.000Z</time>
      </trkpt>
      <trkpt lat="43.59331" lon="5.56009">
        <ele>499.39999389648</ele>
        <time>2013-03-23T08:18:01.000Z</time>
      </trkpt>
      <trkpt lat="43.59325" lon="5.56007">
        <ele>499.20001220703</ele>
        <time>2013-03-23T08:18:02.000Z</time>
      </trkpt>
      <trkpt lat="43.59319" lon="5.56005">
        <ele>499.20001220703</ele>
        <time>2013-03-23T08:18:03.000Z</time>
      </trkpt>
      <trkpt lat="43.59314" lon="5.56005">
        <ele>499.20001220703</ele>
        <time>2013-03-23T08:18:04.000Z</time>
      </trkpt>
      <trkpt lat="43.59309" lon="5.56007">
        <ele>499.20001220703</ele>
        <time>2013-03-23T08:18:05.000Z</time>
      </trkpt>
      <trkpt lat="43.59304" lon="5.56013">
        <ele>499.20001220703</ele>
        <time>2013-03-23T08:18:06.000Z</time>
      </trkpt>
      <trkpt lat="43.593" lon="5.56018">
        <ele>499.20001220703</ele>
        <time>2013-03-23T08:18:07.000Z</time>
      </trkpt>
      <trkpt lat="43.59295" lon="5.56023">
        <ele>499</ele>
        <time>2013-03-23T08:18:08.000Z</time>
      </trkpt>
      <trkpt lat="43.59289" lon="5.56028">
        <ele>498.79998779297</ele>
        <time>2013-03-23T08:18:09.000Z</time>
      </trkpt>
      <trkpt lat="43.59261" lon="5.56047">
        <ele>496.60000610352</ele>
        <time>2013-03-23T08:18:14.000Z</time>
      </trkpt>
      <trkpt lat="43.59258" lon="5.56051">
        <ele>496.20001220703</ele>
        <time>2013-03-23T08:18:15.000Z</time>
      </trkpt>
      <trkpt lat="43.59252" lon="5.56062">
        <ele>495</ele>
        <time>2013-03-23T08:18:17.000Z</time>
      </trkpt>
      <trkpt lat="43.59249" lon="5.56066">
        <ele>494.39999389648</ele>
        <time>2013-03-23T08:18:18.000Z</time>
      </trkpt>
      <trkpt lat="43.59244" lon="5.56067">
        <ele>494</ele>
        <time>2013-03-23T08:18:19.000Z</time>
      </trkpt>
      <trkpt lat="43.59239" lon="5.56068">
        <ele>493.60000610352</ele>
        <time>2013-03-23T08:18:20.000Z</time>
      </trkpt>
      <trkpt lat="43.59233" lon="5.56071">
        <ele>493.20001220703</ele>
        <time>2013-03-23T08:18:21.000Z</time>
      </trkpt>
      <trkpt lat="43.59228" lon="5.56072">
        <ele>492.79998779297</ele>
        <time>2013-03-23T08:18:22.000Z</time>
      </trkpt>
      <trkpt lat="43.59222" lon="5.56072">
        <ele>492.60000610352</ele>
        <time>2013-03-23T08:18:23.000Z</time>
      </trkpt>
      <trkpt lat="43.59217" lon="5.56075">
        <ele>492</ele>
        <time>2013-03-23T08:18:24.000Z</time>
      </trkpt>
      <trkpt lat="43.59212" lon="5.56078">
        <ele>491.60000610352</ele>
        <time>2013-03-23T08:18:25.000Z</time>
      </trkpt>
      <trkpt lat="43.59207" lon="5.56078">
        <ele>491.39999389648</ele>
        <time>2013-03-23T08:18:26.000Z</time>
      </trkpt>
      <trkpt lat="43.59203" lon="5.56074">
        <ele>491.60000610352</ele>
        <time>2013-03-23T08:18:27.000Z</time>
      </trkpt>
      <trkpt lat="43.59199" lon="5.56073">
        <ele>491.39999389648</ele>
        <time>2013-03-23T08:18:28.000Z</time>
      </trkpt>
      <trkpt lat="43.59195" lon="5.56073">
        <ele>491.20001220703</ele>
        <time>2013-03-23T08:18:29.000Z</time>
      </trkpt>
      <trkpt lat="43.5919" lon="5.56072">
        <ele>491.20001220703</ele>
        <time>2013-03-23T08:18:30.000Z</time>
      </trkpt>
      <trkpt lat="43.59186" lon="5.56068">
        <ele>491.39999389648</ele>
        <time>2013-03-23T08:18:31.000Z</time>
      </trkpt>
      <trkpt lat="43.59182" lon="5.56065">
        <ele>491.60000610352</ele>
        <time>2013-03-23T08:18:32.000Z</time>
      </trkpt>
      <trkpt lat="43.59178" lon="5.56066">
        <ele>491.20001220703</ele>
        <time>2013-03-23T08:18:33.000Z</time>
      </trkpt>
      <trkpt lat="43.59174" lon="5.56067">
        <ele>491</ele>
        <time>2013-03-23T08:18:34.000Z</time>
      </trkpt>
      <trkpt lat="43.5917" lon="5.56068">
        <ele>490.60000610352</ele>
        <time>2013-03-23T08:18:35.000Z</time>
      </trkpt>
      <trkpt lat="43.59165" lon="5.5607">
        <ele>490.20001220703</ele>
        <time>2013-03-23T08:18:36.000Z</time>
      </trkpt>
      <trkpt lat="43.5916" lon="5.56072">
        <ele>489.60000610352</ele>
        <time>2013-03-23T08:18:37.000Z</time>
      </trkpt>
      <trkpt lat="43.59155" lon="5.56074">
        <ele>488.79998779297</ele>
        <time>2013-03-23T08:18:38.000Z</time>
      </trkpt>
      <trkpt lat="43.5915" lon="5.56077">
        <ele>488</ele>
        <time>2013-03-23T08:18:39.000Z</time>
      </trkpt>
      <trkpt lat="43.59144" lon="5.56079">
        <ele>487.39999389648</ele>
        <time>2013-03-23T08:18:40.000Z</time>
      </trkpt>
      <trkpt lat="43.59137" lon="5.56081">
        <ele>486.60000610352</ele>
        <time>2013-03-23T08:18:41.000Z</time>
      </trkpt>
      <trkpt lat="43.59131" lon="5.56083">
        <ele>486</ele>
        <time>2013-03-23T08:18:42.000Z</time>
      </trkpt>
      <trkpt lat="43.59125" lon="5.56084">
        <ele>485.39999389648</ele>
        <time>2013-03-23T08:18:43.000Z</time>
      </trkpt>
      <trkpt lat="43.59119" lon="5.56085">
        <ele>485.20001220703</ele>
        <time>2013-03-23T08:18:44.000Z</time>
      </trkpt>
      <trkpt lat="43.59114" lon="5.56089">
        <ele>485.20001220703</ele>
        <time>2013-03-23T08:18:45.000Z</time>
      </trkpt>
      <trkpt lat="43.59109" lon="5.56092">
        <ele>485.39999389648</ele>
        <time>2013-03-23T08:18:46.000Z</time>
      </trkpt>
      <trkpt lat="43.59103" lon="5.56094">
        <ele>485.20001220703</ele>
        <time>2013-03-23T08:18:47.000Z</time>
      </trkpt>
      <trkpt lat="43.59098" lon="5.56094">
        <ele>484.60000610352</ele>
        <time>2013-03-23T08:18:48.000Z</time>
      </trkpt>
      <trkpt lat="43.59094" lon="5.56092">
        <ele>484</ele>
        <time>2013-03-23T08:18:49.000Z</time>
      </trkpt>
      <trkpt lat="43.5909" lon="5.56091">
        <ele>483.60000610352</ele>
        <time>2013-03-23T08:18:50.000Z</time>
      </trkpt>
      <trkpt lat="43.59085" lon="5.5609">
        <ele>483</ele>
        <time>2013-03-23T08:18:51.000Z</time>
      </trkpt>
      <trkpt lat="43.5908" lon="5.56087">
        <ele>482.60000610352</ele>
        <time>2013-03-23T08:18:52.000Z</time>
      </trkpt>
      <trkpt lat="43.59075" lon="5.56082">
        <ele>482.39999389648</ele>
        <time>2013-03-23T08:18:53.000Z</time>
      </trkpt>
      <trkpt lat="43.59072" lon="5.56077">
        <ele>482.79998779297</ele>
        <time>2013-03-23T08:18:54.000Z</time>
      </trkpt>
      <trkpt lat="43.59068" lon="5.5607">
        <ele>483.20001220703</ele>
        <time>2013-03-23T08:18:55.000Z</time>
      </trkpt>
      <trkpt lat="43.59065" lon="5.56063">
        <ele>483.60000610352</ele>
        <time>2013-03-23T08:18:56.000Z</time>
      </trkpt>
      <trkpt lat="43.59062" lon="5.56056">
        <ele>483.79998779297</ele>
        <time>2013-03-23T08:18:57.000Z</time>
      </trkpt>
      <trkpt lat="43.59058" lon="5.56048">
        <ele>483.79998779297</ele>
        <time>2013-03-23T08:18:58.000Z</time>
      </trkpt>
      <trkpt lat="43.59054" lon="5.56042">
        <ele>483.60000610352</ele>
        <time>2013-03-23T08:18:59.000Z</time>
      </trkpt>
      <trkpt lat="43.59048" lon="5.56035">
        <ele>483.39999389648</ele>
        <time>2013-03-23T08:19:00.000Z</time>
      </trkpt>
      <trkpt lat="43.59043" lon="5.56028">
        <ele>482.79998779297</ele>
        <time>2013-03-23T08:19:01.000Z</time>
      </trkpt>
      <trkpt lat="43.59038" lon="5.56022">
        <ele>482.20001220703</ele>
        <time>2013-03-23T08:19:02.000Z</time>
      </trkpt>
      <trkpt lat="43.59033" lon="5.56016">
        <ele>481.39999389648</ele>
        <time>2013-03-23T08:19:03.000Z</time>
      </trkpt>
      <trkpt lat="43.59027" lon="5.56013">
        <ele>480.60000610352</ele>
        <time>2013-03-23T08:19:04.000Z</time>
      </trkpt>
      <trkpt lat="43.58996" lon="5.55992">
        <ele>477</ele>
        <time>2013-03-23T08:19:09.000Z</time>
      </trkpt>
      <trkpt lat="43.5899" lon="5.5599">
        <ele>476.79998779297</ele>
        <time>2013-03-23T08:19:10.000Z</time>
      </trkpt>
      <trkpt lat="43.58984" lon="5.55989">
        <ele>476.60000610352</ele>
        <time>2013-03-23T08:19:11.000Z</time>
      </trkpt>
      <trkpt lat="43.58978" lon="5.5599">
        <ele>476.20001220703</ele>
        <time>2013-03-23T08:19:12.000Z</time>
      </trkpt>
      <trkpt lat="43.58972" lon="5.55991">
        <ele>475.60000610352</ele>
        <time>2013-03-23T08:19:13.000Z</time>
      </trkpt>
      <trkpt lat="43.58965" lon="5.55993">
        <ele>475</ele>
        <time>2013-03-23T08:19:14.000Z</time>
      </trkpt>
      <trkpt lat="43.58952" lon="5.55996">
        <ele>474</ele>
        <time>2013-03-23T08:19:16.000Z</time>
      </trkpt>
      <trkpt lat="43.58931" lon="5.55993">
        <ele>473.20001220703</ele>
        <time>2013-03-23T08:19:19.000Z</time>
      </trkpt>
      <trkpt lat="43.58925" lon="5.55989">
        <ele>473.20001220703</ele>
        <time>2013-03-23T08:19:20.000Z</time>
      </trkpt>
      <trkpt lat="43.58919" lon="5.55985">
        <ele>473.20001220703</ele>
        <time>2013-03-23T08:19:21.000Z</time>
      </trkpt>
      <trkpt lat="43.58913" lon="5.55981">
        <ele>472.79998779297</ele>
        <time>2013-03-23T08:19:22.000Z</time>
      </trkpt>
      <trkpt lat="43.58907" lon="5.55977">
        <ele>472.60000610352</ele>
        <time>2013-03-23T08:19:23.000Z</time>
      </trkpt>
      <trkpt lat="43.58901" lon="5.55971">
        <ele>472.39999389648</ele>
        <time>2013-03-23T08:19:24.000Z</time>
      </trkpt>
      <trkpt lat="43.58896" lon="5.55965">
        <ele>472.39999389648</ele>
        <time>2013-03-23T08:19:25.000Z</time>
      </trkpt>
      <trkpt lat="43.58892" lon="5.5596">
        <ele>472.39999389648</ele>
        <time>2013-03-23T08:19:26.000Z</time>
      </trkpt>
      <trkpt lat="43.58888" lon="5.55957">
        <ele>472.20001220703</ele>
        <time>2013-03-23T08:19:27.000Z</time>
      </trkpt>
      <trkpt lat="43.58883" lon="5.55956">
        <ele>472</ele>
        <time>2013-03-23T08:19:28.000Z</time>
      </trkpt>
      <trkpt lat="43.58879" lon="5.55955">
        <ele>471.60000610352</ele>
        <time>2013-03-23T08:19:29.000Z</time>
      </trkpt>
      <trkpt lat="43.58875" lon="5.55956">
        <ele>471.20001220703</ele>
        <time>2013-03-23T08:19:30.000Z</time>
      </trkpt>
      <trkpt lat="43.58869" lon="5.55957">
        <ele>470.39999389648</ele>
        <time>2013-03-23T08:19:31.000Z</time>
      </trkpt>
      <trkpt lat="43.58856" lon="5.55966">
        <ele>468.20001220703</ele>
        <time>2013-03-23T08:19:33.000Z</time>
      </trkpt>
      <trkpt lat="43.58849" lon="5.55971">
        <ele>467</ele>
        <time>2013-03-23T08:19:34.000Z</time>
      </trkpt>
      <trkpt lat="43.58842" lon="5.55974">
        <ele>466</ele>
        <time>2013-03-23T08:19:35.000Z</time>
      </trkpt>
      <trkpt lat="43.58836" lon="5.55977">
        <ele>465</ele>
        <time>2013-03-23T08:19:36.000Z</time>
      </trkpt>
      <trkpt lat="43.5883" lon="5.5598">
        <ele>464</ele>
        <time>2013-03-23T08:19:37.000Z</time>
      </trkpt>
      <trkpt lat="43.58825" lon="5.55983">
        <ele>463.20001220703</ele>
        <time>2013-03-23T08:19:38.000Z</time>
      </trkpt>
      <trkpt lat="43.58819" lon="5.55984">
        <ele>462.60000610352</ele>
        <time>2013-03-23T08:19:39.000Z</time>
      </trkpt>
      <trkpt lat="43.58813" lon="5.55985">
        <ele>462</ele>
        <time>2013-03-23T08:19:40.000Z</time>
      </trkpt>
      <trkpt lat="43.58808" lon="5.55986">
        <ele>461.39999389648</ele>
        <time>2013-03-23T08:19:41.000Z</time>
      </trkpt>
      <trkpt lat="43.58803" lon="5.55983">
        <ele>461.39999389648</ele>
        <time>2013-03-23T08:19:42.000Z</time>
      </trkpt>
      <trkpt lat="43.58798" lon="5.55978">
        <ele>461.60000610352</ele>
        <time>2013-03-23T08:19:43.000Z</time>
      </trkpt>
      <trkpt lat="43.58792" lon="5.55976">
        <ele>461.60000610352</ele>
        <time>2013-03-23T08:19:44.000Z</time>
      </trkpt>
      <trkpt lat="43.58786" lon="5.55977">
        <ele>461</ele>
        <time>2013-03-23T08:19:45.000Z</time>
      </trkpt>
      <trkpt lat="43.58779" lon="5.55979">
        <ele>460</ele>
        <time>2013-03-23T08:19:46.000Z</time>
      </trkpt>
      <trkpt lat="43.58774" lon="5.55983">
        <ele>459</ele>
        <time>2013-03-23T08:19:47.000Z</time>
      </trkpt>
      <trkpt lat="43.58769" lon="5.55989">
        <ele>457.60000610352</ele>
        <time>2013-03-23T08:19:48.000Z</time>
      </trkpt>
      <trkpt lat="43.58764" lon="5.55995">
        <ele>456</ele>
        <time>2013-03-23T08:19:49.000Z</time>
      </trkpt>
      <trkpt lat="43.5876" lon="5.56003">
        <ele>455</ele>
        <time>2013-03-23T08:19:50.000Z</time>
      </trkpt>
      <trkpt lat="43.58758" lon="5.56011">
        <ele>455.20001220703</ele>
        <time>2013-03-23T08:19:51.000Z</time>
      </trkpt>
      <trkpt lat="43.58754" lon="5.56017">
        <ele>455.20001220703</ele>
        <time>2013-03-23T08:19:52.000Z</time>
      </trkpt>
      <trkpt lat="43.5875" lon="5.56022">
        <ele>455</ele>
        <time>2013-03-23T08:19:53.000Z</time>
      </trkpt>
      <trkpt lat="43.58746" lon="5.56029">
        <ele>455.20001220703</ele>
        <time>2013-03-23T08:19:54.000Z</time>
      </trkpt>
      <trkpt lat="43.58741" lon="5.56036">
        <ele>455.39999389648</ele>
        <time>2013-03-23T08:19:55.000Z</time>
      </trkpt>
      <trkpt lat="43.58736" lon="5.5604">
        <ele>455.60000610352</ele>
        <time>2013-03-23T08:19:56.000Z</time>
      </trkpt>
      <trkpt lat="43.58729" lon="5.56041">
        <ele>455.60000610352</ele>
        <time>2013-03-23T08:19:57.000Z</time>
      </trkpt>
      <trkpt lat="43.58722" lon="5.56041">
        <ele>455.60000610352</ele>
        <time>2013-03-23T08:19:58.000Z</time>
      </trkpt>
      <trkpt lat="43.58714" lon="5.56042">
        <ele>455.60000610352</ele>
        <time>2013-03-23T08:19:59.000Z</time>
      </trkpt>
      <trkpt lat="43.587" lon="5.56043">
        <ele>455.39999389648</ele>
        <time>2013-03-23T08:20:01.000Z</time>
      </trkpt>
      <trkpt lat="43.58673" lon="5.56033">
        <ele>454</ele>
        <time>2013-03-23T08:20:05.000Z</time>
      </trkpt>
      <trkpt lat="43.5867" lon="5.56027">
        <ele>453.20001220703</ele>
        <time>2013-03-23T08:20:06.000Z</time>
      </trkpt>
      <trkpt lat="43.58668" lon="5.56019">
        <ele>452.20001220703</ele>
        <time>2013-03-23T08:20:07.000Z</time>
      </trkpt>
      <trkpt lat="43.58661" lon="5.55955">
        <ele>450.39999389648</ele>
        <time>2013-03-23T08:20:14.000Z</time>
      </trkpt>
      <trkpt lat="43.58659" lon="5.55946">
        <ele>450.39999389648</ele>
        <time>2013-03-23T08:20:15.000Z</time>
      </trkpt>
      <trkpt lat="43.58657" lon="5.55938">
        <ele>450.20001220703</ele>
        <time>2013-03-23T08:20:16.000Z</time>
      </trkpt>
      <trkpt lat="43.58652" lon="5.55921">
        <ele>449.39999389648</ele>
        <time>2013-03-23T08:20:18.000Z</time>
      </trkpt>
      <trkpt lat="43.58648" lon="5.55913">
        <ele>449.60000610352</ele>
        <time>2013-03-23T08:20:19.000Z</time>
      </trkpt>
      <trkpt lat="43.58644" lon="5.55906">
        <ele>450.39999389648</ele>
        <time>2013-03-23T08:20:20.000Z</time>
      </trkpt>
      <trkpt lat="43.58633" lon="5.55893">
        <ele>451.20001220703</ele>
        <time>2013-03-23T08:20:22.000Z</time>
      </trkpt>
      <trkpt lat="43.58626" lon="5.55888">
        <ele>451.20001220703</ele>
        <time>2013-03-23T08:20:23.000Z</time>
      </trkpt>
      <trkpt lat="43.58612" lon="5.5588">
        <ele>450.60000610352</ele>
        <time>2013-03-23T08:20:25.000Z</time>
      </trkpt>
      <trkpt lat="43.58605" lon="5.55877">
        <ele>450.20001220703</ele>
        <time>2013-03-23T08:20:26.000Z</time>
      </trkpt>
      <trkpt lat="43.58598" lon="5.55874">
        <ele>449.60000610352</ele>
        <time>2013-03-23T08:20:27.000Z</time>
      </trkpt>
      <trkpt lat="43.58585" lon="5.55872">
        <ele>448</ele>
        <time>2013-03-23T08:20:29.000Z</time>
      </trkpt>
      <trkpt lat="43.58579" lon="5.55872">
        <ele>447.79998779297</ele>
        <time>2013-03-23T08:20:30.000Z</time>
      </trkpt>
      <trkpt lat="43.58574" lon="5.55874">
        <ele>447.60000610352</ele>
        <time>2013-03-23T08:20:31.000Z</time>
      </trkpt>
      <trkpt lat="43.58563" lon="5.55879">
        <ele>447</ele>
        <time>2013-03-23T08:20:33.000Z</time>
      </trkpt>
      <trkpt lat="43.58551" lon="5.55883">
        <ele>446.39999389648</ele>
        <time>2013-03-23T08:20:35.000Z</time>
      </trkpt>
      <trkpt lat="43.58545" lon="5.55887">
        <ele>445.60000610352</ele>
        <time>2013-03-23T08:20:36.000Z</time>
      </trkpt>
      <trkpt lat="43.58503" lon="5.55923">
        <ele>439.39999389648</ele>
        <time>2013-03-23T08:20:43.000Z</time>
      </trkpt>
      <trkpt lat="43.585" lon="5.55929">
        <ele>439.39999389648</ele>
        <time>2013-03-23T08:20:44.000Z</time>
      </trkpt>
      <trkpt lat="43.58495" lon="5.55935">
        <ele>439.39999389648</ele>
        <time>2013-03-23T08:20:45.000Z</time>
      </trkpt>
      <trkpt lat="43.58491" lon="5.55942">
        <ele>439.20001220703</ele>
        <time>2013-03-23T08:20:46.000Z</time>
      </trkpt>
      <trkpt lat="43.58487" lon="5.55948">
        <ele>439.20001220703</ele>
        <time>2013-03-23T08:20:47.000Z</time>
      </trkpt>
      <trkpt lat="43.58481" lon="5.55954">
        <ele>438.79998779297</ele>
        <time>2013-03-23T08:20:48.000Z</time>
      </trkpt>
      <trkpt lat="43.58475" lon="5.5596">
        <ele>438.20001220703</ele>
        <time>2013-03-23T08:20:49.000Z</time>
      </trkpt>
      <trkpt lat="43.5847" lon="5.55967">
        <ele>437.79998779297</ele>
        <time>2013-03-23T08:20:50.000Z</time>
      </trkpt>
      <trkpt lat="43.58464" lon="5.55975">
        <ele>437.20001220703</ele>
        <time>2013-03-23T08:20:51.000Z</time>
      </trkpt>
      <trkpt lat="43.58458" lon="5.5598">
        <ele>436.60000610352</ele>
        <time>2013-03-23T08:20:52.000Z</time>
      </trkpt>
      <trkpt lat="43.58451" lon="5.55983">
        <ele>435.79998779297</ele>
        <time>2013-03-23T08:20:53.000Z</time>
      </trkpt>
      <trkpt lat="43.58444" lon="5.55984">
        <ele>434.79998779297</ele>
        <time>2013-03-23T08:20:54.000Z</time>
      </trkpt>
      <trkpt lat="43.58437" lon="5.55984">
        <ele>434</ele>
        <time>2013-03-23T08:20:55.000Z</time>
      </trkpt>
      <trkpt lat="43.58429" lon="5.55983">
        <ele>433</ele>
        <time>2013-03-23T08:20:56.000Z</time>
      </trkpt>
      <trkpt lat="43.58422" lon="5.55979">
        <ele>432.20001220703</ele>
        <time>2013-03-23T08:20:57.000Z</time>
      </trkpt>
      <trkpt lat="43.58416" lon="5.55974">
        <ele>431.60000610352</ele>
        <time>2013-03-23T08:20:58.000Z</time>
      </trkpt>
      <trkpt lat="43.5841" lon="5.55967">
        <ele>432.20001220703</ele>
        <time>2013-03-23T08:20:59.000Z</time>
      </trkpt>
      <trkpt lat="43.58404" lon="5.5596">
        <ele>432.39999389648</ele>
        <time>2013-03-23T08:21:00.000Z</time>
      </trkpt>
      <trkpt lat="43.58386" lon="5.55941">
        <ele>432</ele>
        <time>2013-03-23T08:21:03.000Z</time>
      </trkpt>
      <trkpt lat="43.58382" lon="5.55933">
        <ele>431.20001220703</ele>
        <time>2013-03-23T08:21:04.000Z</time>
      </trkpt>
      <trkpt lat="43.58379" lon="5.55924">
        <ele>430.39999389648</ele>
        <time>2013-03-23T08:21:05.000Z</time>
      </trkpt>
      <trkpt lat="43.58375" lon="5.55917">
        <ele>429.39999389648</ele>
        <time>2013-03-23T08:21:06.000Z</time>
      </trkpt>
      <trkpt lat="43.58369" lon="5.55912">
        <ele>429.20001220703</ele>
        <time>2013-03-23T08:21:07.000Z</time>
      </trkpt>
      <trkpt lat="43.58364" lon="5.55906">
        <ele>428.79998779297</ele>
        <time>2013-03-23T08:21:08.000Z</time>
      </trkpt>
      <trkpt lat="43.58359" lon="5.559">
        <ele>428.20001220703</ele>
        <time>2013-03-23T08:21:09.000Z</time>
      </trkpt>
      <trkpt lat="43.58354" lon="5.55894">
        <ele>427.39999389648</ele>
        <time>2013-03-23T08:21:10.000Z</time>
      </trkpt>
      <trkpt lat="43.58348" lon="5.55887">
        <ele>426.60000610352</ele>
        <time>2013-03-23T08:21:11.000Z</time>
      </trkpt>
      <trkpt lat="43.58343" lon="5.5588">
        <ele>425.60000610352</ele>
        <time>2013-03-23T08:21:12.000Z</time>
      </trkpt>
      <trkpt lat="43.58339" lon="5.55873">
        <ele>424.39999389648</ele>
        <time>2013-03-23T08:21:13.000Z</time>
      </trkpt>
      <trkpt lat="43.58333" lon="5.55866">
        <ele>422.79998779297</ele>
        <time>2013-03-23T08:21:14.000Z</time>
      </trkpt>
      <trkpt lat="43.58328" lon="5.55859">
        <ele>422.60000610352</ele>
        <time>2013-03-23T08:21:15.000Z</time>
      </trkpt>
      <trkpt lat="43.58325" lon="5.55851">
        <ele>422</ele>
        <time>2013-03-23T08:21:16.000Z</time>
      </trkpt>
      <trkpt lat="43.58322" lon="5.55842">
        <ele>421.20001220703</ele>
        <time>2013-03-23T08:21:17.000Z</time>
      </trkpt>
      <trkpt lat="43.58321" lon="5.55832">
        <ele>420.60000610352</ele>
        <time>2013-03-23T08:21:18.000Z</time>
      </trkpt>
      <trkpt lat="43.58319" lon="5.55821">
        <ele>421</ele>
        <time>2013-03-23T08:21:19.000Z</time>
      </trkpt>
      <trkpt lat="43.58318" lon="5.55811">
        <ele>421.60000610352</ele>
        <time>2013-03-23T08:21:20.000Z</time>
      </trkpt>
      <trkpt lat="43.58315" lon="5.55791">
        <ele>422.20001220703</ele>
        <time>2013-03-23T08:21:22.000Z</time>
      </trkpt>
      <trkpt lat="43.5831" lon="5.55772">
        <ele>422.39999389648</ele>
        <time>2013-03-23T08:21:24.000Z</time>
      </trkpt>
      <trkpt lat="43.58304" lon="5.55755">
        <ele>421.79998779297</ele>
        <time>2013-03-23T08:21:26.000Z</time>
      </trkpt>
      <trkpt lat="43.58299" lon="5.55749">
        <ele>421.20001220703</ele>
        <time>2013-03-23T08:21:27.000Z</time>
      </trkpt>
      <trkpt lat="43.58294" lon="5.55746">
        <ele>420.60000610352</ele>
        <time>2013-03-23T08:21:28.000Z</time>
      </trkpt>
      <trkpt lat="43.58287" lon="5.55747">
        <ele>419</ele>
        <time>2013-03-23T08:21:29.000Z</time>
      </trkpt>
      <trkpt lat="43.5828" lon="5.55749">
        <ele>417.20001220703</ele>
        <time>2013-03-23T08:21:30.000Z</time>
      </trkpt>
      <trkpt lat="43.58273" lon="5.55753">
        <ele>415.79998779297</ele>
        <time>2013-03-23T08:21:31.000Z</time>
      </trkpt>
      <trkpt lat="43.58266" lon="5.55755">
        <ele>414.39999389648</ele>
        <time>2013-03-23T08:21:32.000Z</time>
      </trkpt>
      <trkpt lat="43.58258" lon="5.55756">
        <ele>413</ele>
        <time>2013-03-23T08:21:33.000Z</time>
      </trkpt>
      <trkpt lat="43.58251" lon="5.55757">
        <ele>411.60000610352</ele>
        <time>2013-03-23T08:21:34.000Z</time>
      </trkpt>
      <trkpt lat="43.58244" lon="5.55759">
        <ele>411.39999389648</ele>
        <time>2013-03-23T08:21:35.000Z</time>
      </trkpt>
      <trkpt lat="43.58237" lon="5.55763">
        <ele>411.39999389648</ele>
        <time>2013-03-23T08:21:36.000Z</time>
      </trkpt>
      <trkpt lat="43.58229" lon="5.55765">
        <ele>411.20001220703</ele>
        <time>2013-03-23T08:21:37.000Z</time>
      </trkpt>
      <trkpt lat="43.58222" lon="5.55765">
        <ele>410.79998779297</ele>
        <time>2013-03-23T08:21:38.000Z</time>
      </trkpt>
      <trkpt lat="43.58214" lon="5.55764">
        <ele>410.39999389648</ele>
        <time>2013-03-23T08:21:39.000Z</time>
      </trkpt>
      <trkpt lat="43.58207" lon="5.55762">
        <ele>409.79998779297</ele>
        <time>2013-03-23T08:21:40.000Z</time>
      </trkpt>
      <trkpt lat="43.58199" lon="5.55758">
        <ele>409.20001220703</ele>
        <time>2013-03-23T08:21:41.000Z</time>
      </trkpt>
      <trkpt lat="43.58192" lon="5.55753">
        <ele>408.39999389648</ele>
        <time>2013-03-23T08:21:42.000Z</time>
      </trkpt>
      <trkpt lat="43.58186" lon="5.55747">
        <ele>408</ele>
        <time>2013-03-23T08:21:43.000Z</time>
      </trkpt>
      <trkpt lat="43.5818" lon="5.5574">
        <ele>407.79998779297</ele>
        <time>2013-03-23T08:21:44.000Z</time>
      </trkpt>
      <trkpt lat="43.58175" lon="5.55732">
        <ele>407.39999389648</ele>
        <time>2013-03-23T08:21:45.000Z</time>
      </trkpt>
      <trkpt lat="43.58169" lon="5.55724">
        <ele>406.79998779297</ele>
        <time>2013-03-23T08:21:46.000Z</time>
      </trkpt>
      <trkpt lat="43.58165" lon="5.55716">
        <ele>406.60000610352</ele>
        <time>2013-03-23T08:21:47.000Z</time>
      </trkpt>
      <trkpt lat="43.58162" lon="5.55707">
        <ele>406.60000610352</ele>
        <time>2013-03-23T08:21:48.000Z</time>
      </trkpt>
      <trkpt lat="43.58161" lon="5.55697">
        <ele>406.60000610352</ele>
        <time>2013-03-23T08:21:49.000Z</time>
      </trkpt>
      <trkpt lat="43.58153" lon="5.55621">
        <ele>402.79998779297</ele>
        <time>2013-03-23T08:21:56.000Z</time>
      </trkpt>
      <trkpt lat="43.58152" lon="5.55612">
        <ele>402.20001220703</ele>
        <time>2013-03-23T08:21:57.000Z</time>
      </trkpt>
      <trkpt lat="43.58149" lon="5.55604">
        <ele>401.39999389648</ele>
        <time>2013-03-23T08:21:58.000Z</time>
      </trkpt>
      <trkpt lat="43.58146" lon="5.55596">
        <ele>400.60000610352</ele>
        <time>2013-03-23T08:21:59.000Z</time>
      </trkpt>
      <trkpt lat="43.58144" lon="5.55588">
        <ele>399.79998779297</ele>
        <time>2013-03-23T08:22:00.000Z</time>
      </trkpt>
      <trkpt lat="43.58142" lon="5.5558">
        <ele>399.79998779297</ele>
        <time>2013-03-23T08:22:01.000Z</time>
      </trkpt>
      <trkpt lat="43.58139" lon="5.55574">
        <ele>400.39999389648</ele>
        <time>2013-03-23T08:22:02.000Z</time>
      </trkpt>
      <trkpt lat="43.58134" lon="5.5557">
        <ele>400.60000610352</ele>
        <time>2013-03-23T08:22:03.000Z</time>
      </trkpt>
      <trkpt lat="43.58129" lon="5.55565">
        <ele>400.60000610352</ele>
        <time>2013-03-23T08:22:04.000Z</time>
      </trkpt>
      <trkpt lat="43.58123" lon="5.55561">
        <ele>400.20001220703</ele>
        <time>2013-03-23T08:22:05.000Z</time>
      </trkpt>
      <trkpt lat="43.58102" lon="5.55553">
        <ele>398.20001220703</ele>
        <time>2013-03-23T08:22:08.000Z</time>
      </trkpt>
      <trkpt lat="43.58081" lon="5.55548">
        <ele>395.60000610352</ele>
        <time>2013-03-23T08:22:11.000Z</time>
      </trkpt>
      <trkpt lat="43.58074" lon="5.55547">
        <ele>394.79998779297</ele>
        <time>2013-03-23T08:22:12.000Z</time>
      </trkpt>
      <trkpt lat="43.58067" lon="5.55547">
        <ele>394.20001220703</ele>
        <time>2013-03-23T08:22:13.000Z</time>
      </trkpt>
      <trkpt lat="43.5806" lon="5.55547">
        <ele>393.20001220703</ele>
        <time>2013-03-23T08:22:14.000Z</time>
      </trkpt>
      <trkpt lat="43.58038" lon="5.55547">
        <ele>390.79998779297</ele>
        <time>2013-03-23T08:22:17.000Z</time>
      </trkpt>
      <trkpt lat="43.58032" lon="5.55546">
        <ele>390.20001220703</ele>
        <time>2013-03-23T08:22:18.000Z</time>
      </trkpt>
      <trkpt lat="43.58026" lon="5.55546">
        <ele>389.60000610352</ele>
        <time>2013-03-23T08:22:19.000Z</time>
      </trkpt>
      <trkpt lat="43.58018" lon="5.55546">
        <ele>388.60000610352</ele>
        <time>2013-03-23T08:22:21.000Z</time>
      </trkpt>
      <trkpt lat="43.58006" lon="5.55539">
        <ele>387</ele>
        <time>2013-03-23T08:22:28.000Z</time>
      </trkpt>
      <trkpt lat="43.58006" lon="5.5554">
        <ele>387</ele>
        <time>2013-03-23T08:22:42.000Z</time>
      </trkpt>
      <trkpt lat="43.58006" lon="5.5554">
        <ele>387</ele>
        <time>2013-03-23T08:22:53.000Z</time>
      </trkpt>
      <trkpt lat="43.58006" lon="5.55539">
        <ele>387</ele>
        <time>2013-03-23T08:23:10.000Z</time>
      </trkpt>
      <trkpt lat="43.58006" lon="5.55539">
        <ele>387</ele>
        <time>2013-03-23T08:23:27.000Z</time>
      </trkpt>
      <trkpt lat="43.58005" lon="5.55539">
        <ele>387</ele>
        <time>2013-03-23T08:23:48.000Z</time>
      </trkpt>
      <trkpt lat="43.58005" lon="5.55539">
        <ele>386.79998779297</ele>
        <time>2013-03-23T08:24:00.000Z</time>
      </trkpt>
      <trkpt lat="43.58003" lon="5.5554">
        <ele>386.79998779297</ele>
        <time>2013-03-23T08:24:25.000Z</time>
      </trkpt>
      <trkpt lat="43.57994" lon="5.55535">
        <ele>386.60000610352</ele>
        <time>2013-03-23T08:24:35.000Z</time>
      </trkpt>
      <trkpt lat="43.57973" lon="5.55522">
        <ele>388</ele>
        <time>2013-03-23T08:24:42.000Z</time>
      </trkpt>
      <trkpt lat="43.57958" lon="5.55523">
        <ele>389.39999389648</ele>
        <time>2013-03-23T08:24:50.000Z</time>
      </trkpt>
      <trkpt lat="43.57957" lon="5.55525">
        <ele>389.60000610352</ele>
        <time>2013-03-23T08:24:51.000Z</time>
      </trkpt>
      <trkpt lat="43.57956" lon="5.55528">
        <ele>389.79998779297</ele>
        <time>2013-03-23T08:24:52.000Z</time>
      </trkpt>
      <trkpt lat="43.57954" lon="5.5553">
        <ele>390</ele>
        <time>2013-03-23T08:24:53.000Z</time>
      </trkpt>
      <trkpt lat="43.57941" lon="5.55546">
        <ele>391.39999389648</ele>
        <time>2013-03-23T08:25:03.000Z</time>
      </trkpt>
      <trkpt lat="43.5794" lon="5.55548">
        <ele>391.60000610352</ele>
        <time>2013-03-23T08:25:04.000Z</time>
      </trkpt>
      <trkpt lat="43.57922" lon="5.55563">
        <ele>393.20001220703</ele>
        <time>2013-03-23T08:25:15.000Z</time>
      </trkpt>
      <trkpt lat="43.57914" lon="5.5557">
        <ele>394.20001220703</ele>
        <time>2013-03-23T08:25:20.000Z</time>
      </trkpt>
      <trkpt lat="43.57912" lon="5.55571">
        <ele>394.39999389648</ele>
        <time>2013-03-23T08:25:21.000Z</time>
      </trkpt>
      <trkpt lat="43.57911" lon="5.55573">
        <ele>394.60000610352</ele>
        <time>2013-03-23T08:25:22.000Z</time>
      </trkpt>
      <trkpt lat="43.57893" lon="5.55584">
        <ele>397.20001220703</ele>
        <time>2013-03-23T08:25:34.000Z</time>
      </trkpt>
      <trkpt lat="43.57875" lon="5.55593">
        <ele>399.60000610352</ele>
        <time>2013-03-23T08:25:45.000Z</time>
      </trkpt>
      <trkpt lat="43.57874" lon="5.55594">
        <ele>399.60000610352</ele>
        <time>2013-03-23T08:25:46.000Z</time>
      </trkpt>
      <trkpt lat="43.57853" lon="5.55604">
        <ele>402.39999389648</ele>
        <time>2013-03-23T08:25:59.000Z</time>
      </trkpt>
      <trkpt lat="43.57837" lon="5.5562">
        <ele>404</ele>
        <time>2013-03-23T08:26:10.000Z</time>
      </trkpt>
      <trkpt lat="43.57834" lon="5.55624">
        <ele>404.20001220703</ele>
        <time>2013-03-23T08:26:12.000Z</time>
      </trkpt>
      <trkpt lat="43.57833" lon="5.55626">
        <ele>404.39999389648</ele>
        <time>2013-03-23T08:26:13.000Z</time>
      </trkpt>
      <trkpt lat="43.57832" lon="5.55629">
        <ele>404.60000610352</ele>
        <time>2013-03-23T08:26:14.000Z</time>
      </trkpt>
      <trkpt lat="43.57818" lon="5.55649">
        <ele>407.39999389648</ele>
        <time>2013-03-23T08:26:25.000Z</time>
      </trkpt>
      <trkpt lat="43.57805" lon="5.55666">
        <ele>409.39999389648</ele>
        <time>2013-03-23T08:26:35.000Z</time>
      </trkpt>
      <trkpt lat="43.57788" lon="5.55682">
        <ele>413.60000610352</ele>
        <time>2013-03-23T08:26:46.000Z</time>
      </trkpt>
      <trkpt lat="43.57769" lon="5.55696">
        <ele>417.39999389648</ele>
        <time>2013-03-23T08:26:59.000Z</time>
      </trkpt>
      <trkpt lat="43.57763" lon="5.55706">
        <ele>418.39999389648</ele>
        <time>2013-03-23T08:27:05.000Z</time>
      </trkpt>
      <trkpt lat="43.57763" lon="5.55708">
        <ele>418.39999389648</ele>
        <time>2013-03-23T08:27:06.000Z</time>
      </trkpt>
      <trkpt lat="43.57763" lon="5.5571">
        <ele>418.60000610352</ele>
        <time>2013-03-23T08:27:07.000Z</time>
      </trkpt>
      <trkpt lat="43.57764" lon="5.55713">
        <ele>418.60000610352</ele>
        <time>2013-03-23T08:27:08.000Z</time>
      </trkpt>
      <trkpt lat="43.57765" lon="5.55716">
        <ele>418.60000610352</ele>
        <time>2013-03-23T08:27:09.000Z</time>
      </trkpt>
      <trkpt lat="43.57766" lon="5.55718">
        <ele>418.39999389648</ele>
        <time>2013-03-23T08:27:10.000Z</time>
      </trkpt>
      <trkpt lat="43.57767" lon="5.5572">
        <ele>418.39999389648</ele>
        <time>2013-03-23T08:27:11.000Z</time>
      </trkpt>
      <trkpt lat="43.57769" lon="5.55721">
        <ele>418.39999389648</ele>
        <time>2013-03-23T08:27:12.000Z</time>
      </trkpt>
      <trkpt lat="43.57771" lon="5.55722">
        <ele>418.20001220703</ele>
        <time>2013-03-23T08:27:13.000Z</time>
      </trkpt>
      <trkpt lat="43.57772" lon="5.55722">
        <ele>418.20001220703</ele>
        <time>2013-03-23T08:27:14.000Z</time>
      </trkpt>
      <trkpt lat="43.57774" lon="5.55722">
        <ele>418</ele>
        <time>2013-03-23T08:27:15.000Z</time>
      </trkpt>
      <trkpt lat="43.57776" lon="5.55722">
        <ele>417.79998779297</ele>
        <time>2013-03-23T08:27:16.000Z</time>
      </trkpt>
      <trkpt lat="43.57777" lon="5.55722">
        <ele>417.60000610352</ele>
        <time>2013-03-23T08:27:17.000Z</time>
      </trkpt>
      <trkpt lat="43.57779" lon="5.55722">
        <ele>417.60000610352</ele>
        <time>2013-03-23T08:27:18.000Z</time>
      </trkpt>
      <trkpt lat="43.57801" lon="5.55714">
        <ele>415</ele>
        <time>2013-03-23T08:27:30.000Z</time>
      </trkpt>
      <trkpt lat="43.5782" lon="5.55708">
        <ele>412.39999389648</ele>
        <time>2013-03-23T08:27:39.000Z</time>
      </trkpt>
      <trkpt lat="43.57839" lon="5.55704">
        <ele>409.39999389648</ele>
        <time>2013-03-23T08:27:49.000Z</time>
      </trkpt>
      <trkpt lat="43.57861" lon="5.55702">
        <ele>406</ele>
        <time>2013-03-23T08:28:00.000Z</time>
      </trkpt>
      <trkpt lat="43.57873" lon="5.55718">
        <ele>406.20001220703</ele>
        <time>2013-03-23T08:28:08.000Z</time>
      </trkpt>
      <trkpt lat="43.57863" lon="5.55746">
        <ele>411.39999389648</ele>
        <time>2013-03-23T08:28:20.000Z</time>
      </trkpt>
      <trkpt lat="43.57851" lon="5.55769">
        <ele>413.79998779297</ele>
        <time>2013-03-23T08:28:31.000Z</time>
      </trkpt>
      <trkpt lat="43.57844" lon="5.5578">
        <ele>414.79998779297</ele>
        <time>2013-03-23T08:28:36.000Z</time>
      </trkpt>
      <trkpt lat="43.57823" lon="5.55808">
        <ele>417.60000610352</ele>
        <time>2013-03-23T08:28:50.000Z</time>
      </trkpt>
      <trkpt lat="43.57794" lon="5.55824">
        <ele>421.20001220703</ele>
        <time>2013-03-23T08:29:04.000Z</time>
      </trkpt>
      <trkpt lat="43.57772" lon="5.55825">
        <ele>424.20001220703</ele>
        <time>2013-03-23T08:29:15.000Z</time>
      </trkpt>
      <trkpt lat="43.57744" lon="5.5583">
        <ele>428.20001220703</ele>
        <time>2013-03-23T08:29:28.000Z</time>
      </trkpt>
      <trkpt lat="43.57722" lon="5.55839">
        <ele>429.60000610352</ele>
        <time>2013-03-23T08:29:38.000Z</time>
      </trkpt>
      <trkpt lat="43.57701" lon="5.55845">
        <ele>430.60000610352</ele>
        <time>2013-03-23T08:29:48.000Z</time>
      </trkpt>
      <trkpt lat="43.57684" lon="5.55847">
        <ele>432</ele>
        <time>2013-03-23T08:29:56.000Z</time>
      </trkpt>
      <trkpt lat="43.57659" lon="5.55849">
        <ele>434</ele>
        <time>2013-03-23T08:30:07.000Z</time>
      </trkpt>
      <trkpt lat="43.57623" lon="5.5585">
        <ele>436.79998779297</ele>
        <time>2013-03-23T08:30:22.000Z</time>
      </trkpt>
      <trkpt lat="43.57583" lon="5.55847">
        <ele>440.39999389648</ele>
        <time>2013-03-23T08:30:36.000Z</time>
      </trkpt>
      <trkpt lat="43.5755" lon="5.55846">
        <ele>446.39999389648</ele>
        <time>2013-03-23T08:30:48.000Z</time>
      </trkpt>
      <trkpt lat="43.57515" lon="5.55846">
        <ele>452.60000610352</ele>
        <time>2013-03-23T08:31:01.000Z</time>
      </trkpt>
      <trkpt lat="43.57487" lon="5.55858">
        <ele>455.20001220703</ele>
        <time>2013-03-23T08:31:12.000Z</time>
      </trkpt>
      <trkpt lat="43.57461" lon="5.5588">
        <ele>455.60000610352</ele>
        <time>2013-03-23T08:31:24.000Z</time>
      </trkpt>
      <trkpt lat="43.57445" lon="5.55899">
        <ele>455.20001220703</ele>
        <time>2013-03-23T08:31:33.000Z</time>
      </trkpt>
      <trkpt lat="43.57443" lon="5.55899">
        <ele>455.60000610352</ele>
        <time>2013-03-23T08:31:34.000Z</time>
      </trkpt>
      <trkpt lat="43.57441" lon="5.55898">
        <ele>456</ele>
        <time>2013-03-23T08:31:35.000Z</time>
      </trkpt>
      <trkpt lat="43.57439" lon="5.55896">
        <ele>456.60000610352</ele>
        <time>2013-03-23T08:31:36.000Z</time>
      </trkpt>
      <trkpt lat="43.57437" lon="5.55893">
        <ele>457.20001220703</ele>
        <time>2013-03-23T08:31:37.000Z</time>
      </trkpt>
      <trkpt lat="43.57436" lon="5.5589">
        <ele>457.60000610352</ele>
        <time>2013-03-23T08:31:38.000Z</time>
      </trkpt>
      <trkpt lat="43.57436" lon="5.55887">
        <ele>458</ele>
        <time>2013-03-23T08:31:39.000Z</time>
      </trkpt>
      <trkpt lat="43.57437" lon="5.55884">
        <ele>458.39999389648</ele>
        <time>2013-03-23T08:31:40.000Z</time>
      </trkpt>
      <trkpt lat="43.57438" lon="5.55882">
        <ele>458.60000610352</ele>
        <time>2013-03-23T08:31:41.000Z</time>
      </trkpt>
      <trkpt lat="43.57439" lon="5.55879">
        <ele>458.79998779297</ele>
        <time>2013-03-23T08:31:42.000Z</time>
      </trkpt>
      <trkpt lat="43.5744" lon="5.55877">
        <ele>459</ele>
        <time>2013-03-23T08:31:43.000Z</time>
      </trkpt>
      <trkpt lat="43.57441" lon="5.55875">
        <ele>459</ele>
        <time>2013-03-23T08:31:44.000Z</time>
      </trkpt>
      <trkpt lat="43.57442" lon="5.55872">
        <ele>459.20001220703</ele>
        <time>2013-03-23T08:31:45.000Z</time>
      </trkpt>
      <trkpt lat="43.57445" lon="5.55841">
        <ele>463.20001220703</ele>
        <time>2013-03-23T08:31:56.000Z</time>
      </trkpt>
      <trkpt lat="43.57438" lon="5.55802">
        <ele>464.79998779297</ele>
        <time>2013-03-23T08:32:07.000Z</time>
      </trkpt>
      <trkpt lat="43.57423" lon="5.55773">
        <ele>466.39999389648</ele>
        <time>2013-03-23T08:32:19.000Z</time>
      </trkpt>
      <trkpt lat="43.57398" lon="5.55769">
        <ele>469.39999389648</ele>
        <time>2013-03-23T08:32:30.000Z</time>
      </trkpt>
      <trkpt lat="43.5737" lon="5.55769">
        <ele>472.79998779297</ele>
        <time>2013-03-23T08:32:42.000Z</time>
      </trkpt>
      <trkpt lat="43.57358" lon="5.5577">
        <ele>474.20001220703</ele>
        <time>2013-03-23T08:32:47.000Z</time>
      </trkpt>
      <trkpt lat="43.57325" lon="5.55768">
        <ele>477.79998779297</ele>
        <time>2013-03-23T08:33:00.000Z</time>
      </trkpt>
      <trkpt lat="43.57303" lon="5.55761">
        <ele>479.60000610352</ele>
        <time>2013-03-23T08:33:08.000Z</time>
      </trkpt>
      <trkpt lat="43.57269" lon="5.55745">
        <ele>482.39999389648</ele>
        <time>2013-03-23T08:33:20.000Z</time>
      </trkpt>
      <trkpt lat="43.57234" lon="5.55725">
        <ele>484</ele>
        <time>2013-03-23T08:33:32.000Z</time>
      </trkpt>
      <trkpt lat="43.57208" lon="5.55712">
        <ele>486.20001220703</ele>
        <time>2013-03-23T08:33:42.000Z</time>
      </trkpt>
      <trkpt lat="43.57186" lon="5.55702">
        <ele>488.39999389648</ele>
        <time>2013-03-23T08:33:50.000Z</time>
      </trkpt>
      <trkpt lat="43.57155" lon="5.55681">
        <ele>492.39999389648</ele>
        <time>2013-03-23T08:34:02.000Z</time>
      </trkpt>
      <trkpt lat="43.57126" lon="5.55664">
        <ele>494.39999389648</ele>
        <time>2013-03-23T08:34:13.000Z</time>
      </trkpt>
      <trkpt lat="43.57094" lon="5.55641">
        <ele>496</ele>
        <time>2013-03-23T08:34:25.000Z</time>
      </trkpt>
      <trkpt lat="43.57073" lon="5.5562">
        <ele>498</ele>
        <time>2013-03-23T08:34:34.000Z</time>
      </trkpt>
      <trkpt lat="43.57048" lon="5.55593">
        <ele>500.60000610352</ele>
        <time>2013-03-23T08:34:45.000Z</time>
      </trkpt>
      <trkpt lat="43.57018" lon="5.55552">
        <ele>504.20001220703</ele>
        <time>2013-03-23T08:35:00.000Z</time>
      </trkpt>
      <trkpt lat="43.56993" lon="5.5552">
        <ele>506.79998779297</ele>
        <time>2013-03-23T08:35:12.000Z</time>
      </trkpt>
      <trkpt lat="43.56969" lon="5.55499">
        <ele>507.60000610352</ele>
        <time>2013-03-23T08:35:21.000Z</time>
      </trkpt>
      <trkpt lat="43.56963" lon="5.55494">
        <ele>507.60000610352</ele>
        <time>2013-03-23T08:35:23.000Z</time>
      </trkpt>
      <trkpt lat="43.56959" lon="5.55492">
        <ele>507.60000610352</ele>
        <time>2013-03-23T08:35:24.000Z</time>
      </trkpt>
      <trkpt lat="43.56929" lon="5.55462">
        <ele>507.60000610352</ele>
        <time>2013-03-23T08:35:32.000Z</time>
      </trkpt>
      <trkpt lat="43.56902" lon="5.5543">
        <ele>507.79998779297</ele>
        <time>2013-03-23T08:35:42.000Z</time>
      </trkpt>
      <trkpt lat="43.56886" lon="5.55394">
        <ele>508.20001220703</ele>
        <time>2013-03-23T08:35:52.000Z</time>
      </trkpt>
      <trkpt lat="43.56874" lon="5.55371">
        <ele>508.39999389648</ele>
        <time>2013-03-23T08:36:01.000Z</time>
      </trkpt>
      <trkpt lat="43.5687" lon="5.55363">
        <ele>508.60000610352</ele>
        <time>2013-03-23T08:36:05.000Z</time>
      </trkpt>
      <trkpt lat="43.56869" lon="5.55362">
        <ele>508.60000610352</ele>
        <time>2013-03-23T08:36:13.000Z</time>
      </trkpt>
      <trkpt lat="43.56869" lon="5.5536">
        <ele>508.60000610352</ele>
        <time>2013-03-23T08:36:31.000Z</time>
      </trkpt>
      <trkpt lat="43.56871" lon="5.55359">
        <ele>508.60000610352</ele>
        <time>2013-03-23T08:36:43.000Z</time>
      </trkpt>
      <trkpt lat="43.56872" lon="5.5536">
        <ele>508.60000610352</ele>
        <time>2013-03-23T08:36:52.000Z</time>
      </trkpt>
      <trkpt lat="43.56871" lon="5.55362">
        <ele>508.60000610352</ele>
        <time>2013-03-23T08:37:06.000Z</time>
      </trkpt>
      <trkpt lat="43.56873" lon="5.55362">
        <ele>508.60000610352</ele>
        <time>2013-03-23T08:37:28.000Z</time>
      </trkpt>
      <trkpt lat="43.5687" lon="5.55361">
        <ele>508.60000610352</ele>
        <time>2013-03-23T08:37:50.000Z</time>
      </trkpt>
      <trkpt lat="43.5687" lon="5.55361">
        <ele>508.60000610352</ele>
        <time>2013-03-23T08:38:14.000Z</time>
      </trkpt>
      <trkpt lat="43.56871" lon="5.55362">
        <ele>508.60000610352</ele>
        <time>2013-03-23T08:38:15.000Z</time>
      </trkpt>
      <trkpt lat="43.56873" lon="5.5537">
        <ele>508.39999389648</ele>
        <time>2013-03-23T08:38:20.000Z</time>
      </trkpt>
      <trkpt lat="43.56874" lon="5.55373">
        <ele>508.39999389648</ele>
        <time>2013-03-23T08:38:21.000Z</time>
      </trkpt>
      <trkpt lat="43.56874" lon="5.55375">
        <ele>508.39999389648</ele>
        <time>2013-03-23T08:38:22.000Z</time>
      </trkpt>
      <trkpt lat="43.56874" lon="5.55377">
        <ele>508.39999389648</ele>
        <time>2013-03-23T08:38:23.000Z</time>
      </trkpt>
      <trkpt lat="43.56874" lon="5.55379">
        <ele>508.39999389648</ele>
        <time>2013-03-23T08:38:24.000Z</time>
      </trkpt>
      <trkpt lat="43.56874" lon="5.55381">
        <ele>508.39999389648</ele>
        <time>2013-03-23T08:38:25.000Z</time>
      </trkpt>
      <trkpt lat="43.56873" lon="5.55382">
        <ele>508.39999389648</ele>
        <time>2013-03-23T08:38:26.000Z</time>
      </trkpt>
      <trkpt lat="43.56872" lon="5.55383">
        <ele>508.20001220703</ele>
        <time>2013-03-23T08:38:27.000Z</time>
      </trkpt>
      <trkpt lat="43.5687" lon="5.55385">
        <ele>508.20001220703</ele>
        <time>2013-03-23T08:38:28.000Z</time>
      </trkpt>
      <trkpt lat="43.56869" lon="5.55386">
        <ele>508.20001220703</ele>
        <time>2013-03-23T08:38:29.000Z</time>
      </trkpt>
      <trkpt lat="43.56868" lon="5.55388">
        <ele>508.20001220703</ele>
        <time>2013-03-23T08:38:30.000Z</time>
      </trkpt>
      <trkpt lat="43.56866" lon="5.55388">
        <ele>508.20001220703</ele>
        <time>2013-03-23T08:38:31.000Z</time>
      </trkpt>
      <trkpt lat="43.56864" lon="5.55389">
        <ele>508.20001220703</ele>
        <time>2013-03-23T08:38:32.000Z</time>
      </trkpt>
      <trkpt lat="43.56862" lon="5.5539">
        <ele>508.20001220703</ele>
        <time>2013-03-23T08:38:33.000Z</time>
      </trkpt>
      <trkpt lat="43.5686" lon="5.5539">
        <ele>508.20001220703</ele>
        <time>2013-03-23T08:38:34.000Z</time>
      </trkpt>
      <trkpt lat="43.56858" lon="5.55391">
        <ele>508.20001220703</ele>
        <time>2013-03-23T08:38:35.000Z</time>
      </trkpt>
      <trkpt lat="43.56835" lon="5.55395">
        <ele>508.20001220703</ele>
        <time>2013-03-23T08:38:44.000Z</time>
      </trkpt>
      <trkpt lat="43.5681" lon="5.55403">
        <ele>507.39999389648</ele>
        <time>2013-03-23T08:38:52.000Z</time>
      </trkpt>
      <trkpt lat="43.56777" lon="5.55424">
        <ele>506.60000610352</ele>
        <time>2013-03-23T08:39:02.000Z</time>
      </trkpt>
      <trkpt lat="43.56739" lon="5.55449">
        <ele>506.60000610352</ele>
        <time>2013-03-23T08:39:11.000Z</time>
      </trkpt>
      <trkpt lat="43.56734" lon="5.55453">
        <ele>506.60000610352</ele>
        <time>2013-03-23T08:39:12.000Z</time>
      </trkpt>
      <trkpt lat="43.5673" lon="5.55457">
        <ele>506.79998779297</ele>
        <time>2013-03-23T08:39:13.000Z</time>
      </trkpt>
      <trkpt lat="43.56726" lon="5.55459">
        <ele>506.79998779297</ele>
        <time>2013-03-23T08:39:14.000Z</time>
      </trkpt>
      <trkpt lat="43.56722" lon="5.55459">
        <ele>506.79998779297</ele>
        <time>2013-03-23T08:39:15.000Z</time>
      </trkpt>
      <trkpt lat="43.56717" lon="5.55461">
        <ele>506.79998779297</ele>
        <time>2013-03-23T08:39:16.000Z</time>
      </trkpt>
      <trkpt lat="43.56714" lon="5.55465">
        <ele>506.79998779297</ele>
        <time>2013-03-23T08:39:17.000Z</time>
      </trkpt>
      <trkpt lat="43.5671" lon="5.55469">
        <ele>506.79998779297</ele>
        <time>2013-03-23T08:39:18.000Z</time>
      </trkpt>
      <trkpt lat="43.56706" lon="5.55472">
        <ele>506.79998779297</ele>
        <time>2013-03-23T08:39:19.000Z</time>
      </trkpt>
      <trkpt lat="43.56702" lon="5.55474">
        <ele>506.79998779297</ele>
        <time>2013-03-23T08:39:20.000Z</time>
      </trkpt>
      <trkpt lat="43.56697" lon="5.55476">
        <ele>506.79998779297</ele>
        <time>2013-03-23T08:39:21.000Z</time>
      </trkpt>
      <trkpt lat="43.56693" lon="5.55477">
        <ele>506.79998779297</ele>
        <time>2013-03-23T08:39:22.000Z</time>
      </trkpt>
      <trkpt lat="43.56689" lon="5.55479">
        <ele>506.79998779297</ele>
        <time>2013-03-23T08:39:23.000Z</time>
      </trkpt>
      <trkpt lat="43.56681" lon="5.55485">
        <ele>506.79998779297</ele>
        <time>2013-03-23T08:39:25.000Z</time>
      </trkpt>
      <trkpt lat="43.56677" lon="5.55489">
        <ele>506.79998779297</ele>
        <time>2013-03-23T08:39:26.000Z</time>
      </trkpt>
      <trkpt lat="43.56673" lon="5.55494">
        <ele>506.79998779297</ele>
        <time>2013-03-23T08:39:27.000Z</time>
      </trkpt>
      <trkpt lat="43.56666" lon="5.55504">
        <ele>506.79998779297</ele>
        <time>2013-03-23T08:39:29.000Z</time>
      </trkpt>
      <trkpt lat="43.56663" lon="5.5551">
        <ele>506.60000610352</ele>
        <time>2013-03-23T08:39:30.000Z</time>
      </trkpt>
      <trkpt lat="43.5666" lon="5.55516">
        <ele>506.39999389648</ele>
        <time>2013-03-23T08:39:31.000Z</time>
      </trkpt>
      <trkpt lat="43.56652" lon="5.55527">
        <ele>505.79998779297</ele>
        <time>2013-03-23T08:39:33.000Z</time>
      </trkpt>
      <trkpt lat="43.56648" lon="5.5553">
        <ele>505.39999389648</ele>
        <time>2013-03-23T08:39:34.000Z</time>
      </trkpt>
      <trkpt lat="43.56643" lon="5.55534">
        <ele>505.20001220703</ele>
        <time>2013-03-23T08:39:35.000Z</time>
      </trkpt>
      <trkpt lat="43.56638" lon="5.55536">
        <ele>504.79998779297</ele>
        <time>2013-03-23T08:39:36.000Z</time>
      </trkpt>
      <trkpt lat="43.56632" lon="5.55539">
        <ele>504.60000610352</ele>
        <time>2013-03-23T08:39:37.000Z</time>
      </trkpt>
      <trkpt lat="43.56615" lon="5.55546">
        <ele>503.60000610352</ele>
        <time>2013-03-23T08:39:40.000Z</time>
      </trkpt>
      <trkpt lat="43.56608" lon="5.55548">
        <ele>503.20001220703</ele>
        <time>2013-03-23T08:39:41.000Z</time>
      </trkpt>
      <trkpt lat="43.56569" lon="5.55573">
        <ele>501.39999389648</ele>
        <time>2013-03-23T08:39:47.000Z</time>
      </trkpt>
      <trkpt lat="43.56563" lon="5.55579">
        <ele>501.20001220703</ele>
        <time>2013-03-23T08:39:48.000Z</time>
      </trkpt>
      <trkpt lat="43.56558" lon="5.55586">
        <ele>501</ele>
        <time>2013-03-23T08:39:49.000Z</time>
      </trkpt>
      <trkpt lat="43.56547" lon="5.556">
        <ele>500.39999389648</ele>
        <time>2013-03-23T08:39:51.000Z</time>
      </trkpt>
      <trkpt lat="43.5654" lon="5.55604">
        <ele>500.20001220703</ele>
        <time>2013-03-23T08:39:52.000Z</time>
      </trkpt>
      <trkpt lat="43.56521" lon="5.55614">
        <ele>499.60000610352</ele>
        <time>2013-03-23T08:39:55.000Z</time>
      </trkpt>
      <trkpt lat="43.56515" lon="5.55619">
        <ele>499.39999389648</ele>
        <time>2013-03-23T08:39:56.000Z</time>
      </trkpt>
      <trkpt lat="43.56498" lon="5.55634">
        <ele>498.79998779297</ele>
        <time>2013-03-23T08:39:59.000Z</time>
      </trkpt>
      <trkpt lat="43.56492" lon="5.55637">
        <ele>498.79998779297</ele>
        <time>2013-03-23T08:40:00.000Z</time>
      </trkpt>
      <trkpt lat="43.56469" lon="5.5565">
        <ele>498.60000610352</ele>
        <time>2013-03-23T08:40:04.000Z</time>
      </trkpt>
      <trkpt lat="43.56464" lon="5.55655">
        <ele>498.60000610352</ele>
        <time>2013-03-23T08:40:05.000Z</time>
      </trkpt>
      <trkpt lat="43.56449" lon="5.5567">
        <ele>498.79998779297</ele>
        <time>2013-03-23T08:40:08.000Z</time>
      </trkpt>
      <trkpt lat="43.56443" lon="5.55673">
        <ele>498.79998779297</ele>
        <time>2013-03-23T08:40:09.000Z</time>
      </trkpt>
      <trkpt lat="43.56438" lon="5.55676">
        <ele>498.79998779297</ele>
        <time>2013-03-23T08:40:10.000Z</time>
      </trkpt>
      <trkpt lat="43.56406" lon="5.55679">
        <ele>498.20001220703</ele>
        <time>2013-03-23T08:40:16.000Z</time>
      </trkpt>
      <trkpt lat="43.564" lon="5.55681">
        <ele>498</ele>
        <time>2013-03-23T08:40:17.000Z</time>
      </trkpt>
      <trkpt lat="43.56395" lon="5.55684">
        <ele>497.60000610352</ele>
        <time>2013-03-23T08:40:18.000Z</time>
      </trkpt>
      <trkpt lat="43.56389" lon="5.55689">
        <ele>497.20001220703</ele>
        <time>2013-03-23T08:40:19.000Z</time>
      </trkpt>
      <trkpt lat="43.56385" lon="5.55695">
        <ele>496.79998779297</ele>
        <time>2013-03-23T08:40:20.000Z</time>
      </trkpt>
      <trkpt lat="43.5638" lon="5.55701">
        <ele>496.60000610352</ele>
        <time>2013-03-23T08:40:21.000Z</time>
      </trkpt>
      <trkpt lat="43.56376" lon="5.55707">
        <ele>496.20001220703</ele>
        <time>2013-03-23T08:40:22.000Z</time>
      </trkpt>
      <trkpt lat="43.56373" lon="5.55715">
        <ele>496</ele>
        <time>2013-03-23T08:40:23.000Z</time>
      </trkpt>
      <trkpt lat="43.5637" lon="5.55722">
        <ele>495.60000610352</ele>
        <time>2013-03-23T08:40:24.000Z</time>
      </trkpt>
      <trkpt lat="43.56368" lon="5.5573">
        <ele>495.39999389648</ele>
        <time>2013-03-23T08:40:25.000Z</time>
      </trkpt>
      <trkpt lat="43.56367" lon="5.55737">
        <ele>495.20001220703</ele>
        <time>2013-03-23T08:40:26.000Z</time>
      </trkpt>
      <trkpt lat="43.56365" lon="5.55745">
        <ele>494.79998779297</ele>
        <time>2013-03-23T08:40:27.000Z</time>
      </trkpt>
      <trkpt lat="43.56362" lon="5.55752">
        <ele>494.60000610352</ele>
        <time>2013-03-23T08:40:28.000Z</time>
      </trkpt>
      <trkpt lat="43.56359" lon="5.55759">
        <ele>494.20001220703</ele>
        <time>2013-03-23T08:40:29.000Z</time>
      </trkpt>
      <trkpt lat="43.56355" lon="5.55765">
        <ele>494</ele>
        <time>2013-03-23T08:40:30.000Z</time>
      </trkpt>
      <trkpt lat="43.5635" lon="5.5577">
        <ele>493.60000610352</ele>
        <time>2013-03-23T08:40:31.000Z</time>
      </trkpt>
      <trkpt lat="43.56339" lon="5.55782">
        <ele>492.79998779297</ele>
        <time>2013-03-23T08:40:34.000Z</time>
      </trkpt>
      <trkpt lat="43.56336" lon="5.55783">
        <ele>492.60000610352</ele>
        <time>2013-03-23T08:40:35.000Z</time>
      </trkpt>
      <trkpt lat="43.56334" lon="5.5578">
        <ele>492.60000610352</ele>
        <time>2013-03-23T08:40:36.000Z</time>
      </trkpt>
      <trkpt lat="43.56333" lon="5.55776">
        <ele>492.39999389648</ele>
        <time>2013-03-23T08:40:37.000Z</time>
      </trkpt>
      <trkpt lat="43.56332" lon="5.55771">
        <ele>492.39999389648</ele>
        <time>2013-03-23T08:40:38.000Z</time>
      </trkpt>
      <trkpt lat="43.56331" lon="5.55766">
        <ele>492.20001220703</ele>
        <time>2013-03-23T08:40:39.000Z</time>
      </trkpt>
      <trkpt lat="43.56329" lon="5.55761">
        <ele>492</ele>
        <time>2013-03-23T08:40:40.000Z</time>
      </trkpt>
      <trkpt lat="43.56313" lon="5.55698">
        <ele>489.39999389648</ele>
        <time>2013-03-23T08:40:51.000Z</time>
      </trkpt>
      <trkpt lat="43.56301" lon="5.55671">
        <ele>487</ele>
        <time>2013-03-23T08:40:55.000Z</time>
      </trkpt>
      <trkpt lat="43.56298" lon="5.55663">
        <ele>486.20001220703</ele>
        <time>2013-03-23T08:40:56.000Z</time>
      </trkpt>
      <trkpt lat="43.56296" lon="5.55655">
        <ele>485.39999389648</ele>
        <time>2013-03-23T08:40:57.000Z</time>
      </trkpt>
      <trkpt lat="43.56294" lon="5.55637">
        <ele>483.79998779297</ele>
        <time>2013-03-23T08:40:59.000Z</time>
      </trkpt>
      <trkpt lat="43.56295" lon="5.55628">
        <ele>483.39999389648</ele>
        <time>2013-03-23T08:41:00.000Z</time>
      </trkpt>
      <trkpt lat="43.56296" lon="5.55619">
        <ele>483.39999389648</ele>
        <time>2013-03-23T08:41:01.000Z</time>
      </trkpt>
      <trkpt lat="43.56299" lon="5.5561">
        <ele>483.39999389648</ele>
        <time>2013-03-23T08:41:02.000Z</time>
      </trkpt>
      <trkpt lat="43.56302" lon="5.55602">
        <ele>483.60000610352</ele>
        <time>2013-03-23T08:41:03.000Z</time>
      </trkpt>
      <trkpt lat="43.56303" lon="5.55594">
        <ele>483.39999389648</ele>
        <time>2013-03-23T08:41:04.000Z</time>
      </trkpt>
      <trkpt lat="43.56304" lon="5.55586">
        <ele>483.20001220703</ele>
        <time>2013-03-23T08:41:05.000Z</time>
      </trkpt>
      <trkpt lat="43.56304" lon="5.55578">
        <ele>483</ele>
        <time>2013-03-23T08:41:06.000Z</time>
      </trkpt>
      <trkpt lat="43.563" lon="5.55495">
        <ele>482.60000610352</ele>
        <time>2013-03-23T08:41:15.000Z</time>
      </trkpt>
      <trkpt lat="43.56299" lon="5.55475">
        <ele>482.60000610352</ele>
        <time>2013-03-23T08:41:17.000Z</time>
      </trkpt>
      <trkpt lat="43.56296" lon="5.5543">
        <ele>482.60000610352</ele>
        <time>2013-03-23T08:41:21.000Z</time>
      </trkpt>
      <trkpt lat="43.56301" lon="5.55357">
        <ele>482.39999389648</ele>
        <time>2013-03-23T08:41:27.000Z</time>
      </trkpt>
      <trkpt lat="43.56301" lon="5.55345">
        <ele>482.20001220703</ele>
        <time>2013-03-23T08:41:28.000Z</time>
      </trkpt>
      <trkpt lat="43.563" lon="5.55333">
        <ele>482</ele>
        <time>2013-03-23T08:41:29.000Z</time>
      </trkpt>
      <trkpt lat="43.56301" lon="5.55321">
        <ele>481.60000610352</ele>
        <time>2013-03-23T08:41:30.000Z</time>
      </trkpt>
      <trkpt lat="43.56303" lon="5.55309">
        <ele>481.20001220703</ele>
        <time>2013-03-23T08:41:31.000Z</time>
      </trkpt>
      <trkpt lat="43.56305" lon="5.55297">
        <ele>481</ele>
        <time>2013-03-23T08:41:32.000Z</time>
      </trkpt>
      <trkpt lat="43.56311" lon="5.55275">
        <ele>480.60000610352</ele>
        <time>2013-03-23T08:41:34.000Z</time>
      </trkpt>
      <trkpt lat="43.56316" lon="5.55264">
        <ele>480.60000610352</ele>
        <time>2013-03-23T08:41:35.000Z</time>
      </trkpt>
      <trkpt lat="43.56319" lon="5.55253">
        <ele>480.20001220703</ele>
        <time>2013-03-23T08:41:36.000Z</time>
      </trkpt>
      <trkpt lat="43.56321" lon="5.55242">
        <ele>479.79998779297</ele>
        <time>2013-03-23T08:41:37.000Z</time>
      </trkpt>
      <trkpt lat="43.56322" lon="5.5523">
        <ele>479.20001220703</ele>
        <time>2013-03-23T08:41:38.000Z</time>
      </trkpt>
      <trkpt lat="43.56322" lon="5.55218">
        <ele>478.79998779297</ele>
        <time>2013-03-23T08:41:39.000Z</time>
      </trkpt>
      <trkpt lat="43.56319" lon="5.55207">
        <ele>478</ele>
        <time>2013-03-23T08:41:40.000Z</time>
      </trkpt>
      <trkpt lat="43.56315" lon="5.55196">
        <ele>477.39999389648</ele>
        <time>2013-03-23T08:41:41.000Z</time>
      </trkpt>
      <trkpt lat="43.56311" lon="5.55187">
        <ele>476.79998779297</ele>
        <time>2013-03-23T08:41:42.000Z</time>
      </trkpt>
      <trkpt lat="43.56308" lon="5.55177">
        <ele>476.20001220703</ele>
        <time>2013-03-23T08:41:43.000Z</time>
      </trkpt>
      <trkpt lat="43.56307" lon="5.55166">
        <ele>475.60000610352</ele>
        <time>2013-03-23T08:41:44.000Z</time>
      </trkpt>
      <trkpt lat="43.56306" lon="5.55154">
        <ele>475.79998779297</ele>
        <time>2013-03-23T08:41:45.000Z</time>
      </trkpt>
      <trkpt lat="43.56306" lon="5.55143">
        <ele>476</ele>
        <time>2013-03-23T08:41:46.000Z</time>
      </trkpt>
      <trkpt lat="43.56303" lon="5.55132">
        <ele>476</ele>
        <time>2013-03-23T08:41:47.000Z</time>
      </trkpt>
      <trkpt lat="43.563" lon="5.55123">
        <ele>476</ele>
        <time>2013-03-23T08:41:48.000Z</time>
      </trkpt>
      <trkpt lat="43.56295" lon="5.55114">
        <ele>475.79998779297</ele>
        <time>2013-03-23T08:41:49.000Z</time>
      </trkpt>
      <trkpt lat="43.5629" lon="5.55106">
        <ele>475.60000610352</ele>
        <time>2013-03-23T08:41:50.000Z</time>
      </trkpt>
      <trkpt lat="43.56247" lon="5.55018">
        <ele>474.60000610352</ele>
        <time>2013-03-23T08:42:00.000Z</time>
      </trkpt>
      <trkpt lat="43.56227" lon="5.54957">
        <ele>469.79998779297</ele>
        <time>2013-03-23T08:42:06.000Z</time>
      </trkpt>
      <trkpt lat="43.56216" lon="5.54926">
        <ele>466</ele>
        <time>2013-03-23T08:42:09.000Z</time>
      </trkpt>
      <trkpt lat="43.56213" lon="5.54903">
        <ele>464.79998779297</ele>
        <time>2013-03-23T08:42:11.000Z</time>
      </trkpt>
      <trkpt lat="43.56213" lon="5.54892">
        <ele>465</ele>
        <time>2013-03-23T08:42:12.000Z</time>
      </trkpt>
      <trkpt lat="43.56213" lon="5.54881">
        <ele>465.39999389648</ele>
        <time>2013-03-23T08:42:13.000Z</time>
      </trkpt>
      <trkpt lat="43.56214" lon="5.54871">
        <ele>465.79998779297</ele>
        <time>2013-03-23T08:42:14.000Z</time>
      </trkpt>
      <trkpt lat="43.56214" lon="5.54861">
        <ele>466.20001220703</ele>
        <time>2013-03-23T08:42:15.000Z</time>
      </trkpt>
      <trkpt lat="43.56214" lon="5.5485">
        <ele>466.39999389648</ele>
        <time>2013-03-23T08:42:16.000Z</time>
      </trkpt>
      <trkpt lat="43.56216" lon="5.54809">
        <ele>468.20001220703</ele>
        <time>2013-03-23T08:42:20.000Z</time>
      </trkpt>
      <trkpt lat="43.56223" lon="5.5478">
        <ele>470.60000610352</ele>
        <time>2013-03-23T08:42:23.000Z</time>
      </trkpt>
      <trkpt lat="43.56233" lon="5.5474">
        <ele>472.79998779297</ele>
        <time>2013-03-23T08:42:27.000Z</time>
      </trkpt>
      <trkpt lat="43.56234" lon="5.54729">
        <ele>472.79998779297</ele>
        <time>2013-03-23T08:42:28.000Z</time>
      </trkpt>
      <trkpt lat="43.56246" lon="5.54629">
        <ele>473</ele>
        <time>2013-03-23T08:42:37.000Z</time>
      </trkpt>
      <trkpt lat="43.56253" lon="5.54573">
        <ele>473</ele>
        <time>2013-03-23T08:42:42.000Z</time>
      </trkpt>
      <trkpt lat="43.56255" lon="5.54562">
        <ele>473.20001220703</ele>
        <time>2013-03-23T08:42:43.000Z</time>
      </trkpt>
      <trkpt lat="43.56258" lon="5.54552">
        <ele>473.39999389648</ele>
        <time>2013-03-23T08:42:44.000Z</time>
      </trkpt>
      <trkpt lat="43.56259" lon="5.54542">
        <ele>473.39999389648</ele>
        <time>2013-03-23T08:42:45.000Z</time>
      </trkpt>
      <trkpt lat="43.56258" lon="5.54533">
        <ele>473.39999389648</ele>
        <time>2013-03-23T08:42:46.000Z</time>
      </trkpt>
      <trkpt lat="43.56255" lon="5.54525">
        <ele>473.20001220703</ele>
        <time>2013-03-23T08:42:47.000Z</time>
      </trkpt>
      <trkpt lat="43.56252" lon="5.54517">
        <ele>473</ele>
        <time>2013-03-23T08:42:48.000Z</time>
      </trkpt>
      <trkpt lat="43.56249" lon="5.54508">
        <ele>472.79998779297</ele>
        <time>2013-03-23T08:42:49.000Z</time>
      </trkpt>
      <trkpt lat="43.56245" lon="5.54501">
        <ele>472.60000610352</ele>
        <time>2013-03-23T08:42:50.000Z</time>
      </trkpt>
      <trkpt lat="43.56241" lon="5.54494">
        <ele>472.60000610352</ele>
        <time>2013-03-23T08:42:51.000Z</time>
      </trkpt>
      <trkpt lat="43.56232" lon="5.54481">
        <ele>472.39999389648</ele>
        <time>2013-03-23T08:42:53.000Z</time>
      </trkpt>
      <trkpt lat="43.56227" lon="5.54475">
        <ele>472.20001220703</ele>
        <time>2013-03-23T08:42:54.000Z</time>
      </trkpt>
      <trkpt lat="43.56222" lon="5.54469">
        <ele>472</ele>
        <time>2013-03-23T08:42:55.000Z</time>
      </trkpt>
      <trkpt lat="43.56209" lon="5.54451">
        <ele>472</ele>
        <time>2013-03-23T08:42:58.000Z</time>
      </trkpt>
      <trkpt lat="43.56205" lon="5.54445">
        <ele>471.79998779297</ele>
        <time>2013-03-23T08:42:59.000Z</time>
      </trkpt>
      <trkpt lat="43.56202" lon="5.54439">
        <ele>472</ele>
        <time>2013-03-23T08:43:00.000Z</time>
      </trkpt>
      <trkpt lat="43.56197" lon="5.54427">
        <ele>472</ele>
        <time>2013-03-23T08:43:02.000Z</time>
      </trkpt>
      <trkpt lat="43.56194" lon="5.54422">
        <ele>472</ele>
        <time>2013-03-23T08:43:03.000Z</time>
      </trkpt>
      <trkpt lat="43.5619" lon="5.54418">
        <ele>472</ele>
        <time>2013-03-23T08:43:04.000Z</time>
      </trkpt>
      <trkpt lat="43.56186" lon="5.54413">
        <ele>471.79998779297</ele>
        <time>2013-03-23T08:43:05.000Z</time>
      </trkpt>
      <trkpt lat="43.56183" lon="5.54409">
        <ele>471.60000610352</ele>
        <time>2013-03-23T08:43:06.000Z</time>
      </trkpt>
      <trkpt lat="43.56145" lon="5.54355">
        <ele>470.20001220703</ele>
        <time>2013-03-23T08:43:18.000Z</time>
      </trkpt>
      <trkpt lat="43.56115" lon="5.54321">
        <ele>469.39999389648</ele>
        <time>2013-03-23T08:43:29.000Z</time>
      </trkpt>
      <trkpt lat="43.56091" lon="5.54297">
        <ele>469.79998779297</ele>
        <time>2013-03-23T08:43:39.000Z</time>
      </trkpt>
      <trkpt lat="43.56083" lon="5.54286">
        <ele>470.20001220703</ele>
        <time>2013-03-23T08:43:45.000Z</time>
      </trkpt>
      <trkpt lat="43.56076" lon="5.54274">
        <ele>470.60000610352</ele>
        <time>2013-03-23T08:43:53.000Z</time>
      </trkpt>
      <trkpt lat="43.56074" lon="5.54272">
        <ele>470.60000610352</ele>
        <time>2013-03-23T08:43:57.000Z</time>
      </trkpt>
      <trkpt lat="43.56074" lon="5.54271">
        <ele>470.79998779297</ele>
        <time>2013-03-23T08:43:58.000Z</time>
      </trkpt>
      <trkpt lat="43.56075" lon="5.54271">
        <ele>470.79998779297</ele>
        <time>2013-03-23T08:43:59.000Z</time>
      </trkpt>
      <trkpt lat="43.56076" lon="5.54272">
        <ele>470.79998779297</ele>
        <time>2013-03-23T08:44:00.000Z</time>
      </trkpt>
      <trkpt lat="43.56077" lon="5.54274">
        <ele>470.60000610352</ele>
        <time>2013-03-23T08:44:01.000Z</time>
      </trkpt>
      <trkpt lat="43.56077" lon="5.54275">
        <ele>470.60000610352</ele>
        <time>2013-03-23T08:44:02.000Z</time>
      </trkpt>
      <trkpt lat="43.56078" lon="5.54277">
        <ele>470.60000610352</ele>
        <time>2013-03-23T08:44:03.000Z</time>
      </trkpt>
      <trkpt lat="43.56079" lon="5.54278">
        <ele>470.39999389648</ele>
        <time>2013-03-23T08:44:04.000Z</time>
      </trkpt>
      <trkpt lat="43.56081" lon="5.54286">
        <ele>470.20001220703</ele>
        <time>2013-03-23T08:44:14.000Z</time>
      </trkpt>
      <trkpt lat="43.5608" lon="5.54286">
        <ele>470.20001220703</ele>
        <time>2013-03-23T08:44:15.000Z</time>
      </trkpt>
      <trkpt lat="43.56079" lon="5.54285">
        <ele>470.20001220703</ele>
        <time>2013-03-23T08:44:16.000Z</time>
      </trkpt>
      <trkpt lat="43.56077" lon="5.54276">
        <ele>470.60000610352</ele>
        <time>2013-03-23T08:44:23.000Z</time>
      </trkpt>
      <trkpt lat="43.5607" lon="5.54266">
        <ele>471</ele>
        <time>2013-03-23T08:44:28.000Z</time>
      </trkpt>
      <trkpt lat="43.56069" lon="5.54263">
        <ele>471</ele>
        <time>2013-03-23T08:44:29.000Z</time>
      </trkpt>
      <trkpt lat="43.5605" lon="5.54229">
        <ele>471.79998779297</ele>
        <time>2013-03-23T08:44:41.000Z</time>
      </trkpt>
      <trkpt lat="43.56036" lon="5.54191">
        <ele>472</ele>
        <time>2013-03-23T08:44:51.000Z</time>
      </trkpt>
      <trkpt lat="43.5601" lon="5.54122">
        <ele>470.79998779297</ele>
        <time>2013-03-23T08:45:05.000Z</time>
      </trkpt>
      <trkpt lat="43.55997" lon="5.54097">
        <ele>470</ele>
        <time>2013-03-23T08:45:10.000Z</time>
      </trkpt>
      <trkpt lat="43.55994" lon="5.54092">
        <ele>469.79998779297</ele>
        <time>2013-03-23T08:45:11.000Z</time>
      </trkpt>
      <trkpt lat="43.55991" lon="5.54088">
        <ele>469.60000610352</ele>
        <time>2013-03-23T08:45:12.000Z</time>
      </trkpt>
      <trkpt lat="43.55987" lon="5.54083">
        <ele>469.39999389648</ele>
        <time>2013-03-23T08:45:13.000Z</time>
      </trkpt>
      <trkpt lat="43.55984" lon="5.54078">
        <ele>469.60000610352</ele>
        <time>2013-03-23T08:45:14.000Z</time>
      </trkpt>
      <trkpt lat="43.55949" lon="5.54025">
        <ele>471.39999389648</ele>
        <time>2013-03-23T08:45:26.000Z</time>
      </trkpt>
      <trkpt lat="43.5591" lon="5.53954">
        <ele>473.39999389648</ele>
        <time>2013-03-23T08:45:40.000Z</time>
      </trkpt>
      <trkpt lat="43.55906" lon="5.53949">
        <ele>473.60000610352</ele>
        <time>2013-03-23T08:45:41.000Z</time>
      </trkpt>
      <trkpt lat="43.55903" lon="5.53946">
        <ele>473.60000610352</ele>
        <time>2013-03-23T08:45:42.000Z</time>
      </trkpt>
      <trkpt lat="43.55899" lon="5.53942">
        <ele>473.79998779297</ele>
        <time>2013-03-23T08:45:43.000Z</time>
      </trkpt>
      <trkpt lat="43.55877" lon="5.53918">
        <ele>474.39999389648</ele>
        <time>2013-03-23T08:45:49.000Z</time>
      </trkpt>
      <trkpt lat="43.5583" lon="5.53846">
        <ele>471.20001220703</ele>
        <time>2013-03-23T08:46:01.000Z</time>
      </trkpt>
      <trkpt lat="43.55822" lon="5.53831">
        <ele>470.20001220703</ele>
        <time>2013-03-23T08:46:03.000Z</time>
      </trkpt>
      <trkpt lat="43.55805" lon="5.53799">
        <ele>469.20001220703</ele>
        <time>2013-03-23T08:46:07.000Z</time>
      </trkpt>
      <trkpt lat="43.55802" lon="5.53789">
        <ele>469</ele>
        <time>2013-03-23T08:46:08.000Z</time>
      </trkpt>
      <trkpt lat="43.55801" lon="5.53779">
        <ele>468.79998779297</ele>
        <time>2013-03-23T08:46:09.000Z</time>
      </trkpt>
      <trkpt lat="43.55793" lon="5.53726">
        <ele>467.60000610352</ele>
        <time>2013-03-23T08:46:14.000Z</time>
      </trkpt>
      <trkpt lat="43.5578" lon="5.53685">
        <ele>466.39999389648</ele>
        <time>2013-03-23T08:46:18.000Z</time>
      </trkpt>
      <trkpt lat="43.55764" lon="5.5362">
        <ele>464</ele>
        <time>2013-03-23T08:46:24.000Z</time>
      </trkpt>
      <trkpt lat="43.55722" lon="5.53512">
        <ele>459.79998779297</ele>
        <time>2013-03-23T08:46:35.000Z</time>
      </trkpt>
      <trkpt lat="43.557" lon="5.5348">
        <ele>459</ele>
        <time>2013-03-23T08:46:39.000Z</time>
      </trkpt>
      <trkpt lat="43.55694" lon="5.53475">
        <ele>458.79998779297</ele>
        <time>2013-03-23T08:46:40.000Z</time>
      </trkpt>
      <trkpt lat="43.55686" lon="5.53471">
        <ele>458.60000610352</ele>
        <time>2013-03-23T08:46:41.000Z</time>
      </trkpt>
      <trkpt lat="43.55679" lon="5.53468">
        <ele>458.39999389648</ele>
        <time>2013-03-23T08:46:42.000Z</time>
      </trkpt>
      <trkpt lat="43.55671" lon="5.53466">
        <ele>458.20001220703</ele>
        <time>2013-03-23T08:46:43.000Z</time>
      </trkpt>
      <trkpt lat="43.55638" lon="5.5346">
        <ele>457.39999389648</ele>
        <time>2013-03-23T08:46:47.000Z</time>
      </trkpt>
      <trkpt lat="43.5563" lon="5.53461">
        <ele>457.20001220703</ele>
        <time>2013-03-23T08:46:48.000Z</time>
      </trkpt>
      <trkpt lat="43.55622" lon="5.53463">
        <ele>457</ele>
        <time>2013-03-23T08:46:49.000Z</time>
      </trkpt>
      <trkpt lat="43.55614" lon="5.53467">
        <ele>456.60000610352</ele>
        <time>2013-03-23T08:46:50.000Z</time>
      </trkpt>
      <trkpt lat="43.55606" lon="5.5347">
        <ele>456.20001220703</ele>
        <time>2013-03-23T08:46:51.000Z</time>
      </trkpt>
      <trkpt lat="43.5559" lon="5.53476">
        <ele>455.60000610352</ele>
        <time>2013-03-23T08:46:53.000Z</time>
      </trkpt>
      <trkpt lat="43.55581" lon="5.53477">
        <ele>455.20001220703</ele>
        <time>2013-03-23T08:46:54.000Z</time>
      </trkpt>
      <trkpt lat="43.55573" lon="5.53476">
        <ele>454.20001220703</ele>
        <time>2013-03-23T08:46:55.000Z</time>
      </trkpt>
      <trkpt lat="43.55558" lon="5.5347">
        <ele>452.39999389648</ele>
        <time>2013-03-23T08:46:57.000Z</time>
      </trkpt>
      <trkpt lat="43.55551" lon="5.53465">
        <ele>451.60000610352</ele>
        <time>2013-03-23T08:46:58.000Z</time>
      </trkpt>
      <trkpt lat="43.55545" lon="5.53456">
        <ele>451.20001220703</ele>
        <time>2013-03-23T08:46:59.000Z</time>
      </trkpt>
      <trkpt lat="43.55541" lon="5.53446">
        <ele>451</ele>
        <time>2013-03-23T08:47:00.000Z</time>
      </trkpt>
      <trkpt lat="43.55538" lon="5.53434">
        <ele>451</ele>
        <time>2013-03-23T08:47:01.000Z</time>
      </trkpt>
      <trkpt lat="43.55535" lon="5.53422">
        <ele>451</ele>
        <time>2013-03-23T08:47:02.000Z</time>
      </trkpt>
      <trkpt lat="43.55524" lon="5.5338">
        <ele>450.39999389648</ele>
        <time>2013-03-23T08:47:06.000Z</time>
      </trkpt>
      <trkpt lat="43.55524" lon="5.5337">
        <ele>450.39999389648</ele>
        <time>2013-03-23T08:47:07.000Z</time>
      </trkpt>
      <trkpt lat="43.55524" lon="5.53359">
        <ele>450.60000610352</ele>
        <time>2013-03-23T08:47:08.000Z</time>
      </trkpt>
      <trkpt lat="43.55523" lon="5.53348">
        <ele>450.60000610352</ele>
        <time>2013-03-23T08:47:09.000Z</time>
      </trkpt>
      <trkpt lat="43.5552" lon="5.5334">
        <ele>450.39999389648</ele>
        <time>2013-03-23T08:47:10.000Z</time>
      </trkpt>
      <trkpt lat="43.55515" lon="5.53334">
        <ele>450.20001220703</ele>
        <time>2013-03-23T08:47:11.000Z</time>
      </trkpt>
      <trkpt lat="43.55511" lon="5.5333">
        <ele>450.20001220703</ele>
        <time>2013-03-23T08:47:12.000Z</time>
      </trkpt>
      <trkpt lat="43.55507" lon="5.53327">
        <ele>450</ele>
        <time>2013-03-23T08:47:13.000Z</time>
      </trkpt>
      <trkpt lat="43.55503" lon="5.53324">
        <ele>450</ele>
        <time>2013-03-23T08:47:14.000Z</time>
      </trkpt>
      <trkpt lat="43.55491" lon="5.53313">
        <ele>449.79998779297</ele>
        <time>2013-03-23T08:47:17.000Z</time>
      </trkpt>
      <trkpt lat="43.55489" lon="5.53308">
        <ele>450</ele>
        <time>2013-03-23T08:47:18.000Z</time>
      </trkpt>
      <trkpt lat="43.55454" lon="5.53261">
        <ele>448.79998779297</ele>
        <time>2013-03-23T08:47:27.000Z</time>
      </trkpt>
      <trkpt lat="43.55438" lon="5.53236">
        <ele>446.79998779297</ele>
        <time>2013-03-23T08:47:30.000Z</time>
      </trkpt>
      <trkpt lat="43.55421" lon="5.53204">
        <ele>443.60000610352</ele>
        <time>2013-03-23T08:47:33.000Z</time>
      </trkpt>
      <trkpt lat="43.554" lon="5.5316">
        <ele>439.79998779297</ele>
        <time>2013-03-23T08:47:37.000Z</time>
      </trkpt>
      <trkpt lat="43.55389" lon="5.53134">
        <ele>438.79998779297</ele>
        <time>2013-03-23T08:47:39.000Z</time>
      </trkpt>
      <trkpt lat="43.55386" lon="5.5312">
        <ele>438.60000610352</ele>
        <time>2013-03-23T08:47:40.000Z</time>
      </trkpt>
      <trkpt lat="43.55385" lon="5.53107">
        <ele>438.39999389648</ele>
        <time>2013-03-23T08:47:41.000Z</time>
      </trkpt>
      <trkpt lat="43.55383" lon="5.53074">
        <ele>439</ele>
        <time>2013-03-23T08:47:44.000Z</time>
      </trkpt>
      <trkpt lat="43.55382" lon="5.53064">
        <ele>439.39999389648</ele>
        <time>2013-03-23T08:47:45.000Z</time>
      </trkpt>
      <trkpt lat="43.55379" lon="5.53056">
        <ele>439.60000610352</ele>
        <time>2013-03-23T08:47:46.000Z</time>
      </trkpt>
      <trkpt lat="43.55376" lon="5.53048">
        <ele>439.79998779297</ele>
        <time>2013-03-23T08:47:47.000Z</time>
      </trkpt>
      <trkpt lat="43.55372" lon="5.53042">
        <ele>440</ele>
        <time>2013-03-23T08:47:48.000Z</time>
      </trkpt>
      <trkpt lat="43.55367" lon="5.53037">
        <ele>439.79998779297</ele>
        <time>2013-03-23T08:47:49.000Z</time>
      </trkpt>
      <trkpt lat="43.55363" lon="5.53034">
        <ele>439.79998779297</ele>
        <time>2013-03-23T08:47:50.000Z</time>
      </trkpt>
      <trkpt lat="43.55358" lon="5.53031">
        <ele>439.60000610352</ele>
        <time>2013-03-23T08:47:51.000Z</time>
      </trkpt>
      <trkpt lat="43.55344" lon="5.53022">
        <ele>439.20001220703</ele>
        <time>2013-03-23T08:47:54.000Z</time>
      </trkpt>
      <trkpt lat="43.5534" lon="5.53018">
        <ele>439.20001220703</ele>
        <time>2013-03-23T08:47:55.000Z</time>
      </trkpt>
      <trkpt lat="43.55336" lon="5.53012">
        <ele>439.39999389648</ele>
        <time>2013-03-23T08:47:56.000Z</time>
      </trkpt>
      <trkpt lat="43.55332" lon="5.53006">
        <ele>439.20001220703</ele>
        <time>2013-03-23T08:47:57.000Z</time>
      </trkpt>
      <trkpt lat="43.5533" lon="5.52999">
        <ele>438.79998779297</ele>
        <time>2013-03-23T08:47:58.000Z</time>
      </trkpt>
      <trkpt lat="43.55327" lon="5.52991">
        <ele>438</ele>
        <time>2013-03-23T08:47:59.000Z</time>
      </trkpt>
      <trkpt lat="43.55325" lon="5.52982">
        <ele>437.39999389648</ele>
        <time>2013-03-23T08:48:00.000Z</time>
      </trkpt>
      <trkpt lat="43.55324" lon="5.52974">
        <ele>437.20001220703</ele>
        <time>2013-03-23T08:48:01.000Z</time>
      </trkpt>
      <trkpt lat="43.55324" lon="5.52965">
        <ele>437</ele>
        <time>2013-03-23T08:48:02.000Z</time>
      </trkpt>
      <trkpt lat="43.55319" lon="5.52911">
        <ele>435.60000610352</ele>
        <time>2013-03-23T08:48:08.000Z</time>
      </trkpt>
      <trkpt lat="43.55317" lon="5.52903">
        <ele>435.20001220703</ele>
        <time>2013-03-23T08:48:09.000Z</time>
      </trkpt>
      <trkpt lat="43.55314" lon="5.52895">
        <ele>434.39999389648</ele>
        <time>2013-03-23T08:48:10.000Z</time>
      </trkpt>
      <trkpt lat="43.5531" lon="5.52888">
        <ele>433.60000610352</ele>
        <time>2013-03-23T08:48:11.000Z</time>
      </trkpt>
      <trkpt lat="43.55306" lon="5.5288">
        <ele>432.79998779297</ele>
        <time>2013-03-23T08:48:12.000Z</time>
      </trkpt>
      <trkpt lat="43.55302" lon="5.52872">
        <ele>432</ele>
        <time>2013-03-23T08:48:13.000Z</time>
      </trkpt>
      <trkpt lat="43.5529" lon="5.52845">
        <ele>430.39999389648</ele>
        <time>2013-03-23T08:48:16.000Z</time>
      </trkpt>
      <trkpt lat="43.55287" lon="5.52836">
        <ele>430.20001220703</ele>
        <time>2013-03-23T08:48:17.000Z</time>
      </trkpt>
      <trkpt lat="43.55275" lon="5.52801">
        <ele>427.79998779297</ele>
        <time>2013-03-23T08:48:21.000Z</time>
      </trkpt>
      <trkpt lat="43.55247" lon="5.52753">
        <ele>423</ele>
        <time>2013-03-23T08:48:26.000Z</time>
      </trkpt>
      <trkpt lat="43.55231" lon="5.52715">
        <ele>417.79998779297</ele>
        <time>2013-03-23T08:48:29.000Z</time>
      </trkpt>
      <trkpt lat="43.55227" lon="5.52702">
        <ele>416.39999389648</ele>
        <time>2013-03-23T08:48:30.000Z</time>
      </trkpt>
      <trkpt lat="43.55225" lon="5.52688">
        <ele>415.60000610352</ele>
        <time>2013-03-23T08:48:31.000Z</time>
      </trkpt>
      <trkpt lat="43.55215" lon="5.52631">
        <ele>413.39999389648</ele>
        <time>2013-03-23T08:48:35.000Z</time>
      </trkpt>
      <trkpt lat="43.55214" lon="5.52616">
        <ele>413.20001220703</ele>
        <time>2013-03-23T08:48:36.000Z</time>
      </trkpt>
      <trkpt lat="43.55209" lon="5.52573">
        <ele>413</ele>
        <time>2013-03-23T08:48:39.000Z</time>
      </trkpt>
      <trkpt lat="43.55206" lon="5.52547">
        <ele>413.39999389648</ele>
        <time>2013-03-23T08:48:41.000Z</time>
      </trkpt>
      <trkpt lat="43.55205" lon="5.52535">
        <ele>414</ele>
        <time>2013-03-23T08:48:42.000Z</time>
      </trkpt>
      <trkpt lat="43.55206" lon="5.52522">
        <ele>414.60000610352</ele>
        <time>2013-03-23T08:48:43.000Z</time>
      </trkpt>
      <trkpt lat="43.55206" lon="5.52498">
        <ele>415.79998779297</ele>
        <time>2013-03-23T08:48:45.000Z</time>
      </trkpt>
      <trkpt lat="43.55204" lon="5.52487">
        <ele>416.20001220703</ele>
        <time>2013-03-23T08:48:46.000Z</time>
      </trkpt>
      <trkpt lat="43.55201" lon="5.52476">
        <ele>416.20001220703</ele>
        <time>2013-03-23T08:48:47.000Z</time>
      </trkpt>
      <trkpt lat="43.55195" lon="5.52469">
        <ele>415.79998779297</ele>
        <time>2013-03-23T08:48:48.000Z</time>
      </trkpt>
      <trkpt lat="43.55189" lon="5.52464">
        <ele>415</ele>
        <time>2013-03-23T08:48:49.000Z</time>
      </trkpt>
      <trkpt lat="43.55182" lon="5.5246">
        <ele>414.20001220703</ele>
        <time>2013-03-23T08:48:50.000Z</time>
      </trkpt>
      <trkpt lat="43.55176" lon="5.52457">
        <ele>413.39999389648</ele>
        <time>2013-03-23T08:48:51.000Z</time>
      </trkpt>
      <trkpt lat="43.55169" lon="5.52455">
        <ele>412.60000610352</ele>
        <time>2013-03-23T08:48:52.000Z</time>
      </trkpt>
      <trkpt lat="43.55137" lon="5.52438">
        <ele>410</ele>
        <time>2013-03-23T08:48:56.000Z</time>
      </trkpt>
      <trkpt lat="43.5513" lon="5.52431">
        <ele>410</ele>
        <time>2013-03-23T08:48:57.000Z</time>
      </trkpt>
      <trkpt lat="43.55124" lon="5.52423">
        <ele>410</ele>
        <time>2013-03-23T08:48:58.000Z</time>
      </trkpt>
      <trkpt lat="43.55088" lon="5.52375">
        <ele>408</ele>
        <time>2013-03-23T08:49:04.000Z</time>
      </trkpt>
      <trkpt lat="43.55074" lon="5.52359">
        <ele>407.60000610352</ele>
        <time>2013-03-23T08:49:06.000Z</time>
      </trkpt>
      <trkpt lat="43.55066" lon="5.52353">
        <ele>407</ele>
        <time>2013-03-23T08:49:07.000Z</time>
      </trkpt>
      <trkpt lat="43.55056" lon="5.5235">
        <ele>406.39999389648</ele>
        <time>2013-03-23T08:49:08.000Z</time>
      </trkpt>
      <trkpt lat="43.55047" lon="5.52348">
        <ele>405.39999389648</ele>
        <time>2013-03-23T08:49:09.000Z</time>
      </trkpt>
      <trkpt lat="43.55037" lon="5.52348">
        <ele>404.39999389648</ele>
        <time>2013-03-23T08:49:10.000Z</time>
      </trkpt>
      <trkpt lat="43.55027" lon="5.5235">
        <ele>403.60000610352</ele>
        <time>2013-03-23T08:49:11.000Z</time>
      </trkpt>
      <trkpt lat="43.55019" lon="5.52354">
        <ele>402.60000610352</ele>
        <time>2013-03-23T08:49:12.000Z</time>
      </trkpt>
      <trkpt lat="43.5501" lon="5.52358">
        <ele>401.79998779297</ele>
        <time>2013-03-23T08:49:13.000Z</time>
      </trkpt>
      <trkpt lat="43.55002" lon="5.52362">
        <ele>401</ele>
        <time>2013-03-23T08:49:14.000Z</time>
      </trkpt>
      <trkpt lat="43.54994" lon="5.52365">
        <ele>400.20001220703</ele>
        <time>2013-03-23T08:49:15.000Z</time>
      </trkpt>
      <trkpt lat="43.54985" lon="5.52365">
        <ele>399.39999389648</ele>
        <time>2013-03-23T08:49:16.000Z</time>
      </trkpt>
      <trkpt lat="43.54977" lon="5.52363">
        <ele>398.60000610352</ele>
        <time>2013-03-23T08:49:17.000Z</time>
      </trkpt>
      <trkpt lat="43.54969" lon="5.52356">
        <ele>397.79998779297</ele>
        <time>2013-03-23T08:49:18.000Z</time>
      </trkpt>
      <trkpt lat="43.54963" lon="5.52346">
        <ele>397.20001220703</ele>
        <time>2013-03-23T08:49:19.000Z</time>
      </trkpt>
      <trkpt lat="43.54957" lon="5.52337">
        <ele>396.79998779297</ele>
        <time>2013-03-23T08:49:20.000Z</time>
      </trkpt>
      <trkpt lat="43.5495" lon="5.5233">
        <ele>396.39999389648</ele>
        <time>2013-03-23T08:49:21.000Z</time>
      </trkpt>
      <trkpt lat="43.54942" lon="5.52326">
        <ele>395.79998779297</ele>
        <time>2013-03-23T08:49:22.000Z</time>
      </trkpt>
      <trkpt lat="43.54933" lon="5.52326">
        <ele>395</ele>
        <time>2013-03-23T08:49:23.000Z</time>
      </trkpt>
      <trkpt lat="43.54925" lon="5.52329">
        <ele>394</ele>
        <time>2013-03-23T08:49:24.000Z</time>
      </trkpt>
      <trkpt lat="43.54916" lon="5.52335">
        <ele>392.79998779297</ele>
        <time>2013-03-23T08:49:25.000Z</time>
      </trkpt>
      <trkpt lat="43.54908" lon="5.52343">
        <ele>392.60000610352</ele>
        <time>2013-03-23T08:49:26.000Z</time>
      </trkpt>
      <trkpt lat="43.54901" lon="5.52354">
        <ele>392.20001220703</ele>
        <time>2013-03-23T08:49:27.000Z</time>
      </trkpt>
      <trkpt lat="43.54897" lon="5.52367">
        <ele>392</ele>
        <time>2013-03-23T08:49:28.000Z</time>
      </trkpt>
      <trkpt lat="43.54893" lon="5.52381">
        <ele>391.60000610352</ele>
        <time>2013-03-23T08:49:29.000Z</time>
      </trkpt>
      <trkpt lat="43.54888" lon="5.52393">
        <ele>391.39999389648</ele>
        <time>2013-03-23T08:49:30.000Z</time>
      </trkpt>
      <trkpt lat="43.5488" lon="5.52402">
        <ele>391.20001220703</ele>
        <time>2013-03-23T08:49:31.000Z</time>
      </trkpt>
      <trkpt lat="43.54871" lon="5.52407">
        <ele>391</ele>
        <time>2013-03-23T08:49:32.000Z</time>
      </trkpt>
      <trkpt lat="43.54863" lon="5.52411">
        <ele>391</ele>
        <time>2013-03-23T08:49:33.000Z</time>
      </trkpt>
      <trkpt lat="43.54855" lon="5.52414">
        <ele>391</ele>
        <time>2013-03-23T08:49:34.000Z</time>
      </trkpt>
      <trkpt lat="43.54841" lon="5.52424">
        <ele>391</ele>
        <time>2013-03-23T08:49:38.000Z</time>
      </trkpt>
      <trkpt lat="43.5484" lon="5.52429">
        <ele>391</ele>
        <time>2013-03-23T08:49:39.000Z</time>
      </trkpt>
      <trkpt lat="43.5484" lon="5.52434">
        <ele>391</ele>
        <time>2013-03-23T08:49:40.000Z</time>
      </trkpt>
      <trkpt lat="43.54841" lon="5.5244">
        <ele>391</ele>
        <time>2013-03-23T08:49:41.000Z</time>
      </trkpt>
      <trkpt lat="43.54842" lon="5.52446">
        <ele>391</ele>
        <time>2013-03-23T08:49:42.000Z</time>
      </trkpt>
      <trkpt lat="43.54843" lon="5.52452">
        <ele>391</ele>
        <time>2013-03-23T08:49:43.000Z</time>
      </trkpt>
      <trkpt lat="43.54857" lon="5.5253">
        <ele>390.79998779297</ele>
        <time>2013-03-23T08:49:53.000Z</time>
      </trkpt>
      <trkpt lat="43.54868" lon="5.52588">
        <ele>389.39999389648</ele>
        <time>2013-03-23T08:49:59.000Z</time>
      </trkpt>
      <trkpt lat="43.54891" lon="5.52705">
        <ele>382</ele>
        <time>2013-03-23T08:50:10.000Z</time>
      </trkpt>
      <trkpt lat="43.54918" lon="5.52843">
        <ele>376.20001220703</ele>
        <time>2013-03-23T08:50:23.000Z</time>
      </trkpt>
      <trkpt lat="43.54928" lon="5.52895">
        <ele>377</ele>
        <time>2013-03-23T08:50:28.000Z</time>
      </trkpt>
      <trkpt lat="43.54952" lon="5.53029">
        <ele>377.20001220703</ele>
        <time>2013-03-23T08:50:41.000Z</time>
      </trkpt>
      <trkpt lat="43.54953" lon="5.5304">
        <ele>377.20001220703</ele>
        <time>2013-03-23T08:50:42.000Z</time>
      </trkpt>
      <trkpt lat="43.5494" lon="5.5315">
        <ele>378.39999389648</ele>
        <time>2013-03-23T08:50:53.000Z</time>
      </trkpt>
      <trkpt lat="43.54934" lon="5.53177">
        <ele>378</ele>
        <time>2013-03-23T08:50:56.000Z</time>
      </trkpt>
      <trkpt lat="43.54931" lon="5.53186">
        <ele>377.39999389648</ele>
        <time>2013-03-23T08:50:57.000Z</time>
      </trkpt>
      <trkpt lat="43.54928" lon="5.53194">
        <ele>377</ele>
        <time>2013-03-23T08:50:58.000Z</time>
      </trkpt>
      <trkpt lat="43.54884" lon="5.53281">
        <ele>378.39999389648</ele>
        <time>2013-03-23T08:51:10.000Z</time>
      </trkpt>
      <trkpt lat="43.54864" lon="5.53325">
        <ele>381.39999389648</ele>
        <time>2013-03-23T08:51:17.000Z</time>
      </trkpt>
      <trkpt lat="43.54863" lon="5.53332">
        <ele>381</ele>
        <time>2013-03-23T08:51:18.000Z</time>
      </trkpt>
      <trkpt lat="43.54858" lon="5.53369">
        <ele>378.39999389648</ele>
        <time>2013-03-23T08:51:23.000Z</time>
      </trkpt>
      <trkpt lat="43.54855" lon="5.53375">
        <ele>378.20001220703</ele>
        <time>2013-03-23T08:51:24.000Z</time>
      </trkpt>
      <trkpt lat="43.54849" lon="5.53387">
        <ele>378</ele>
        <time>2013-03-23T08:51:26.000Z</time>
      </trkpt>
      <trkpt lat="43.54846" lon="5.53393">
        <ele>378</ele>
        <time>2013-03-23T08:51:27.000Z</time>
      </trkpt>
      <trkpt lat="43.54842" lon="5.53398">
        <ele>378.20001220703</ele>
        <time>2013-03-23T08:51:28.000Z</time>
      </trkpt>
      <trkpt lat="43.54839" lon="5.53402">
        <ele>378.20001220703</ele>
        <time>2013-03-23T08:51:29.000Z</time>
      </trkpt>
      <trkpt lat="43.54835" lon="5.53407">
        <ele>378.39999389648</ele>
        <time>2013-03-23T08:51:30.000Z</time>
      </trkpt>
      <trkpt lat="43.54822" lon="5.5342">
        <ele>378.79998779297</ele>
        <time>2013-03-23T08:51:33.000Z</time>
      </trkpt>
      <trkpt lat="43.5479" lon="5.53464">
        <ele>378.20001220703</ele>
        <time>2013-03-23T08:51:43.000Z</time>
      </trkpt>
      <trkpt lat="43.54788" lon="5.53469">
        <ele>378</ele>
        <time>2013-03-23T08:51:44.000Z</time>
      </trkpt>
      <trkpt lat="43.54785" lon="5.53474">
        <ele>377.79998779297</ele>
        <time>2013-03-23T08:51:45.000Z</time>
      </trkpt>
      <trkpt lat="43.54774" lon="5.53489">
        <ele>377.79998779297</ele>
        <time>2013-03-23T08:51:48.000Z</time>
      </trkpt>
      <trkpt lat="43.54771" lon="5.53493">
        <ele>378.20001220703</ele>
        <time>2013-03-23T08:51:49.000Z</time>
      </trkpt>
      <trkpt lat="43.54767" lon="5.53495">
        <ele>378.60000610352</ele>
        <time>2013-03-23T08:51:50.000Z</time>
      </trkpt>
      <trkpt lat="43.54763" lon="5.53496">
        <ele>379.20001220703</ele>
        <time>2013-03-23T08:51:51.000Z</time>
      </trkpt>
      <trkpt lat="43.54759" lon="5.53496">
        <ele>380.20001220703</ele>
        <time>2013-03-23T08:51:52.000Z</time>
      </trkpt>
      <trkpt lat="43.54755" lon="5.53495">
        <ele>381.39999389648</ele>
        <time>2013-03-23T08:51:53.000Z</time>
      </trkpt>
      <trkpt lat="43.54751" lon="5.53495">
        <ele>382.60000610352</ele>
        <time>2013-03-23T08:51:54.000Z</time>
      </trkpt>
      <trkpt lat="43.54716" lon="5.53494">
        <ele>384</ele>
        <time>2013-03-23T08:52:02.000Z</time>
      </trkpt>
      <trkpt lat="43.54705" lon="5.53501">
        <ele>383.39999389648</ele>
        <time>2013-03-23T08:52:05.000Z</time>
      </trkpt>
      <trkpt lat="43.54701" lon="5.53502">
        <ele>383.60000610352</ele>
        <time>2013-03-23T08:52:06.000Z</time>
      </trkpt>
      <trkpt lat="43.54678" lon="5.53499">
        <ele>384.60000610352</ele>
        <time>2013-03-23T08:52:12.000Z</time>
      </trkpt>
      <trkpt lat="43.54673" lon="5.53499">
        <ele>384.79998779297</ele>
        <time>2013-03-23T08:52:13.000Z</time>
      </trkpt>
      <trkpt lat="43.54668" lon="5.53498">
        <ele>385</ele>
        <time>2013-03-23T08:52:14.000Z</time>
      </trkpt>
      <trkpt lat="43.54663" lon="5.53499">
        <ele>384.79998779297</ele>
        <time>2013-03-23T08:52:15.000Z</time>
      </trkpt>
      <trkpt lat="43.54656" lon="5.535">
        <ele>384.20001220703</ele>
        <time>2013-03-23T08:52:16.000Z</time>
      </trkpt>
      <trkpt lat="43.5465" lon="5.535">
        <ele>383.79998779297</ele>
        <time>2013-03-23T08:52:17.000Z</time>
      </trkpt>
      <trkpt lat="43.54643" lon="5.535">
        <ele>383.60000610352</ele>
        <time>2013-03-23T08:52:18.000Z</time>
      </trkpt>
      <trkpt lat="43.54616" lon="5.53498">
        <ele>382</ele>
        <time>2013-03-23T08:52:22.000Z</time>
      </trkpt>
      <trkpt lat="43.5461" lon="5.53497">
        <ele>381.79998779297</ele>
        <time>2013-03-23T08:52:23.000Z</time>
      </trkpt>
      <trkpt lat="43.54605" lon="5.53495">
        <ele>381.79998779297</ele>
        <time>2013-03-23T08:52:24.000Z</time>
      </trkpt>
      <trkpt lat="43.546" lon="5.53492">
        <ele>381.79998779297</ele>
        <time>2013-03-23T08:52:25.000Z</time>
      </trkpt>
      <trkpt lat="43.54596" lon="5.53488">
        <ele>382</ele>
        <time>2013-03-23T08:52:26.000Z</time>
      </trkpt>
      <trkpt lat="43.54568" lon="5.53465">
        <ele>383.20001220703</ele>
        <time>2013-03-23T08:52:32.000Z</time>
      </trkpt>
      <trkpt lat="43.54563" lon="5.53463">
        <ele>383.20001220703</ele>
        <time>2013-03-23T08:52:33.000Z</time>
      </trkpt>
      <trkpt lat="43.54558" lon="5.53462">
        <ele>383</ele>
        <time>2013-03-23T08:52:34.000Z</time>
      </trkpt>
      <trkpt lat="43.54552" lon="5.53462">
        <ele>383</ele>
        <time>2013-03-23T08:52:35.000Z</time>
      </trkpt>
      <trkpt lat="43.54546" lon="5.53461">
        <ele>382.79998779297</ele>
        <time>2013-03-23T08:52:36.000Z</time>
      </trkpt>
      <trkpt lat="43.54539" lon="5.53461">
        <ele>382.60000610352</ele>
        <time>2013-03-23T08:52:37.000Z</time>
      </trkpt>
      <trkpt lat="43.54509" lon="5.53459">
        <ele>381.60000610352</ele>
        <time>2013-03-23T08:52:43.000Z</time>
      </trkpt>
      <trkpt lat="43.54503" lon="5.53459">
        <ele>381.39999389648</ele>
        <time>2013-03-23T08:52:44.000Z</time>
      </trkpt>
      <trkpt lat="43.54497" lon="5.53459">
        <ele>381.20001220703</ele>
        <time>2013-03-23T08:52:45.000Z</time>
      </trkpt>
      <trkpt lat="43.54484" lon="5.53458">
        <ele>380.60000610352</ele>
        <time>2013-03-23T08:52:47.000Z</time>
      </trkpt>
      <trkpt lat="43.54478" lon="5.53458">
        <ele>380.20001220703</ele>
        <time>2013-03-23T08:52:48.000Z</time>
      </trkpt>
      <trkpt lat="43.54466" lon="5.53457">
        <ele>379.60000610352</ele>
        <time>2013-03-23T08:52:50.000Z</time>
      </trkpt>
      <trkpt lat="43.54461" lon="5.53455">
        <ele>379.60000610352</ele>
        <time>2013-03-23T08:52:51.000Z</time>
      </trkpt>
      <trkpt lat="43.54455" lon="5.53452">
        <ele>379.60000610352</ele>
        <time>2013-03-23T08:52:52.000Z</time>
      </trkpt>
      <trkpt lat="43.54446" lon="5.53445">
        <ele>379.79998779297</ele>
        <time>2013-03-23T08:52:54.000Z</time>
      </trkpt>
      <trkpt lat="43.54441" lon="5.53441">
        <ele>380</ele>
        <time>2013-03-23T08:52:55.000Z</time>
      </trkpt>
      <trkpt lat="43.54437" lon="5.53436">
        <ele>380.20001220703</ele>
        <time>2013-03-23T08:52:56.000Z</time>
      </trkpt>
      <trkpt lat="43.54433" lon="5.5343">
        <ele>380.60000610352</ele>
        <time>2013-03-23T08:52:57.000Z</time>
      </trkpt>
      <trkpt lat="43.54429" lon="5.53425">
        <ele>380.79998779297</ele>
        <time>2013-03-23T08:52:58.000Z</time>
      </trkpt>
      <trkpt lat="43.54424" lon="5.53421">
        <ele>380.79998779297</ele>
        <time>2013-03-23T08:52:59.000Z</time>
      </trkpt>
      <trkpt lat="43.54418" lon="5.53418">
        <ele>380.79998779297</ele>
        <time>2013-03-23T08:53:00.000Z</time>
      </trkpt>
      <trkpt lat="43.54408" lon="5.53411">
        <ele>379.20001220703</ele>
        <time>2013-03-23T08:53:02.000Z</time>
      </trkpt>
      <trkpt lat="43.54404" lon="5.53406">
        <ele>378.60000610352</ele>
        <time>2013-03-23T08:53:03.000Z</time>
      </trkpt>
      <trkpt lat="43.544" lon="5.53401">
        <ele>378.20001220703</ele>
        <time>2013-03-23T08:53:04.000Z</time>
      </trkpt>
      <trkpt lat="43.54397" lon="5.53395">
        <ele>378</ele>
        <time>2013-03-23T08:53:05.000Z</time>
      </trkpt>
      <trkpt lat="43.54394" lon="5.53388">
        <ele>378</ele>
        <time>2013-03-23T08:53:06.000Z</time>
      </trkpt>
      <trkpt lat="43.5439" lon="5.53381">
        <ele>378</ele>
        <time>2013-03-23T08:53:07.000Z</time>
      </trkpt>
      <trkpt lat="43.54387" lon="5.53374">
        <ele>378</ele>
        <time>2013-03-23T08:53:08.000Z</time>
      </trkpt>
      <trkpt lat="43.54382" lon="5.53368">
        <ele>378</ele>
        <time>2013-03-23T08:53:09.000Z</time>
      </trkpt>
      <trkpt lat="43.54377" lon="5.53363">
        <ele>377.79998779297</ele>
        <time>2013-03-23T08:53:10.000Z</time>
      </trkpt>
      <trkpt lat="43.54372" lon="5.53358">
        <ele>377.79998779297</ele>
        <time>2013-03-23T08:53:11.000Z</time>
      </trkpt>
      <trkpt lat="43.54366" lon="5.53355">
        <ele>377.79998779297</ele>
        <time>2013-03-23T08:53:12.000Z</time>
      </trkpt>
      <trkpt lat="43.54361" lon="5.53353">
        <ele>377.60000610352</ele>
        <time>2013-03-23T08:53:13.000Z</time>
      </trkpt>
      <trkpt lat="43.54356" lon="5.53352">
        <ele>377.20001220703</ele>
        <time>2013-03-23T08:53:14.000Z</time>
      </trkpt>
      <trkpt lat="43.54351" lon="5.53352">
        <ele>376.79998779297</ele>
        <time>2013-03-23T08:53:15.000Z</time>
      </trkpt>
      <trkpt lat="43.54346" lon="5.53351">
        <ele>376.60000610352</ele>
        <time>2013-03-23T08:53:16.000Z</time>
      </trkpt>
      <trkpt lat="43.54341" lon="5.5335">
        <ele>376.39999389648</ele>
        <time>2013-03-23T08:53:17.000Z</time>
      </trkpt>
      <trkpt lat="43.54312" lon="5.53344">
        <ele>374</ele>
        <time>2013-03-23T08:53:22.000Z</time>
      </trkpt>
      <trkpt lat="43.54299" lon="5.53342">
        <ele>372.79998779297</ele>
        <time>2013-03-23T08:53:24.000Z</time>
      </trkpt>
      <trkpt lat="43.54294" lon="5.53343">
        <ele>372</ele>
        <time>2013-03-23T08:53:25.000Z</time>
      </trkpt>
      <trkpt lat="43.54289" lon="5.53344">
        <ele>371.20001220703</ele>
        <time>2013-03-23T08:53:26.000Z</time>
      </trkpt>
      <trkpt lat="43.54283" lon="5.53344">
        <ele>370.39999389648</ele>
        <time>2013-03-23T08:53:27.000Z</time>
      </trkpt>
      <trkpt lat="43.54278" lon="5.53346">
        <ele>369.39999389648</ele>
        <time>2013-03-23T08:53:28.000Z</time>
      </trkpt>
      <trkpt lat="43.54274" lon="5.53348">
        <ele>368.60000610352</ele>
        <time>2013-03-23T08:53:29.000Z</time>
      </trkpt>
      <trkpt lat="43.54269" lon="5.53348">
        <ele>367.79998779297</ele>
        <time>2013-03-23T08:53:30.000Z</time>
      </trkpt>
      <trkpt lat="43.54265" lon="5.53347">
        <ele>367.60000610352</ele>
        <time>2013-03-23T08:53:31.000Z</time>
      </trkpt>
      <trkpt lat="43.54263" lon="5.53344">
        <ele>367.60000610352</ele>
        <time>2013-03-23T08:53:32.000Z</time>
      </trkpt>
      <trkpt lat="43.54259" lon="5.53342">
        <ele>367.60000610352</ele>
        <time>2013-03-23T08:53:33.000Z</time>
      </trkpt>
      <trkpt lat="43.54256" lon="5.53341">
        <ele>367.39999389648</ele>
        <time>2013-03-23T08:53:34.000Z</time>
      </trkpt>
      <trkpt lat="43.54254" lon="5.53341">
        <ele>367</ele>
        <time>2013-03-23T08:53:35.000Z</time>
      </trkpt>
      <trkpt lat="43.54251" lon="5.53342">
        <ele>366.60000610352</ele>
        <time>2013-03-23T08:53:36.000Z</time>
      </trkpt>
      <trkpt lat="43.54248" lon="5.53342">
        <ele>366</ele>
        <time>2013-03-23T08:53:37.000Z</time>
      </trkpt>
      <trkpt lat="43.54245" lon="5.53342">
        <ele>365.60000610352</ele>
        <time>2013-03-23T08:53:38.000Z</time>
      </trkpt>
      <trkpt lat="43.54243" lon="5.53341">
        <ele>365.20001220703</ele>
        <time>2013-03-23T08:53:39.000Z</time>
      </trkpt>
      <trkpt lat="43.54222" lon="5.53332">
        <ele>362.60000610352</ele>
        <time>2013-03-23T08:53:45.000Z</time>
      </trkpt>
      <trkpt lat="43.54199" lon="5.53319">
        <ele>358.60000610352</ele>
        <time>2013-03-23T08:53:51.000Z</time>
      </trkpt>
      <trkpt lat="43.54195" lon="5.53318">
        <ele>358</ele>
        <time>2013-03-23T08:53:52.000Z</time>
      </trkpt>
      <trkpt lat="43.54187" lon="5.53319">
        <ele>356.39999389648</ele>
        <time>2013-03-23T08:53:56.000Z</time>
      </trkpt>
      <trkpt lat="43.54186" lon="5.5332">
        <ele>356.20001220703</ele>
        <time>2013-03-23T08:53:57.000Z</time>
      </trkpt>
      <trkpt lat="43.54185" lon="5.53321">
        <ele>356</ele>
        <time>2013-03-23T08:53:58.000Z</time>
      </trkpt>
      <trkpt lat="43.54184" lon="5.53322">
        <ele>355.79998779297</ele>
        <time>2013-03-23T08:53:59.000Z</time>
      </trkpt>
      <trkpt lat="43.54182" lon="5.53323">
        <ele>355.39999389648</ele>
        <time>2013-03-23T08:54:00.000Z</time>
      </trkpt>
      <trkpt lat="43.5418" lon="5.53324">
        <ele>355</ele>
        <time>2013-03-23T08:54:01.000Z</time>
      </trkpt>
      <trkpt lat="43.54178" lon="5.53327">
        <ele>354.39999389648</ele>
        <time>2013-03-23T08:54:02.000Z</time>
      </trkpt>
      <trkpt lat="43.54176" lon="5.53329">
        <ele>354</ele>
        <time>2013-03-23T08:54:03.000Z</time>
      </trkpt>
      <trkpt lat="43.54174" lon="5.53332">
        <ele>353.39999389648</ele>
        <time>2013-03-23T08:54:04.000Z</time>
      </trkpt>
      <trkpt lat="43.54173" lon="5.53334">
        <ele>353</ele>
        <time>2013-03-23T08:54:05.000Z</time>
      </trkpt>
      <trkpt lat="43.54168" lon="5.53343">
        <ele>352.39999389648</ele>
        <time>2013-03-23T08:54:09.000Z</time>
      </trkpt>
      <trkpt lat="43.54167" lon="5.53345">
        <ele>352.39999389648</ele>
        <time>2013-03-23T08:54:10.000Z</time>
      </trkpt>
      <trkpt lat="43.54167" lon="5.53346">
        <ele>352.39999389648</ele>
        <time>2013-03-23T08:54:11.000Z</time>
      </trkpt>
      <trkpt lat="43.54166" lon="5.53349">
        <ele>352</ele>
        <time>2013-03-23T08:54:13.000Z</time>
      </trkpt>
      <trkpt lat="43.54165" lon="5.5335">
        <ele>351.79998779297</ele>
        <time>2013-03-23T08:54:14.000Z</time>
      </trkpt>
      <trkpt lat="43.54165" lon="5.53351">
        <ele>351.60000610352</ele>
        <time>2013-03-23T08:54:15.000Z</time>
      </trkpt>
      <trkpt lat="43.54166" lon="5.53351">
        <ele>352.20001220703</ele>
        <time>2013-03-23T08:54:25.000Z</time>
      </trkpt>
      <trkpt lat="43.54165" lon="5.53353">
        <ele>351.60000610352</ele>
        <time>2013-03-23T08:54:44.000Z</time>
      </trkpt>
      <trkpt lat="43.54164" lon="5.53363">
        <ele>351.79998779297</ele>
        <time>2013-03-23T08:54:51.000Z</time>
      </trkpt>
      <trkpt lat="43.54162" lon="5.53368">
        <ele>351.20001220703</ele>
        <time>2013-03-23T08:54:53.000Z</time>
      </trkpt>
      <trkpt lat="43.54162" lon="5.53371">
        <ele>350.79998779297</ele>
        <time>2013-03-23T08:54:54.000Z</time>
      </trkpt>
      <trkpt lat="43.54161" lon="5.53374">
        <ele>350.60000610352</ele>
        <time>2013-03-23T08:54:55.000Z</time>
      </trkpt>
      <trkpt lat="43.54161" lon="5.53377">
        <ele>350.60000610352</ele>
        <time>2013-03-23T08:54:56.000Z</time>
      </trkpt>
      <trkpt lat="43.5416" lon="5.53381">
        <ele>350.39999389648</ele>
        <time>2013-03-23T08:54:57.000Z</time>
      </trkpt>
      <trkpt lat="43.5416" lon="5.53384">
        <ele>350.20001220703</ele>
        <time>2013-03-23T08:54:58.000Z</time>
      </trkpt>
      <trkpt lat="43.54145" lon="5.53422">
        <ele>343.79998779297</ele>
        <time>2013-03-23T08:55:07.000Z</time>
      </trkpt>
      <trkpt lat="43.54136" lon="5.53447">
        <ele>339.20001220703</ele>
        <time>2013-03-23T08:55:13.000Z</time>
      </trkpt>
      <trkpt lat="43.54137" lon="5.53452">
        <ele>339.20001220703</ele>
        <time>2013-03-23T08:55:14.000Z</time>
      </trkpt>
      <trkpt lat="43.54137" lon="5.53457">
        <ele>339.39999389648</ele>
        <time>2013-03-23T08:55:15.000Z</time>
      </trkpt>
      <trkpt lat="43.54146" lon="5.53503">
        <ele>341.79998779297</ele>
        <time>2013-03-23T08:55:24.000Z</time>
      </trkpt>
      <trkpt lat="43.54148" lon="5.53512">
        <ele>342</ele>
        <time>2013-03-23T08:55:26.000Z</time>
      </trkpt>
      <trkpt lat="43.54155" lon="5.53534">
        <ele>342.60000610352</ele>
        <time>2013-03-23T08:55:32.000Z</time>
      </trkpt>
      <trkpt lat="43.54155" lon="5.53534">
        <ele>342.60000610352</ele>
        <time>2013-03-23T08:55:35.000Z</time>
      </trkpt>
      <trkpt lat="43.54155" lon="5.53533">
        <ele>342.39999389648</ele>
        <time>2013-03-23T08:55:38.000Z</time>
      </trkpt>
      <trkpt lat="43.54153" lon="5.53536">
        <ele>341.39999389648</ele>
        <time>2013-03-23T08:55:48.000Z</time>
      </trkpt>
      <trkpt lat="43.54154" lon="5.53541">
        <ele>341.20001220703</ele>
        <time>2013-03-23T08:55:56.000Z</time>
      </trkpt>
      <trkpt lat="43.54152" lon="5.53559">
        <ele>338.79998779297</ele>
        <time>2013-03-23T08:56:07.000Z</time>
      </trkpt>
      <trkpt lat="43.5415" lon="5.53565">
        <ele>337.60000610352</ele>
        <time>2013-03-23T08:56:08.000Z</time>
      </trkpt>
      <trkpt lat="43.54148" lon="5.53571">
        <ele>336.20001220703</ele>
        <time>2013-03-23T08:56:09.000Z</time>
      </trkpt>
      <trkpt lat="43.54145" lon="5.53577">
        <ele>334.60000610352</ele>
        <time>2013-03-23T08:56:10.000Z</time>
      </trkpt>
      <trkpt lat="43.54141" lon="5.53583">
        <ele>332.79998779297</ele>
        <time>2013-03-23T08:56:11.000Z</time>
      </trkpt>
      <trkpt lat="43.54137" lon="5.53588">
        <ele>331.20001220703</ele>
        <time>2013-03-23T08:56:12.000Z</time>
      </trkpt>
      <trkpt lat="43.54125" lon="5.53603">
        <ele>327.20001220703</ele>
        <time>2013-03-23T08:56:15.000Z</time>
      </trkpt>
      <trkpt lat="43.541" lon="5.53631">
        <ele>320.79998779297</ele>
        <time>2013-03-23T08:56:22.000Z</time>
      </trkpt>
      <trkpt lat="43.54067" lon="5.53649">
        <ele>319.39999389648</ele>
        <time>2013-03-23T08:56:30.000Z</time>
      </trkpt>
      <trkpt lat="43.54056" lon="5.53652">
        <ele>320.79998779297</ele>
        <time>2013-03-23T08:56:33.000Z</time>
      </trkpt>
      <trkpt lat="43.54035" lon="5.53655">
        <ele>323.20001220703</ele>
        <time>2013-03-23T08:56:38.000Z</time>
      </trkpt>
      <trkpt lat="43.53986" lon="5.53639">
        <ele>329</ele>
        <time>2013-03-23T08:56:49.000Z</time>
      </trkpt>
      <trkpt lat="43.5394" lon="5.53604">
        <ele>342.39999389648</ele>
        <time>2013-03-23T08:57:00.000Z</time>
      </trkpt>
      <trkpt lat="43.53923" lon="5.5358">
        <ele>347.39999389648</ele>
        <time>2013-03-23T08:57:09.000Z</time>
      </trkpt>
      <trkpt lat="43.53904" lon="5.53559">
        <ele>351</ele>
        <time>2013-03-23T08:57:19.000Z</time>
      </trkpt>
      <trkpt lat="43.53885" lon="5.5357">
        <ele>355.39999389648</ele>
        <time>2013-03-23T08:57:28.000Z</time>
      </trkpt>
      <trkpt lat="43.53866" lon="5.53584">
        <ele>360.20001220703</ele>
        <time>2013-03-23T08:57:37.000Z</time>
      </trkpt>
      <trkpt lat="43.53837" lon="5.53584">
        <ele>365.39999389648</ele>
        <time>2013-03-23T08:57:47.000Z</time>
      </trkpt>
      <trkpt lat="43.53808" lon="5.53559">
        <ele>366.20001220703</ele>
        <time>2013-03-23T08:57:57.000Z</time>
      </trkpt>
      <trkpt lat="43.53774" lon="5.53528">
        <ele>366.39999389648</ele>
        <time>2013-03-23T08:58:10.000Z</time>
      </trkpt>
      <trkpt lat="43.53737" lon="5.53518">
        <ele>367.60000610352</ele>
        <time>2013-03-23T08:58:21.000Z</time>
      </trkpt>
      <trkpt lat="43.53712" lon="5.5353">
        <ele>368.79998779297</ele>
        <time>2013-03-23T08:58:31.000Z</time>
      </trkpt>
      <trkpt lat="43.53693" lon="5.53549">
        <ele>370.39999389648</ele>
        <time>2013-03-23T08:58:40.000Z</time>
      </trkpt>
      <trkpt lat="43.53684" lon="5.53561">
        <ele>371.20001220703</ele>
        <time>2013-03-23T08:58:44.000Z</time>
      </trkpt>
      <trkpt lat="43.53682" lon="5.53562">
        <ele>371.39999389648</ele>
        <time>2013-03-23T08:58:45.000Z</time>
      </trkpt>
      <trkpt lat="43.53679" lon="5.53565">
        <ele>371.60000610352</ele>
        <time>2013-03-23T08:58:46.000Z</time>
      </trkpt>
      <trkpt lat="43.53676" lon="5.53567">
        <ele>371.79998779297</ele>
        <time>2013-03-23T08:58:47.000Z</time>
      </trkpt>
      <trkpt lat="43.53673" lon="5.53569">
        <ele>372</ele>
        <time>2013-03-23T08:58:48.000Z</time>
      </trkpt>
      <trkpt lat="43.53654" lon="5.53587">
        <ele>372.79998779297</ele>
        <time>2013-03-23T08:58:59.000Z</time>
      </trkpt>
      <trkpt lat="43.53652" lon="5.53588">
        <ele>372.79998779297</ele>
        <time>2013-03-23T08:59:00.000Z</time>
      </trkpt>
      <trkpt lat="43.5365" lon="5.5359">
        <ele>372.79998779297</ele>
        <time>2013-03-23T08:59:01.000Z</time>
      </trkpt>
      <trkpt lat="43.53623" lon="5.53606">
        <ele>372.79998779297</ele>
        <time>2013-03-23T08:59:14.000Z</time>
      </trkpt>
      <trkpt lat="43.53603" lon="5.5361">
        <ele>372.60000610352</ele>
        <time>2013-03-23T08:59:23.000Z</time>
      </trkpt>
      <trkpt lat="43.53589" lon="5.5361">
        <ele>372.39999389648</ele>
        <time>2013-03-23T08:59:30.000Z</time>
      </trkpt>
      <trkpt lat="43.53587" lon="5.53609">
        <ele>372.20001220703</ele>
        <time>2013-03-23T08:59:31.000Z</time>
      </trkpt>
      <trkpt lat="43.53567" lon="5.53617">
        <ele>372.20001220703</ele>
        <time>2013-03-23T08:59:40.000Z</time>
      </trkpt>
      <trkpt lat="43.53556" lon="5.53662">
        <ele>372.20001220703</ele>
        <time>2013-03-23T08:59:50.000Z</time>
      </trkpt>
      <trkpt lat="43.53553" lon="5.53667">
        <ele>372.20001220703</ele>
        <time>2013-03-23T08:59:51.000Z</time>
      </trkpt>
      <trkpt lat="43.53551" lon="5.53672">
        <ele>372</ele>
        <time>2013-03-23T08:59:52.000Z</time>
      </trkpt>
      <trkpt lat="43.53549" lon="5.53677">
        <ele>372</ele>
        <time>2013-03-23T08:59:53.000Z</time>
      </trkpt>
      <trkpt lat="43.53547" lon="5.53682">
        <ele>372</ele>
        <time>2013-03-23T08:59:54.000Z</time>
      </trkpt>
      <trkpt lat="43.53544" lon="5.53688">
        <ele>371.79998779297</ele>
        <time>2013-03-23T08:59:55.000Z</time>
      </trkpt>
      <trkpt lat="43.53507" lon="5.53754">
        <ele>370.20001220703</ele>
        <time>2013-03-23T09:00:08.000Z</time>
      </trkpt>
      <trkpt lat="43.53494" lon="5.53794">
        <ele>369.60000610352</ele>
        <time>2013-03-23T09:00:17.000Z</time>
      </trkpt>
      <trkpt lat="43.5349" lon="5.53828">
        <ele>369.60000610352</ele>
        <time>2013-03-23T09:00:28.000Z</time>
      </trkpt>
      <trkpt lat="43.53485" lon="5.53876">
        <ele>371.20001220703</ele>
        <time>2013-03-23T09:00:41.000Z</time>
      </trkpt>
      <trkpt lat="43.53485" lon="5.53918">
        <ele>373.20001220703</ele>
        <time>2013-03-23T09:00:52.000Z</time>
      </trkpt>
      <trkpt lat="43.53482" lon="5.53948">
        <ele>376</ele>
        <time>2013-03-23T09:01:01.000Z</time>
      </trkpt>
      <trkpt lat="43.53468" lon="5.53978">
        <ele>377.20001220703</ele>
        <time>2013-03-23T09:01:11.000Z</time>
      </trkpt>
      <trkpt lat="43.53458" lon="5.53999">
        <ele>377.20001220703</ele>
        <time>2013-03-23T09:01:20.000Z</time>
      </trkpt>
      <trkpt lat="43.53458" lon="5.53997">
        <ele>377</ele>
        <time>2013-03-23T09:01:31.000Z</time>
      </trkpt>
      <trkpt lat="43.53457" lon="5.53998">
        <ele>377</ele>
        <time>2013-03-23T09:01:52.000Z</time>
      </trkpt>
      <trkpt lat="43.53455" lon="5.54003">
        <ele>377.20001220703</ele>
        <time>2013-03-23T09:02:07.000Z</time>
      </trkpt>
      <trkpt lat="43.53453" lon="5.54006">
        <ele>377.20001220703</ele>
        <time>2013-03-23T09:02:08.000Z</time>
      </trkpt>
      <trkpt lat="43.5345" lon="5.54009">
        <ele>377</ele>
        <time>2013-03-23T09:02:09.000Z</time>
      </trkpt>
      <trkpt lat="43.53447" lon="5.54012">
        <ele>376.79998779297</ele>
        <time>2013-03-23T09:02:10.000Z</time>
      </trkpt>
      <trkpt lat="43.53444" lon="5.54015">
        <ele>376.60000610352</ele>
        <time>2013-03-23T09:02:11.000Z</time>
      </trkpt>
      <trkpt lat="43.53443" lon="5.54018">
        <ele>376.60000610352</ele>
        <time>2013-03-23T09:02:12.000Z</time>
      </trkpt>
      <trkpt lat="43.53442" lon="5.54022">
        <ele>376.79998779297</ele>
        <time>2013-03-23T09:02:13.000Z</time>
      </trkpt>
      <trkpt lat="43.53442" lon="5.54027">
        <ele>377.20001220703</ele>
        <time>2013-03-23T09:02:14.000Z</time>
      </trkpt>
      <trkpt lat="43.5343" lon="5.54058">
        <ele>378.39999389648</ele>
        <time>2013-03-23T09:02:22.000Z</time>
      </trkpt>
      <trkpt lat="43.53426" lon="5.54067">
        <ele>378.60000610352</ele>
        <time>2013-03-23T09:02:26.000Z</time>
      </trkpt>
      <trkpt lat="43.53425" lon="5.54068">
        <ele>378.60000610352</ele>
        <time>2013-03-23T09:02:27.000Z</time>
      </trkpt>
      <trkpt lat="43.53423" lon="5.5407">
        <ele>378.39999389648</ele>
        <time>2013-03-23T09:02:28.000Z</time>
      </trkpt>
      <trkpt lat="43.53421" lon="5.54072">
        <ele>378.39999389648</ele>
        <time>2013-03-23T09:02:29.000Z</time>
      </trkpt>
      <trkpt lat="43.53418" lon="5.54075">
        <ele>378.39999389648</ele>
        <time>2013-03-23T09:02:30.000Z</time>
      </trkpt>
      <trkpt lat="43.53416" lon="5.54078">
        <ele>378.20001220703</ele>
        <time>2013-03-23T09:02:31.000Z</time>
      </trkpt>
      <trkpt lat="43.53409" lon="5.54083">
        <ele>376.79998779297</ele>
        <time>2013-03-23T09:02:33.000Z</time>
      </trkpt>
      <trkpt lat="43.53401" lon="5.54087">
        <ele>374.79998779297</ele>
        <time>2013-03-23T09:02:35.000Z</time>
      </trkpt>
      <trkpt lat="43.53385" lon="5.54091">
        <ele>370.79998779297</ele>
        <time>2013-03-23T09:02:38.000Z</time>
      </trkpt>
      <trkpt lat="43.53373" lon="5.54094">
        <ele>367.79998779297</ele>
        <time>2013-03-23T09:02:40.000Z</time>
      </trkpt>
      <trkpt lat="43.53367" lon="5.54096">
        <ele>366.39999389648</ele>
        <time>2013-03-23T09:02:41.000Z</time>
      </trkpt>
      <trkpt lat="43.53363" lon="5.541">
        <ele>365.39999389648</ele>
        <time>2013-03-23T09:02:42.000Z</time>
      </trkpt>
      <trkpt lat="43.53359" lon="5.54105">
        <ele>364.79998779297</ele>
        <time>2013-03-23T09:02:43.000Z</time>
      </trkpt>
      <trkpt lat="43.53356" lon="5.5411">
        <ele>364.39999389648</ele>
        <time>2013-03-23T09:02:44.000Z</time>
      </trkpt>
      <trkpt lat="43.53353" lon="5.54113">
        <ele>363.79998779297</ele>
        <time>2013-03-23T09:02:45.000Z</time>
      </trkpt>
      <trkpt lat="43.53351" lon="5.54117">
        <ele>363.39999389648</ele>
        <time>2013-03-23T09:02:46.000Z</time>
      </trkpt>
      <trkpt lat="43.53349" lon="5.54121">
        <ele>363.39999389648</ele>
        <time>2013-03-23T09:02:47.000Z</time>
      </trkpt>
      <trkpt lat="43.53348" lon="5.54124">
        <ele>363.39999389648</ele>
        <time>2013-03-23T09:02:48.000Z</time>
      </trkpt>
      <trkpt lat="43.53347" lon="5.54128">
        <ele>363.39999389648</ele>
        <time>2013-03-23T09:02:49.000Z</time>
      </trkpt>
      <trkpt lat="43.53346" lon="5.54133">
        <ele>363.79998779297</ele>
        <time>2013-03-23T09:02:50.000Z</time>
      </trkpt>
      <trkpt lat="43.53347" lon="5.54153">
        <ele>365.60000610352</ele>
        <time>2013-03-23T09:02:54.000Z</time>
      </trkpt>
      <trkpt lat="43.53349" lon="5.54159">
        <ele>366.39999389648</ele>
        <time>2013-03-23T09:02:55.000Z</time>
      </trkpt>
      <trkpt lat="43.53353" lon="5.54176">
        <ele>368.79998779297</ele>
        <time>2013-03-23T09:02:58.000Z</time>
      </trkpt>
      <trkpt lat="43.53354" lon="5.54182">
        <ele>369.39999389648</ele>
        <time>2013-03-23T09:02:59.000Z</time>
      </trkpt>
      <trkpt lat="43.53353" lon="5.54188">
        <ele>369.39999389648</ele>
        <time>2013-03-23T09:03:00.000Z</time>
      </trkpt>
      <trkpt lat="43.53351" lon="5.54195">
        <ele>369.20001220703</ele>
        <time>2013-03-23T09:03:01.000Z</time>
      </trkpt>
      <trkpt lat="43.53347" lon="5.542">
        <ele>368.60000610352</ele>
        <time>2013-03-23T09:03:02.000Z</time>
      </trkpt>
      <trkpt lat="43.53343" lon="5.54204">
        <ele>367.60000610352</ele>
        <time>2013-03-23T09:03:03.000Z</time>
      </trkpt>
      <trkpt lat="43.53337" lon="5.54207">
        <ele>366.39999389648</ele>
        <time>2013-03-23T09:03:04.000Z</time>
      </trkpt>
      <trkpt lat="43.53332" lon="5.54209">
        <ele>365.20001220703</ele>
        <time>2013-03-23T09:03:05.000Z</time>
      </trkpt>
      <trkpt lat="43.53326" lon="5.54212">
        <ele>364.79998779297</ele>
        <time>2013-03-23T09:03:06.000Z</time>
      </trkpt>
      <trkpt lat="43.5332" lon="5.54217">
        <ele>364.39999389648</ele>
        <time>2013-03-23T09:03:07.000Z</time>
      </trkpt>
      <trkpt lat="43.53315" lon="5.54224">
        <ele>364</ele>
        <time>2013-03-23T09:03:08.000Z</time>
      </trkpt>
      <trkpt lat="43.5331" lon="5.5423">
        <ele>363.79998779297</ele>
        <time>2013-03-23T09:03:09.000Z</time>
      </trkpt>
      <trkpt lat="43.53306" lon="5.54238">
        <ele>363.39999389648</ele>
        <time>2013-03-23T09:03:10.000Z</time>
      </trkpt>
      <trkpt lat="43.53303" lon="5.54245">
        <ele>363.39999389648</ele>
        <time>2013-03-23T09:03:11.000Z</time>
      </trkpt>
      <trkpt lat="43.533" lon="5.54251">
        <ele>363</ele>
        <time>2013-03-23T09:03:12.000Z</time>
      </trkpt>
      <trkpt lat="43.53287" lon="5.5427">
        <ele>360</ele>
        <time>2013-03-23T09:03:15.000Z</time>
      </trkpt>
      <trkpt lat="43.53285" lon="5.54278">
        <ele>359.20001220703</ele>
        <time>2013-03-23T09:03:16.000Z</time>
      </trkpt>
      <trkpt lat="43.53284" lon="5.54286">
        <ele>358.39999389648</ele>
        <time>2013-03-23T09:03:17.000Z</time>
      </trkpt>
      <trkpt lat="43.53282" lon="5.54294">
        <ele>357.60000610352</ele>
        <time>2013-03-23T09:03:18.000Z</time>
      </trkpt>
      <trkpt lat="43.53281" lon="5.54301">
        <ele>357</ele>
        <time>2013-03-23T09:03:19.000Z</time>
      </trkpt>
      <trkpt lat="43.53279" lon="5.54308">
        <ele>356.20001220703</ele>
        <time>2013-03-23T09:03:20.000Z</time>
      </trkpt>
      <trkpt lat="43.53277" lon="5.54325">
        <ele>354.60000610352</ele>
        <time>2013-03-23T09:03:22.000Z</time>
      </trkpt>
      <trkpt lat="43.53271" lon="5.54347">
        <ele>352.60000610352</ele>
        <time>2013-03-23T09:03:25.000Z</time>
      </trkpt>
      <trkpt lat="43.53267" lon="5.54354">
        <ele>351.79998779297</ele>
        <time>2013-03-23T09:03:26.000Z</time>
      </trkpt>
      <trkpt lat="43.53262" lon="5.54361">
        <ele>350.79998779297</ele>
        <time>2013-03-23T09:03:27.000Z</time>
      </trkpt>
      <trkpt lat="43.53252" lon="5.54375">
        <ele>348.39999389648</ele>
        <time>2013-03-23T09:03:29.000Z</time>
      </trkpt>
      <trkpt lat="43.53234" lon="5.54393">
        <ele>347.39999389648</ele>
        <time>2013-03-23T09:03:32.000Z</time>
      </trkpt>
      <trkpt lat="43.53228" lon="5.54399">
        <ele>347</ele>
        <time>2013-03-23T09:03:33.000Z</time>
      </trkpt>
      <trkpt lat="43.53222" lon="5.54407">
        <ele>346.60000610352</ele>
        <time>2013-03-23T09:03:34.000Z</time>
      </trkpt>
      <trkpt lat="43.53218" lon="5.54415">
        <ele>346.20001220703</ele>
        <time>2013-03-23T09:03:35.000Z</time>
      </trkpt>
      <trkpt lat="43.53213" lon="5.54422">
        <ele>345.79998779297</ele>
        <time>2013-03-23T09:03:36.000Z</time>
      </trkpt>
      <trkpt lat="43.53207" lon="5.54427">
        <ele>345.60000610352</ele>
        <time>2013-03-23T09:03:37.000Z</time>
      </trkpt>
      <trkpt lat="43.53202" lon="5.5443">
        <ele>345.39999389648</ele>
        <time>2013-03-23T09:03:38.000Z</time>
      </trkpt>
      <trkpt lat="43.53196" lon="5.54434">
        <ele>345</ele>
        <time>2013-03-23T09:03:39.000Z</time>
      </trkpt>
      <trkpt lat="43.53191" lon="5.54439">
        <ele>344.79998779297</ele>
        <time>2013-03-23T09:03:40.000Z</time>
      </trkpt>
      <trkpt lat="43.53176" lon="5.54456">
        <ele>343.79998779297</ele>
        <time>2013-03-23T09:03:43.000Z</time>
      </trkpt>
      <trkpt lat="43.53173" lon="5.54463">
        <ele>343.39999389648</ele>
        <time>2013-03-23T09:03:44.000Z</time>
      </trkpt>
      <trkpt lat="43.53172" lon="5.54471">
        <ele>343.20001220703</ele>
        <time>2013-03-23T09:03:45.000Z</time>
      </trkpt>
      <trkpt lat="43.53171" lon="5.54479">
        <ele>342.79998779297</ele>
        <time>2013-03-23T09:03:46.000Z</time>
      </trkpt>
      <trkpt lat="43.53172" lon="5.54487">
        <ele>342.60000610352</ele>
        <time>2013-03-23T09:03:47.000Z</time>
      </trkpt>
      <trkpt lat="43.53173" lon="5.54494">
        <ele>342.39999389648</ele>
        <time>2013-03-23T09:03:48.000Z</time>
      </trkpt>
      <trkpt lat="43.53173" lon="5.54501">
        <ele>342.20001220703</ele>
        <time>2013-03-23T09:03:49.000Z</time>
      </trkpt>
      <trkpt lat="43.53174" lon="5.54508">
        <ele>341.79998779297</ele>
        <time>2013-03-23T09:03:50.000Z</time>
      </trkpt>
      <trkpt lat="43.53175" lon="5.54516">
        <ele>341.60000610352</ele>
        <time>2013-03-23T09:03:51.000Z</time>
      </trkpt>
      <trkpt lat="43.53177" lon="5.54523">
        <ele>341.20001220703</ele>
        <time>2013-03-23T09:03:52.000Z</time>
      </trkpt>
      <trkpt lat="43.5318" lon="5.54539">
        <ele>340.39999389648</ele>
        <time>2013-03-23T09:03:54.000Z</time>
      </trkpt>
      <trkpt lat="43.53181" lon="5.54547">
        <ele>340</ele>
        <time>2013-03-23T09:03:55.000Z</time>
      </trkpt>
      <trkpt lat="43.53181" lon="5.54565">
        <ele>339.20001220703</ele>
        <time>2013-03-23T09:03:57.000Z</time>
      </trkpt>
      <trkpt lat="43.53186" lon="5.54618">
        <ele>333</ele>
        <time>2013-03-23T09:04:02.000Z</time>
      </trkpt>
      <trkpt lat="43.53187" lon="5.5463">
        <ele>331.20001220703</ele>
        <time>2013-03-23T09:04:03.000Z</time>
      </trkpt>
      <trkpt lat="43.53188" lon="5.54667">
        <ele>325.79998779297</ele>
        <time>2013-03-23T09:04:06.000Z</time>
      </trkpt>
      <trkpt lat="43.53187" lon="5.54681">
        <ele>324</ele>
        <time>2013-03-23T09:04:07.000Z</time>
      </trkpt>
      <trkpt lat="43.53187" lon="5.54694">
        <ele>322.20001220703</ele>
        <time>2013-03-23T09:04:08.000Z</time>
      </trkpt>
      <trkpt lat="43.53189" lon="5.54705">
        <ele>320.60000610352</ele>
        <time>2013-03-23T09:04:09.000Z</time>
      </trkpt>
      <trkpt lat="43.53193" lon="5.54715">
        <ele>319.20001220703</ele>
        <time>2013-03-23T09:04:10.000Z</time>
      </trkpt>
      <trkpt lat="43.53197" lon="5.54723">
        <ele>317.79998779297</ele>
        <time>2013-03-23T09:04:11.000Z</time>
      </trkpt>
      <trkpt lat="43.532" lon="5.54733">
        <ele>316.39999389648</ele>
        <time>2013-03-23T09:04:12.000Z</time>
      </trkpt>
      <trkpt lat="43.53203" lon="5.54742">
        <ele>315.20001220703</ele>
        <time>2013-03-23T09:04:13.000Z</time>
      </trkpt>
      <trkpt lat="43.53207" lon="5.54758">
        <ele>312.79998779297</ele>
        <time>2013-03-23T09:04:15.000Z</time>
      </trkpt>
      <trkpt lat="43.53207" lon="5.54766">
        <ele>311.79998779297</ele>
        <time>2013-03-23T09:04:16.000Z</time>
      </trkpt>
      <trkpt lat="43.53206" lon="5.54774">
        <ele>310.60000610352</ele>
        <time>2013-03-23T09:04:17.000Z</time>
      </trkpt>
      <trkpt lat="43.53203" lon="5.54782">
        <ele>309.20001220703</ele>
        <time>2013-03-23T09:04:18.000Z</time>
      </trkpt>
      <trkpt lat="43.532" lon="5.5479">
        <ele>308</ele>
        <time>2013-03-23T09:04:19.000Z</time>
      </trkpt>
      <trkpt lat="43.53196" lon="5.54796">
        <ele>306.79998779297</ele>
        <time>2013-03-23T09:04:20.000Z</time>
      </trkpt>
      <trkpt lat="43.5319" lon="5.54801">
        <ele>305.79998779297</ele>
        <time>2013-03-23T09:04:21.000Z</time>
      </trkpt>
      <trkpt lat="43.53185" lon="5.54803">
        <ele>305</ele>
        <time>2013-03-23T09:04:22.000Z</time>
      </trkpt>
      <trkpt lat="43.53178" lon="5.54805">
        <ele>304.39999389648</ele>
        <time>2013-03-23T09:04:23.000Z</time>
      </trkpt>
      <trkpt lat="43.53172" lon="5.54804">
        <ele>304.20001220703</ele>
        <time>2013-03-23T09:04:24.000Z</time>
      </trkpt>
      <trkpt lat="43.53166" lon="5.54803">
        <ele>304</ele>
        <time>2013-03-23T09:04:25.000Z</time>
      </trkpt>
      <trkpt lat="43.53154" lon="5.548">
        <ele>304.20001220703</ele>
        <time>2013-03-23T09:04:27.000Z</time>
      </trkpt>
      <trkpt lat="43.53149" lon="5.548">
        <ele>304</ele>
        <time>2013-03-23T09:04:28.000Z</time>
      </trkpt>
      <trkpt lat="43.53144" lon="5.54803">
        <ele>303</ele>
        <time>2013-03-23T09:04:29.000Z</time>
      </trkpt>
      <trkpt lat="43.53139" lon="5.54806">
        <ele>302</ele>
        <time>2013-03-23T09:04:30.000Z</time>
      </trkpt>
      <trkpt lat="43.53133" lon="5.54809">
        <ele>301</ele>
        <time>2013-03-23T09:04:31.000Z</time>
      </trkpt>
      <trkpt lat="43.53127" lon="5.54811">
        <ele>300.20001220703</ele>
        <time>2013-03-23T09:04:32.000Z</time>
      </trkpt>
      <trkpt lat="43.5312" lon="5.54813">
        <ele>299.39999389648</ele>
        <time>2013-03-23T09:04:33.000Z</time>
      </trkpt>
      <trkpt lat="43.53113" lon="5.54816">
        <ele>298.39999389648</ele>
        <time>2013-03-23T09:04:34.000Z</time>
      </trkpt>
      <trkpt lat="43.53106" lon="5.54818">
        <ele>297.20001220703</ele>
        <time>2013-03-23T09:04:35.000Z</time>
      </trkpt>
      <trkpt lat="43.53084" lon="5.54824">
        <ele>294.39999389648</ele>
        <time>2013-03-23T09:04:38.000Z</time>
      </trkpt>
      <trkpt lat="43.53071" lon="5.54827">
        <ele>292.20001220703</ele>
        <time>2013-03-23T09:04:40.000Z</time>
      </trkpt>
      <trkpt lat="43.53066" lon="5.5483">
        <ele>290.79998779297</ele>
        <time>2013-03-23T09:04:41.000Z</time>
      </trkpt>
      <trkpt lat="43.53062" lon="5.54835">
        <ele>289.60000610352</ele>
        <time>2013-03-23T09:04:42.000Z</time>
      </trkpt>
      <trkpt lat="43.53058" lon="5.54842">
        <ele>289</ele>
        <time>2013-03-23T09:04:43.000Z</time>
      </trkpt>
      <trkpt lat="43.53053" lon="5.5485">
        <ele>288.39999389648</ele>
        <time>2013-03-23T09:04:44.000Z</time>
      </trkpt>
      <trkpt lat="43.53048" lon="5.54859">
        <ele>287.79998779297</ele>
        <time>2013-03-23T09:04:45.000Z</time>
      </trkpt>
      <trkpt lat="43.53042" lon="5.54866">
        <ele>287</ele>
        <time>2013-03-23T09:04:46.000Z</time>
      </trkpt>
      <trkpt lat="43.53035" lon="5.54872">
        <ele>286.20001220703</ele>
        <time>2013-03-23T09:04:47.000Z</time>
      </trkpt>
      <trkpt lat="43.53015" lon="5.54889">
        <ele>283.39999389648</ele>
        <time>2013-03-23T09:04:51.000Z</time>
      </trkpt>
      <trkpt lat="43.53012" lon="5.54893">
        <ele>283</ele>
        <time>2013-03-23T09:04:52.000Z</time>
      </trkpt>
      <trkpt lat="43.53011" lon="5.54898">
        <ele>282.79998779297</ele>
        <time>2013-03-23T09:04:53.000Z</time>
      </trkpt>
      <trkpt lat="43.53011" lon="5.54903">
        <ele>282.60000610352</ele>
        <time>2013-03-23T09:04:54.000Z</time>
      </trkpt>
      <trkpt lat="43.5301" lon="5.54908">
        <ele>282.39999389648</ele>
        <time>2013-03-23T09:04:55.000Z</time>
      </trkpt>
      <trkpt lat="43.5301" lon="5.54913">
        <ele>282.39999389648</ele>
        <time>2013-03-23T09:04:56.000Z</time>
      </trkpt>
      <trkpt lat="43.53009" lon="5.54929">
        <ele>281.60000610352</ele>
        <time>2013-03-23T09:05:00.000Z</time>
      </trkpt>
      <trkpt lat="43.53007" lon="5.54931">
        <ele>281.39999389648</ele>
        <time>2013-03-23T09:05:01.000Z</time>
      </trkpt>
      <trkpt lat="43.53006" lon="5.54932">
        <ele>281</ele>
        <time>2013-03-23T09:05:02.000Z</time>
      </trkpt>
      <trkpt lat="43.53006" lon="5.54933">
        <ele>281</ele>
        <time>2013-03-23T09:05:13.000Z</time>
      </trkpt>
      <trkpt lat="43.53004" lon="5.54934">
        <ele>280.60000610352</ele>
        <time>2013-03-23T09:05:30.000Z</time>
      </trkpt>
      <trkpt lat="43.53005" lon="5.54933">
        <ele>280.79998779297</ele>
        <time>2013-03-23T09:05:53.000Z</time>
      </trkpt>
      <trkpt lat="43.53002" lon="5.54935">
        <ele>280.39999389648</ele>
        <time>2013-03-23T09:06:15.000Z</time>
      </trkpt>
      <trkpt lat="43.52998" lon="5.5494">
        <ele>279.60000610352</ele>
        <time>2013-03-23T09:06:21.000Z</time>
      </trkpt>
      <trkpt lat="43.52991" lon="5.54946">
        <ele>278.79998779297</ele>
        <time>2013-03-23T09:06:28.000Z</time>
      </trkpt>
      <trkpt lat="43.52983" lon="5.54945">
        <ele>278.20001220703</ele>
        <time>2013-03-23T09:06:32.000Z</time>
      </trkpt>
      <trkpt lat="43.52981" lon="5.54944">
        <ele>278</ele>
        <time>2013-03-23T09:06:33.000Z</time>
      </trkpt>
      <trkpt lat="43.52979" lon="5.54943">
        <ele>278</ele>
        <time>2013-03-23T09:06:34.000Z</time>
      </trkpt>
      <trkpt lat="43.52977" lon="5.54942">
        <ele>277.79998779297</ele>
        <time>2013-03-23T09:06:35.000Z</time>
      </trkpt>
      <trkpt lat="43.52975" lon="5.54942">
        <ele>277.60000610352</ele>
        <time>2013-03-23T09:06:36.000Z</time>
      </trkpt>
      <trkpt lat="43.52973" lon="5.54941">
        <ele>277.39999389648</ele>
        <time>2013-03-23T09:06:37.000Z</time>
      </trkpt>
      <trkpt lat="43.5297" lon="5.54941">
        <ele>277.20001220703</ele>
        <time>2013-03-23T09:06:38.000Z</time>
      </trkpt>
      <trkpt lat="43.52967" lon="5.54942">
        <ele>277</ele>
        <time>2013-03-23T09:06:39.000Z</time>
      </trkpt>
      <trkpt lat="43.52964" lon="5.54944">
        <ele>276.79998779297</ele>
        <time>2013-03-23T09:06:40.000Z</time>
      </trkpt>
      <trkpt lat="43.52943" lon="5.5496">
        <ele>275.20001220703</ele>
        <time>2013-03-23T09:06:47.000Z</time>
      </trkpt>
      <trkpt lat="43.52939" lon="5.54962">
        <ele>275</ele>
        <time>2013-03-23T09:06:48.000Z</time>
      </trkpt>
      <trkpt lat="43.52935" lon="5.54962">
        <ele>274.60000610352</ele>
        <time>2013-03-23T09:06:49.000Z</time>
      </trkpt>
      <trkpt lat="43.5293" lon="5.5496">
        <ele>274.39999389648</ele>
        <time>2013-03-23T09:06:50.000Z</time>
      </trkpt>
      <trkpt lat="43.52927" lon="5.54955">
        <ele>274</ele>
        <time>2013-03-23T09:06:51.000Z</time>
      </trkpt>
      <trkpt lat="43.52924" lon="5.5495">
        <ele>273.60000610352</ele>
        <time>2013-03-23T09:06:52.000Z</time>
      </trkpt>
      <trkpt lat="43.52918" lon="5.54942">
        <ele>273</ele>
        <time>2013-03-23T09:06:54.000Z</time>
      </trkpt>
      <trkpt lat="43.52915" lon="5.54941">
        <ele>273</ele>
        <time>2013-03-23T09:06:55.000Z</time>
      </trkpt>
      <trkpt lat="43.52912" lon="5.5494">
        <ele>273.39999389648</ele>
        <time>2013-03-23T09:06:56.000Z</time>
      </trkpt>
      <trkpt lat="43.5291" lon="5.54937">
        <ele>273.39999389648</ele>
        <time>2013-03-23T09:06:57.000Z</time>
      </trkpt>
      <trkpt lat="43.52907" lon="5.54934">
        <ele>273.60000610352</ele>
        <time>2013-03-23T09:06:58.000Z</time>
      </trkpt>
      <trkpt lat="43.52905" lon="5.54932">
        <ele>273.79998779297</ele>
        <time>2013-03-23T09:06:59.000Z</time>
      </trkpt>
      <trkpt lat="43.52903" lon="5.54931">
        <ele>274</ele>
        <time>2013-03-23T09:07:00.000Z</time>
      </trkpt>
      <trkpt lat="43.52901" lon="5.54928">
        <ele>274.20001220703</ele>
        <time>2013-03-23T09:07:01.000Z</time>
      </trkpt>
      <trkpt lat="43.52899" lon="5.54926">
        <ele>274.39999389648</ele>
        <time>2013-03-23T09:07:02.000Z</time>
      </trkpt>
      <trkpt lat="43.52896" lon="5.54923">
        <ele>274.60000610352</ele>
        <time>2013-03-23T09:07:03.000Z</time>
      </trkpt>
      <trkpt lat="43.52891" lon="5.54917">
        <ele>274.79998779297</ele>
        <time>2013-03-23T09:07:05.000Z</time>
      </trkpt>
      <trkpt lat="43.52888" lon="5.54913">
        <ele>275</ele>
        <time>2013-03-23T09:07:06.000Z</time>
      </trkpt>
      <trkpt lat="43.5287" lon="5.54897">
        <ele>275.79998779297</ele>
        <time>2013-03-23T09:07:11.000Z</time>
      </trkpt>
      <trkpt lat="43.52862" lon="5.54891">
        <ele>276.20001220703</ele>
        <time>2013-03-23T09:07:13.000Z</time>
      </trkpt>
      <trkpt lat="43.52859" lon="5.54887">
        <ele>276.20001220703</ele>
        <time>2013-03-23T09:07:14.000Z</time>
      </trkpt>
      <trkpt lat="43.52849" lon="5.54873">
        <ele>275.79998779297</ele>
        <time>2013-03-23T09:07:17.000Z</time>
      </trkpt>
      <trkpt lat="43.52845" lon="5.54869">
        <ele>275.60000610352</ele>
        <time>2013-03-23T09:07:18.000Z</time>
      </trkpt>
      <trkpt lat="43.52832" lon="5.54852">
        <ele>274.60000610352</ele>
        <time>2013-03-23T09:07:21.000Z</time>
      </trkpt>
      <trkpt lat="43.52814" lon="5.54823">
        <ele>273.20001220703</ele>
        <time>2013-03-23T09:07:26.000Z</time>
      </trkpt>
      <trkpt lat="43.52807" lon="5.54812">
        <ele>273.20001220703</ele>
        <time>2013-03-23T09:07:28.000Z</time>
      </trkpt>
      <trkpt lat="43.52804" lon="5.54809">
        <ele>273.20001220703</ele>
        <time>2013-03-23T09:07:29.000Z</time>
      </trkpt>
      <trkpt lat="43.52802" lon="5.54808">
        <ele>273.20001220703</ele>
        <time>2013-03-23T09:07:30.000Z</time>
      </trkpt>
      <trkpt lat="43.52783" lon="5.54806">
        <ele>273.79998779297</ele>
        <time>2013-03-23T09:07:38.000Z</time>
      </trkpt>
      <trkpt lat="43.52758" lon="5.54808">
        <ele>274.60000610352</ele>
        <time>2013-03-23T09:07:47.000Z</time>
      </trkpt>
      <trkpt lat="43.52737" lon="5.54816">
        <ele>273.39999389648</ele>
        <time>2013-03-23T09:07:53.000Z</time>
      </trkpt>
      <trkpt lat="43.52735" lon="5.5482">
        <ele>273.20001220703</ele>
        <time>2013-03-23T09:07:54.000Z</time>
      </trkpt>
      <trkpt lat="43.52734" lon="5.54826">
        <ele>273</ele>
        <time>2013-03-23T09:07:55.000Z</time>
      </trkpt>
      <trkpt lat="43.52726" lon="5.54871">
        <ele>274.79998779297</ele>
        <time>2013-03-23T09:08:05.000Z</time>
      </trkpt>
      <trkpt lat="43.52727" lon="5.54909">
        <ele>277.79998779297</ele>
        <time>2013-03-23T09:08:16.000Z</time>
      </trkpt>
      <trkpt lat="43.52731" lon="5.54945">
        <ele>281.20001220703</ele>
        <time>2013-03-23T09:08:28.000Z</time>
      </trkpt>
      <trkpt lat="43.52737" lon="5.54969">
        <ele>283.39999389648</ele>
        <time>2013-03-23T09:08:39.000Z</time>
      </trkpt>
      <trkpt lat="43.52745" lon="5.54989">
        <ele>285.20001220703</ele>
        <time>2013-03-23T09:08:50.000Z</time>
      </trkpt>
      <trkpt lat="43.52746" lon="5.54993">
        <ele>285.39999389648</ele>
        <time>2013-03-23T09:08:52.000Z</time>
      </trkpt>
      <trkpt lat="43.52746" lon="5.54995">
        <ele>285.60000610352</ele>
        <time>2013-03-23T09:08:53.000Z</time>
      </trkpt>
      <trkpt lat="43.52747" lon="5.54997">
        <ele>285.60000610352</ele>
        <time>2013-03-23T09:08:54.000Z</time>
      </trkpt>
      <trkpt lat="43.52748" lon="5.54998">
        <ele>285.79998779297</ele>
        <time>2013-03-23T09:08:55.000Z</time>
      </trkpt>
      <trkpt lat="43.52749" lon="5.54999">
        <ele>285.79998779297</ele>
        <time>2013-03-23T09:08:56.000Z</time>
      </trkpt>
      <trkpt lat="43.5275" lon="5.55002">
        <ele>286</ele>
        <time>2013-03-23T09:08:57.000Z</time>
      </trkpt>
      <trkpt lat="43.52761" lon="5.55028">
        <ele>288.20001220703</ele>
        <time>2013-03-23T09:09:10.000Z</time>
      </trkpt>
      <trkpt lat="43.52761" lon="5.55029">
        <ele>288.39999389648</ele>
        <time>2013-03-23T09:09:11.000Z</time>
      </trkpt>
      <trkpt lat="43.52762" lon="5.55031">
        <ele>288.60000610352</ele>
        <time>2013-03-23T09:09:12.000Z</time>
      </trkpt>
      <trkpt lat="43.52763" lon="5.55033">
        <ele>288.60000610352</ele>
        <time>2013-03-23T09:09:13.000Z</time>
      </trkpt>
      <trkpt lat="43.52763" lon="5.55036">
        <ele>288.79998779297</ele>
        <time>2013-03-23T09:09:14.000Z</time>
      </trkpt>
      <trkpt lat="43.52767" lon="5.55051">
        <ele>290.20001220703</ele>
        <time>2013-03-23T09:09:21.000Z</time>
      </trkpt>
      <trkpt lat="43.52771" lon="5.55075">
        <ele>292.39999389648</ele>
        <time>2013-03-23T09:09:32.000Z</time>
      </trkpt>
      <trkpt lat="43.52778" lon="5.55102">
        <ele>296.60000610352</ele>
        <time>2013-03-23T09:09:44.000Z</time>
      </trkpt>
      <trkpt lat="43.52786" lon="5.55133">
        <ele>301.60000610352</ele>
        <time>2013-03-23T09:09:57.000Z</time>
      </trkpt>
      <trkpt lat="43.52792" lon="5.55156">
        <ele>305</ele>
        <time>2013-03-23T09:10:07.000Z</time>
      </trkpt>
      <trkpt lat="43.52801" lon="5.55186">
        <ele>309.20001220703</ele>
        <time>2013-03-23T09:10:19.000Z</time>
      </trkpt>
      <trkpt lat="43.52802" lon="5.55211">
        <ele>312.20001220703</ele>
        <time>2013-03-23T09:10:29.000Z</time>
      </trkpt>
      <trkpt lat="43.52808" lon="5.55241">
        <ele>315.60000610352</ele>
        <time>2013-03-23T09:10:40.000Z</time>
      </trkpt>
      <trkpt lat="43.52809" lon="5.55252">
        <ele>316.79998779297</ele>
        <time>2013-03-23T09:10:44.000Z</time>
      </trkpt>
      <trkpt lat="43.5281" lon="5.55255">
        <ele>317</ele>
        <time>2013-03-23T09:10:45.000Z</time>
      </trkpt>
      <trkpt lat="43.5281" lon="5.55258">
        <ele>317.39999389648</ele>
        <time>2013-03-23T09:10:46.000Z</time>
      </trkpt>
      <trkpt lat="43.5282" lon="5.55289">
        <ele>319.60000610352</ele>
        <time>2013-03-23T09:10:59.000Z</time>
      </trkpt>
      <trkpt lat="43.52822" lon="5.55291">
        <ele>319.60000610352</ele>
        <time>2013-03-23T09:11:00.000Z</time>
      </trkpt>
      <trkpt lat="43.52822" lon="5.55294">
        <ele>319.79998779297</ele>
        <time>2013-03-23T09:11:01.000Z</time>
      </trkpt>
      <trkpt lat="43.52823" lon="5.55296">
        <ele>319.79998779297</ele>
        <time>2013-03-23T09:11:02.000Z</time>
      </trkpt>
      <trkpt lat="43.52824" lon="5.55298">
        <ele>319.79998779297</ele>
        <time>2013-03-23T09:11:03.000Z</time>
      </trkpt>
      <trkpt lat="43.52825" lon="5.553">
        <ele>320</ele>
        <time>2013-03-23T09:11:04.000Z</time>
      </trkpt>
      <trkpt lat="43.52826" lon="5.55302">
        <ele>320</ele>
        <time>2013-03-23T09:11:05.000Z</time>
      </trkpt>
      <trkpt lat="43.52826" lon="5.55304">
        <ele>320</ele>
        <time>2013-03-23T09:11:06.000Z</time>
      </trkpt>
      <trkpt lat="43.52827" lon="5.55306">
        <ele>320.20001220703</ele>
        <time>2013-03-23T09:11:07.000Z</time>
      </trkpt>
      <trkpt lat="43.52828" lon="5.55309">
        <ele>320.20001220703</ele>
        <time>2013-03-23T09:11:08.000Z</time>
      </trkpt>
      <trkpt lat="43.52829" lon="5.55311">
        <ele>320.20001220703</ele>
        <time>2013-03-23T09:11:09.000Z</time>
      </trkpt>
      <trkpt lat="43.5283" lon="5.55313">
        <ele>320.20001220703</ele>
        <time>2013-03-23T09:11:10.000Z</time>
      </trkpt>
      <trkpt lat="43.52831" lon="5.55315">
        <ele>320.20001220703</ele>
        <time>2013-03-23T09:11:11.000Z</time>
      </trkpt>
      <trkpt lat="43.52843" lon="5.55337">
        <ele>321.79998779297</ele>
        <time>2013-03-23T09:11:23.000Z</time>
      </trkpt>
      <trkpt lat="43.52851" lon="5.55367">
        <ele>324</ele>
        <time>2013-03-23T09:11:35.000Z</time>
      </trkpt>
      <trkpt lat="43.52858" lon="5.55404">
        <ele>327</ele>
        <time>2013-03-23T09:11:49.000Z</time>
      </trkpt>
      <trkpt lat="43.52859" lon="5.55409">
        <ele>327.39999389648</ele>
        <time>2013-03-23T09:11:51.000Z</time>
      </trkpt>
      <trkpt lat="43.52859" lon="5.55412">
        <ele>327.60000610352</ele>
        <time>2013-03-23T09:11:52.000Z</time>
      </trkpt>
      <trkpt lat="43.52867" lon="5.55454">
        <ele>333.60000610352</ele>
        <time>2013-03-23T09:12:06.000Z</time>
      </trkpt>
      <trkpt lat="43.52868" lon="5.55482">
        <ele>337.20001220703</ele>
        <time>2013-03-23T09:12:14.000Z</time>
      </trkpt>
      <trkpt lat="43.52865" lon="5.55512">
        <ele>339.60000610352</ele>
        <time>2013-03-23T09:12:22.000Z</time>
      </trkpt>
      <trkpt lat="43.5286" lon="5.55564">
        <ele>342</ele>
        <time>2013-03-23T09:12:34.000Z</time>
      </trkpt>
      <trkpt lat="43.52858" lon="5.5561">
        <ele>343.39999389648</ele>
        <time>2013-03-23T09:12:45.000Z</time>
      </trkpt>
      <trkpt lat="43.52868" lon="5.55639">
        <ele>345.39999389648</ele>
        <time>2013-03-23T09:12:53.000Z</time>
      </trkpt>
      <trkpt lat="43.52875" lon="5.55682">
        <ele>347</ele>
        <time>2013-03-23T09:13:04.000Z</time>
      </trkpt>
      <trkpt lat="43.52881" lon="5.55721">
        <ele>349.39999389648</ele>
        <time>2013-03-23T09:13:14.000Z</time>
      </trkpt>
      <trkpt lat="43.52886" lon="5.55755">
        <ele>351.20001220703</ele>
        <time>2013-03-23T09:13:23.000Z</time>
      </trkpt>
      <trkpt lat="43.52889" lon="5.55777">
        <ele>352.79998779297</ele>
        <time>2013-03-23T09:13:29.000Z</time>
      </trkpt>
      <trkpt lat="43.52889" lon="5.5578">
        <ele>353</ele>
        <time>2013-03-23T09:13:30.000Z</time>
      </trkpt>
      <trkpt lat="43.52889" lon="5.55783">
        <ele>353.39999389648</ele>
        <time>2013-03-23T09:13:31.000Z</time>
      </trkpt>
      <trkpt lat="43.5289" lon="5.55787">
        <ele>353.60000610352</ele>
        <time>2013-03-23T09:13:32.000Z</time>
      </trkpt>
      <trkpt lat="43.5289" lon="5.5579">
        <ele>353.79998779297</ele>
        <time>2013-03-23T09:13:33.000Z</time>
      </trkpt>
      <trkpt lat="43.52891" lon="5.55793">
        <ele>354</ele>
        <time>2013-03-23T09:13:34.000Z</time>
      </trkpt>
      <trkpt lat="43.52892" lon="5.55797">
        <ele>354.39999389648</ele>
        <time>2013-03-23T09:13:35.000Z</time>
      </trkpt>
      <trkpt lat="43.52894" lon="5.55834">
        <ele>357</ele>
        <time>2013-03-23T09:13:46.000Z</time>
      </trkpt>
      <trkpt lat="43.52899" lon="5.55872">
        <ele>358.60000610352</ele>
        <time>2013-03-23T09:13:58.000Z</time>
      </trkpt>
      <trkpt lat="43.52899" lon="5.55901">
        <ele>360</ele>
        <time>2013-03-23T09:14:07.000Z</time>
      </trkpt>
      <trkpt lat="43.52906" lon="5.55923">
        <ele>360.60000610352</ele>
        <time>2013-03-23T09:14:17.000Z</time>
      </trkpt>
      <trkpt lat="43.52914" lon="5.55938">
        <ele>360.39999389648</ele>
        <time>2013-03-23T09:14:25.000Z</time>
      </trkpt>
      <trkpt lat="43.52921" lon="5.55958">
        <ele>359.39999389648</ele>
        <time>2013-03-23T09:14:35.000Z</time>
      </trkpt>
      <trkpt lat="43.52922" lon="5.55961">
        <ele>359.39999389648</ele>
        <time>2013-03-23T09:14:36.000Z</time>
      </trkpt>
      <trkpt lat="43.52922" lon="5.55964">
        <ele>359.39999389648</ele>
        <time>2013-03-23T09:14:37.000Z</time>
      </trkpt>
      <trkpt lat="43.52923" lon="5.55966">
        <ele>359.20001220703</ele>
        <time>2013-03-23T09:14:38.000Z</time>
      </trkpt>
      <trkpt lat="43.52925" lon="5.55968">
        <ele>359</ele>
        <time>2013-03-23T09:14:39.000Z</time>
      </trkpt>
      <trkpt lat="43.52926" lon="5.5597">
        <ele>358.79998779297</ele>
        <time>2013-03-23T09:14:40.000Z</time>
      </trkpt>
      <trkpt lat="43.52926" lon="5.55972">
        <ele>358.79998779297</ele>
        <time>2013-03-23T09:14:41.000Z</time>
      </trkpt>
      <trkpt lat="43.5293" lon="5.55983">
        <ele>358.20001220703</ele>
        <time>2013-03-23T09:14:46.000Z</time>
      </trkpt>
      <trkpt lat="43.5293" lon="5.55985">
        <ele>358.20001220703</ele>
        <time>2013-03-23T09:14:47.000Z</time>
      </trkpt>
      <trkpt lat="43.52931" lon="5.55987">
        <ele>358.20001220703</ele>
        <time>2013-03-23T09:14:48.000Z</time>
      </trkpt>
      <trkpt lat="43.52936" lon="5.56013">
        <ele>358.79998779297</ele>
        <time>2013-03-23T09:14:59.000Z</time>
      </trkpt>
      <trkpt lat="43.52935" lon="5.56024">
        <ele>360</ele>
        <time>2013-03-23T09:15:03.000Z</time>
      </trkpt>
      <trkpt lat="43.52935" lon="5.56026">
        <ele>360.20001220703</ele>
        <time>2013-03-23T09:15:04.000Z</time>
      </trkpt>
      <trkpt lat="43.52934" lon="5.56029">
        <ele>360.79998779297</ele>
        <time>2013-03-23T09:15:05.000Z</time>
      </trkpt>
      <trkpt lat="43.52933" lon="5.56032">
        <ele>361.20001220703</ele>
        <time>2013-03-23T09:15:06.000Z</time>
      </trkpt>
      <trkpt lat="43.52932" lon="5.56035">
        <ele>361.60000610352</ele>
        <time>2013-03-23T09:15:07.000Z</time>
      </trkpt>
      <trkpt lat="43.52931" lon="5.56037">
        <ele>362</ele>
        <time>2013-03-23T09:15:08.000Z</time>
      </trkpt>
      <trkpt lat="43.52928" lon="5.56038">
        <ele>362.60000610352</ele>
        <time>2013-03-23T09:15:09.000Z</time>
      </trkpt>
      <trkpt lat="43.52926" lon="5.56039">
        <ele>363.20001220703</ele>
        <time>2013-03-23T09:15:10.000Z</time>
      </trkpt>
      <trkpt lat="43.52923" lon="5.56039">
        <ele>363.60000610352</ele>
        <time>2013-03-23T09:15:11.000Z</time>
      </trkpt>
      <trkpt lat="43.5292" lon="5.56038">
        <ele>364</ele>
        <time>2013-03-23T09:15:12.000Z</time>
      </trkpt>
      <trkpt lat="43.52918" lon="5.56037">
        <ele>364.20001220703</ele>
        <time>2013-03-23T09:15:13.000Z</time>
      </trkpt>
      <trkpt lat="43.52892" lon="5.56014">
        <ele>365.60000610352</ele>
        <time>2013-03-23T09:15:25.000Z</time>
      </trkpt>
      <trkpt lat="43.52888" lon="5.56013">
        <ele>366</ele>
        <time>2013-03-23T09:15:27.000Z</time>
      </trkpt>
      <trkpt lat="43.52878" lon="5.5601">
        <ele>367</ele>
        <time>2013-03-23T09:15:32.000Z</time>
      </trkpt>
      <trkpt lat="43.52877" lon="5.56008">
        <ele>366.79998779297</ele>
        <time>2013-03-23T09:15:33.000Z</time>
      </trkpt>
      <trkpt lat="43.52873" lon="5.5598">
        <ele>365.60000610352</ele>
        <time>2013-03-23T09:15:43.000Z</time>
      </trkpt>
      <trkpt lat="43.52858" lon="5.55947">
        <ele>364.79998779297</ele>
        <time>2013-03-23T09:15:53.000Z</time>
      </trkpt>
      <trkpt lat="43.52841" lon="5.55911">
        <ele>363</ele>
        <time>2013-03-23T09:16:00.000Z</time>
      </trkpt>
      <trkpt lat="43.52837" lon="5.55906">
        <ele>362.79998779297</ele>
        <time>2013-03-23T09:16:01.000Z</time>
      </trkpt>
      <trkpt lat="43.52833" lon="5.55902">
        <ele>362.60000610352</ele>
        <time>2013-03-23T09:16:02.000Z</time>
      </trkpt>
      <trkpt lat="43.52831" lon="5.55897">
        <ele>362</ele>
        <time>2013-03-23T09:16:03.000Z</time>
      </trkpt>
      <trkpt lat="43.52829" lon="5.5589">
        <ele>361.39999389648</ele>
        <time>2013-03-23T09:16:04.000Z</time>
      </trkpt>
      <trkpt lat="43.52827" lon="5.55884">
        <ele>360.79998779297</ele>
        <time>2013-03-23T09:16:05.000Z</time>
      </trkpt>
      <trkpt lat="43.52823" lon="5.55872">
        <ele>359.60000610352</ele>
        <time>2013-03-23T09:16:07.000Z</time>
      </trkpt>
      <trkpt lat="43.52814" lon="5.55849">
        <ele>357.39999389648</ele>
        <time>2013-03-23T09:16:11.000Z</time>
      </trkpt>
      <trkpt lat="43.52799" lon="5.55774">
        <ele>352.20001220703</ele>
        <time>2013-03-23T09:16:23.000Z</time>
      </trkpt>
      <trkpt lat="43.52797" lon="5.55757">
        <ele>351</ele>
        <time>2013-03-23T09:16:26.000Z</time>
      </trkpt>
      <trkpt lat="43.52796" lon="5.55751">
        <ele>350.79998779297</ele>
        <time>2013-03-23T09:16:27.000Z</time>
      </trkpt>
      <trkpt lat="43.52795" lon="5.55746">
        <ele>350.60000610352</ele>
        <time>2013-03-23T09:16:28.000Z</time>
      </trkpt>
      <trkpt lat="43.52781" lon="5.55709">
        <ele>351.39999389648</ele>
        <time>2013-03-23T09:16:38.000Z</time>
      </trkpt>
      <trkpt lat="43.52778" lon="5.55707">
        <ele>351.79998779297</ele>
        <time>2013-03-23T09:16:39.000Z</time>
      </trkpt>
      <trkpt lat="43.52775" lon="5.55706">
        <ele>352</ele>
        <time>2013-03-23T09:16:40.000Z</time>
      </trkpt>
      <trkpt lat="43.52773" lon="5.55706">
        <ele>352.20001220703</ele>
        <time>2013-03-23T09:16:41.000Z</time>
      </trkpt>
      <trkpt lat="43.52772" lon="5.55707">
        <ele>352.39999389648</ele>
        <time>2013-03-23T09:16:42.000Z</time>
      </trkpt>
      <trkpt lat="43.52771" lon="5.5571">
        <ele>352.39999389648</ele>
        <time>2013-03-23T09:16:43.000Z</time>
      </trkpt>
      <trkpt lat="43.52772" lon="5.55713">
        <ele>352.39999389648</ele>
        <time>2013-03-23T09:16:44.000Z</time>
      </trkpt>
      <trkpt lat="43.52772" lon="5.55715">
        <ele>352.39999389648</ele>
        <time>2013-03-23T09:16:45.000Z</time>
      </trkpt>
      <trkpt lat="43.52771" lon="5.55719">
        <ele>352.39999389648</ele>
        <time>2013-03-23T09:16:55.000Z</time>
      </trkpt>
      <trkpt lat="43.52772" lon="5.55718">
        <ele>352.20001220703</ele>
        <time>2013-03-23T09:17:07.000Z</time>
      </trkpt>
      <trkpt lat="43.52772" lon="5.55717">
        <ele>352.20001220703</ele>
        <time>2013-03-23T09:17:23.000Z</time>
      </trkpt>
      <trkpt lat="43.52772" lon="5.55717">
        <ele>352.20001220703</ele>
        <time>2013-03-23T09:17:40.000Z</time>
      </trkpt>
      <trkpt lat="43.52774" lon="5.55728">
        <ele>352</ele>
        <time>2013-03-23T09:17:52.000Z</time>
      </trkpt>
      <trkpt lat="43.52781" lon="5.55764">
        <ele>352.20001220703</ele>
        <time>2013-03-23T09:18:00.000Z</time>
      </trkpt>
      <trkpt lat="43.52787" lon="5.55811">
        <ele>354.60000610352</ele>
        <time>2013-03-23T09:18:12.000Z</time>
      </trkpt>
      <trkpt lat="43.52788" lon="5.55817">
        <ele>355</ele>
        <time>2013-03-23T09:18:14.000Z</time>
      </trkpt>
      <trkpt lat="43.52792" lon="5.55846">
        <ele>356.60000610352</ele>
        <time>2013-03-23T09:18:23.000Z</time>
      </trkpt>
      <trkpt lat="43.52793" lon="5.55884">
        <ele>358.39999389648</ele>
        <time>2013-03-23T09:18:34.000Z</time>
      </trkpt>
      <trkpt lat="43.52795" lon="5.55896">
        <ele>359.20001220703</ele>
        <time>2013-03-23T09:18:38.000Z</time>
      </trkpt>
      <trkpt lat="43.52798" lon="5.55911">
        <ele>360.20001220703</ele>
        <time>2013-03-23T09:18:43.000Z</time>
      </trkpt>
      <trkpt lat="43.52798" lon="5.55915">
        <ele>360.39999389648</ele>
        <time>2013-03-23T09:18:44.000Z</time>
      </trkpt>
      <trkpt lat="43.52798" lon="5.55918">
        <ele>360.60000610352</ele>
        <time>2013-03-23T09:18:45.000Z</time>
      </trkpt>
      <trkpt lat="43.52799" lon="5.55933">
        <ele>361.60000610352</ele>
        <time>2013-03-23T09:18:50.000Z</time>
      </trkpt>
      <trkpt lat="43.528" lon="5.55938">
        <ele>362.20001220703</ele>
        <time>2013-03-23T09:18:52.000Z</time>
      </trkpt>
      <trkpt lat="43.52803" lon="5.55961">
        <ele>364</ele>
        <time>2013-03-23T09:19:00.000Z</time>
      </trkpt>
      <trkpt lat="43.52805" lon="5.55994">
        <ele>366.79998779297</ele>
        <time>2013-03-23T09:19:11.000Z</time>
      </trkpt>
      <trkpt lat="43.52806" lon="5.56003">
        <ele>367.60000610352</ele>
        <time>2013-03-23T09:19:14.000Z</time>
      </trkpt>
      <trkpt lat="43.52811" lon="5.56043">
        <ele>371.60000610352</ele>
        <time>2013-03-23T09:19:28.000Z</time>
      </trkpt>
      <trkpt lat="43.52811" lon="5.56058">
        <ele>373</ele>
        <time>2013-03-23T09:19:34.000Z</time>
      </trkpt>
      <trkpt lat="43.52815" lon="5.56086">
        <ele>376.39999389648</ele>
        <time>2013-03-23T09:19:45.000Z</time>
      </trkpt>
      <trkpt lat="43.52816" lon="5.56093">
        <ele>377.60000610352</ele>
        <time>2013-03-23T09:19:48.000Z</time>
      </trkpt>
      <trkpt lat="43.52817" lon="5.561">
        <ele>378.60000610352</ele>
        <time>2013-03-23T09:19:51.000Z</time>
      </trkpt>
      <trkpt lat="43.52817" lon="5.56101">
        <ele>379</ele>
        <time>2013-03-23T09:19:52.000Z</time>
      </trkpt>
      <trkpt lat="43.52818" lon="5.56103">
        <ele>379.39999389648</ele>
        <time>2013-03-23T09:19:53.000Z</time>
      </trkpt>
      <trkpt lat="43.52818" lon="5.56105">
        <ele>379.79998779297</ele>
        <time>2013-03-23T09:19:54.000Z</time>
      </trkpt>
      <trkpt lat="43.52818" lon="5.56108">
        <ele>380.20001220703</ele>
        <time>2013-03-23T09:19:55.000Z</time>
      </trkpt>
      <trkpt lat="43.52819" lon="5.5611">
        <ele>380.60000610352</ele>
        <time>2013-03-23T09:19:56.000Z</time>
      </trkpt>
      <trkpt lat="43.52826" lon="5.56132">
        <ele>385.60000610352</ele>
        <time>2013-03-23T09:20:07.000Z</time>
      </trkpt>
      <trkpt lat="43.52826" lon="5.56134">
        <ele>386.20001220703</ele>
        <time>2013-03-23T09:20:08.000Z</time>
      </trkpt>
      <trkpt lat="43.52829" lon="5.56142">
        <ele>388.20001220703</ele>
        <time>2013-03-23T09:20:12.000Z</time>
      </trkpt>
      <trkpt lat="43.52833" lon="5.56163">
        <ele>392.39999389648</ele>
        <time>2013-03-23T09:20:22.000Z</time>
      </trkpt>
      <trkpt lat="43.5284" lon="5.56178">
        <ele>392.79998779297</ele>
        <time>2013-03-23T09:20:30.000Z</time>
      </trkpt>
      <trkpt lat="43.52846" lon="5.56189">
        <ele>393</ele>
        <time>2013-03-23T09:20:37.000Z</time>
      </trkpt>
      <trkpt lat="43.52855" lon="5.5621">
        <ele>393.39999389648</ele>
        <time>2013-03-23T09:20:48.000Z</time>
      </trkpt>
      <trkpt lat="43.52861" lon="5.56235">
        <ele>394.60000610352</ele>
        <time>2013-03-23T09:21:00.000Z</time>
      </trkpt>
      <trkpt lat="43.52863" lon="5.56248">
        <ele>395.20001220703</ele>
        <time>2013-03-23T09:21:05.000Z</time>
      </trkpt>
      <trkpt lat="43.52861" lon="5.56282">
        <ele>397.39999389648</ele>
        <time>2013-03-23T09:21:17.000Z</time>
      </trkpt>
      <trkpt lat="43.52858" lon="5.56315">
        <ele>399.20001220703</ele>
        <time>2013-03-23T09:21:27.000Z</time>
      </trkpt>
      <trkpt lat="43.52866" lon="5.56344">
        <ele>401.39999389648</ele>
        <time>2013-03-23T09:21:36.000Z</time>
      </trkpt>
      <trkpt lat="43.5287" lon="5.56381">
        <ele>403.20001220703</ele>
        <time>2013-03-23T09:21:47.000Z</time>
      </trkpt>
      <trkpt lat="43.52877" lon="5.5642">
        <ele>405.79998779297</ele>
        <time>2013-03-23T09:21:58.000Z</time>
      </trkpt>
      <trkpt lat="43.52878" lon="5.56423">
        <ele>406.20001220703</ele>
        <time>2013-03-23T09:21:59.000Z</time>
      </trkpt>
      <trkpt lat="43.52884" lon="5.56441">
        <ele>408.20001220703</ele>
        <time>2013-03-23T09:22:06.000Z</time>
      </trkpt>
      <trkpt lat="43.52886" lon="5.56446">
        <ele>409</ele>
        <time>2013-03-23T09:22:14.000Z</time>
      </trkpt>
      <trkpt lat="43.52887" lon="5.56449">
        <ele>409.20001220703</ele>
        <time>2013-03-23T09:22:27.000Z</time>
      </trkpt>
      <trkpt lat="43.52887" lon="5.56451">
        <ele>409.20001220703</ele>
        <time>2013-03-23T09:22:28.000Z</time>
      </trkpt>
      <trkpt lat="43.52887" lon="5.56454">
        <ele>409.39999389648</ele>
        <time>2013-03-23T09:22:29.000Z</time>
      </trkpt>
      <trkpt lat="43.52887" lon="5.56457">
        <ele>409.60000610352</ele>
        <time>2013-03-23T09:22:30.000Z</time>
      </trkpt>
      <trkpt lat="43.52888" lon="5.56461">
        <ele>409.79998779297</ele>
        <time>2013-03-23T09:22:31.000Z</time>
      </trkpt>
      <trkpt lat="43.52888" lon="5.56465">
        <ele>410.20001220703</ele>
        <time>2013-03-23T09:22:32.000Z</time>
      </trkpt>
      <trkpt lat="43.52899" lon="5.56495">
        <ele>414.20001220703</ele>
        <time>2013-03-23T09:22:40.000Z</time>
      </trkpt>
      <trkpt lat="43.52914" lon="5.56527">
        <ele>420.60000610352</ele>
        <time>2013-03-23T09:22:49.000Z</time>
      </trkpt>
      <trkpt lat="43.52918" lon="5.56555">
        <ele>424</ele>
        <time>2013-03-23T09:22:57.000Z</time>
      </trkpt>
      <trkpt lat="43.52912" lon="5.56581">
        <ele>424.79998779297</ele>
        <time>2013-03-23T09:23:05.000Z</time>
      </trkpt>
      <trkpt lat="43.52903" lon="5.56614">
        <ele>425.60000610352</ele>
        <time>2013-03-23T09:23:15.000Z</time>
      </trkpt>
      <trkpt lat="43.52894" lon="5.56648">
        <ele>426.39999389648</ele>
        <time>2013-03-23T09:23:24.000Z</time>
      </trkpt>
      <trkpt lat="43.52891" lon="5.56675">
        <ele>427.20001220703</ele>
        <time>2013-03-23T09:23:32.000Z</time>
      </trkpt>
      <trkpt lat="43.52888" lon="5.56699">
        <ele>427</ele>
        <time>2013-03-23T09:23:40.000Z</time>
      </trkpt>
      <trkpt lat="43.52889" lon="5.56722">
        <ele>428</ele>
        <time>2013-03-23T09:23:47.000Z</time>
      </trkpt>
      <trkpt lat="43.52892" lon="5.56754">
        <ele>429.60000610352</ele>
        <time>2013-03-23T09:23:55.000Z</time>
      </trkpt>
      <trkpt lat="43.52893" lon="5.56757">
        <ele>429.79998779297</ele>
        <time>2013-03-23T09:23:56.000Z</time>
      </trkpt>
      <trkpt lat="43.52892" lon="5.5676">
        <ele>429.79998779297</ele>
        <time>2013-03-23T09:23:57.000Z</time>
      </trkpt>
      <trkpt lat="43.52893" lon="5.56764">
        <ele>430</ele>
        <time>2013-03-23T09:23:58.000Z</time>
      </trkpt>
      <trkpt lat="43.52893" lon="5.56768">
        <ele>430.20001220703</ele>
        <time>2013-03-23T09:23:59.000Z</time>
      </trkpt>
      <trkpt lat="43.52893" lon="5.56772">
        <ele>430.20001220703</ele>
        <time>2013-03-23T09:24:00.000Z</time>
      </trkpt>
      <trkpt lat="43.52884" lon="5.56811">
        <ele>430.20001220703</ele>
        <time>2013-03-23T09:24:11.000Z</time>
      </trkpt>
      <trkpt lat="43.52883" lon="5.56814">
        <ele>430</ele>
        <time>2013-03-23T09:24:12.000Z</time>
      </trkpt>
      <trkpt lat="43.52876" lon="5.56859">
        <ele>431.39999389648</ele>
        <time>2013-03-23T09:24:24.000Z</time>
      </trkpt>
      <trkpt lat="43.52877" lon="5.56891">
        <ele>433.79998779297</ele>
        <time>2013-03-23T09:24:33.000Z</time>
      </trkpt>
      <trkpt lat="43.52876" lon="5.56889">
        <ele>433.60000610352</ele>
        <time>2013-03-23T09:24:53.000Z</time>
      </trkpt>
      <trkpt lat="43.52875" lon="5.56889">
        <ele>433.39999389648</ele>
        <time>2013-03-23T09:25:16.000Z</time>
      </trkpt>
      <trkpt lat="43.52875" lon="5.56891">
        <ele>433.60000610352</ele>
        <time>2013-03-23T09:25:37.000Z</time>
      </trkpt>
      <trkpt lat="43.52874" lon="5.56895">
        <ele>433.60000610352</ele>
        <time>2013-03-23T09:25:40.000Z</time>
      </trkpt>
      <trkpt lat="43.52872" lon="5.56896">
        <ele>433.60000610352</ele>
        <time>2013-03-23T09:25:41.000Z</time>
      </trkpt>
      <trkpt lat="43.5287" lon="5.56895">
        <ele>433.39999389648</ele>
        <time>2013-03-23T09:25:42.000Z</time>
      </trkpt>
      <trkpt lat="43.52867" lon="5.56894">
        <ele>433</ele>
        <time>2013-03-23T09:25:43.000Z</time>
      </trkpt>
      <trkpt lat="43.52863" lon="5.56893">
        <ele>432.39999389648</ele>
        <time>2013-03-23T09:25:44.000Z</time>
      </trkpt>
      <trkpt lat="43.52857" lon="5.56893">
        <ele>431.79998779297</ele>
        <time>2013-03-23T09:25:45.000Z</time>
      </trkpt>
      <trkpt lat="43.52851" lon="5.56893">
        <ele>431</ele>
        <time>2013-03-23T09:25:46.000Z</time>
      </trkpt>
      <trkpt lat="43.52845" lon="5.56895">
        <ele>430.60000610352</ele>
        <time>2013-03-23T09:25:47.000Z</time>
      </trkpt>
      <trkpt lat="43.52838" lon="5.56896">
        <ele>429.79998779297</ele>
        <time>2013-03-23T09:25:48.000Z</time>
      </trkpt>
      <trkpt lat="43.52832" lon="5.56895">
        <ele>429</ele>
        <time>2013-03-23T09:25:49.000Z</time>
      </trkpt>
      <trkpt lat="43.52826" lon="5.56894">
        <ele>427.79998779297</ele>
        <time>2013-03-23T09:25:50.000Z</time>
      </trkpt>
      <trkpt lat="43.52814" lon="5.5689">
        <ele>425.20001220703</ele>
        <time>2013-03-23T09:25:54.000Z</time>
      </trkpt>
      <trkpt lat="43.52805" lon="5.56887">
        <ele>423.20001220703</ele>
        <time>2013-03-23T09:26:01.000Z</time>
      </trkpt>
      <trkpt lat="43.52802" lon="5.56886">
        <ele>422.39999389648</ele>
        <time>2013-03-23T09:26:03.000Z</time>
      </trkpt>
      <trkpt lat="43.528" lon="5.56886">
        <ele>422</ele>
        <time>2013-03-23T09:26:04.000Z</time>
      </trkpt>
      <trkpt lat="43.52798" lon="5.56884">
        <ele>421.60000610352</ele>
        <time>2013-03-23T09:26:05.000Z</time>
      </trkpt>
      <trkpt lat="43.52798" lon="5.56882">
        <ele>421.20001220703</ele>
        <time>2013-03-23T09:26:06.000Z</time>
      </trkpt>
      <trkpt lat="43.52798" lon="5.5688">
        <ele>421</ele>
        <time>2013-03-23T09:26:07.000Z</time>
      </trkpt>
      <trkpt lat="43.52798" lon="5.56878">
        <ele>420.79998779297</ele>
        <time>2013-03-23T09:26:09.000Z</time>
      </trkpt>
      <trkpt lat="43.52798" lon="5.56878">
        <ele>420.79998779297</ele>
        <time>2013-03-23T09:26:12.000Z</time>
      </trkpt>
      <trkpt lat="43.52796" lon="5.56871">
        <ele>419.79998779297</ele>
        <time>2013-03-23T09:26:21.000Z</time>
      </trkpt>
      <trkpt lat="43.52796" lon="5.56868">
        <ele>419.39999389648</ele>
        <time>2013-03-23T09:26:27.000Z</time>
      </trkpt>
      <trkpt lat="43.52795" lon="5.56861">
        <ele>418.39999389648</ele>
        <time>2013-03-23T09:26:29.000Z</time>
      </trkpt>
      <trkpt lat="43.52793" lon="5.56858">
        <ele>417.60000610352</ele>
        <time>2013-03-23T09:26:30.000Z</time>
      </trkpt>
      <trkpt lat="43.5279" lon="5.56856">
        <ele>417</ele>
        <time>2013-03-23T09:26:31.000Z</time>
      </trkpt>
      <trkpt lat="43.52788" lon="5.56855">
        <ele>416.60000610352</ele>
        <time>2013-03-23T09:26:32.000Z</time>
      </trkpt>
      <trkpt lat="43.52784" lon="5.56855">
        <ele>415.79998779297</ele>
        <time>2013-03-23T09:26:39.000Z</time>
      </trkpt>
      <trkpt lat="43.52779" lon="5.56854">
        <ele>414.79998779297</ele>
        <time>2013-03-23T09:26:44.000Z</time>
      </trkpt>
      <trkpt lat="43.52776" lon="5.56855">
        <ele>414.39999389648</ele>
        <time>2013-03-23T09:26:45.000Z</time>
      </trkpt>
      <trkpt lat="43.52774" lon="5.56853">
        <ele>414</ele>
        <time>2013-03-23T09:26:46.000Z</time>
      </trkpt>
      <trkpt lat="43.52772" lon="5.56852">
        <ele>413.39999389648</ele>
        <time>2013-03-23T09:26:47.000Z</time>
      </trkpt>
      <trkpt lat="43.52771" lon="5.56851">
        <ele>413.20001220703</ele>
        <time>2013-03-23T09:26:48.000Z</time>
      </trkpt>
      <trkpt lat="43.52769" lon="5.5685">
        <ele>412.79998779297</ele>
        <time>2013-03-23T09:26:49.000Z</time>
      </trkpt>
      <trkpt lat="43.52769" lon="5.56849">
        <ele>412.60000610352</ele>
        <time>2013-03-23T09:26:53.000Z</time>
      </trkpt>
      <trkpt lat="43.52766" lon="5.56848">
        <ele>412</ele>
        <time>2013-03-23T09:26:59.000Z</time>
      </trkpt>
      <trkpt lat="43.52765" lon="5.56847">
        <ele>411.79998779297</ele>
        <time>2013-03-23T09:27:00.000Z</time>
      </trkpt>
      <trkpt lat="43.52763" lon="5.56844">
        <ele>411.20001220703</ele>
        <time>2013-03-23T09:27:06.000Z</time>
      </trkpt>
      <trkpt lat="43.52763" lon="5.56845">
        <ele>411.20001220703</ele>
        <time>2013-03-23T09:27:07.000Z</time>
      </trkpt>
      <trkpt lat="43.52763" lon="5.56846">
        <ele>411.39999389648</ele>
        <time>2013-03-23T09:27:10.000Z</time>
      </trkpt>
      <trkpt lat="43.52763" lon="5.56846">
        <ele>411.20001220703</ele>
        <time>2013-03-23T09:27:11.000Z</time>
      </trkpt>
      <trkpt lat="43.52755" lon="5.56844">
        <ele>409.79998779297</ele>
        <time>2013-03-23T09:27:15.000Z</time>
      </trkpt>
      <trkpt lat="43.52753" lon="5.56847">
        <ele>409.79998779297</ele>
        <time>2013-03-23T09:27:16.000Z</time>
      </trkpt>
      <trkpt lat="43.52753" lon="5.56851">
        <ele>410</ele>
        <time>2013-03-23T09:27:17.000Z</time>
      </trkpt>
      <trkpt lat="43.52752" lon="5.56855">
        <ele>410.20001220703</ele>
        <time>2013-03-23T09:27:18.000Z</time>
      </trkpt>
      <trkpt lat="43.52751" lon="5.56859">
        <ele>410.39999389648</ele>
        <time>2013-03-23T09:27:19.000Z</time>
      </trkpt>
      <trkpt lat="43.52748" lon="5.56867">
        <ele>410.79998779297</ele>
        <time>2013-03-23T09:27:21.000Z</time>
      </trkpt>
      <trkpt lat="43.52746" lon="5.56871">
        <ele>410.79998779297</ele>
        <time>2013-03-23T09:27:22.000Z</time>
      </trkpt>
      <trkpt lat="43.52742" lon="5.56874">
        <ele>410.20001220703</ele>
        <time>2013-03-23T09:27:23.000Z</time>
      </trkpt>
      <trkpt lat="43.52737" lon="5.56876">
        <ele>409.60000610352</ele>
        <time>2013-03-23T09:27:24.000Z</time>
      </trkpt>
      <trkpt lat="43.52731" lon="5.56877">
        <ele>408.60000610352</ele>
        <time>2013-03-23T09:27:25.000Z</time>
      </trkpt>
      <trkpt lat="43.52726" lon="5.56877">
        <ele>407.60000610352</ele>
        <time>2013-03-23T09:27:26.000Z</time>
      </trkpt>
      <trkpt lat="43.52721" lon="5.56875">
        <ele>406.60000610352</ele>
        <time>2013-03-23T09:27:27.000Z</time>
      </trkpt>
      <trkpt lat="43.52716" lon="5.56874">
        <ele>405.39999389648</ele>
        <time>2013-03-23T09:27:28.000Z</time>
      </trkpt>
      <trkpt lat="43.5271" lon="5.56874">
        <ele>404.39999389648</ele>
        <time>2013-03-23T09:27:29.000Z</time>
      </trkpt>
      <trkpt lat="43.52705" lon="5.56872">
        <ele>403.20001220703</ele>
        <time>2013-03-23T09:27:30.000Z</time>
      </trkpt>
      <trkpt lat="43.52701" lon="5.56869">
        <ele>402.39999389648</ele>
        <time>2013-03-23T09:27:31.000Z</time>
      </trkpt>
      <trkpt lat="43.52698" lon="5.56865">
        <ele>401.39999389648</ele>
        <time>2013-03-23T09:27:32.000Z</time>
      </trkpt>
      <trkpt lat="43.52694" lon="5.56861">
        <ele>400.60000610352</ele>
        <time>2013-03-23T09:27:33.000Z</time>
      </trkpt>
      <trkpt lat="43.52691" lon="5.56857">
        <ele>399.60000610352</ele>
        <time>2013-03-23T09:27:34.000Z</time>
      </trkpt>
      <trkpt lat="43.52682" lon="5.56848">
        <ele>397.60000610352</ele>
        <time>2013-03-23T09:27:36.000Z</time>
      </trkpt>
      <trkpt lat="43.52666" lon="5.56842">
        <ele>394.39999389648</ele>
        <time>2013-03-23T09:27:40.000Z</time>
      </trkpt>
      <trkpt lat="43.52661" lon="5.5684">
        <ele>392.60000610352</ele>
        <time>2013-03-23T09:27:42.000Z</time>
      </trkpt>
      <trkpt lat="43.52658" lon="5.56837">
        <ele>391.39999389648</ele>
        <time>2013-03-23T09:27:43.000Z</time>
      </trkpt>
      <trkpt lat="43.52654" lon="5.56833">
        <ele>390</ele>
        <time>2013-03-23T09:27:44.000Z</time>
      </trkpt>
      <trkpt lat="43.52652" lon="5.56829">
        <ele>388.79998779297</ele>
        <time>2013-03-23T09:27:45.000Z</time>
      </trkpt>
      <trkpt lat="43.5265" lon="5.56824">
        <ele>387.60000610352</ele>
        <time>2013-03-23T09:27:46.000Z</time>
      </trkpt>
      <trkpt lat="43.52651" lon="5.56817">
        <ele>387</ele>
        <time>2013-03-23T09:27:47.000Z</time>
      </trkpt>
      <trkpt lat="43.52653" lon="5.5681">
        <ele>387</ele>
        <time>2013-03-23T09:27:48.000Z</time>
      </trkpt>
      <trkpt lat="43.52656" lon="5.56805">
        <ele>387.20001220703</ele>
        <time>2013-03-23T09:27:49.000Z</time>
      </trkpt>
      <trkpt lat="43.52659" lon="5.56802">
        <ele>387.79998779297</ele>
        <time>2013-03-23T09:27:50.000Z</time>
      </trkpt>
      <trkpt lat="43.52661" lon="5.56798">
        <ele>388</ele>
        <time>2013-03-23T09:27:51.000Z</time>
      </trkpt>
      <trkpt lat="43.52662" lon="5.56795">
        <ele>387.79998779297</ele>
        <time>2013-03-23T09:27:52.000Z</time>
      </trkpt>
      <trkpt lat="43.52661" lon="5.56791">
        <ele>387</ele>
        <time>2013-03-23T09:27:53.000Z</time>
      </trkpt>
      <trkpt lat="43.52659" lon="5.56786">
        <ele>386</ele>
        <time>2013-03-23T09:27:54.000Z</time>
      </trkpt>
      <trkpt lat="43.52658" lon="5.5678">
        <ele>385</ele>
        <time>2013-03-23T09:27:55.000Z</time>
      </trkpt>
      <trkpt lat="43.52655" lon="5.56773">
        <ele>383.39999389648</ele>
        <time>2013-03-23T09:27:57.000Z</time>
      </trkpt>
      <trkpt lat="43.52653" lon="5.56771">
        <ele>382.60000610352</ele>
        <time>2013-03-23T09:27:58.000Z</time>
      </trkpt>
      <trkpt lat="43.52651" lon="5.56769">
        <ele>381.79998779297</ele>
        <time>2013-03-23T09:27:59.000Z</time>
      </trkpt>
      <trkpt lat="43.52649" lon="5.56766">
        <ele>380.60000610352</ele>
        <time>2013-03-23T09:28:00.000Z</time>
      </trkpt>
      <trkpt lat="43.52646" lon="5.56762">
        <ele>379.60000610352</ele>
        <time>2013-03-23T09:28:01.000Z</time>
      </trkpt>
      <trkpt lat="43.52643" lon="5.56759">
        <ele>378.39999389648</ele>
        <time>2013-03-23T09:28:02.000Z</time>
      </trkpt>
      <trkpt lat="43.52641" lon="5.56756">
        <ele>377.39999389648</ele>
        <time>2013-03-23T09:28:03.000Z</time>
      </trkpt>
      <trkpt lat="43.52638" lon="5.56755">
        <ele>376.39999389648</ele>
        <time>2013-03-23T09:28:04.000Z</time>
      </trkpt>
      <trkpt lat="43.52634" lon="5.56756">
        <ele>375.60000610352</ele>
        <time>2013-03-23T09:28:05.000Z</time>
      </trkpt>
      <trkpt lat="43.52631" lon="5.56758">
        <ele>375</ele>
        <time>2013-03-23T09:28:06.000Z</time>
      </trkpt>
      <trkpt lat="43.52628" lon="5.56762">
        <ele>374.39999389648</ele>
        <time>2013-03-23T09:28:07.000Z</time>
      </trkpt>
      <trkpt lat="43.52625" lon="5.56765">
        <ele>374</ele>
        <time>2013-03-23T09:28:08.000Z</time>
      </trkpt>
      <trkpt lat="43.52622" lon="5.56769">
        <ele>373.39999389648</ele>
        <time>2013-03-23T09:28:09.000Z</time>
      </trkpt>
      <trkpt lat="43.52616" lon="5.56778">
        <ele>372.79998779297</ele>
        <time>2013-03-23T09:28:11.000Z</time>
      </trkpt>
      <trkpt lat="43.52614" lon="5.56782">
        <ele>372.60000610352</ele>
        <time>2013-03-23T09:28:12.000Z</time>
      </trkpt>
      <trkpt lat="43.5261" lon="5.56785">
        <ele>371.79998779297</ele>
        <time>2013-03-23T09:28:13.000Z</time>
      </trkpt>
      <trkpt lat="43.52607" lon="5.56787">
        <ele>370.79998779297</ele>
        <time>2013-03-23T09:28:14.000Z</time>
      </trkpt>
      <trkpt lat="43.52604" lon="5.56791">
        <ele>370.39999389648</ele>
        <time>2013-03-23T09:28:15.000Z</time>
      </trkpt>
      <trkpt lat="43.52603" lon="5.56793">
        <ele>370.20001220703</ele>
        <time>2013-03-23T09:28:16.000Z</time>
      </trkpt>
      <trkpt lat="43.526" lon="5.56794">
        <ele>369.39999389648</ele>
        <time>2013-03-23T09:28:17.000Z</time>
      </trkpt>
      <trkpt lat="43.52597" lon="5.56791">
        <ele>368.39999389648</ele>
        <time>2013-03-23T09:28:18.000Z</time>
      </trkpt>
      <trkpt lat="43.52595" lon="5.56786">
        <ele>367.39999389648</ele>
        <time>2013-03-23T09:28:19.000Z</time>
      </trkpt>
      <trkpt lat="43.52594" lon="5.56779">
        <ele>366.60000610352</ele>
        <time>2013-03-23T09:28:20.000Z</time>
      </trkpt>
      <trkpt lat="43.52594" lon="5.56772">
        <ele>365.79998779297</ele>
        <time>2013-03-23T09:28:21.000Z</time>
      </trkpt>
      <trkpt lat="43.52595" lon="5.56765">
        <ele>365.60000610352</ele>
        <time>2013-03-23T09:28:22.000Z</time>
      </trkpt>
      <trkpt lat="43.52597" lon="5.56757">
        <ele>365.39999389648</ele>
        <time>2013-03-23T09:28:23.000Z</time>
      </trkpt>
      <trkpt lat="43.52599" lon="5.5675">
        <ele>365.20001220703</ele>
        <time>2013-03-23T09:28:24.000Z</time>
      </trkpt>
      <trkpt lat="43.526" lon="5.56741">
        <ele>365</ele>
        <time>2013-03-23T09:28:25.000Z</time>
      </trkpt>
      <trkpt lat="43.52599" lon="5.56733">
        <ele>364.39999389648</ele>
        <time>2013-03-23T09:28:26.000Z</time>
      </trkpt>
      <trkpt lat="43.52598" lon="5.56727">
        <ele>363.60000610352</ele>
        <time>2013-03-23T09:28:27.000Z</time>
      </trkpt>
      <trkpt lat="43.52596" lon="5.56723">
        <ele>363</ele>
        <time>2013-03-23T09:28:28.000Z</time>
      </trkpt>
      <trkpt lat="43.52595" lon="5.5672">
        <ele>362.60000610352</ele>
        <time>2013-03-23T09:28:29.000Z</time>
      </trkpt>
      <trkpt lat="43.52594" lon="5.56719">
        <ele>362.20001220703</ele>
        <time>2013-03-23T09:28:30.000Z</time>
      </trkpt>
      <trkpt lat="43.52594" lon="5.56717">
        <ele>362.20001220703</ele>
        <time>2013-03-23T09:28:31.000Z</time>
      </trkpt>
      <trkpt lat="43.52594" lon="5.56706">
        <ele>361.60000610352</ele>
        <time>2013-03-23T09:28:39.000Z</time>
      </trkpt>
      <trkpt lat="43.52591" lon="5.56695">
        <ele>360.39999389648</ele>
        <time>2013-03-23T09:28:49.000Z</time>
      </trkpt>
      <trkpt lat="43.52589" lon="5.56693">
        <ele>359.60000610352</ele>
        <time>2013-03-23T09:28:52.000Z</time>
      </trkpt>
      <trkpt lat="43.52588" lon="5.56692">
        <ele>359.20001220703</ele>
        <time>2013-03-23T09:28:53.000Z</time>
      </trkpt>
      <trkpt lat="43.52587" lon="5.56691">
        <ele>359</ele>
        <time>2013-03-23T09:28:54.000Z</time>
      </trkpt>
      <trkpt lat="43.52587" lon="5.56692">
        <ele>359</ele>
        <time>2013-03-23T09:29:02.000Z</time>
      </trkpt>
      <trkpt lat="43.52584" lon="5.56692">
        <ele>358.39999389648</ele>
        <time>2013-03-23T09:29:17.000Z</time>
      </trkpt>
      <trkpt lat="43.52584" lon="5.5669">
        <ele>358.20001220703</ele>
        <time>2013-03-23T09:29:36.000Z</time>
      </trkpt>
      <trkpt lat="43.52575" lon="5.56686">
        <ele>356</ele>
        <time>2013-03-23T09:29:40.000Z</time>
      </trkpt>
      <trkpt lat="43.52551" lon="5.56687">
        <ele>350.79998779297</ele>
        <time>2013-03-23T09:29:47.000Z</time>
      </trkpt>
      <trkpt lat="43.52541" lon="5.56692">
        <ele>348.60000610352</ele>
        <time>2013-03-23T09:29:50.000Z</time>
      </trkpt>
      <trkpt lat="43.52537" lon="5.56694">
        <ele>347.79998779297</ele>
        <time>2013-03-23T09:29:51.000Z</time>
      </trkpt>
      <trkpt lat="43.52529" lon="5.56701">
        <ele>346.20001220703</ele>
        <time>2013-03-23T09:29:53.000Z</time>
      </trkpt>
      <trkpt lat="43.52525" lon="5.56705">
        <ele>345.39999389648</ele>
        <time>2013-03-23T09:29:54.000Z</time>
      </trkpt>
      <trkpt lat="43.5252" lon="5.56708">
        <ele>344.39999389648</ele>
        <time>2013-03-23T09:29:55.000Z</time>
      </trkpt>
      <trkpt lat="43.52511" lon="5.56712">
        <ele>342.60000610352</ele>
        <time>2013-03-23T09:29:57.000Z</time>
      </trkpt>
      <trkpt lat="43.52507" lon="5.56715">
        <ele>341.60000610352</ele>
        <time>2013-03-23T09:29:58.000Z</time>
      </trkpt>
      <trkpt lat="43.52503" lon="5.5672">
        <ele>341</ele>
        <time>2013-03-23T09:29:59.000Z</time>
      </trkpt>
      <trkpt lat="43.52501" lon="5.56726">
        <ele>340.39999389648</ele>
        <time>2013-03-23T09:30:00.000Z</time>
      </trkpt>
      <trkpt lat="43.52499" lon="5.56732">
        <ele>340.20001220703</ele>
        <time>2013-03-23T09:30:01.000Z</time>
      </trkpt>
      <trkpt lat="43.52497" lon="5.56739">
        <ele>340</ele>
        <time>2013-03-23T09:30:02.000Z</time>
      </trkpt>
      <trkpt lat="43.52491" lon="5.5676">
        <ele>338.60000610352</ele>
        <time>2013-03-23T09:30:05.000Z</time>
      </trkpt>
      <trkpt lat="43.52489" lon="5.56766">
        <ele>337.79998779297</ele>
        <time>2013-03-23T09:30:06.000Z</time>
      </trkpt>
      <trkpt lat="43.52485" lon="5.56771">
        <ele>336.79998779297</ele>
        <time>2013-03-23T09:30:07.000Z</time>
      </trkpt>
      <trkpt lat="43.5248" lon="5.56774">
        <ele>335.60000610352</ele>
        <time>2013-03-23T09:30:08.000Z</time>
      </trkpt>
      <trkpt lat="43.52474" lon="5.56777">
        <ele>334.20001220703</ele>
        <time>2013-03-23T09:30:09.000Z</time>
      </trkpt>
      <trkpt lat="43.52467" lon="5.56779">
        <ele>332.39999389648</ele>
        <time>2013-03-23T09:30:10.000Z</time>
      </trkpt>
      <trkpt lat="43.52461" lon="5.5678">
        <ele>330.79998779297</ele>
        <time>2013-03-23T09:30:11.000Z</time>
      </trkpt>
      <trkpt lat="43.52454" lon="5.5678">
        <ele>329.39999389648</ele>
        <time>2013-03-23T09:30:12.000Z</time>
      </trkpt>
      <trkpt lat="43.52448" lon="5.5678">
        <ele>328</ele>
        <time>2013-03-23T09:30:13.000Z</time>
      </trkpt>
      <trkpt lat="43.52442" lon="5.5678">
        <ele>326.60000610352</ele>
        <time>2013-03-23T09:30:14.000Z</time>
      </trkpt>
      <trkpt lat="43.52436" lon="5.56778">
        <ele>325.20001220703</ele>
        <time>2013-03-23T09:30:15.000Z</time>
      </trkpt>
      <trkpt lat="43.5243" lon="5.56775">
        <ele>323.79998779297</ele>
        <time>2013-03-23T09:30:16.000Z</time>
      </trkpt>
      <trkpt lat="43.52425" lon="5.56772">
        <ele>322.79998779297</ele>
        <time>2013-03-23T09:30:17.000Z</time>
      </trkpt>
      <trkpt lat="43.52421" lon="5.56769">
        <ele>322</ele>
        <time>2013-03-23T09:30:18.000Z</time>
      </trkpt>
      <trkpt lat="43.52419" lon="5.56765">
        <ele>321.60000610352</ele>
        <time>2013-03-23T09:30:19.000Z</time>
      </trkpt>
      <trkpt lat="43.52417" lon="5.56763">
        <ele>321.20001220703</ele>
        <time>2013-03-23T09:30:20.000Z</time>
      </trkpt>
      <trkpt lat="43.52415" lon="5.56762">
        <ele>321</ele>
        <time>2013-03-23T09:30:21.000Z</time>
      </trkpt>
      <trkpt lat="43.52409" lon="5.56773">
        <ele>320</ele>
        <time>2013-03-23T09:30:25.000Z</time>
      </trkpt>
      <trkpt lat="43.52409" lon="5.56778">
        <ele>319.79998779297</ele>
        <time>2013-03-23T09:30:26.000Z</time>
      </trkpt>
      <trkpt lat="43.52409" lon="5.56782">
        <ele>319.79998779297</ele>
        <time>2013-03-23T09:30:27.000Z</time>
      </trkpt>
      <trkpt lat="43.52406" lon="5.56791">
        <ele>319.20001220703</ele>
        <time>2013-03-23T09:30:30.000Z</time>
      </trkpt>
      <trkpt lat="43.52407" lon="5.56801">
        <ele>318.79998779297</ele>
        <time>2013-03-23T09:30:36.000Z</time>
      </trkpt>
      <trkpt lat="43.52408" lon="5.56801">
        <ele>318.79998779297</ele>
        <time>2013-03-23T09:30:37.000Z</time>
      </trkpt>
      <trkpt lat="43.52408" lon="5.56801">
        <ele>318.79998779297</ele>
        <time>2013-03-23T09:30:38.000Z</time>
      </trkpt>
      <trkpt lat="43.52417" lon="5.56813">
        <ele>319</ele>
        <time>2013-03-23T09:30:43.000Z</time>
      </trkpt>
      <trkpt lat="43.52422" lon="5.56818">
        <ele>319.79998779297</ele>
        <time>2013-03-23T09:30:45.000Z</time>
      </trkpt>
      <trkpt lat="43.52428" lon="5.56829">
        <ele>321</ele>
        <time>2013-03-23T09:30:52.000Z</time>
      </trkpt>
      <trkpt lat="43.52428" lon="5.56831">
        <ele>321</ele>
        <time>2013-03-23T09:30:59.000Z</time>
      </trkpt>
      <trkpt lat="43.52428" lon="5.56831">
        <ele>321</ele>
        <time>2013-03-23T09:31:07.000Z</time>
      </trkpt>
      <trkpt lat="43.52428" lon="5.56831">
        <ele>321</ele>
        <time>2013-03-23T09:31:12.000Z</time>
      </trkpt>
      <trkpt lat="43.52428" lon="5.56827">
        <ele>321.20001220703</ele>
        <time>2013-03-23T09:31:19.000Z</time>
      </trkpt>
      <trkpt lat="43.5242" lon="5.56816">
        <ele>319.60000610352</ele>
        <time>2013-03-23T09:31:28.000Z</time>
      </trkpt>
      <trkpt lat="43.52416" lon="5.56809">
        <ele>319</ele>
        <time>2013-03-23T09:31:33.000Z</time>
      </trkpt>
      <trkpt lat="43.5241" lon="5.56802">
        <ele>319</ele>
        <time>2013-03-23T09:31:39.000Z</time>
      </trkpt>
      <trkpt lat="43.52408" lon="5.568">
        <ele>319</ele>
        <time>2013-03-23T09:31:41.000Z</time>
      </trkpt>
      <trkpt lat="43.52405" lon="5.56804">
        <ele>318.60000610352</ele>
        <time>2013-03-23T09:31:47.000Z</time>
      </trkpt>
      <trkpt lat="43.52401" lon="5.56789">
        <ele>318.79998779297</ele>
        <time>2013-03-23T09:31:55.000Z</time>
      </trkpt>
      <trkpt lat="43.52401" lon="5.5679">
        <ele>318.79998779297</ele>
        <time>2013-03-23T09:31:56.000Z</time>
      </trkpt>
      <trkpt lat="43.52402" lon="5.56793">
        <ele>318.60000610352</ele>
        <time>2013-03-23T09:31:58.000Z</time>
      </trkpt>
      <trkpt lat="43.52404" lon="5.56807">
        <ele>318.39999389648</ele>
        <time>2013-03-23T09:32:04.000Z</time>
      </trkpt>
      <trkpt lat="43.52401" lon="5.56808">
        <ele>318.20001220703</ele>
        <time>2013-03-23T09:32:09.000Z</time>
      </trkpt>
      <trkpt lat="43.52399" lon="5.56795">
        <ele>318.39999389648</ele>
        <time>2013-03-23T09:32:13.000Z</time>
      </trkpt>
      <trkpt lat="43.52397" lon="5.56786">
        <ele>318.39999389648</ele>
        <time>2013-03-23T09:32:16.000Z</time>
      </trkpt>
      <trkpt lat="43.52396" lon="5.5678">
        <ele>318.60000610352</ele>
        <time>2013-03-23T09:32:23.000Z</time>
      </trkpt>
      <trkpt lat="43.52396" lon="5.56781">
        <ele>318.60000610352</ele>
        <time>2013-03-23T09:32:26.000Z</time>
      </trkpt>
      <trkpt lat="43.52391" lon="5.56788">
        <ele>318</ele>
        <time>2013-03-23T09:32:33.000Z</time>
      </trkpt>
      <trkpt lat="43.52391" lon="5.56789">
        <ele>318</ele>
        <time>2013-03-23T09:32:34.000Z</time>
      </trkpt>
      <trkpt lat="43.52391" lon="5.56789">
        <ele>318</ele>
        <time>2013-03-23T09:32:35.000Z</time>
      </trkpt>
      <trkpt lat="43.52389" lon="5.56785">
        <ele>317.79998779297</ele>
        <time>2013-03-23T09:32:40.000Z</time>
      </trkpt>
      <trkpt lat="43.52385" lon="5.56778">
        <ele>317.60000610352</ele>
        <time>2013-03-23T09:32:47.000Z</time>
      </trkpt>
      <trkpt lat="43.52384" lon="5.56777">
        <ele>317.60000610352</ele>
        <time>2013-03-23T09:32:49.000Z</time>
      </trkpt>
      <trkpt lat="43.52381" lon="5.56775">
        <ele>317.20001220703</ele>
        <time>2013-03-23T09:32:53.000Z</time>
      </trkpt>
      <trkpt lat="43.52376" lon="5.56769">
        <ele>316.79998779297</ele>
        <time>2013-03-23T09:33:01.000Z</time>
      </trkpt>
      <trkpt lat="43.52369" lon="5.56768">
        <ele>316.20001220703</ele>
        <time>2013-03-23T09:33:09.000Z</time>
      </trkpt>
      <trkpt lat="43.52365" lon="5.56773">
        <ele>315.79998779297</ele>
        <time>2013-03-23T09:33:12.000Z</time>
      </trkpt>
      <trkpt lat="43.52361" lon="5.56776">
        <ele>315.39999389648</ele>
        <time>2013-03-23T09:33:14.000Z</time>
      </trkpt>
      <trkpt lat="43.52349" lon="5.5678">
        <ele>314.39999389648</ele>
        <time>2013-03-23T09:33:19.000Z</time>
      </trkpt>
      <trkpt lat="43.52339" lon="5.56786">
        <ele>313.60000610352</ele>
        <time>2013-03-23T09:33:27.000Z</time>
      </trkpt>
      <trkpt lat="43.52338" lon="5.56784">
        <ele>313.39999389648</ele>
        <time>2013-03-23T09:33:29.000Z</time>
      </trkpt>
      <trkpt lat="43.52333" lon="5.56793">
        <ele>313.39999389648</ele>
        <time>2013-03-23T09:33:38.000Z</time>
      </trkpt>
      <trkpt lat="43.52334" lon="5.56803">
        <ele>313.79998779297</ele>
        <time>2013-03-23T09:33:47.000Z</time>
      </trkpt>
      <trkpt lat="43.52339" lon="5.56817">
        <ele>314.60000610352</ele>
        <time>2013-03-23T09:33:59.000Z</time>
      </trkpt>
      <trkpt lat="43.52341" lon="5.5683">
        <ele>315.20001220703</ele>
        <time>2013-03-23T09:34:10.000Z</time>
      </trkpt>
      <trkpt lat="43.52339" lon="5.56838">
        <ele>315.20001220703</ele>
        <time>2013-03-23T09:34:24.000Z</time>
      </trkpt>
      <trkpt lat="43.52338" lon="5.5684">
        <ele>315.20001220703</ele>
        <time>2013-03-23T09:34:43.000Z</time>
      </trkpt>
      <trkpt lat="43.52338" lon="5.56843">
        <ele>315.39999389648</ele>
        <time>2013-03-23T09:35:04.000Z</time>
      </trkpt>
      <trkpt lat="43.5234" lon="5.56843">
        <ele>315.39999389648</ele>
        <time>2013-03-23T09:35:07.000Z</time>
      </trkpt>
      <trkpt lat="43.52349" lon="5.56851">
        <ele>316</ele>
        <time>2013-03-23T09:35:14.000Z</time>
      </trkpt>
      <trkpt lat="43.52351" lon="5.56857">
        <ele>316.20001220703</ele>
        <time>2013-03-23T09:35:16.000Z</time>
      </trkpt>
      <trkpt lat="43.52352" lon="5.5686">
        <ele>316.39999389648</ele>
        <time>2013-03-23T09:35:17.000Z</time>
      </trkpt>
      <trkpt lat="43.52353" lon="5.56863">
        <ele>316.60000610352</ele>
        <time>2013-03-23T09:35:18.000Z</time>
      </trkpt>
      <trkpt lat="43.52355" lon="5.56868">
        <ele>316.60000610352</ele>
        <time>2013-03-23T09:35:19.000Z</time>
      </trkpt>
      <trkpt lat="43.52355" lon="5.56871">
        <ele>316.79998779297</ele>
        <time>2013-03-23T09:35:20.000Z</time>
      </trkpt>
      <trkpt lat="43.52356" lon="5.56875">
        <ele>317</ele>
        <time>2013-03-23T09:35:21.000Z</time>
      </trkpt>
      <trkpt lat="43.52356" lon="5.56878">
        <ele>317</ele>
        <time>2013-03-23T09:35:22.000Z</time>
      </trkpt>
      <trkpt lat="43.52356" lon="5.56881">
        <ele>317.20001220703</ele>
        <time>2013-03-23T09:35:23.000Z</time>
      </trkpt>
      <trkpt lat="43.52356" lon="5.56914">
        <ele>318.20001220703</ele>
        <time>2013-03-23T09:35:33.000Z</time>
      </trkpt>
      <trkpt lat="43.52356" lon="5.56936">
        <ele>318.60000610352</ele>
        <time>2013-03-23T09:35:39.000Z</time>
      </trkpt>
      <trkpt lat="43.52355" lon="5.56987">
        <ele>319.20001220703</ele>
        <time>2013-03-23T09:35:52.000Z</time>
      </trkpt>
      <trkpt lat="43.5236" lon="5.57035">
        <ele>322.20001220703</ele>
        <time>2013-03-23T09:36:04.000Z</time>
      </trkpt>
      <trkpt lat="43.52361" lon="5.57038">
        <ele>322.39999389648</ele>
        <time>2013-03-23T09:36:05.000Z</time>
      </trkpt>
      <trkpt lat="43.5237" lon="5.57071">
        <ele>324.39999389648</ele>
        <time>2013-03-23T09:36:14.000Z</time>
      </trkpt>
      <trkpt lat="43.52367" lon="5.57081">
        <ele>325.39999389648</ele>
        <time>2013-03-23T09:36:17.000Z</time>
      </trkpt>
      <trkpt lat="43.52365" lon="5.57083">
        <ele>325.60000610352</ele>
        <time>2013-03-23T09:36:18.000Z</time>
      </trkpt>
      <trkpt lat="43.52362" lon="5.57082">
        <ele>325.79998779297</ele>
        <time>2013-03-23T09:36:19.000Z</time>
      </trkpt>
      <trkpt lat="43.5236" lon="5.5708">
        <ele>325.79998779297</ele>
        <time>2013-03-23T09:36:20.000Z</time>
      </trkpt>
      <trkpt lat="43.52358" lon="5.57077">
        <ele>325.60000610352</ele>
        <time>2013-03-23T09:36:21.000Z</time>
      </trkpt>
      <trkpt lat="43.52356" lon="5.57074">
        <ele>325.39999389648</ele>
        <time>2013-03-23T09:36:22.000Z</time>
      </trkpt>
      <trkpt lat="43.52355" lon="5.57071">
        <ele>325.39999389648</ele>
        <time>2013-03-23T09:36:23.000Z</time>
      </trkpt>
      <trkpt lat="43.52353" lon="5.57068">
        <ele>325.20001220703</ele>
        <time>2013-03-23T09:36:24.000Z</time>
      </trkpt>
      <trkpt lat="43.52333" lon="5.57063">
        <ele>325.60000610352</ele>
        <time>2013-03-23T09:36:32.000Z</time>
      </trkpt>
      <trkpt lat="43.52304" lon="5.57084">
        <ele>329.20001220703</ele>
        <time>2013-03-23T09:36:44.000Z</time>
      </trkpt>
      <trkpt lat="43.52277" lon="5.57107">
        <ele>334.20001220703</ele>
        <time>2013-03-23T09:36:57.000Z</time>
      </trkpt>
      <trkpt lat="43.52256" lon="5.57125">
        <ele>338.20001220703</ele>
        <time>2013-03-23T09:37:07.000Z</time>
      </trkpt>
      <trkpt lat="43.52237" lon="5.57143">
        <ele>341.39999389648</ele>
        <time>2013-03-23T09:37:17.000Z</time>
      </trkpt>
      <trkpt lat="43.52218" lon="5.57159">
        <ele>343.20001220703</ele>
        <time>2013-03-23T09:37:26.000Z</time>
      </trkpt>
      <trkpt lat="43.52216" lon="5.5716">
        <ele>343.39999389648</ele>
        <time>2013-03-23T09:37:27.000Z</time>
      </trkpt>
      <trkpt lat="43.52182" lon="5.57176">
        <ele>345.60000610352</ele>
        <time>2013-03-23T09:37:41.000Z</time>
      </trkpt>
      <trkpt lat="43.52158" lon="5.57191">
        <ele>349.79998779297</ele>
        <time>2013-03-23T09:37:52.000Z</time>
      </trkpt>
      <trkpt lat="43.52139" lon="5.57212">
        <ele>355.60000610352</ele>
        <time>2013-03-23T09:38:02.000Z</time>
      </trkpt>
      <trkpt lat="43.52118" lon="5.57239">
        <ele>359.79998779297</ele>
        <time>2013-03-23T09:38:14.000Z</time>
      </trkpt>
      <trkpt lat="43.52098" lon="5.57257">
        <ele>360.60000610352</ele>
        <time>2013-03-23T09:38:25.000Z</time>
      </trkpt>
      <trkpt lat="43.52072" lon="5.57256">
        <ele>359.20001220703</ele>
        <time>2013-03-23T09:38:36.000Z</time>
      </trkpt>
      <trkpt lat="43.52062" lon="5.5727">
        <ele>362.60000610352</ele>
        <time>2013-03-23T09:38:43.000Z</time>
      </trkpt>
      <trkpt lat="43.52062" lon="5.57273">
        <ele>363</ele>
        <time>2013-03-23T09:38:44.000Z</time>
      </trkpt>
      <trkpt lat="43.52062" lon="5.57276">
        <ele>363.60000610352</ele>
        <time>2013-03-23T09:38:45.000Z</time>
      </trkpt>
      <trkpt lat="43.52063" lon="5.57308">
        <ele>369.20001220703</ele>
        <time>2013-03-23T09:38:55.000Z</time>
      </trkpt>
      <trkpt lat="43.52059" lon="5.5732">
        <ele>371.20001220703</ele>
        <time>2013-03-23T09:38:59.000Z</time>
      </trkpt>
      <trkpt lat="43.52053" lon="5.57326">
        <ele>372</ele>
        <time>2013-03-23T09:39:02.000Z</time>
      </trkpt>
      <trkpt lat="43.5202" lon="5.57351">
        <ele>373.39999389648</ele>
        <time>2013-03-23T09:39:17.000Z</time>
      </trkpt>
      <trkpt lat="43.52027" lon="5.57371">
        <ele>376.60000610352</ele>
        <time>2013-03-23T09:39:25.000Z</time>
      </trkpt>
      <trkpt lat="43.52048" lon="5.57361">
        <ele>377.20001220703</ele>
        <time>2013-03-23T09:39:34.000Z</time>
      </trkpt>
      <trkpt lat="43.52075" lon="5.57338">
        <ele>375.20001220703</ele>
        <time>2013-03-23T09:39:46.000Z</time>
      </trkpt>
      <trkpt lat="43.52103" lon="5.57321">
        <ele>376.39999389648</ele>
        <time>2013-03-23T09:39:57.000Z</time>
      </trkpt>
      <trkpt lat="43.52106" lon="5.57323">
        <ele>377.39999389648</ele>
        <time>2013-03-23T09:39:58.000Z</time>
      </trkpt>
      <trkpt lat="43.52108" lon="5.57326">
        <ele>378.39999389648</ele>
        <time>2013-03-23T09:39:59.000Z</time>
      </trkpt>
      <trkpt lat="43.52108" lon="5.57329">
        <ele>379</ele>
        <time>2013-03-23T09:40:00.000Z</time>
      </trkpt>
      <trkpt lat="43.52106" lon="5.57331">
        <ele>379.39999389648</ele>
        <time>2013-03-23T09:40:01.000Z</time>
      </trkpt>
      <trkpt lat="43.52104" lon="5.57333">
        <ele>379.39999389648</ele>
        <time>2013-03-23T09:40:02.000Z</time>
      </trkpt>
      <trkpt lat="43.52102" lon="5.57336">
        <ele>379.20001220703</ele>
        <time>2013-03-23T09:40:03.000Z</time>
      </trkpt>
      <trkpt lat="43.52099" lon="5.57337">
        <ele>379</ele>
        <time>2013-03-23T09:40:04.000Z</time>
      </trkpt>
      <trkpt lat="43.52096" lon="5.57339">
        <ele>378.79998779297</ele>
        <time>2013-03-23T09:40:05.000Z</time>
      </trkpt>
      <trkpt lat="43.52094" lon="5.57341">
        <ele>378.60000610352</ele>
        <time>2013-03-23T09:40:06.000Z</time>
      </trkpt>
      <trkpt lat="43.52091" lon="5.57343">
        <ele>378.60000610352</ele>
        <time>2013-03-23T09:40:07.000Z</time>
      </trkpt>
      <trkpt lat="43.52089" lon="5.57346">
        <ele>378.39999389648</ele>
        <time>2013-03-23T09:40:08.000Z</time>
      </trkpt>
      <trkpt lat="43.52071" lon="5.57373">
        <ele>381.20001220703</ele>
        <time>2013-03-23T09:40:16.000Z</time>
      </trkpt>
      <trkpt lat="43.5205" lon="5.57401">
        <ele>383.60000610352</ele>
        <time>2013-03-23T09:40:24.000Z</time>
      </trkpt>
      <trkpt lat="43.52021" lon="5.57419">
        <ele>382.39999389648</ele>
        <time>2013-03-23T09:40:34.000Z</time>
      </trkpt>
      <trkpt lat="43.52002" lon="5.57432">
        <ele>382</ele>
        <time>2013-03-23T09:40:42.000Z</time>
      </trkpt>
      <trkpt lat="43.51982" lon="5.57454">
        <ele>387.20001220703</ele>
        <time>2013-03-23T09:40:52.000Z</time>
      </trkpt>
      <trkpt lat="43.5198" lon="5.57458">
        <ele>388</ele>
        <time>2013-03-23T09:40:54.000Z</time>
      </trkpt>
      <trkpt lat="43.51979" lon="5.57461">
        <ele>388.39999389648</ele>
        <time>2013-03-23T09:40:55.000Z</time>
      </trkpt>
      <trkpt lat="43.51978" lon="5.57464">
        <ele>389</ele>
        <time>2013-03-23T09:40:56.000Z</time>
      </trkpt>
      <trkpt lat="43.51971" lon="5.57506">
        <ele>393.79998779297</ele>
        <time>2013-03-23T09:41:08.000Z</time>
      </trkpt>
      <trkpt lat="43.51968" lon="5.57554">
        <ele>395.79998779297</ele>
        <time>2013-03-23T09:41:21.000Z</time>
      </trkpt>
      <trkpt lat="43.5197" lon="5.57605">
        <ele>397.60000610352</ele>
        <time>2013-03-23T09:41:34.000Z</time>
      </trkpt>
      <trkpt lat="43.51992" lon="5.57654">
        <ele>398.60000610352</ele>
        <time>2013-03-23T09:41:47.000Z</time>
      </trkpt>
      <trkpt lat="43.52012" lon="5.57687">
        <ele>399.79998779297</ele>
        <time>2013-03-23T09:41:57.000Z</time>
      </trkpt>
      <trkpt lat="43.52028" lon="5.57726">
        <ele>401.39999389648</ele>
        <time>2013-03-23T09:42:07.000Z</time>
      </trkpt>
      <trkpt lat="43.52029" lon="5.5773">
        <ele>401.60000610352</ele>
        <time>2013-03-23T09:42:08.000Z</time>
      </trkpt>
      <trkpt lat="43.52025" lon="5.57785">
        <ele>404.79998779297</ele>
        <time>2013-03-23T09:42:20.000Z</time>
      </trkpt>
      <trkpt lat="43.52016" lon="5.57819">
        <ele>407</ele>
        <time>2013-03-23T09:42:28.000Z</time>
      </trkpt>
      <trkpt lat="43.52014" lon="5.57827">
        <ele>407.60000610352</ele>
        <time>2013-03-23T09:42:30.000Z</time>
      </trkpt>
      <trkpt lat="43.52012" lon="5.57835">
        <ele>408</ele>
        <time>2013-03-23T09:42:33.000Z</time>
      </trkpt>
      <trkpt lat="43.52004" lon="5.57869">
        <ele>408.60000610352</ele>
        <time>2013-03-23T09:42:43.000Z</time>
      </trkpt>
      <trkpt lat="43.52" lon="5.57913">
        <ele>409.79998779297</ele>
        <time>2013-03-23T09:42:55.000Z</time>
      </trkpt>
      <trkpt lat="43.52002" lon="5.57954">
        <ele>410.20001220703</ele>
        <time>2013-03-23T09:43:06.000Z</time>
      </trkpt>
      <trkpt lat="43.52003" lon="5.58003">
        <ele>410.60000610352</ele>
        <time>2013-03-23T09:43:18.000Z</time>
      </trkpt>
      <trkpt lat="43.52006" lon="5.58042">
        <ele>413.20001220703</ele>
        <time>2013-03-23T09:43:28.000Z</time>
      </trkpt>
      <trkpt lat="43.52007" lon="5.58071">
        <ele>415.20001220703</ele>
        <time>2013-03-23T09:43:35.000Z</time>
      </trkpt>
      <trkpt lat="43.5201" lon="5.58131">
        <ele>419.60000610352</ele>
        <time>2013-03-23T09:43:49.000Z</time>
      </trkpt>
      <trkpt lat="43.52011" lon="5.58143">
        <ele>420.60000610352</ele>
        <time>2013-03-23T09:43:52.000Z</time>
      </trkpt>
      <trkpt lat="43.52011" lon="5.58196">
        <ele>425</ele>
        <time>2013-03-23T09:44:04.000Z</time>
      </trkpt>
      <trkpt lat="43.51999" lon="5.58235">
        <ele>426.39999389648</ele>
        <time>2013-03-23T09:44:14.000Z</time>
      </trkpt>
      <trkpt lat="43.51977" lon="5.58269">
        <ele>428.79998779297</ele>
        <time>2013-03-23T09:44:25.000Z</time>
      </trkpt>
      <trkpt lat="43.51956" lon="5.58306">
        <ele>429.39999389648</ele>
        <time>2013-03-23T09:44:37.000Z</time>
      </trkpt>
      <trkpt lat="43.51952" lon="5.58331">
        <ele>430</ele>
        <time>2013-03-23T09:44:44.000Z</time>
      </trkpt>
      <trkpt lat="43.51954" lon="5.58369">
        <ele>432.39999389648</ele>
        <time>2013-03-23T09:44:54.000Z</time>
      </trkpt>
      <trkpt lat="43.51953" lon="5.58389">
        <ele>433.39999389648</ele>
        <time>2013-03-23T09:45:02.000Z</time>
      </trkpt>
      <trkpt lat="43.51953" lon="5.58399">
        <ele>434</ele>
        <time>2013-03-23T09:45:06.000Z</time>
      </trkpt>
      <trkpt lat="43.51953" lon="5.58401">
        <ele>434.20001220703</ele>
        <time>2013-03-23T09:45:07.000Z</time>
      </trkpt>
      <trkpt lat="43.51953" lon="5.58403">
        <ele>434.20001220703</ele>
        <time>2013-03-23T09:45:08.000Z</time>
      </trkpt>
      <trkpt lat="43.51953" lon="5.58405">
        <ele>434.39999389648</ele>
        <time>2013-03-23T09:45:09.000Z</time>
      </trkpt>
      <trkpt lat="43.51953" lon="5.58408">
        <ele>434.60000610352</ele>
        <time>2013-03-23T09:45:10.000Z</time>
      </trkpt>
      <trkpt lat="43.51953" lon="5.5841">
        <ele>434.79998779297</ele>
        <time>2013-03-23T09:45:11.000Z</time>
      </trkpt>
      <trkpt lat="43.51954" lon="5.58413">
        <ele>435</ele>
        <time>2013-03-23T09:45:18.000Z</time>
      </trkpt>
      <trkpt lat="43.51955" lon="5.58413">
        <ele>435.20001220703</ele>
        <time>2013-03-23T09:45:33.000Z</time>
      </trkpt>
      <trkpt lat="43.51955" lon="5.58411">
        <ele>435.20001220703</ele>
        <time>2013-03-23T09:45:56.000Z</time>
      </trkpt>
      <trkpt lat="43.51955" lon="5.58415">
        <ele>435.39999389648</ele>
        <time>2013-03-23T09:46:11.000Z</time>
      </trkpt>
      <trkpt lat="43.51954" lon="5.58413">
        <ele>435.20001220703</ele>
        <time>2013-03-23T09:46:26.000Z</time>
      </trkpt>
      <trkpt lat="43.51955" lon="5.58413">
        <ele>435.20001220703</ele>
        <time>2013-03-23T09:46:27.000Z</time>
      </trkpt>
      <trkpt lat="43.51954" lon="5.58415">
        <ele>435.20001220703</ele>
        <time>2013-03-23T09:46:47.000Z</time>
      </trkpt>
      <trkpt lat="43.51956" lon="5.58414">
        <ele>435.39999389648</ele>
        <time>2013-03-23T09:47:02.000Z</time>
      </trkpt>
      <trkpt lat="43.51958" lon="5.58413">
        <ele>435.60000610352</ele>
        <time>2013-03-23T09:47:11.000Z</time>
      </trkpt>
      <trkpt lat="43.51958" lon="5.58416">
        <ele>435.79998779297</ele>
        <time>2013-03-23T09:47:21.000Z</time>
      </trkpt>
      <trkpt lat="43.51958" lon="5.58418">
        <ele>436</ele>
        <time>2013-03-23T09:47:22.000Z</time>
      </trkpt>
      <trkpt lat="43.51958" lon="5.58421">
        <ele>436</ele>
        <time>2013-03-23T09:47:23.000Z</time>
      </trkpt>
      <trkpt lat="43.51959" lon="5.58423">
        <ele>436.20001220703</ele>
        <time>2013-03-23T09:47:24.000Z</time>
      </trkpt>
      <trkpt lat="43.51958" lon="5.58427">
        <ele>436.20001220703</ele>
        <time>2013-03-23T09:47:25.000Z</time>
      </trkpt>
      <trkpt lat="43.51958" lon="5.58431">
        <ele>436.20001220703</ele>
        <time>2013-03-23T09:47:26.000Z</time>
      </trkpt>
      <trkpt lat="43.5196" lon="5.58452">
        <ele>437.20001220703</ele>
        <time>2013-03-23T09:47:31.000Z</time>
      </trkpt>
      <trkpt lat="43.5196" lon="5.58456">
        <ele>437.39999389648</ele>
        <time>2013-03-23T09:47:32.000Z</time>
      </trkpt>
      <trkpt lat="43.51964" lon="5.585">
        <ele>439.39999389648</ele>
        <time>2013-03-23T09:47:44.000Z</time>
      </trkpt>
      <trkpt lat="43.51963" lon="5.58502">
        <ele>439.20001220703</ele>
        <time>2013-03-23T09:47:45.000Z</time>
      </trkpt>
      <trkpt lat="43.51962" lon="5.58503">
        <ele>438.79998779297</ele>
        <time>2013-03-23T09:47:46.000Z</time>
      </trkpt>
      <trkpt lat="43.5196" lon="5.58504">
        <ele>438.60000610352</ele>
        <time>2013-03-23T09:47:47.000Z</time>
      </trkpt>
      <trkpt lat="43.51959" lon="5.58505">
        <ele>438.20001220703</ele>
        <time>2013-03-23T09:47:48.000Z</time>
      </trkpt>
      <trkpt lat="43.51957" lon="5.58507">
        <ele>437.79998779297</ele>
        <time>2013-03-23T09:47:49.000Z</time>
      </trkpt>
      <trkpt lat="43.51954" lon="5.58508">
        <ele>437.39999389648</ele>
        <time>2013-03-23T09:47:50.000Z</time>
      </trkpt>
      <trkpt lat="43.51951" lon="5.58507">
        <ele>436.79998779297</ele>
        <time>2013-03-23T09:47:51.000Z</time>
      </trkpt>
      <trkpt lat="43.51947" lon="5.58507">
        <ele>436</ele>
        <time>2013-03-23T09:47:52.000Z</time>
      </trkpt>
      <trkpt lat="43.51943" lon="5.58508">
        <ele>435.20001220703</ele>
        <time>2013-03-23T09:47:53.000Z</time>
      </trkpt>
      <trkpt lat="43.51939" lon="5.5851">
        <ele>434.60000610352</ele>
        <time>2013-03-23T09:47:54.000Z</time>
      </trkpt>
      <trkpt lat="43.51936" lon="5.58512">
        <ele>434</ele>
        <time>2013-03-23T09:47:55.000Z</time>
      </trkpt>
      <trkpt lat="43.51931" lon="5.58516">
        <ele>433</ele>
        <time>2013-03-23T09:47:57.000Z</time>
      </trkpt>
      <trkpt lat="43.5193" lon="5.5852">
        <ele>432.60000610352</ele>
        <time>2013-03-23T09:47:58.000Z</time>
      </trkpt>
      <trkpt lat="43.5193" lon="5.58525">
        <ele>432.39999389648</ele>
        <time>2013-03-23T09:47:59.000Z</time>
      </trkpt>
      <trkpt lat="43.51931" lon="5.5853">
        <ele>432.20001220703</ele>
        <time>2013-03-23T09:48:00.000Z</time>
      </trkpt>
      <trkpt lat="43.51931" lon="5.58534">
        <ele>432.20001220703</ele>
        <time>2013-03-23T09:48:01.000Z</time>
      </trkpt>
      <trkpt lat="43.51932" lon="5.58538">
        <ele>432.20001220703</ele>
        <time>2013-03-23T09:48:02.000Z</time>
      </trkpt>
      <trkpt lat="43.51932" lon="5.58541">
        <ele>432</ele>
        <time>2013-03-23T09:48:03.000Z</time>
      </trkpt>
      <trkpt lat="43.51932" lon="5.58545">
        <ele>432</ele>
        <time>2013-03-23T09:48:04.000Z</time>
      </trkpt>
      <trkpt lat="43.51933" lon="5.58552">
        <ele>432</ele>
        <time>2013-03-23T09:48:06.000Z</time>
      </trkpt>
      <trkpt lat="43.51935" lon="5.58554">
        <ele>432</ele>
        <time>2013-03-23T09:48:07.000Z</time>
      </trkpt>
      <trkpt lat="43.51936" lon="5.58557">
        <ele>432.20001220703</ele>
        <time>2013-03-23T09:48:08.000Z</time>
      </trkpt>
      <trkpt lat="43.51942" lon="5.5859">
        <ele>432</ele>
        <time>2013-03-23T09:48:16.000Z</time>
      </trkpt>
      <trkpt lat="43.51946" lon="5.586">
        <ele>432.60000610352</ele>
        <time>2013-03-23T09:48:18.000Z</time>
      </trkpt>
      <trkpt lat="43.51966" lon="5.58631">
        <ele>434.79998779297</ele>
        <time>2013-03-23T09:48:28.000Z</time>
      </trkpt>
      <trkpt lat="43.5197" lon="5.58672">
        <ele>434</ele>
        <time>2013-03-23T09:48:36.000Z</time>
      </trkpt>
      <trkpt lat="43.51978" lon="5.58716">
        <ele>433.79998779297</ele>
        <time>2013-03-23T09:48:46.000Z</time>
      </trkpt>
      <trkpt lat="43.51988" lon="5.58751">
        <ele>433.39999389648</ele>
        <time>2013-03-23T09:48:55.000Z</time>
      </trkpt>
      <trkpt lat="43.52003" lon="5.58793">
        <ele>434.79998779297</ele>
        <time>2013-03-23T09:49:07.000Z</time>
      </trkpt>
      <trkpt lat="43.5202" lon="5.58827">
        <ele>436.79998779297</ele>
        <time>2013-03-23T09:49:18.000Z</time>
      </trkpt>
      <trkpt lat="43.52033" lon="5.5885">
        <ele>438.20001220703</ele>
        <time>2013-03-23T09:49:27.000Z</time>
      </trkpt>
      <trkpt lat="43.52054" lon="5.5887">
        <ele>440</ele>
        <time>2013-03-23T09:49:38.000Z</time>
      </trkpt>
      <trkpt lat="43.52056" lon="5.58873">
        <ele>440.20001220703</ele>
        <time>2013-03-23T09:49:40.000Z</time>
      </trkpt>
      <trkpt lat="43.52058" lon="5.58879">
        <ele>440.39999389648</ele>
        <time>2013-03-23T09:49:42.000Z</time>
      </trkpt>
      <trkpt lat="43.52059" lon="5.58881">
        <ele>440.39999389648</ele>
        <time>2013-03-23T09:49:43.000Z</time>
      </trkpt>
      <trkpt lat="43.5206" lon="5.58882">
        <ele>440.60000610352</ele>
        <time>2013-03-23T09:49:44.000Z</time>
      </trkpt>
      <trkpt lat="43.52062" lon="5.58883">
        <ele>440.79998779297</ele>
        <time>2013-03-23T09:49:45.000Z</time>
      </trkpt>
      <trkpt lat="43.52064" lon="5.58884">
        <ele>440.79998779297</ele>
        <time>2013-03-23T09:49:46.000Z</time>
      </trkpt>
      <trkpt lat="43.52077" lon="5.58888">
        <ele>441.79998779297</ele>
        <time>2013-03-23T09:49:52.000Z</time>
      </trkpt>
      <trkpt lat="43.52078" lon="5.5889">
        <ele>441.79998779297</ele>
        <time>2013-03-23T09:49:53.000Z</time>
      </trkpt>
      <trkpt lat="43.5208" lon="5.58892">
        <ele>442</ele>
        <time>2013-03-23T09:49:54.000Z</time>
      </trkpt>
      <trkpt lat="43.52081" lon="5.58895">
        <ele>442</ele>
        <time>2013-03-23T09:49:55.000Z</time>
      </trkpt>
      <trkpt lat="43.52082" lon="5.58897">
        <ele>442</ele>
        <time>2013-03-23T09:49:56.000Z</time>
      </trkpt>
      <trkpt lat="43.52083" lon="5.58898">
        <ele>442</ele>
        <time>2013-03-23T09:49:57.000Z</time>
      </trkpt>
      <trkpt lat="43.52083" lon="5.589">
        <ele>442</ele>
        <time>2013-03-23T09:49:58.000Z</time>
      </trkpt>
      <trkpt lat="43.52084" lon="5.58902">
        <ele>442.20001220703</ele>
        <time>2013-03-23T09:49:59.000Z</time>
      </trkpt>
      <trkpt lat="43.52086" lon="5.58903">
        <ele>442.20001220703</ele>
        <time>2013-03-23T09:50:05.000Z</time>
      </trkpt>
      <trkpt lat="43.52087" lon="5.58904">
        <ele>442.20001220703</ele>
        <time>2013-03-23T09:50:06.000Z</time>
      </trkpt>
      <trkpt lat="43.52089" lon="5.58905">
        <ele>442.39999389648</ele>
        <time>2013-03-23T09:50:07.000Z</time>
      </trkpt>
      <trkpt lat="43.5209" lon="5.58905">
        <ele>442.39999389648</ele>
        <time>2013-03-23T09:50:08.000Z</time>
      </trkpt>
      <trkpt lat="43.52091" lon="5.58905">
        <ele>442.39999389648</ele>
        <time>2013-03-23T09:50:09.000Z</time>
      </trkpt>
      <trkpt lat="43.52092" lon="5.58904">
        <ele>442.60000610352</ele>
        <time>2013-03-23T09:50:10.000Z</time>
      </trkpt>
      <trkpt lat="43.52093" lon="5.58904">
        <ele>442.60000610352</ele>
        <time>2013-03-23T09:50:11.000Z</time>
      </trkpt>
      <trkpt lat="43.52094" lon="5.58903">
        <ele>442.79998779297</ele>
        <time>2013-03-23T09:50:12.000Z</time>
      </trkpt>
      <trkpt lat="43.52095" lon="5.58904">
        <ele>442.79998779297</ele>
        <time>2013-03-23T09:50:13.000Z</time>
      </trkpt>
      <trkpt lat="43.52097" lon="5.58906">
        <ele>442.79998779297</ele>
        <time>2013-03-23T09:50:14.000Z</time>
      </trkpt>
      <trkpt lat="43.52098" lon="5.58908">
        <ele>442.79998779297</ele>
        <time>2013-03-23T09:50:15.000Z</time>
      </trkpt>
      <trkpt lat="43.52115" lon="5.58941">
        <ele>443.60000610352</ele>
        <time>2013-03-23T09:50:24.000Z</time>
      </trkpt>
      <trkpt lat="43.52141" lon="5.58979">
        <ele>444.60000610352</ele>
        <time>2013-03-23T09:50:35.000Z</time>
      </trkpt>
      <trkpt lat="43.52141" lon="5.58996">
        <ele>444.60000610352</ele>
        <time>2013-03-23T09:50:39.000Z</time>
      </trkpt>
      <trkpt lat="43.52139" lon="5.58998">
        <ele>444.60000610352</ele>
        <time>2013-03-23T09:50:40.000Z</time>
      </trkpt>
      <trkpt lat="43.52136" lon="5.59">
        <ele>444.60000610352</ele>
        <time>2013-03-23T09:50:41.000Z</time>
      </trkpt>
      <trkpt lat="43.52126" lon="5.5901">
        <ele>444.79998779297</ele>
        <time>2013-03-23T09:50:45.000Z</time>
      </trkpt>
      <trkpt lat="43.52121" lon="5.59024">
        <ele>445</ele>
        <time>2013-03-23T09:50:51.000Z</time>
      </trkpt>
      <trkpt lat="43.52119" lon="5.59024">
        <ele>445</ele>
        <time>2013-03-23T09:50:52.000Z</time>
      </trkpt>
      <trkpt lat="43.52111" lon="5.59025">
        <ele>444.60000610352</ele>
        <time>2013-03-23T09:50:55.000Z</time>
      </trkpt>
      <trkpt lat="43.52108" lon="5.59027">
        <ele>444.60000610352</ele>
        <time>2013-03-23T09:50:56.000Z</time>
      </trkpt>
      <trkpt lat="43.52105" lon="5.59029">
        <ele>444.39999389648</ele>
        <time>2013-03-23T09:50:57.000Z</time>
      </trkpt>
      <trkpt lat="43.52103" lon="5.59031">
        <ele>444.39999389648</ele>
        <time>2013-03-23T09:50:58.000Z</time>
      </trkpt>
      <trkpt lat="43.52101" lon="5.59034">
        <ele>444.39999389648</ele>
        <time>2013-03-23T09:50:59.000Z</time>
      </trkpt>
      <trkpt lat="43.521" lon="5.59038">
        <ele>444.20001220703</ele>
        <time>2013-03-23T09:51:00.000Z</time>
      </trkpt>
      <trkpt lat="43.52099" lon="5.59042">
        <ele>444.20001220703</ele>
        <time>2013-03-23T09:51:01.000Z</time>
      </trkpt>
      <trkpt lat="43.52098" lon="5.59046">
        <ele>444.20001220703</ele>
        <time>2013-03-23T09:51:02.000Z</time>
      </trkpt>
      <trkpt lat="43.52097" lon="5.5905">
        <ele>444.20001220703</ele>
        <time>2013-03-23T09:51:03.000Z</time>
      </trkpt>
      <trkpt lat="43.52079" lon="5.59117">
        <ele>442.39999389648</ele>
        <time>2013-03-23T09:51:16.000Z</time>
      </trkpt>
      <trkpt lat="43.5206" lon="5.59155">
        <ele>442.79998779297</ele>
        <time>2013-03-23T09:51:26.000Z</time>
      </trkpt>
      <trkpt lat="43.52031" lon="5.59203">
        <ele>445.39999389648</ele>
        <time>2013-03-23T09:51:42.000Z</time>
      </trkpt>
      <trkpt lat="43.52018" lon="5.59228">
        <ele>446.20001220703</ele>
        <time>2013-03-23T09:51:52.000Z</time>
      </trkpt>
      <trkpt lat="43.52018" lon="5.59229">
        <ele>446.20001220703</ele>
        <time>2013-03-23T09:51:53.000Z</time>
      </trkpt>
      <trkpt lat="43.52017" lon="5.59231">
        <ele>446.39999389648</ele>
        <time>2013-03-23T09:51:54.000Z</time>
      </trkpt>
      <trkpt lat="43.52017" lon="5.59233">
        <ele>446.39999389648</ele>
        <time>2013-03-23T09:51:55.000Z</time>
      </trkpt>
      <trkpt lat="43.52016" lon="5.59235">
        <ele>446.39999389648</ele>
        <time>2013-03-23T09:51:56.000Z</time>
      </trkpt>
      <trkpt lat="43.52015" lon="5.59237">
        <ele>446.39999389648</ele>
        <time>2013-03-23T09:51:57.000Z</time>
      </trkpt>
      <trkpt lat="43.52015" lon="5.59239">
        <ele>446.60000610352</ele>
        <time>2013-03-23T09:51:58.000Z</time>
      </trkpt>
      <trkpt lat="43.52014" lon="5.59241">
        <ele>446.60000610352</ele>
        <time>2013-03-23T09:51:59.000Z</time>
      </trkpt>
      <trkpt lat="43.52013" lon="5.59243">
        <ele>446.60000610352</ele>
        <time>2013-03-23T09:52:00.000Z</time>
      </trkpt>
      <trkpt lat="43.52011" lon="5.59246">
        <ele>446.60000610352</ele>
        <time>2013-03-23T09:52:01.000Z</time>
      </trkpt>
      <trkpt lat="43.5201" lon="5.59249">
        <ele>446.79998779297</ele>
        <time>2013-03-23T09:52:02.000Z</time>
      </trkpt>
      <trkpt lat="43.52008" lon="5.59252">
        <ele>447</ele>
        <time>2013-03-23T09:52:03.000Z</time>
      </trkpt>
      <trkpt lat="43.52007" lon="5.59256">
        <ele>447.20001220703</ele>
        <time>2013-03-23T09:52:04.000Z</time>
      </trkpt>
      <trkpt lat="43.51992" lon="5.59304">
        <ele>449.79998779297</ele>
        <time>2013-03-23T09:52:17.000Z</time>
      </trkpt>
      <trkpt lat="43.51976" lon="5.59357">
        <ele>452.20001220703</ele>
        <time>2013-03-23T09:52:31.000Z</time>
      </trkpt>
      <trkpt lat="43.51968" lon="5.59384">
        <ele>453.60000610352</ele>
        <time>2013-03-23T09:52:38.000Z</time>
      </trkpt>
      <trkpt lat="43.51958" lon="5.59425">
        <ele>456.20001220703</ele>
        <time>2013-03-23T09:52:50.000Z</time>
      </trkpt>
      <trkpt lat="43.51957" lon="5.59429">
        <ele>456.39999389648</ele>
        <time>2013-03-23T09:52:51.000Z</time>
      </trkpt>
      <trkpt lat="43.51949" lon="5.59467">
        <ele>458</ele>
        <time>2013-03-23T09:53:02.000Z</time>
      </trkpt>
      <trkpt lat="43.5194" lon="5.59518">
        <ele>460.79998779297</ele>
        <time>2013-03-23T09:53:16.000Z</time>
      </trkpt>
      <trkpt lat="43.51936" lon="5.59535">
        <ele>461.79998779297</ele>
        <time>2013-03-23T09:53:21.000Z</time>
      </trkpt>
      <trkpt lat="43.51925" lon="5.59595">
        <ele>464.79998779297</ele>
        <time>2013-03-23T09:53:37.000Z</time>
      </trkpt>
      <trkpt lat="43.5192" lon="5.59617">
        <ele>465.60000610352</ele>
        <time>2013-03-23T09:53:43.000Z</time>
      </trkpt>
      <trkpt lat="43.51919" lon="5.5965">
        <ele>467.20001220703</ele>
        <time>2013-03-23T09:53:53.000Z</time>
      </trkpt>
      <trkpt lat="43.51922" lon="5.59683">
        <ele>467.39999389648</ele>
        <time>2013-03-23T09:54:04.000Z</time>
      </trkpt>
      <trkpt lat="43.51924" lon="5.5969">
        <ele>467.39999389648</ele>
        <time>2013-03-23T09:54:08.000Z</time>
      </trkpt>
      <trkpt lat="43.51924" lon="5.59691">
        <ele>467.20001220703</ele>
        <time>2013-03-23T09:54:09.000Z</time>
      </trkpt>
      <trkpt lat="43.51923" lon="5.59694">
        <ele>467</ele>
        <time>2013-03-23T09:54:19.000Z</time>
      </trkpt>
      <trkpt lat="43.51924" lon="5.59693">
        <ele>467.20001220703</ele>
        <time>2013-03-23T09:54:42.000Z</time>
      </trkpt>
      <trkpt lat="43.51923" lon="5.59694">
        <ele>467</ele>
        <time>2013-03-23T09:54:46.000Z</time>
      </trkpt>
      <trkpt lat="43.51918" lon="5.59698">
        <ele>466.60000610352</ele>
        <time>2013-03-23T09:54:49.000Z</time>
      </trkpt>
      <trkpt lat="43.51916" lon="5.59699">
        <ele>466.20001220703</ele>
        <time>2013-03-23T09:54:50.000Z</time>
      </trkpt>
      <trkpt lat="43.51914" lon="5.59699">
        <ele>466</ele>
        <time>2013-03-23T09:54:51.000Z</time>
      </trkpt>
      <trkpt lat="43.51907" lon="5.59702">
        <ele>465.20001220703</ele>
        <time>2013-03-23T09:54:54.000Z</time>
      </trkpt>
      <trkpt lat="43.51893" lon="5.59731">
        <ele>463</ele>
        <time>2013-03-23T09:55:01.000Z</time>
      </trkpt>
      <trkpt lat="43.51883" lon="5.59759">
        <ele>461.60000610352</ele>
        <time>2013-03-23T09:55:06.000Z</time>
      </trkpt>
      <trkpt lat="43.51881" lon="5.59765">
        <ele>461.39999389648</ele>
        <time>2013-03-23T09:55:07.000Z</time>
      </trkpt>
      <trkpt lat="43.51864" lon="5.59812">
        <ele>459.79998779297</ele>
        <time>2013-03-23T09:55:15.000Z</time>
      </trkpt>
      <trkpt lat="43.51851" lon="5.59869">
        <ele>458.60000610352</ele>
        <time>2013-03-23T09:55:24.000Z</time>
      </trkpt>
      <trkpt lat="43.51847" lon="5.59889">
        <ele>458.39999389648</ele>
        <time>2013-03-23T09:55:27.000Z</time>
      </trkpt>
      <trkpt lat="43.51846" lon="5.59896">
        <ele>458.39999389648</ele>
        <time>2013-03-23T09:55:28.000Z</time>
      </trkpt>
      <trkpt lat="43.51836" lon="5.59952">
        <ele>458</ele>
        <time>2013-03-23T09:55:38.000Z</time>
      </trkpt>
      <trkpt lat="43.51827" lon="5.60011">
        <ele>458</ele>
        <time>2013-03-23T09:55:49.000Z</time>
      </trkpt>
      <trkpt lat="43.51814" lon="5.6008">
        <ele>459.20001220703</ele>
        <time>2013-03-23T09:56:03.000Z</time>
      </trkpt>
      <trkpt lat="43.51805" lon="5.60143">
        <ele>464.20001220703</ele>
        <time>2013-03-23T09:56:15.000Z</time>
      </trkpt>
      <trkpt lat="43.51803" lon="5.60206">
        <ele>468</ele>
        <time>2013-03-23T09:56:26.000Z</time>
      </trkpt>
      <trkpt lat="43.51803" lon="5.60212">
        <ele>468.39999389648</ele>
        <time>2013-03-23T09:56:27.000Z</time>
      </trkpt>
      <trkpt lat="43.51815" lon="5.6028">
        <ele>470.79998779297</ele>
        <time>2013-03-23T09:56:40.000Z</time>
      </trkpt>
      <trkpt lat="43.51826" lon="5.60337">
        <ele>470.60000610352</ele>
        <time>2013-03-23T09:56:51.000Z</time>
      </trkpt>
      <trkpt lat="43.51827" lon="5.60343">
        <ele>470.60000610352</ele>
        <time>2013-03-23T09:56:52.000Z</time>
      </trkpt>
      <trkpt lat="43.51829" lon="5.60354">
        <ele>470.60000610352</ele>
        <time>2013-03-23T09:56:54.000Z</time>
      </trkpt>
      <trkpt lat="43.51844" lon="5.60431">
        <ele>470.20001220703</ele>
        <time>2013-03-23T09:57:09.000Z</time>
      </trkpt>
      <trkpt lat="43.51859" lon="5.60503">
        <ele>470.60000610352</ele>
        <time>2013-03-23T09:57:23.000Z</time>
      </trkpt>
      <trkpt lat="43.51873" lon="5.60571">
        <ele>472.20001220703</ele>
        <time>2013-03-23T09:57:36.000Z</time>
      </trkpt>
      <trkpt lat="43.51885" lon="5.60634">
        <ele>474.60000610352</ele>
        <time>2013-03-23T09:57:48.000Z</time>
      </trkpt>
      <trkpt lat="43.519" lon="5.60708">
        <ele>476.20001220703</ele>
        <time>2013-03-23T09:58:03.000Z</time>
      </trkpt>
      <trkpt lat="43.5191" lon="5.60769">
        <ele>476.60000610352</ele>
        <time>2013-03-23T09:58:15.000Z</time>
      </trkpt>
      <trkpt lat="43.51924" lon="5.60834">
        <ele>478.20001220703</ele>
        <time>2013-03-23T09:58:28.000Z</time>
      </trkpt>
      <trkpt lat="43.51935" lon="5.60878">
        <ele>479.79998779297</ele>
        <time>2013-03-23T09:58:39.000Z</time>
      </trkpt>
      <trkpt lat="43.51937" lon="5.60878">
        <ele>480</ele>
        <time>2013-03-23T09:58:42.000Z</time>
      </trkpt>
      <trkpt lat="43.51937" lon="5.60877">
        <ele>480</ele>
        <time>2013-03-23T09:58:43.000Z</time>
      </trkpt>
      <trkpt lat="43.51939" lon="5.60876">
        <ele>480</ele>
        <time>2013-03-23T09:58:44.000Z</time>
      </trkpt>
      <trkpt lat="43.51941" lon="5.60876">
        <ele>480.20001220703</ele>
        <time>2013-03-23T09:58:45.000Z</time>
      </trkpt>
      <trkpt lat="43.51942" lon="5.60878">
        <ele>480.20001220703</ele>
        <time>2013-03-23T09:58:46.000Z</time>
      </trkpt>
      <trkpt lat="43.51943" lon="5.6088">
        <ele>480.39999389648</ele>
        <time>2013-03-23T09:58:47.000Z</time>
      </trkpt>
      <trkpt lat="43.51944" lon="5.60882">
        <ele>480.60000610352</ele>
        <time>2013-03-23T09:58:48.000Z</time>
      </trkpt>
      <trkpt lat="43.51945" lon="5.60884">
        <ele>480.60000610352</ele>
        <time>2013-03-23T09:58:49.000Z</time>
      </trkpt>
      <trkpt lat="43.51946" lon="5.60885">
        <ele>480.79998779297</ele>
        <time>2013-03-23T09:58:50.000Z</time>
      </trkpt>
      <trkpt lat="43.51948" lon="5.60887">
        <ele>480.79998779297</ele>
        <time>2013-03-23T09:58:51.000Z</time>
      </trkpt>
      <trkpt lat="43.51949" lon="5.60888">
        <ele>481</ele>
        <time>2013-03-23T09:58:52.000Z</time>
      </trkpt>
      <trkpt lat="43.5195" lon="5.6089">
        <ele>481.20001220703</ele>
        <time>2013-03-23T09:58:53.000Z</time>
      </trkpt>
      <trkpt lat="43.51951" lon="5.60891">
        <ele>481.20001220703</ele>
        <time>2013-03-23T09:58:54.000Z</time>
      </trkpt>
      <trkpt lat="43.51952" lon="5.60892">
        <ele>481.39999389648</ele>
        <time>2013-03-23T09:58:55.000Z</time>
      </trkpt>
      <trkpt lat="43.51952" lon="5.60894">
        <ele>481.39999389648</ele>
        <time>2013-03-23T09:58:56.000Z</time>
      </trkpt>
      <trkpt lat="43.51954" lon="5.60899">
        <ele>481.79998779297</ele>
        <time>2013-03-23T09:59:00.000Z</time>
      </trkpt>
      <trkpt lat="43.51955" lon="5.609">
        <ele>482</ele>
        <time>2013-03-23T09:59:01.000Z</time>
      </trkpt>
      <trkpt lat="43.51956" lon="5.60902">
        <ele>482</ele>
        <time>2013-03-23T09:59:02.000Z</time>
      </trkpt>
      <trkpt lat="43.51957" lon="5.60904">
        <ele>482.20001220703</ele>
        <time>2013-03-23T09:59:03.000Z</time>
      </trkpt>
      <trkpt lat="43.51958" lon="5.60905">
        <ele>482.39999389648</ele>
        <time>2013-03-23T09:59:04.000Z</time>
      </trkpt>
      <trkpt lat="43.51959" lon="5.60907">
        <ele>482.39999389648</ele>
        <time>2013-03-23T09:59:05.000Z</time>
      </trkpt>
      <trkpt lat="43.5196" lon="5.60909">
        <ele>482.60000610352</ele>
        <time>2013-03-23T09:59:06.000Z</time>
      </trkpt>
      <trkpt lat="43.51961" lon="5.6091">
        <ele>482.79998779297</ele>
        <time>2013-03-23T09:59:07.000Z</time>
      </trkpt>
      <trkpt lat="43.51962" lon="5.60912">
        <ele>483</ele>
        <time>2013-03-23T09:59:08.000Z</time>
      </trkpt>
      <trkpt lat="43.51963" lon="5.60913">
        <ele>483</ele>
        <time>2013-03-23T09:59:09.000Z</time>
      </trkpt>
      <trkpt lat="43.51964" lon="5.60915">
        <ele>483.20001220703</ele>
        <time>2013-03-23T09:59:10.000Z</time>
      </trkpt>
      <trkpt lat="43.51965" lon="5.60917">
        <ele>483.39999389648</ele>
        <time>2013-03-23T09:59:11.000Z</time>
      </trkpt>
      <trkpt lat="43.51966" lon="5.60918">
        <ele>483.60000610352</ele>
        <time>2013-03-23T09:59:12.000Z</time>
      </trkpt>
      <trkpt lat="43.51967" lon="5.6092">
        <ele>483.60000610352</ele>
        <time>2013-03-23T09:59:13.000Z</time>
      </trkpt>
      <trkpt lat="43.51967" lon="5.60922">
        <ele>483.79998779297</ele>
        <time>2013-03-23T09:59:14.000Z</time>
      </trkpt>
      <trkpt lat="43.51967" lon="5.60924">
        <ele>483.79998779297</ele>
        <time>2013-03-23T09:59:15.000Z</time>
      </trkpt>
      <trkpt lat="43.51968" lon="5.60934">
        <ele>484.20001220703</ele>
        <time>2013-03-23T09:59:20.000Z</time>
      </trkpt>
      <trkpt lat="43.51968" lon="5.60935">
        <ele>484.20001220703</ele>
        <time>2013-03-23T09:59:21.000Z</time>
      </trkpt>
      <trkpt lat="43.51967" lon="5.60942">
        <ele>484.39999389648</ele>
        <time>2013-03-23T09:59:30.000Z</time>
      </trkpt>
      <trkpt lat="43.51969" lon="5.60949">
        <ele>484.79998779297</ele>
        <time>2013-03-23T09:59:44.000Z</time>
      </trkpt>
      <trkpt lat="43.51974" lon="5.60977">
        <ele>486</ele>
        <time>2013-03-23T09:59:55.000Z</time>
      </trkpt>
      <trkpt lat="43.51979" lon="5.61019">
        <ele>487.60000610352</ele>
        <time>2013-03-23T10:00:09.000Z</time>
      </trkpt>
      <trkpt lat="43.51991" lon="5.61047">
        <ele>489.20001220703</ele>
        <time>2013-03-23T10:00:20.000Z</time>
      </trkpt>
      <trkpt lat="43.51998" lon="5.61075">
        <ele>490.60000610352</ele>
        <time>2013-03-23T10:00:30.000Z</time>
      </trkpt>
      <trkpt lat="43.52014" lon="5.6109">
        <ele>492</ele>
        <time>2013-03-23T10:00:39.000Z</time>
      </trkpt>
      <trkpt lat="43.52031" lon="5.61109">
        <ele>493.60000610352</ele>
        <time>2013-03-23T10:00:49.000Z</time>
      </trkpt>
      <trkpt lat="43.5205" lon="5.61138">
        <ele>495</ele>
        <time>2013-03-23T10:01:02.000Z</time>
      </trkpt>
      <trkpt lat="43.52058" lon="5.61165">
        <ele>495.60000610352</ele>
        <time>2013-03-23T10:01:11.000Z</time>
      </trkpt>
      <trkpt lat="43.52052" lon="5.612">
        <ele>495.20001220703</ele>
        <time>2013-03-23T10:01:21.000Z</time>
      </trkpt>
      <trkpt lat="43.52059" lon="5.61234">
        <ele>495.20001220703</ele>
        <time>2013-03-23T10:01:31.000Z</time>
      </trkpt>
      <trkpt lat="43.52076" lon="5.61273">
        <ele>496.60000610352</ele>
        <time>2013-03-23T10:01:44.000Z</time>
      </trkpt>
      <trkpt lat="43.52084" lon="5.6131">
        <ele>498</ele>
        <time>2013-03-23T10:01:55.000Z</time>
      </trkpt>
      <trkpt lat="43.52085" lon="5.61338">
        <ele>499</ele>
        <time>2013-03-23T10:02:03.000Z</time>
      </trkpt>
      <trkpt lat="43.52087" lon="5.6134">
        <ele>499.20001220703</ele>
        <time>2013-03-23T10:02:04.000Z</time>
      </trkpt>
      <trkpt lat="43.52089" lon="5.61341">
        <ele>499.39999389648</ele>
        <time>2013-03-23T10:02:05.000Z</time>
      </trkpt>
      <trkpt lat="43.52117" lon="5.61363">
        <ele>501.20001220703</ele>
        <time>2013-03-23T10:02:17.000Z</time>
      </trkpt>
      <trkpt lat="43.52135" lon="5.61384">
        <ele>502.20001220703</ele>
        <time>2013-03-23T10:02:28.000Z</time>
      </trkpt>
      <trkpt lat="43.52143" lon="5.61394">
        <ele>502.60000610352</ele>
        <time>2013-03-23T10:02:37.000Z</time>
      </trkpt>
      <trkpt lat="43.52143" lon="5.61396">
        <ele>502.60000610352</ele>
        <time>2013-03-23T10:02:38.000Z</time>
      </trkpt>
      <trkpt lat="43.52143" lon="5.61398">
        <ele>502.79998779297</ele>
        <time>2013-03-23T10:02:39.000Z</time>
      </trkpt>
      <trkpt lat="43.52144" lon="5.614">
        <ele>502.79998779297</ele>
        <time>2013-03-23T10:02:40.000Z</time>
      </trkpt>
      <trkpt lat="43.52144" lon="5.61402">
        <ele>502.79998779297</ele>
        <time>2013-03-23T10:02:41.000Z</time>
      </trkpt>
      <trkpt lat="43.52145" lon="5.61405">
        <ele>502.79998779297</ele>
        <time>2013-03-23T10:02:42.000Z</time>
      </trkpt>
      <trkpt lat="43.52145" lon="5.61407">
        <ele>502.79998779297</ele>
        <time>2013-03-23T10:02:43.000Z</time>
      </trkpt>
      <trkpt lat="43.52146" lon="5.6141">
        <ele>502.79998779297</ele>
        <time>2013-03-23T10:02:44.000Z</time>
      </trkpt>
      <trkpt lat="43.52146" lon="5.61413">
        <ele>502.79998779297</ele>
        <time>2013-03-23T10:02:45.000Z</time>
      </trkpt>
      <trkpt lat="43.52146" lon="5.61416">
        <ele>503</ele>
        <time>2013-03-23T10:02:46.000Z</time>
      </trkpt>
      <trkpt lat="43.52148" lon="5.61441">
        <ele>503.60000610352</ele>
        <time>2013-03-23T10:02:56.000Z</time>
      </trkpt>
      <trkpt lat="43.52154" lon="5.61458">
        <ele>504.39999389648</ele>
        <time>2013-03-23T10:03:06.000Z</time>
      </trkpt>
      <trkpt lat="43.52156" lon="5.61462">
        <ele>504.60000610352</ele>
        <time>2013-03-23T10:03:19.000Z</time>
      </trkpt>
      <trkpt lat="43.52153" lon="5.61463">
        <ele>504.39999389648</ele>
        <time>2013-03-23T10:03:39.000Z</time>
      </trkpt>
      <trkpt lat="43.52151" lon="5.61462">
        <ele>504.39999389648</ele>
        <time>2013-03-23T10:03:48.000Z</time>
      </trkpt>
      <trkpt lat="43.5215" lon="5.61461">
        <ele>504.20001220703</ele>
        <time>2013-03-23T10:03:49.000Z</time>
      </trkpt>
      <trkpt lat="43.52149" lon="5.61462">
        <ele>504.20001220703</ele>
        <time>2013-03-23T10:03:50.000Z</time>
      </trkpt>
      <trkpt lat="43.52147" lon="5.61464">
        <ele>504.20001220703</ele>
        <time>2013-03-23T10:03:51.000Z</time>
      </trkpt>
      <trkpt lat="43.52145" lon="5.61467">
        <ele>504.20001220703</ele>
        <time>2013-03-23T10:03:52.000Z</time>
      </trkpt>
      <trkpt lat="43.52145" lon="5.6147">
        <ele>504.20001220703</ele>
        <time>2013-03-23T10:03:53.000Z</time>
      </trkpt>
      <trkpt lat="43.52144" lon="5.61474">
        <ele>504.39999389648</ele>
        <time>2013-03-23T10:03:54.000Z</time>
      </trkpt>
      <trkpt lat="43.52143" lon="5.61477">
        <ele>504.39999389648</ele>
        <time>2013-03-23T10:03:55.000Z</time>
      </trkpt>
      <trkpt lat="43.52123" lon="5.61515">
        <ele>505.20001220703</ele>
        <time>2013-03-23T10:04:07.000Z</time>
      </trkpt>
      <trkpt lat="43.52103" lon="5.61555">
        <ele>506.39999389648</ele>
        <time>2013-03-23T10:04:18.000Z</time>
      </trkpt>
      <trkpt lat="43.52084" lon="5.61588">
        <ele>507.20001220703</ele>
        <time>2013-03-23T10:04:28.000Z</time>
      </trkpt>
      <trkpt lat="43.52084" lon="5.61591">
        <ele>507.39999389648</ele>
        <time>2013-03-23T10:04:29.000Z</time>
      </trkpt>
      <trkpt lat="43.52085" lon="5.61595">
        <ele>507.60000610352</ele>
        <time>2013-03-23T10:04:30.000Z</time>
      </trkpt>
      <trkpt lat="43.52086" lon="5.61598">
        <ele>507.79998779297</ele>
        <time>2013-03-23T10:04:31.000Z</time>
      </trkpt>
      <trkpt lat="43.52101" lon="5.61631">
        <ele>510.60000610352</ele>
        <time>2013-03-23T10:04:43.000Z</time>
      </trkpt>
      <trkpt lat="43.52102" lon="5.61633">
        <ele>510.60000610352</ele>
        <time>2013-03-23T10:04:44.000Z</time>
      </trkpt>
      <trkpt lat="43.52104" lon="5.61634">
        <ele>510.79998779297</ele>
        <time>2013-03-23T10:04:45.000Z</time>
      </trkpt>
      <trkpt lat="43.52105" lon="5.61635">
        <ele>510.79998779297</ele>
        <time>2013-03-23T10:04:46.000Z</time>
      </trkpt>
      <trkpt lat="43.52106" lon="5.61636">
        <ele>511</ele>
        <time>2013-03-23T10:04:47.000Z</time>
      </trkpt>
      <trkpt lat="43.52106" lon="5.61637">
        <ele>511</ele>
        <time>2013-03-23T10:04:48.000Z</time>
      </trkpt>
      <trkpt lat="43.52107" lon="5.61639">
        <ele>511.20001220703</ele>
        <time>2013-03-23T10:04:49.000Z</time>
      </trkpt>
      <trkpt lat="43.52108" lon="5.61641">
        <ele>511.39999389648</ele>
        <time>2013-03-23T10:04:50.000Z</time>
      </trkpt>
      <trkpt lat="43.52109" lon="5.61642">
        <ele>511.39999389648</ele>
        <time>2013-03-23T10:04:51.000Z</time>
      </trkpt>
      <trkpt lat="43.5211" lon="5.61644">
        <ele>511.60000610352</ele>
        <time>2013-03-23T10:04:52.000Z</time>
      </trkpt>
      <trkpt lat="43.52111" lon="5.61645">
        <ele>511.60000610352</ele>
        <time>2013-03-23T10:04:53.000Z</time>
      </trkpt>
      <trkpt lat="43.52112" lon="5.61647">
        <ele>511.79998779297</ele>
        <time>2013-03-23T10:04:54.000Z</time>
      </trkpt>
      <trkpt lat="43.52113" lon="5.61648">
        <ele>512</ele>
        <time>2013-03-23T10:04:55.000Z</time>
      </trkpt>
      <trkpt lat="43.52114" lon="5.6165">
        <ele>512</ele>
        <time>2013-03-23T10:04:56.000Z</time>
      </trkpt>
      <trkpt lat="43.52123" lon="5.61667">
        <ele>513.40002441406</ele>
        <time>2013-03-23T10:05:06.000Z</time>
      </trkpt>
      <trkpt lat="43.52125" lon="5.61669">
        <ele>513.40002441406</ele>
        <time>2013-03-23T10:05:07.000Z</time>
      </trkpt>
      <trkpt lat="43.52126" lon="5.61671">
        <ele>513.40002441406</ele>
        <time>2013-03-23T10:05:08.000Z</time>
      </trkpt>
      <trkpt lat="43.52127" lon="5.61672">
        <ele>513.59997558594</ele>
        <time>2013-03-23T10:05:09.000Z</time>
      </trkpt>
      <trkpt lat="43.52141" lon="5.61701">
        <ele>514.40002441406</ele>
        <time>2013-03-23T10:05:22.000Z</time>
      </trkpt>
      <trkpt lat="43.52146" lon="5.61719">
        <ele>515</ele>
        <time>2013-03-23T10:05:29.000Z</time>
      </trkpt>
      <trkpt lat="43.52147" lon="5.61721">
        <ele>515</ele>
        <time>2013-03-23T10:05:30.000Z</time>
      </trkpt>
      <trkpt lat="43.52161" lon="5.61753">
        <ele>516.40002441406</ele>
        <time>2013-03-23T10:05:42.000Z</time>
      </trkpt>
      <trkpt lat="43.52166" lon="5.61763">
        <ele>516.59997558594</ele>
        <time>2013-03-23T10:05:46.000Z</time>
      </trkpt>
      <trkpt lat="43.52168" lon="5.61765">
        <ele>516.59997558594</ele>
        <time>2013-03-23T10:05:47.000Z</time>
      </trkpt>
      <trkpt lat="43.52169" lon="5.61767">
        <ele>516.79998779297</ele>
        <time>2013-03-23T10:05:48.000Z</time>
      </trkpt>
      <trkpt lat="43.52171" lon="5.61768">
        <ele>517</ele>
        <time>2013-03-23T10:05:49.000Z</time>
      </trkpt>
      <trkpt lat="43.52172" lon="5.6177">
        <ele>517.20001220703</ele>
        <time>2013-03-23T10:05:50.000Z</time>
      </trkpt>
      <trkpt lat="43.52174" lon="5.61772">
        <ele>517.40002441406</ele>
        <time>2013-03-23T10:05:51.000Z</time>
      </trkpt>
      <trkpt lat="43.52175" lon="5.61773">
        <ele>517.40002441406</ele>
        <time>2013-03-23T10:05:52.000Z</time>
      </trkpt>
      <trkpt lat="43.52176" lon="5.61775">
        <ele>517.59997558594</ele>
        <time>2013-03-23T10:05:53.000Z</time>
      </trkpt>
      <trkpt lat="43.52177" lon="5.61776">
        <ele>517.59997558594</ele>
        <time>2013-03-23T10:05:54.000Z</time>
      </trkpt>
      <trkpt lat="43.52179" lon="5.61778">
        <ele>517.79998779297</ele>
        <time>2013-03-23T10:05:55.000Z</time>
      </trkpt>
      <trkpt lat="43.5218" lon="5.61778">
        <ele>518</ele>
        <time>2013-03-23T10:05:56.000Z</time>
      </trkpt>
      <trkpt lat="43.52182" lon="5.61778">
        <ele>518.20001220703</ele>
        <time>2013-03-23T10:05:57.000Z</time>
      </trkpt>
      <trkpt lat="43.52183" lon="5.61779">
        <ele>518.40002441406</ele>
        <time>2013-03-23T10:05:58.000Z</time>
      </trkpt>
      <trkpt lat="43.522" lon="5.61793">
        <ele>520.20001220703</ele>
        <time>2013-03-23T10:06:08.000Z</time>
      </trkpt>
      <trkpt lat="43.52211" lon="5.61811">
        <ele>521.40002441406</ele>
        <time>2013-03-23T10:06:18.000Z</time>
      </trkpt>
      <trkpt lat="43.52224" lon="5.6184">
        <ele>522.20001220703</ele>
        <time>2013-03-23T10:06:30.000Z</time>
      </trkpt>
      <trkpt lat="43.52243" lon="5.61866">
        <ele>523.79998779297</ele>
        <time>2013-03-23T10:06:37.000Z</time>
      </trkpt>
      <trkpt lat="43.5226" lon="5.61895">
        <ele>525.20001220703</ele>
        <time>2013-03-23T10:06:47.000Z</time>
      </trkpt>
      <trkpt lat="43.52265" lon="5.61938">
        <ele>524.59997558594</ele>
        <time>2013-03-23T10:06:57.000Z</time>
      </trkpt>
      <trkpt lat="43.52275" lon="5.61973">
        <ele>524.79998779297</ele>
        <time>2013-03-23T10:07:04.000Z</time>
      </trkpt>
      <trkpt lat="43.52275" lon="5.61979">
        <ele>524.79998779297</ele>
        <time>2013-03-23T10:07:05.000Z</time>
      </trkpt>
      <trkpt lat="43.52276" lon="5.61985">
        <ele>524.79998779297</ele>
        <time>2013-03-23T10:07:06.000Z</time>
      </trkpt>
      <trkpt lat="43.52277" lon="5.61998">
        <ele>524.59997558594</ele>
        <time>2013-03-23T10:07:08.000Z</time>
      </trkpt>
      <trkpt lat="43.52278" lon="5.62004">
        <ele>524.40002441406</ele>
        <time>2013-03-23T10:07:09.000Z</time>
      </trkpt>
      <trkpt lat="43.52285" lon="5.62031">
        <ele>523.59997558594</ele>
        <time>2013-03-23T10:07:13.000Z</time>
      </trkpt>
      <trkpt lat="43.52291" lon="5.62046">
        <ele>523.79998779297</ele>
        <time>2013-03-23T10:07:16.000Z</time>
      </trkpt>
      <trkpt lat="43.52298" lon="5.62063">
        <ele>524</ele>
        <time>2013-03-23T10:07:19.000Z</time>
      </trkpt>
      <trkpt lat="43.523" lon="5.62069">
        <ele>523.79998779297</ele>
        <time>2013-03-23T10:07:20.000Z</time>
      </trkpt>
      <trkpt lat="43.52304" lon="5.62113">
        <ele>521.79998779297</ele>
        <time>2013-03-23T10:07:28.000Z</time>
      </trkpt>
      <trkpt lat="43.52304" lon="5.62156">
        <ele>519.20001220703</ele>
        <time>2013-03-23T10:07:33.000Z</time>
      </trkpt>
      <trkpt lat="43.52305" lon="5.62187">
        <ele>516.79998779297</ele>
        <time>2013-03-23T10:07:36.000Z</time>
      </trkpt>
      <trkpt lat="43.52305" lon="5.62222">
        <ele>514</ele>
        <time>2013-03-23T10:07:39.000Z</time>
      </trkpt>
      <trkpt lat="43.5231" lon="5.62277">
        <ele>509.79998779297</ele>
        <time>2013-03-23T10:07:44.000Z</time>
      </trkpt>
      <trkpt lat="43.52316" lon="5.62308">
        <ele>507.79998779297</ele>
        <time>2013-03-23T10:07:47.000Z</time>
      </trkpt>
      <trkpt lat="43.52317" lon="5.62317">
        <ele>507.20001220703</ele>
        <time>2013-03-23T10:07:48.000Z</time>
      </trkpt>
      <trkpt lat="43.52316" lon="5.62325">
        <ele>506.60000610352</ele>
        <time>2013-03-23T10:07:49.000Z</time>
      </trkpt>
      <trkpt lat="43.52313" lon="5.62332">
        <ele>505.79998779297</ele>
        <time>2013-03-23T10:07:50.000Z</time>
      </trkpt>
      <trkpt lat="43.52305" lon="5.62347">
        <ele>504.20001220703</ele>
        <time>2013-03-23T10:07:52.000Z</time>
      </trkpt>
      <trkpt lat="43.52296" lon="5.62364">
        <ele>502.60000610352</ele>
        <time>2013-03-23T10:07:54.000Z</time>
      </trkpt>
      <trkpt lat="43.52287" lon="5.62383">
        <ele>501</ele>
        <time>2013-03-23T10:07:56.000Z</time>
      </trkpt>
      <trkpt lat="43.52284" lon="5.62394">
        <ele>500.20001220703</ele>
        <time>2013-03-23T10:07:57.000Z</time>
      </trkpt>
      <trkpt lat="43.52272" lon="5.62427">
        <ele>497.20001220703</ele>
        <time>2013-03-23T10:08:00.000Z</time>
      </trkpt>
      <trkpt lat="43.52269" lon="5.62438">
        <ele>495.79998779297</ele>
        <time>2013-03-23T10:08:01.000Z</time>
      </trkpt>
      <trkpt lat="43.52264" lon="5.62448">
        <ele>494.60000610352</ele>
        <time>2013-03-23T10:08:02.000Z</time>
      </trkpt>
      <trkpt lat="43.52259" lon="5.62458">
        <ele>493.39999389648</ele>
        <time>2013-03-23T10:08:03.000Z</time>
      </trkpt>
      <trkpt lat="43.5225" lon="5.62477">
        <ele>491.39999389648</ele>
        <time>2013-03-23T10:08:05.000Z</time>
      </trkpt>
      <trkpt lat="43.52242" lon="5.62497">
        <ele>488.60000610352</ele>
        <time>2013-03-23T10:08:08.000Z</time>
      </trkpt>
      <trkpt lat="43.52242" lon="5.62499">
        <ele>488.39999389648</ele>
        <time>2013-03-23T10:08:09.000Z</time>
      </trkpt>
      <trkpt lat="43.52243" lon="5.625">
        <ele>488.39999389648</ele>
        <time>2013-03-23T10:08:10.000Z</time>
      </trkpt>
      <trkpt lat="43.52243" lon="5.62499">
        <ele>488.39999389648</ele>
        <time>2013-03-23T10:08:20.000Z</time>
      </trkpt>
      <trkpt lat="43.52244" lon="5.62498">
        <ele>488.60000610352</ele>
        <time>2013-03-23T10:08:25.000Z</time>
      </trkpt>
      <trkpt lat="43.52246" lon="5.62498">
        <ele>488.79998779297</ele>
        <time>2013-03-23T10:08:26.000Z</time>
      </trkpt>
      <trkpt lat="43.52248" lon="5.62497">
        <ele>489</ele>
        <time>2013-03-23T10:08:28.000Z</time>
      </trkpt>
      <trkpt lat="43.5225" lon="5.625">
        <ele>489</ele>
        <time>2013-03-23T10:08:35.000Z</time>
      </trkpt>
      <trkpt lat="43.52263" lon="5.62522">
        <ele>487.20001220703</ele>
        <time>2013-03-23T10:08:43.000Z</time>
      </trkpt>
      <trkpt lat="43.52288" lon="5.62568">
        <ele>483.60000610352</ele>
        <time>2013-03-23T10:08:53.000Z</time>
      </trkpt>
      <trkpt lat="43.52291" lon="5.62575">
        <ele>483</ele>
        <time>2013-03-23T10:08:54.000Z</time>
      </trkpt>
      <trkpt lat="43.52293" lon="5.62583">
        <ele>482.39999389648</ele>
        <time>2013-03-23T10:08:55.000Z</time>
      </trkpt>
      <trkpt lat="43.52304" lon="5.62609">
        <ele>479.79998779297</ele>
        <time>2013-03-23T10:08:58.000Z</time>
      </trkpt>
      <trkpt lat="43.52307" lon="5.6262">
        <ele>478.79998779297</ele>
        <time>2013-03-23T10:08:59.000Z</time>
      </trkpt>
      <trkpt lat="43.52316" lon="5.62653">
        <ele>475.79998779297</ele>
        <time>2013-03-23T10:09:02.000Z</time>
      </trkpt>
      <trkpt lat="43.52321" lon="5.62676">
        <ele>473.79998779297</ele>
        <time>2013-03-23T10:09:04.000Z</time>
      </trkpt>
      <trkpt lat="43.52325" lon="5.62687">
        <ele>472.79998779297</ele>
        <time>2013-03-23T10:09:05.000Z</time>
      </trkpt>
      <trkpt lat="43.52331" lon="5.6271">
        <ele>470.79998779297</ele>
        <time>2013-03-23T10:09:07.000Z</time>
      </trkpt>
      <trkpt lat="43.52332" lon="5.6272">
        <ele>469.79998779297</ele>
        <time>2013-03-23T10:09:08.000Z</time>
      </trkpt>
      <trkpt lat="43.52332" lon="5.62731">
        <ele>468.79998779297</ele>
        <time>2013-03-23T10:09:09.000Z</time>
      </trkpt>
      <trkpt lat="43.52331" lon="5.6274">
        <ele>467.79998779297</ele>
        <time>2013-03-23T10:09:10.000Z</time>
      </trkpt>
      <trkpt lat="43.52331" lon="5.62749">
        <ele>467</ele>
        <time>2013-03-23T10:09:11.000Z</time>
      </trkpt>
      <trkpt lat="43.52331" lon="5.62759">
        <ele>466.39999389648</ele>
        <time>2013-03-23T10:09:12.000Z</time>
      </trkpt>
      <trkpt lat="43.52334" lon="5.62787">
        <ele>464.79998779297</ele>
        <time>2013-03-23T10:09:15.000Z</time>
      </trkpt>
      <trkpt lat="43.52335" lon="5.62802">
        <ele>463.79998779297</ele>
        <time>2013-03-23T10:09:17.000Z</time>
      </trkpt>
      <trkpt lat="43.52336" lon="5.62807">
        <ele>463.60000610352</ele>
        <time>2013-03-23T10:09:18.000Z</time>
      </trkpt>
      <trkpt lat="43.52337" lon="5.62811">
        <ele>463.39999389648</ele>
        <time>2013-03-23T10:09:19.000Z</time>
      </trkpt>
      <trkpt lat="43.52339" lon="5.62815">
        <ele>463.20001220703</ele>
        <time>2013-03-23T10:09:20.000Z</time>
      </trkpt>
      <trkpt lat="43.52341" lon="5.62818">
        <ele>463.20001220703</ele>
        <time>2013-03-23T10:09:21.000Z</time>
      </trkpt>
      <trkpt lat="43.52342" lon="5.6282">
        <ele>463</ele>
        <time>2013-03-23T10:09:22.000Z</time>
      </trkpt>
      <trkpt lat="43.52356" lon="5.62829">
        <ele>463</ele>
        <time>2013-03-23T10:09:29.000Z</time>
      </trkpt>
      <trkpt lat="43.52364" lon="5.62832">
        <ele>463</ele>
        <time>2013-03-23T10:09:32.000Z</time>
      </trkpt>
      <trkpt lat="43.52367" lon="5.62834">
        <ele>463</ele>
        <time>2013-03-23T10:09:33.000Z</time>
      </trkpt>
      <trkpt lat="43.52385" lon="5.62855">
        <ele>461.79998779297</ele>
        <time>2013-03-23T10:09:41.000Z</time>
      </trkpt>
      <trkpt lat="43.52409" lon="5.62874">
        <ele>460.79998779297</ele>
        <time>2013-03-23T10:09:49.000Z</time>
      </trkpt>
      <trkpt lat="43.52423" lon="5.62881">
        <ele>459.60000610352</ele>
        <time>2013-03-23T10:09:53.000Z</time>
      </trkpt>
      <trkpt lat="43.52426" lon="5.6288">
        <ele>459.39999389648</ele>
        <time>2013-03-23T10:09:54.000Z</time>
      </trkpt>
      <trkpt lat="43.52428" lon="5.62878">
        <ele>459.20001220703</ele>
        <time>2013-03-23T10:09:55.000Z</time>
      </trkpt>
      <trkpt lat="43.52432" lon="5.62874">
        <ele>459.20001220703</ele>
        <time>2013-03-23T10:09:58.000Z</time>
      </trkpt>
      <trkpt lat="43.52434" lon="5.62875">
        <ele>458.79998779297</ele>
        <time>2013-03-23T10:10:00.000Z</time>
      </trkpt>
      <trkpt lat="43.52436" lon="5.62877">
        <ele>458.60000610352</ele>
        <time>2013-03-23T10:10:11.000Z</time>
      </trkpt>
      <trkpt lat="43.52433" lon="5.6288">
        <ele>458.60000610352</ele>
        <time>2013-03-23T10:10:21.000Z</time>
      </trkpt>
      <trkpt lat="43.52438" lon="5.62896">
        <ele>456.39999389648</ele>
        <time>2013-03-23T10:10:27.000Z</time>
      </trkpt>
      <trkpt lat="43.52438" lon="5.62896">
        <ele>456.60000610352</ele>
        <time>2013-03-23T10:10:38.000Z</time>
      </trkpt>
      <trkpt lat="43.52438" lon="5.62899">
        <ele>456.39999389648</ele>
        <time>2013-03-23T10:10:47.000Z</time>
      </trkpt>
      <trkpt lat="43.52439" lon="5.62916">
        <ele>454.60000610352</ele>
        <time>2013-03-23T10:10:53.000Z</time>
      </trkpt>
      <trkpt lat="43.5244" lon="5.62934">
        <ele>452.79998779297</ele>
        <time>2013-03-23T10:11:00.000Z</time>
      </trkpt>
      <trkpt lat="43.5244" lon="5.62934">
        <ele>452.79998779297</ele>
        <time>2013-03-23T10:11:02.000Z</time>
      </trkpt>
      <trkpt lat="43.52441" lon="5.62934">
        <ele>452.60000610352</ele>
        <time>2013-03-23T10:11:04.000Z</time>
      </trkpt>
      <trkpt lat="43.52447" lon="5.62942">
        <ele>451.39999389648</ele>
        <time>2013-03-23T10:11:09.000Z</time>
      </trkpt>
      <trkpt lat="43.52451" lon="5.62941">
        <ele>451.20001220703</ele>
        <time>2013-03-23T10:11:11.000Z</time>
      </trkpt>
      <trkpt lat="43.52455" lon="5.62946">
        <ele>450.39999389648</ele>
        <time>2013-03-23T10:11:17.000Z</time>
      </trkpt>
      <trkpt lat="43.52455" lon="5.62946">
        <ele>450.39999389648</ele>
        <time>2013-03-23T10:11:18.000Z</time>
      </trkpt>
      <trkpt lat="43.52462" lon="5.62958">
        <ele>449</ele>
        <time>2013-03-23T10:11:24.000Z</time>
      </trkpt>
      <trkpt lat="43.52463" lon="5.62961">
        <ele>448.60000610352</ele>
        <time>2013-03-23T10:11:27.000Z</time>
      </trkpt>
      <trkpt lat="43.52462" lon="5.62961">
        <ele>448.60000610352</ele>
        <time>2013-03-23T10:11:47.000Z</time>
      </trkpt>
      <trkpt lat="43.52462" lon="5.62963">
        <ele>448.60000610352</ele>
        <time>2013-03-23T10:11:48.000Z</time>
      </trkpt>
      <trkpt lat="43.52462" lon="5.62965">
        <ele>448.39999389648</ele>
        <time>2013-03-23T10:11:49.000Z</time>
      </trkpt>
      <trkpt lat="43.52462" lon="5.62968">
        <ele>448.20001220703</ele>
        <time>2013-03-23T10:11:50.000Z</time>
      </trkpt>
      <trkpt lat="43.52462" lon="5.62971">
        <ele>448</ele>
        <time>2013-03-23T10:11:51.000Z</time>
      </trkpt>
      <trkpt lat="43.52463" lon="5.6298">
        <ele>447.20001220703</ele>
        <time>2013-03-23T10:11:57.000Z</time>
      </trkpt>
      <trkpt lat="43.52463" lon="5.62982">
        <ele>447.20001220703</ele>
        <time>2013-03-23T10:11:58.000Z</time>
      </trkpt>
      <trkpt lat="43.52463" lon="5.62984">
        <ele>447</ele>
        <time>2013-03-23T10:11:59.000Z</time>
      </trkpt>
      <trkpt lat="43.52461" lon="5.63007">
        <ele>445.60000610352</ele>
        <time>2013-03-23T10:12:05.000Z</time>
      </trkpt>
      <trkpt lat="43.52459" lon="5.63011">
        <ele>445.39999389648</ele>
        <time>2013-03-23T10:12:06.000Z</time>
      </trkpt>
      <trkpt lat="43.52458" lon="5.63016">
        <ele>445.20001220703</ele>
        <time>2013-03-23T10:12:07.000Z</time>
      </trkpt>
      <trkpt lat="43.52456" lon="5.63027">
        <ele>444.60000610352</ele>
        <time>2013-03-23T10:12:09.000Z</time>
      </trkpt>
      <trkpt lat="43.52453" lon="5.63046">
        <ele>443.60000610352</ele>
        <time>2013-03-23T10:12:13.000Z</time>
      </trkpt>
      <trkpt lat="43.52453" lon="5.63052">
        <ele>443.20001220703</ele>
        <time>2013-03-23T10:12:14.000Z</time>
      </trkpt>
      <trkpt lat="43.52453" lon="5.63058">
        <ele>442.79998779297</ele>
        <time>2013-03-23T10:12:15.000Z</time>
      </trkpt>
      <trkpt lat="43.52454" lon="5.63063">
        <ele>442.60000610352</ele>
        <time>2013-03-23T10:12:16.000Z</time>
      </trkpt>
      <trkpt lat="43.52454" lon="5.63067">
        <ele>442.39999389648</ele>
        <time>2013-03-23T10:12:17.000Z</time>
      </trkpt>
      <trkpt lat="43.52455" lon="5.63069">
        <ele>442.39999389648</ele>
        <time>2013-03-23T10:12:18.000Z</time>
      </trkpt>
      <trkpt lat="43.52459" lon="5.6307">
        <ele>442.60000610352</ele>
        <time>2013-03-23T10:12:25.000Z</time>
      </trkpt>
      <trkpt lat="43.52464" lon="5.63081">
        <ele>442.39999389648</ele>
        <time>2013-03-23T10:12:34.000Z</time>
      </trkpt>
      <trkpt lat="43.52466" lon="5.63083">
        <ele>442.39999389648</ele>
        <time>2013-03-23T10:12:36.000Z</time>
      </trkpt>
      <trkpt lat="43.52467" lon="5.63086">
        <ele>442.20001220703</ele>
        <time>2013-03-23T10:12:44.000Z</time>
      </trkpt>
      <trkpt lat="43.52467" lon="5.63086">
        <ele>442.39999389648</ele>
        <time>2013-03-23T10:12:59.000Z</time>
      </trkpt>
      <trkpt lat="43.52467" lon="5.63089">
        <ele>442</ele>
        <time>2013-03-23T10:13:17.000Z</time>
      </trkpt>
      <trkpt lat="43.52468" lon="5.6309">
        <ele>442</ele>
        <time>2013-03-23T10:13:37.000Z</time>
      </trkpt>
      <trkpt lat="43.52466" lon="5.63091">
        <ele>441.79998779297</ele>
        <time>2013-03-23T10:13:45.000Z</time>
      </trkpt>
      <trkpt lat="43.52466" lon="5.63091">
        <ele>441.79998779297</ele>
        <time>2013-03-23T10:14:01.000Z</time>
      </trkpt>
      <trkpt lat="43.52467" lon="5.63088">
        <ele>442.20001220703</ele>
        <time>2013-03-23T10:14:20.000Z</time>
      </trkpt>
      <trkpt lat="43.52466" lon="5.6309">
        <ele>442</ele>
        <time>2013-03-23T10:14:36.000Z</time>
      </trkpt>
      <trkpt lat="43.52466" lon="5.63092">
        <ele>441.79998779297</ele>
        <time>2013-03-23T10:14:37.000Z</time>
      </trkpt>
      <trkpt lat="43.52462" lon="5.63119">
        <ele>439</ele>
        <time>2013-03-23T10:14:45.000Z</time>
      </trkpt>
      <trkpt lat="43.52468" lon="5.63158">
        <ele>436.20001220703</ele>
        <time>2013-03-23T10:14:54.000Z</time>
      </trkpt>
      <trkpt lat="43.5247" lon="5.63162">
        <ele>436</ele>
        <time>2013-03-23T10:14:55.000Z</time>
      </trkpt>
      <trkpt lat="43.52474" lon="5.63166">
        <ele>436.20001220703</ele>
        <time>2013-03-23T10:14:56.000Z</time>
      </trkpt>
      <trkpt lat="43.52476" lon="5.63169">
        <ele>436.20001220703</ele>
        <time>2013-03-23T10:14:57.000Z</time>
      </trkpt>
      <trkpt lat="43.52478" lon="5.63173">
        <ele>436</ele>
        <time>2013-03-23T10:14:58.000Z</time>
      </trkpt>
      <trkpt lat="43.52479" lon="5.63176">
        <ele>436</ele>
        <time>2013-03-23T10:14:59.000Z</time>
      </trkpt>
      <trkpt lat="43.52486" lon="5.63216">
        <ele>433.79998779297</ele>
        <time>2013-03-23T10:15:08.000Z</time>
      </trkpt>
      <trkpt lat="43.52492" lon="5.63247">
        <ele>432.20001220703</ele>
        <time>2013-03-23T10:15:16.000Z</time>
      </trkpt>
      <trkpt lat="43.52512" lon="5.63296">
        <ele>430.39999389648</ele>
        <time>2013-03-23T10:15:26.000Z</time>
      </trkpt>
      <trkpt lat="43.52516" lon="5.63306">
        <ele>430</ele>
        <time>2013-03-23T10:15:28.000Z</time>
      </trkpt>
      <trkpt lat="43.52518" lon="5.63311">
        <ele>429.79998779297</ele>
        <time>2013-03-23T10:15:29.000Z</time>
      </trkpt>
      <trkpt lat="43.5252" lon="5.63316">
        <ele>429.60000610352</ele>
        <time>2013-03-23T10:15:30.000Z</time>
      </trkpt>
      <trkpt lat="43.52542" lon="5.63357">
        <ele>427.60000610352</ele>
        <time>2013-03-23T10:15:39.000Z</time>
      </trkpt>
      <trkpt lat="43.52586" lon="5.63413">
        <ele>424.60000610352</ele>
        <time>2013-03-23T10:15:50.000Z</time>
      </trkpt>
      <trkpt lat="43.52619" lon="5.63449">
        <ele>422.20001220703</ele>
        <time>2013-03-23T10:15:56.000Z</time>
      </trkpt>
      <trkpt lat="43.52626" lon="5.63456">
        <ele>421.79998779297</ele>
        <time>2013-03-23T10:15:57.000Z</time>
      </trkpt>
      <trkpt lat="43.5264" lon="5.63471">
        <ele>420.79998779297</ele>
        <time>2013-03-23T10:15:59.000Z</time>
      </trkpt>
      <trkpt lat="43.52662" lon="5.63494">
        <ele>419.39999389648</ele>
        <time>2013-03-23T10:16:02.000Z</time>
      </trkpt>
      <trkpt lat="43.52691" lon="5.63524">
        <ele>420.79998779297</ele>
        <time>2013-03-23T10:16:06.000Z</time>
      </trkpt>
      <trkpt lat="43.52699" lon="5.63532">
        <ele>421.39999389648</ele>
        <time>2013-03-23T10:16:07.000Z</time>
      </trkpt>
      <trkpt lat="43.52711" lon="5.6355">
        <ele>422.60000610352</ele>
        <time>2013-03-23T10:16:09.000Z</time>
      </trkpt>
      <trkpt lat="43.52731" lon="5.63589">
        <ele>424.39999389648</ele>
        <time>2013-03-23T10:16:13.000Z</time>
      </trkpt>
      <trkpt lat="43.52734" lon="5.63599">
        <ele>424.60000610352</ele>
        <time>2013-03-23T10:16:14.000Z</time>
      </trkpt>
      <trkpt lat="43.52736" lon="5.6361">
        <ele>424.60000610352</ele>
        <time>2013-03-23T10:16:15.000Z</time>
      </trkpt>
      <trkpt lat="43.52747" lon="5.63697">
        <ele>422.39999389648</ele>
        <time>2013-03-23T10:16:24.000Z</time>
      </trkpt>
      <trkpt lat="43.52748" lon="5.63707">
        <ele>422.20001220703</ele>
        <time>2013-03-23T10:16:25.000Z</time>
      </trkpt>
      <trkpt lat="43.52748" lon="5.63716">
        <ele>421.79998779297</ele>
        <time>2013-03-23T10:16:26.000Z</time>
      </trkpt>
      <trkpt lat="43.52749" lon="5.63725">
        <ele>421.60000610352</ele>
        <time>2013-03-23T10:16:27.000Z</time>
      </trkpt>
      <trkpt lat="43.52759" lon="5.63797">
        <ele>419.79998779297</ele>
        <time>2013-03-23T10:16:36.000Z</time>
      </trkpt>
      <trkpt lat="43.5276" lon="5.63819">
        <ele>418.39999389648</ele>
        <time>2013-03-23T10:16:39.000Z</time>
      </trkpt>
      <trkpt lat="43.52754" lon="5.63877">
        <ele>415.79998779297</ele>
        <time>2013-03-23T10:16:47.000Z</time>
      </trkpt>
      <trkpt lat="43.52753" lon="5.63884">
        <ele>415.39999389648</ele>
        <time>2013-03-23T10:16:48.000Z</time>
      </trkpt>
      <trkpt lat="43.52753" lon="5.63891">
        <ele>415.39999389648</ele>
        <time>2013-03-23T10:16:49.000Z</time>
      </trkpt>
      <trkpt lat="43.52753" lon="5.63992">
        <ele>412.39999389648</ele>
        <time>2013-03-23T10:17:03.000Z</time>
      </trkpt>
      <trkpt lat="43.52755" lon="5.64009">
        <ele>411.79998779297</ele>
        <time>2013-03-23T10:17:05.000Z</time>
      </trkpt>
      <trkpt lat="43.52764" lon="5.64095">
        <ele>407.79998779297</ele>
        <time>2013-03-23T10:17:14.000Z</time>
      </trkpt>
      <trkpt lat="43.52766" lon="5.64107">
        <ele>407.20001220703</ele>
        <time>2013-03-23T10:17:15.000Z</time>
      </trkpt>
      <trkpt lat="43.52769" lon="5.64132">
        <ele>406.20001220703</ele>
        <time>2013-03-23T10:17:17.000Z</time>
      </trkpt>
      <trkpt lat="43.52774" lon="5.64174">
        <ele>404.39999389648</ele>
        <time>2013-03-23T10:17:20.000Z</time>
      </trkpt>
      <trkpt lat="43.52784" lon="5.64274">
        <ele>401.39999389648</ele>
        <time>2013-03-23T10:17:27.000Z</time>
      </trkpt>
      <trkpt lat="43.52783" lon="5.64299">
        <ele>400.60000610352</ele>
        <time>2013-03-23T10:17:29.000Z</time>
      </trkpt>
      <trkpt lat="43.52769" lon="5.6442">
        <ele>401.20001220703</ele>
        <time>2013-03-23T10:17:40.000Z</time>
      </trkpt>
      <trkpt lat="43.52753" lon="5.64525">
        <ele>401.79998779297</ele>
        <time>2013-03-23T10:17:52.000Z</time>
      </trkpt>
      <trkpt lat="43.52727" lon="5.64634">
        <ele>408.79998779297</ele>
        <time>2013-03-23T10:18:06.000Z</time>
      </trkpt>
      <trkpt lat="43.52701" lon="5.64712">
        <ele>411.20001220703</ele>
        <time>2013-03-23T10:18:17.000Z</time>
      </trkpt>
      <trkpt lat="43.52674" lon="5.64774">
        <ele>409.79998779297</ele>
        <time>2013-03-23T10:18:27.000Z</time>
      </trkpt>
      <trkpt lat="43.52671" lon="5.64779">
        <ele>409.60000610352</ele>
        <time>2013-03-23T10:18:28.000Z</time>
      </trkpt>
      <trkpt lat="43.52647" lon="5.64823">
        <ele>408</ele>
        <time>2013-03-23T10:18:35.000Z</time>
      </trkpt>
      <trkpt lat="43.52631" lon="5.64862">
        <ele>406</ele>
        <time>2013-03-23T10:18:40.000Z</time>
      </trkpt>
      <trkpt lat="43.52601" lon="5.6495">
        <ele>400</ele>
        <time>2013-03-23T10:18:50.000Z</time>
      </trkpt>
      <trkpt lat="43.52578" lon="5.65017">
        <ele>395</ele>
        <time>2013-03-23T10:18:57.000Z</time>
      </trkpt>
      <trkpt lat="43.52561" lon="5.6507">
        <ele>392</ele>
        <time>2013-03-23T10:19:02.000Z</time>
      </trkpt>
      <trkpt lat="43.52558" lon="5.65082">
        <ele>391.60000610352</ele>
        <time>2013-03-23T10:19:03.000Z</time>
      </trkpt>
      <trkpt lat="43.52552" lon="5.65129">
        <ele>388.79998779297</ele>
        <time>2013-03-23T10:19:07.000Z</time>
      </trkpt>
      <trkpt lat="43.52547" lon="5.65186">
        <ele>386</ele>
        <time>2013-03-23T10:19:12.000Z</time>
      </trkpt>
      <trkpt lat="43.52545" lon="5.65244">
        <ele>384</ele>
        <time>2013-03-23T10:19:17.000Z</time>
      </trkpt>
      <trkpt lat="43.52541" lon="5.6537">
        <ele>381.39999389648</ele>
        <time>2013-03-23T10:19:28.000Z</time>
      </trkpt>
      <trkpt lat="43.52535" lon="5.65412">
        <ele>381</ele>
        <time>2013-03-23T10:19:32.000Z</time>
      </trkpt>
      <trkpt lat="43.52491" lon="5.65531">
        <ele>377.39999389648</ele>
        <time>2013-03-23T10:19:45.000Z</time>
      </trkpt>
      <trkpt lat="43.52481" lon="5.65615">
        <ele>373.60000610352</ele>
        <time>2013-03-23T10:19:53.000Z</time>
      </trkpt>
      <trkpt lat="43.52476" lon="5.65673">
        <ele>371.39999389648</ele>
        <time>2013-03-23T10:19:58.000Z</time>
      </trkpt>
      <trkpt lat="43.52474" lon="5.65698">
        <ele>371</ele>
        <time>2013-03-23T10:20:00.000Z</time>
      </trkpt>
      <trkpt lat="43.5247" lon="5.65748">
        <ele>370.20001220703</ele>
        <time>2013-03-23T10:20:04.000Z</time>
      </trkpt>
      <trkpt lat="43.52454" lon="5.65849">
        <ele>368</ele>
        <time>2013-03-23T10:20:12.000Z</time>
      </trkpt>
      <trkpt lat="43.52411" lon="5.65947">
        <ele>364.20001220703</ele>
        <time>2013-03-23T10:20:22.000Z</time>
      </trkpt>
      <trkpt lat="43.52388" lon="5.6601">
        <ele>362.79998779297</ele>
        <time>2013-03-23T10:20:29.000Z</time>
      </trkpt>
      <trkpt lat="43.52386" lon="5.66021">
        <ele>363</ele>
        <time>2013-03-23T10:20:30.000Z</time>
      </trkpt>
      <trkpt lat="43.52391" lon="5.66143">
        <ele>360.79998779297</ele>
        <time>2013-03-23T10:20:41.000Z</time>
      </trkpt>
      <trkpt lat="43.52403" lon="5.66264">
        <ele>363.60000610352</ele>
        <time>2013-03-23T10:20:52.000Z</time>
      </trkpt>
      <trkpt lat="43.52411" lon="5.66323">
        <ele>365.20001220703</ele>
        <time>2013-03-23T10:20:58.000Z</time>
      </trkpt>
      <trkpt lat="43.52418" lon="5.66413">
        <ele>360.20001220703</ele>
        <time>2013-03-23T10:21:06.000Z</time>
      </trkpt>
      <trkpt lat="43.52417" lon="5.66425">
        <ele>359.60000610352</ele>
        <time>2013-03-23T10:21:07.000Z</time>
      </trkpt>
      <trkpt lat="43.52416" lon="5.6645">
        <ele>358.60000610352</ele>
        <time>2013-03-23T10:21:09.000Z</time>
      </trkpt>
      <trkpt lat="43.52409" lon="5.66551">
        <ele>356</ele>
        <time>2013-03-23T10:21:17.000Z</time>
      </trkpt>
      <trkpt lat="43.52407" lon="5.66576">
        <ele>355.39999389648</ele>
        <time>2013-03-23T10:21:19.000Z</time>
      </trkpt>
      <trkpt lat="43.52405" lon="5.66612">
        <ele>354.79998779297</ele>
        <time>2013-03-23T10:21:22.000Z</time>
      </trkpt>
      <trkpt lat="43.52403" lon="5.66647">
        <ele>354.20001220703</ele>
        <time>2013-03-23T10:21:25.000Z</time>
      </trkpt>
      <trkpt lat="43.52402" lon="5.66784">
        <ele>349.79998779297</ele>
        <time>2013-03-23T10:21:37.000Z</time>
      </trkpt>
      <trkpt lat="43.52399" lon="5.66877">
        <ele>346.39999389648</ele>
        <time>2013-03-23T10:21:46.000Z</time>
      </trkpt>
      <trkpt lat="43.524" lon="5.66917">
        <ele>344.20001220703</ele>
        <time>2013-03-23T10:21:50.000Z</time>
      </trkpt>
      <trkpt lat="43.5241" lon="5.6697">
        <ele>342.60000610352</ele>
        <time>2013-03-23T10:21:55.000Z</time>
      </trkpt>
      <trkpt lat="43.52436" lon="5.67048">
        <ele>341.60000610352</ele>
        <time>2013-03-23T10:22:03.000Z</time>
      </trkpt>
      <trkpt lat="43.52448" lon="5.67087">
        <ele>340.60000610352</ele>
        <time>2013-03-23T10:22:08.000Z</time>
      </trkpt>
      <trkpt lat="43.52465" lon="5.67125">
        <ele>341.79998779297</ele>
        <time>2013-03-23T10:22:14.000Z</time>
      </trkpt>
      <trkpt lat="43.52479" lon="5.67144">
        <ele>343</ele>
        <time>2013-03-23T10:22:18.000Z</time>
      </trkpt>
      <trkpt lat="43.52488" lon="5.67157">
        <ele>343.79998779297</ele>
        <time>2013-03-23T10:22:21.000Z</time>
      </trkpt>
      <trkpt lat="43.52511" lon="5.67194">
        <ele>344.79998779297</ele>
        <time>2013-03-23T10:22:31.000Z</time>
      </trkpt>
      <trkpt lat="43.52516" lon="5.672">
        <ele>345.20001220703</ele>
        <time>2013-03-23T10:22:35.000Z</time>
      </trkpt>
      <trkpt lat="43.52518" lon="5.672">
        <ele>345.20001220703</ele>
        <time>2013-03-23T10:22:36.000Z</time>
      </trkpt>
      <trkpt lat="43.52519" lon="5.672">
        <ele>345.39999389648</ele>
        <time>2013-03-23T10:22:37.000Z</time>
      </trkpt>
      <trkpt lat="43.52521" lon="5.67201">
        <ele>345.39999389648</ele>
        <time>2013-03-23T10:22:38.000Z</time>
      </trkpt>
      <trkpt lat="43.52522" lon="5.67202">
        <ele>345.60000610352</ele>
        <time>2013-03-23T10:22:39.000Z</time>
      </trkpt>
      <trkpt lat="43.52524" lon="5.67203">
        <ele>345.60000610352</ele>
        <time>2013-03-23T10:22:40.000Z</time>
      </trkpt>
      <trkpt lat="43.52529" lon="5.67204">
        <ele>346.20001220703</ele>
        <time>2013-03-23T10:22:44.000Z</time>
      </trkpt>
      <trkpt lat="43.52525" lon="5.67199">
        <ele>346</ele>
        <time>2013-03-23T10:22:48.000Z</time>
      </trkpt>
      <trkpt lat="43.52523" lon="5.67199">
        <ele>345.79998779297</ele>
        <time>2013-03-23T10:22:49.000Z</time>
      </trkpt>
      <trkpt lat="43.52521" lon="5.67199">
        <ele>345.60000610352</ele>
        <time>2013-03-23T10:22:50.000Z</time>
      </trkpt>
      <trkpt lat="43.52518" lon="5.672">
        <ele>345.20001220703</ele>
        <time>2013-03-23T10:22:58.000Z</time>
      </trkpt>
      <trkpt lat="43.52516" lon="5.672">
        <ele>345.20001220703</ele>
        <time>2013-03-23T10:23:06.000Z</time>
      </trkpt>
      <trkpt lat="43.52517" lon="5.672">
        <ele>345.20001220703</ele>
        <time>2013-03-23T10:23:16.000Z</time>
      </trkpt>
      <trkpt lat="43.52517" lon="5.67204">
        <ele>345</ele>
        <time>2013-03-23T10:23:51.000Z</time>
      </trkpt>
      <trkpt lat="43.52517" lon="5.67205">
        <ele>345</ele>
        <time>2013-03-23T10:24:24.000Z</time>
      </trkpt>
      <trkpt lat="43.52515" lon="5.67203">
        <ele>345</ele>
        <time>2013-03-23T10:24:56.000Z</time>
      </trkpt>
      <trkpt lat="43.52515" lon="5.67199">
        <ele>345</ele>
        <time>2013-03-23T10:25:24.000Z</time>
      </trkpt>
      <trkpt lat="43.52512" lon="5.67199">
        <ele>344.79998779297</ele>
        <time>2013-03-23T10:25:38.000Z</time>
      </trkpt>
      <trkpt lat="43.52506" lon="5.67206">
        <ele>344</ele>
        <time>2013-03-23T10:25:41.000Z</time>
      </trkpt>
      <trkpt lat="43.52505" lon="5.67211">
        <ele>343.79998779297</ele>
        <time>2013-03-23T10:25:42.000Z</time>
      </trkpt>
      <trkpt lat="43.52503" lon="5.67217">
        <ele>343.39999389648</ele>
        <time>2013-03-23T10:25:43.000Z</time>
      </trkpt>
      <trkpt lat="43.52503" lon="5.67223">
        <ele>343.20001220703</ele>
        <time>2013-03-23T10:25:44.000Z</time>
      </trkpt>
      <trkpt lat="43.52502" lon="5.6723">
        <ele>342.79998779297</ele>
        <time>2013-03-23T10:25:45.000Z</time>
      </trkpt>
      <trkpt lat="43.52502" lon="5.67237">
        <ele>342.60000610352</ele>
        <time>2013-03-23T10:25:46.000Z</time>
      </trkpt>
      <trkpt lat="43.52493" lon="5.67317">
        <ele>340.39999389648</ele>
        <time>2013-03-23T10:25:57.000Z</time>
      </trkpt>
      <trkpt lat="43.52491" lon="5.67368">
        <ele>341</ele>
        <time>2013-03-23T10:26:06.000Z</time>
      </trkpt>
      <trkpt lat="43.52498" lon="5.67415">
        <ele>343.39999389648</ele>
        <time>2013-03-23T10:26:16.000Z</time>
      </trkpt>
      <trkpt lat="43.52502" lon="5.67464">
        <ele>346.60000610352</ele>
        <time>2013-03-23T10:26:27.000Z</time>
      </trkpt>
      <trkpt lat="43.52503" lon="5.67501">
        <ele>348.39999389648</ele>
        <time>2013-03-23T10:26:36.000Z</time>
      </trkpt>
      <trkpt lat="43.52494" lon="5.67544">
        <ele>349.60000610352</ele>
        <time>2013-03-23T10:26:46.000Z</time>
      </trkpt>
      <trkpt lat="43.52477" lon="5.67601">
        <ele>349.20001220703</ele>
        <time>2013-03-23T10:26:58.000Z</time>
      </trkpt>
      <trkpt lat="43.52479" lon="5.67637">
        <ele>348.79998779297</ele>
        <time>2013-03-23T10:27:06.000Z</time>
      </trkpt>
      <trkpt lat="43.525" lon="5.67675">
        <ele>349.60000610352</ele>
        <time>2013-03-23T10:27:14.000Z</time>
      </trkpt>
      <trkpt lat="43.52518" lon="5.67703">
        <ele>350.20001220703</ele>
        <time>2013-03-23T10:27:19.000Z</time>
      </trkpt>
      <trkpt lat="43.52527" lon="5.67721">
        <ele>350.79998779297</ele>
        <time>2013-03-23T10:27:23.000Z</time>
      </trkpt>
      <trkpt lat="43.52529" lon="5.67726">
        <ele>351</ele>
        <time>2013-03-23T10:27:24.000Z</time>
      </trkpt>
      <trkpt lat="43.52536" lon="5.67763">
        <ele>351.39999389648</ele>
        <time>2013-03-23T10:27:33.000Z</time>
      </trkpt>
      <trkpt lat="43.52543" lon="5.67814">
        <ele>351.39999389648</ele>
        <time>2013-03-23T10:27:44.000Z</time>
      </trkpt>
      <trkpt lat="43.52556" lon="5.6786">
        <ele>352.60000610352</ele>
        <time>2013-03-23T10:27:54.000Z</time>
      </trkpt>
      <trkpt lat="43.5257" lon="5.67908">
        <ele>354</ele>
        <time>2013-03-23T10:28:05.000Z</time>
      </trkpt>
      <trkpt lat="43.52577" lon="5.67957">
        <ele>353</ele>
        <time>2013-03-23T10:28:16.000Z</time>
      </trkpt>
      <trkpt lat="43.52598" lon="5.68006">
        <ele>353.79998779297</ele>
        <time>2013-03-23T10:28:28.000Z</time>
      </trkpt>
      <trkpt lat="43.52618" lon="5.68058">
        <ele>355.60000610352</ele>
        <time>2013-03-23T10:28:40.000Z</time>
      </trkpt>
      <trkpt lat="43.52627" lon="5.68105">
        <ele>356.60000610352</ele>
        <time>2013-03-23T10:28:51.000Z</time>
      </trkpt>
      <trkpt lat="43.52635" lon="5.68144">
        <ele>357.79998779297</ele>
        <time>2013-03-23T10:29:01.000Z</time>
      </trkpt>
      <trkpt lat="43.52636" lon="5.68183">
        <ele>358.20001220703</ele>
        <time>2013-03-23T10:29:11.000Z</time>
      </trkpt>
      <trkpt lat="43.52631" lon="5.68227">
        <ele>359.79998779297</ele>
        <time>2013-03-23T10:29:21.000Z</time>
      </trkpt>
      <trkpt lat="43.52634" lon="5.68274">
        <ele>361.60000610352</ele>
        <time>2013-03-23T10:29:31.000Z</time>
      </trkpt>
      <trkpt lat="43.52637" lon="5.68297">
        <ele>362.39999389648</ele>
        <time>2013-03-23T10:29:38.000Z</time>
      </trkpt>
      <trkpt lat="43.52641" lon="5.68338">
        <ele>363.39999389648</ele>
        <time>2013-03-23T10:29:47.000Z</time>
      </trkpt>
      <trkpt lat="43.52647" lon="5.68404">
        <ele>359.79998779297</ele>
        <time>2013-03-23T10:29:56.000Z</time>
      </trkpt>
      <trkpt lat="43.52643" lon="5.6845">
        <ele>358.79998779297</ele>
        <time>2013-03-23T10:30:01.000Z</time>
      </trkpt>
      <trkpt lat="43.52635" lon="5.68485">
        <ele>358</ele>
        <time>2013-03-23T10:30:05.000Z</time>
      </trkpt>
      <trkpt lat="43.52631" lon="5.68498">
        <ele>357.39999389648</ele>
        <time>2013-03-23T10:30:07.000Z</time>
      </trkpt>
      <trkpt lat="43.52626" lon="5.68512">
        <ele>356.39999389648</ele>
        <time>2013-03-23T10:30:09.000Z</time>
      </trkpt>
      <trkpt lat="43.52624" lon="5.68519">
        <ele>356</ele>
        <time>2013-03-23T10:30:10.000Z</time>
      </trkpt>
      <trkpt lat="43.52605" lon="5.68605">
        <ele>351.39999389648</ele>
        <time>2013-03-23T10:30:20.000Z</time>
      </trkpt>
      <trkpt lat="43.52608" lon="5.68651">
        <ele>349.60000610352</ele>
        <time>2013-03-23T10:30:25.000Z</time>
      </trkpt>
      <trkpt lat="43.5261" lon="5.68659">
        <ele>349.39999389648</ele>
        <time>2013-03-23T10:30:26.000Z</time>
      </trkpt>
      <trkpt lat="43.52643" lon="5.68736">
        <ele>348.39999389648</ele>
        <time>2013-03-23T10:30:36.000Z</time>
      </trkpt>
      <trkpt lat="43.52669" lon="5.68801">
        <ele>351.60000610352</ele>
        <time>2013-03-23T10:30:47.000Z</time>
      </trkpt>
      <trkpt lat="43.52671" lon="5.68806">
        <ele>352</ele>
        <time>2013-03-23T10:30:48.000Z</time>
      </trkpt>
      <trkpt lat="43.52672" lon="5.68811">
        <ele>352.20001220703</ele>
        <time>2013-03-23T10:30:49.000Z</time>
      </trkpt>
      <trkpt lat="43.52673" lon="5.68815">
        <ele>352.60000610352</ele>
        <time>2013-03-23T10:30:50.000Z</time>
      </trkpt>
      <trkpt lat="43.52674" lon="5.68819">
        <ele>352.79998779297</ele>
        <time>2013-03-23T10:30:51.000Z</time>
      </trkpt>
      <trkpt lat="43.52674" lon="5.68823">
        <ele>353</ele>
        <time>2013-03-23T10:30:52.000Z</time>
      </trkpt>
      <trkpt lat="43.52675" lon="5.68826">
        <ele>353.20001220703</ele>
        <time>2013-03-23T10:30:53.000Z</time>
      </trkpt>
      <trkpt lat="43.52675" lon="5.68829">
        <ele>353.20001220703</ele>
        <time>2013-03-23T10:30:54.000Z</time>
      </trkpt>
      <trkpt lat="43.52675" lon="5.6885">
        <ele>353.79998779297</ele>
        <time>2013-03-23T10:31:02.000Z</time>
      </trkpt>
      <trkpt lat="43.52675" lon="5.68853">
        <ele>354</ele>
        <time>2013-03-23T10:31:03.000Z</time>
      </trkpt>
      <trkpt lat="43.52675" lon="5.68856">
        <ele>354</ele>
        <time>2013-03-23T10:31:04.000Z</time>
      </trkpt>
      <trkpt lat="43.52675" lon="5.68859">
        <ele>354</ele>
        <time>2013-03-23T10:31:05.000Z</time>
      </trkpt>
      <trkpt lat="43.52675" lon="5.68862">
        <ele>354.20001220703</ele>
        <time>2013-03-23T10:31:06.000Z</time>
      </trkpt>
      <trkpt lat="43.52677" lon="5.68894">
        <ele>355</ele>
        <time>2013-03-23T10:31:15.000Z</time>
      </trkpt>
      <trkpt lat="43.52681" lon="5.68928">
        <ele>356</ele>
        <time>2013-03-23T10:31:24.000Z</time>
      </trkpt>
      <trkpt lat="43.52685" lon="5.68958">
        <ele>357.20001220703</ele>
        <time>2013-03-23T10:31:32.000Z</time>
      </trkpt>
      <trkpt lat="43.5269" lon="5.69004">
        <ele>358.60000610352</ele>
        <time>2013-03-23T10:31:43.000Z</time>
      </trkpt>
      <trkpt lat="43.52704" lon="5.69028">
        <ele>359.39999389648</ele>
        <time>2013-03-23T10:31:53.000Z</time>
      </trkpt>
      <trkpt lat="43.52716" lon="5.69041">
        <ele>360.20001220703</ele>
        <time>2013-03-23T10:32:02.000Z</time>
      </trkpt>
      <trkpt lat="43.52717" lon="5.69043">
        <ele>360.20001220703</ele>
        <time>2013-03-23T10:32:03.000Z</time>
      </trkpt>
      <trkpt lat="43.52718" lon="5.69045">
        <ele>360.20001220703</ele>
        <time>2013-03-23T10:32:04.000Z</time>
      </trkpt>
      <trkpt lat="43.52719" lon="5.69047">
        <ele>360.39999389648</ele>
        <time>2013-03-23T10:32:05.000Z</time>
      </trkpt>
      <trkpt lat="43.5272" lon="5.69048">
        <ele>360.39999389648</ele>
        <time>2013-03-23T10:32:06.000Z</time>
      </trkpt>
      <trkpt lat="43.52725" lon="5.69063">
        <ele>360.60000610352</ele>
        <time>2013-03-23T10:32:16.000Z</time>
      </trkpt>
      <trkpt lat="43.52729" lon="5.69074">
        <ele>360.79998779297</ele>
        <time>2013-03-23T10:32:23.000Z</time>
      </trkpt>
      <trkpt lat="43.52729" lon="5.69076">
        <ele>360.79998779297</ele>
        <time>2013-03-23T10:32:24.000Z</time>
      </trkpt>
      <trkpt lat="43.52729" lon="5.69077">
        <ele>360.79998779297</ele>
        <time>2013-03-23T10:32:25.000Z</time>
      </trkpt>
      <trkpt lat="43.5273" lon="5.69078">
        <ele>360.79998779297</ele>
        <time>2013-03-23T10:32:26.000Z</time>
      </trkpt>
      <trkpt lat="43.5273" lon="5.6908">
        <ele>360.79998779297</ele>
        <time>2013-03-23T10:32:27.000Z</time>
      </trkpt>
      <trkpt lat="43.52731" lon="5.69082">
        <ele>360.79998779297</ele>
        <time>2013-03-23T10:32:28.000Z</time>
      </trkpt>
      <trkpt lat="43.52732" lon="5.69085">
        <ele>360.79998779297</ele>
        <time>2013-03-23T10:32:29.000Z</time>
      </trkpt>
      <trkpt lat="43.52746" lon="5.69122">
        <ele>360.20001220703</ele>
        <time>2013-03-23T10:32:42.000Z</time>
      </trkpt>
      <trkpt lat="43.52763" lon="5.69168">
        <ele>361.60000610352</ele>
        <time>2013-03-23T10:32:56.000Z</time>
      </trkpt>
      <trkpt lat="43.52777" lon="5.69202">
        <ele>364.60000610352</ele>
        <time>2013-03-23T10:33:07.000Z</time>
      </trkpt>
      <trkpt lat="43.52788" lon="5.69227">
        <ele>366.39999389648</ele>
        <time>2013-03-23T10:33:15.000Z</time>
      </trkpt>
      <trkpt lat="43.5279" lon="5.6923">
        <ele>366.60000610352</ele>
        <time>2013-03-23T10:33:16.000Z</time>
      </trkpt>
      <trkpt lat="43.52796" lon="5.6924">
        <ele>367.60000610352</ele>
        <time>2013-03-23T10:33:20.000Z</time>
      </trkpt>
      <trkpt lat="43.52813" lon="5.69245">
        <ele>370.20001220703</ele>
        <time>2013-03-23T10:33:28.000Z</time>
      </trkpt>
      <trkpt lat="43.52836" lon="5.69243">
        <ele>373.79998779297</ele>
        <time>2013-03-23T10:33:38.000Z</time>
      </trkpt>
      <trkpt lat="43.52849" lon="5.69245">
        <ele>376.39999389648</ele>
        <time>2013-03-23T10:33:44.000Z</time>
      </trkpt>
      <trkpt lat="43.52868" lon="5.69251">
        <ele>380</ele>
        <time>2013-03-23T10:33:52.000Z</time>
      </trkpt>
      <trkpt lat="43.52879" lon="5.69271">
        <ele>383.20001220703</ele>
        <time>2013-03-23T10:34:02.000Z</time>
      </trkpt>
      <trkpt lat="43.52876" lon="5.69303">
        <ele>384</ele>
        <time>2013-03-23T10:34:14.000Z</time>
      </trkpt>
      <trkpt lat="43.52879" lon="5.6933">
        <ele>385.79998779297</ele>
        <time>2013-03-23T10:34:24.000Z</time>
      </trkpt>
      <trkpt lat="43.52882" lon="5.69363">
        <ele>387.39999389648</ele>
        <time>2013-03-23T10:34:36.000Z</time>
      </trkpt>
      <trkpt lat="43.52889" lon="5.69394">
        <ele>389.60000610352</ele>
        <time>2013-03-23T10:34:48.000Z</time>
      </trkpt>
      <trkpt lat="43.52897" lon="5.69422">
        <ele>391.39999389648</ele>
        <time>2013-03-23T10:35:01.000Z</time>
      </trkpt>
      <trkpt lat="43.52906" lon="5.69445">
        <ele>391</ele>
        <time>2013-03-23T10:35:14.000Z</time>
      </trkpt>
      <trkpt lat="43.52908" lon="5.69449">
        <ele>391</ele>
        <time>2013-03-23T10:35:16.000Z</time>
      </trkpt>
      <trkpt lat="43.52909" lon="5.6945">
        <ele>391.20001220703</ele>
        <time>2013-03-23T10:35:17.000Z</time>
      </trkpt>
      <trkpt lat="43.5291" lon="5.6945">
        <ele>391.20001220703</ele>
        <time>2013-03-23T10:35:18.000Z</time>
      </trkpt>
      <trkpt lat="43.52911" lon="5.69452">
        <ele>391.39999389648</ele>
        <time>2013-03-23T10:35:19.000Z</time>
      </trkpt>
      <trkpt lat="43.52912" lon="5.69453">
        <ele>391.39999389648</ele>
        <time>2013-03-23T10:35:20.000Z</time>
      </trkpt>
      <trkpt lat="43.52913" lon="5.69454">
        <ele>391.60000610352</ele>
        <time>2013-03-23T10:35:21.000Z</time>
      </trkpt>
      <trkpt lat="43.52925" lon="5.69466">
        <ele>392.60000610352</ele>
        <time>2013-03-23T10:35:32.000Z</time>
      </trkpt>
      <trkpt lat="43.52936" lon="5.69476">
        <ele>394</ele>
        <time>2013-03-23T10:35:42.000Z</time>
      </trkpt>
      <trkpt lat="43.52938" lon="5.69476">
        <ele>394.20001220703</ele>
        <time>2013-03-23T10:35:43.000Z</time>
      </trkpt>
      <trkpt lat="43.52939" lon="5.69477">
        <ele>394.39999389648</ele>
        <time>2013-03-23T10:35:44.000Z</time>
      </trkpt>
      <trkpt lat="43.52941" lon="5.69478">
        <ele>394.60000610352</ele>
        <time>2013-03-23T10:35:45.000Z</time>
      </trkpt>
      <trkpt lat="43.52942" lon="5.69478">
        <ele>395</ele>
        <time>2013-03-23T10:35:46.000Z</time>
      </trkpt>
      <trkpt lat="43.52943" lon="5.69479">
        <ele>395.20001220703</ele>
        <time>2013-03-23T10:35:47.000Z</time>
      </trkpt>
      <trkpt lat="43.52945" lon="5.6948">
        <ele>395.39999389648</ele>
        <time>2013-03-23T10:35:48.000Z</time>
      </trkpt>
      <trkpt lat="43.52957" lon="5.6948">
        <ele>398</ele>
        <time>2013-03-23T10:35:56.000Z</time>
      </trkpt>
      <trkpt lat="43.52961" lon="5.69479">
        <ele>399</ele>
        <time>2013-03-23T10:35:59.000Z</time>
      </trkpt>
      <trkpt lat="43.52975" lon="5.69473">
        <ele>402.60000610352</ele>
        <time>2013-03-23T10:36:09.000Z</time>
      </trkpt>
      <trkpt lat="43.52992" lon="5.69462">
        <ele>407</ele>
        <time>2013-03-23T10:36:21.000Z</time>
      </trkpt>
      <trkpt lat="43.52993" lon="5.69462">
        <ele>407.20001220703</ele>
        <time>2013-03-23T10:36:22.000Z</time>
      </trkpt>
      <trkpt lat="43.52995" lon="5.69461">
        <ele>407.60000610352</ele>
        <time>2013-03-23T10:36:23.000Z</time>
      </trkpt>
      <trkpt lat="43.52996" lon="5.69461">
        <ele>407.79998779297</ele>
        <time>2013-03-23T10:36:24.000Z</time>
      </trkpt>
      <trkpt lat="43.52997" lon="5.6946">
        <ele>408.20001220703</ele>
        <time>2013-03-23T10:36:25.000Z</time>
      </trkpt>
      <trkpt lat="43.52998" lon="5.6946">
        <ele>408.39999389648</ele>
        <time>2013-03-23T10:36:26.000Z</time>
      </trkpt>
      <trkpt lat="43.53" lon="5.69459">
        <ele>408.79998779297</ele>
        <time>2013-03-23T10:36:27.000Z</time>
      </trkpt>
      <trkpt lat="43.53001" lon="5.69458">
        <ele>409.20001220703</ele>
        <time>2013-03-23T10:36:28.000Z</time>
      </trkpt>
      <trkpt lat="43.53003" lon="5.69457">
        <ele>409.60000610352</ele>
        <time>2013-03-23T10:36:29.000Z</time>
      </trkpt>
      <trkpt lat="43.5302" lon="5.69448">
        <ele>413.60000610352</ele>
        <time>2013-03-23T10:36:41.000Z</time>
      </trkpt>
      <trkpt lat="43.53034" lon="5.69441">
        <ele>416.60000610352</ele>
        <time>2013-03-23T10:36:51.000Z</time>
      </trkpt>
      <trkpt lat="43.53049" lon="5.69446">
        <ele>419.60000610352</ele>
        <time>2013-03-23T10:37:02.000Z</time>
      </trkpt>
      <trkpt lat="43.53052" lon="5.6946">
        <ele>419.79998779297</ele>
        <time>2013-03-23T10:37:09.000Z</time>
      </trkpt>
      <trkpt lat="43.53052" lon="5.69486">
        <ele>419.20001220703</ele>
        <time>2013-03-23T10:37:22.000Z</time>
      </trkpt>
      <trkpt lat="43.53053" lon="5.69506">
        <ele>419.39999389648</ele>
        <time>2013-03-23T10:37:32.000Z</time>
      </trkpt>
      <trkpt lat="43.53056" lon="5.69535">
        <ele>420.79998779297</ele>
        <time>2013-03-23T10:37:44.000Z</time>
      </trkpt>
      <trkpt lat="43.53062" lon="5.69561">
        <ele>422.39999389648</ele>
        <time>2013-03-23T10:37:54.000Z</time>
      </trkpt>
      <trkpt lat="43.53068" lon="5.6959">
        <ele>423.79998779297</ele>
        <time>2013-03-23T10:38:06.000Z</time>
      </trkpt>
      <trkpt lat="43.53073" lon="5.69617">
        <ele>424.20001220703</ele>
        <time>2013-03-23T10:38:16.000Z</time>
      </trkpt>
      <trkpt lat="43.53079" lon="5.69647">
        <ele>424.39999389648</ele>
        <time>2013-03-23T10:38:26.000Z</time>
      </trkpt>
      <trkpt lat="43.53084" lon="5.69687">
        <ele>423.60000610352</ele>
        <time>2013-03-23T10:38:39.000Z</time>
      </trkpt>
      <trkpt lat="43.53094" lon="5.69716">
        <ele>424.20001220703</ele>
        <time>2013-03-23T10:38:50.000Z</time>
      </trkpt>
      <trkpt lat="43.53096" lon="5.69718">
        <ele>424.39999389648</ele>
        <time>2013-03-23T10:38:51.000Z</time>
      </trkpt>
      <trkpt lat="43.53117" lon="5.69732">
        <ele>428.39999389648</ele>
        <time>2013-03-23T10:39:03.000Z</time>
      </trkpt>
      <trkpt lat="43.53127" lon="5.69739">
        <ele>430.39999389648</ele>
        <time>2013-03-23T10:39:10.000Z</time>
      </trkpt>
      <trkpt lat="43.53128" lon="5.69739">
        <ele>430.79998779297</ele>
        <time>2013-03-23T10:39:11.000Z</time>
      </trkpt>
      <trkpt lat="43.5313" lon="5.69739">
        <ele>431.20001220703</ele>
        <time>2013-03-23T10:39:12.000Z</time>
      </trkpt>
      <trkpt lat="43.53132" lon="5.69739">
        <ele>431.60000610352</ele>
        <time>2013-03-23T10:39:13.000Z</time>
      </trkpt>
      <trkpt lat="43.53133" lon="5.69739">
        <ele>432</ele>
        <time>2013-03-23T10:39:14.000Z</time>
      </trkpt>
      <trkpt lat="43.53135" lon="5.6974">
        <ele>432.20001220703</ele>
        <time>2013-03-23T10:39:15.000Z</time>
      </trkpt>
      <trkpt lat="43.53137" lon="5.6974">
        <ele>432.79998779297</ele>
        <time>2013-03-23T10:39:16.000Z</time>
      </trkpt>
      <trkpt lat="43.53139" lon="5.6974">
        <ele>433.20001220703</ele>
        <time>2013-03-23T10:39:17.000Z</time>
      </trkpt>
      <trkpt lat="43.53141" lon="5.69741">
        <ele>433.60000610352</ele>
        <time>2013-03-23T10:39:18.000Z</time>
      </trkpt>
      <trkpt lat="43.53163" lon="5.69752">
        <ele>438</ele>
        <time>2013-03-23T10:39:29.000Z</time>
      </trkpt>
      <trkpt lat="43.53167" lon="5.69767">
        <ele>439.79998779297</ele>
        <time>2013-03-23T10:39:35.000Z</time>
      </trkpt>
      <trkpt lat="43.53156" lon="5.69783">
        <ele>437.20001220703</ele>
        <time>2013-03-23T10:39:43.000Z</time>
      </trkpt>
      <trkpt lat="43.53147" lon="5.69798">
        <ele>435.20001220703</ele>
        <time>2013-03-23T10:39:49.000Z</time>
      </trkpt>
      <trkpt lat="43.53142" lon="5.69838">
        <ele>434.60000610352</ele>
        <time>2013-03-23T10:40:02.000Z</time>
      </trkpt>
      <trkpt lat="43.53152" lon="5.69866">
        <ele>435.79998779297</ele>
        <time>2013-03-23T10:40:12.000Z</time>
      </trkpt>
      <trkpt lat="43.53174" lon="5.69896">
        <ele>440.60000610352</ele>
        <time>2013-03-23T10:40:25.000Z</time>
      </trkpt>
      <trkpt lat="43.53203" lon="5.6992">
        <ele>448.20001220703</ele>
        <time>2013-03-23T10:40:39.000Z</time>
      </trkpt>
      <trkpt lat="43.53212" lon="5.69923">
        <ele>451</ele>
        <time>2013-03-23T10:40:43.000Z</time>
      </trkpt>
      <trkpt lat="43.53221" lon="5.69941">
        <ele>453.60000610352</ele>
        <time>2013-03-23T10:40:51.000Z</time>
      </trkpt>
      <trkpt lat="43.53215" lon="5.69975">
        <ele>451.20001220703</ele>
        <time>2013-03-23T10:41:02.000Z</time>
      </trkpt>
      <trkpt lat="43.53197" lon="5.70004">
        <ele>445.60000610352</ele>
        <time>2013-03-23T10:41:14.000Z</time>
      </trkpt>
      <trkpt lat="43.53198" lon="5.70041">
        <ele>448.79998779297</ele>
        <time>2013-03-23T10:41:25.000Z</time>
      </trkpt>
      <trkpt lat="43.532" lon="5.70074">
        <ele>452</ele>
        <time>2013-03-23T10:41:36.000Z</time>
      </trkpt>
      <trkpt lat="43.53202" lon="5.70106">
        <ele>453.79998779297</ele>
        <time>2013-03-23T10:41:47.000Z</time>
      </trkpt>
      <trkpt lat="43.53207" lon="5.70134">
        <ele>455.79998779297</ele>
        <time>2013-03-23T10:41:57.000Z</time>
      </trkpt>
      <trkpt lat="43.53213" lon="5.70165">
        <ele>458.20001220703</ele>
        <time>2013-03-23T10:42:07.000Z</time>
      </trkpt>
      <trkpt lat="43.53221" lon="5.70204">
        <ele>458.39999389648</ele>
        <time>2013-03-23T10:42:19.000Z</time>
      </trkpt>
      <trkpt lat="43.53236" lon="5.70239">
        <ele>460.79998779297</ele>
        <time>2013-03-23T10:42:31.000Z</time>
      </trkpt>
      <trkpt lat="43.53243" lon="5.70243">
        <ele>462.20001220703</ele>
        <time>2013-03-23T10:42:34.000Z</time>
      </trkpt>
      <trkpt lat="43.53264" lon="5.70266">
        <ele>465.79998779297</ele>
        <time>2013-03-23T10:42:46.000Z</time>
      </trkpt>
      <trkpt lat="43.53263" lon="5.70304">
        <ele>464.79998779297</ele>
        <time>2013-03-23T10:42:57.000Z</time>
      </trkpt>
      <trkpt lat="43.53269" lon="5.70348">
        <ele>465.60000610352</ele>
        <time>2013-03-23T10:43:10.000Z</time>
      </trkpt>
      <trkpt lat="43.53278" lon="5.70394">
        <ele>467.60000610352</ele>
        <time>2013-03-23T10:43:23.000Z</time>
      </trkpt>
      <trkpt lat="43.53292" lon="5.70446">
        <ele>469.79998779297</ele>
        <time>2013-03-23T10:43:37.000Z</time>
      </trkpt>
      <trkpt lat="43.53312" lon="5.70499">
        <ele>472</ele>
        <time>2013-03-23T10:43:50.000Z</time>
      </trkpt>
      <trkpt lat="43.53345" lon="5.70574">
        <ele>474.20001220703</ele>
        <time>2013-03-23T10:44:07.000Z</time>
      </trkpt>
      <trkpt lat="43.53372" lon="5.70631">
        <ele>474.60000610352</ele>
        <time>2013-03-23T10:44:20.000Z</time>
      </trkpt>
      <trkpt lat="43.53398" lon="5.70693">
        <ele>475.39999389648</ele>
        <time>2013-03-23T10:44:33.000Z</time>
      </trkpt>
      <trkpt lat="43.53426" lon="5.70766">
        <ele>474.79998779297</ele>
        <time>2013-03-23T10:44:47.000Z</time>
      </trkpt>
      <trkpt lat="43.53451" lon="5.70837">
        <ele>474.20001220703</ele>
        <time>2013-03-23T10:45:00.000Z</time>
      </trkpt>
      <trkpt lat="43.53453" lon="5.70843">
        <ele>474.20001220703</ele>
        <time>2013-03-23T10:45:01.000Z</time>
      </trkpt>
      <trkpt lat="43.53479" lon="5.70924">
        <ele>474.79998779297</ele>
        <time>2013-03-23T10:45:15.000Z</time>
      </trkpt>
      <trkpt lat="43.53508" lon="5.71004">
        <ele>476.39999389648</ele>
        <time>2013-03-23T10:45:29.000Z</time>
      </trkpt>
      <trkpt lat="43.53538" lon="5.71087">
        <ele>477.60000610352</ele>
        <time>2013-03-23T10:45:43.000Z</time>
      </trkpt>
      <trkpt lat="43.5357" lon="5.71163">
        <ele>480</ele>
        <time>2013-03-23T10:45:56.000Z</time>
      </trkpt>
      <trkpt lat="43.5362" lon="5.71237">
        <ele>479.39999389648</ele>
        <time>2013-03-23T10:46:12.000Z</time>
      </trkpt>
      <trkpt lat="43.53634" lon="5.7126">
        <ele>479.60000610352</ele>
        <time>2013-03-23T10:46:17.000Z</time>
      </trkpt>
      <trkpt lat="43.53637" lon="5.71264">
        <ele>480</ele>
        <time>2013-03-23T10:46:18.000Z</time>
      </trkpt>
      <trkpt lat="43.53678" lon="5.71332">
        <ele>482.60000610352</ele>
        <time>2013-03-23T10:46:33.000Z</time>
      </trkpt>
      <trkpt lat="43.5372" lon="5.71402">
        <ele>484.60000610352</ele>
        <time>2013-03-23T10:46:48.000Z</time>
      </trkpt>
      <trkpt lat="43.53755" lon="5.71448">
        <ele>487.20001220703</ele>
        <time>2013-03-23T10:47:01.000Z</time>
      </trkpt>
      <trkpt lat="43.53756" lon="5.71473">
        <ele>487.79998779297</ele>
        <time>2013-03-23T10:47:09.000Z</time>
      </trkpt>
      <trkpt lat="43.5374" lon="5.71508">
        <ele>488.20001220703</ele>
        <time>2013-03-23T10:47:19.000Z</time>
      </trkpt>
      <trkpt lat="43.53722" lon="5.71552">
        <ele>490.79998779297</ele>
        <time>2013-03-23T10:47:31.000Z</time>
      </trkpt>
      <trkpt lat="43.53725" lon="5.71565">
        <ele>492.20001220703</ele>
        <time>2013-03-23T10:47:35.000Z</time>
      </trkpt>
      <trkpt lat="43.53729" lon="5.7157">
        <ele>493</ele>
        <time>2013-03-23T10:47:37.000Z</time>
      </trkpt>
      <trkpt lat="43.53732" lon="5.71572">
        <ele>493.39999389648</ele>
        <time>2013-03-23T10:47:38.000Z</time>
      </trkpt>
      <trkpt lat="43.53735" lon="5.71572">
        <ele>493.60000610352</ele>
        <time>2013-03-23T10:47:39.000Z</time>
      </trkpt>
      <trkpt lat="43.53737" lon="5.71573">
        <ele>494</ele>
        <time>2013-03-23T10:47:40.000Z</time>
      </trkpt>
      <trkpt lat="43.5374" lon="5.71573">
        <ele>494.20001220703</ele>
        <time>2013-03-23T10:47:41.000Z</time>
      </trkpt>
      <trkpt lat="43.53743" lon="5.71573">
        <ele>494.39999389648</ele>
        <time>2013-03-23T10:47:42.000Z</time>
      </trkpt>
      <trkpt lat="43.53746" lon="5.71573">
        <ele>494.60000610352</ele>
        <time>2013-03-23T10:47:43.000Z</time>
      </trkpt>
      <trkpt lat="43.53777" lon="5.71566">
        <ele>496.20001220703</ele>
        <time>2013-03-23T10:47:54.000Z</time>
      </trkpt>
      <trkpt lat="43.53819" lon="5.71559">
        <ele>499</ele>
        <time>2013-03-23T10:48:09.000Z</time>
      </trkpt>
      <trkpt lat="43.5386" lon="5.71553">
        <ele>501.60000610352</ele>
        <time>2013-03-23T10:48:23.000Z</time>
      </trkpt>
      <trkpt lat="43.53893" lon="5.7155">
        <ele>504</ele>
        <time>2013-03-23T10:48:35.000Z</time>
      </trkpt>
      <trkpt lat="43.53924" lon="5.71545">
        <ele>505.60000610352</ele>
        <time>2013-03-23T10:48:46.000Z</time>
      </trkpt>
      <trkpt lat="43.5393" lon="5.71544">
        <ele>505.60000610352</ele>
        <time>2013-03-23T10:48:48.000Z</time>
      </trkpt>
      <trkpt lat="43.53935" lon="5.71542">
        <ele>505.79998779297</ele>
        <time>2013-03-23T10:48:50.000Z</time>
      </trkpt>
      <trkpt lat="43.53963" lon="5.71539">
        <ele>506.39999389648</ele>
        <time>2013-03-23T10:49:00.000Z</time>
      </trkpt>
      <trkpt lat="43.53972" lon="5.71539">
        <ele>506.60000610352</ele>
        <time>2013-03-23T10:49:05.000Z</time>
      </trkpt>
      <trkpt lat="43.53974" lon="5.71538">
        <ele>506.60000610352</ele>
        <time>2013-03-23T10:49:06.000Z</time>
      </trkpt>
      <trkpt lat="43.53976" lon="5.71537">
        <ele>506.60000610352</ele>
        <time>2013-03-23T10:49:07.000Z</time>
      </trkpt>
      <trkpt lat="43.53978" lon="5.71535">
        <ele>506.79998779297</ele>
        <time>2013-03-23T10:49:08.000Z</time>
      </trkpt>
      <trkpt lat="43.5398" lon="5.71534">
        <ele>506.79998779297</ele>
        <time>2013-03-23T10:49:09.000Z</time>
      </trkpt>
      <trkpt lat="43.5398" lon="5.71534">
        <ele>506.79998779297</ele>
        <time>2013-03-23T10:49:17.000Z</time>
      </trkpt>
      <trkpt lat="43.5398" lon="5.71533">
        <ele>507</ele>
        <time>2013-03-23T10:49:35.000Z</time>
      </trkpt>
      <trkpt lat="43.53983" lon="5.71532">
        <ele>507</ele>
        <time>2013-03-23T10:49:50.000Z</time>
      </trkpt>
      <trkpt lat="43.54" lon="5.71522">
        <ele>508.39999389648</ele>
        <time>2013-03-23T10:49:58.000Z</time>
      </trkpt>
      <trkpt lat="43.54009" lon="5.71514">
        <ele>507.79998779297</ele>
        <time>2013-03-23T10:50:01.000Z</time>
      </trkpt>
      <trkpt lat="43.54013" lon="5.71511">
        <ele>507.60000610352</ele>
        <time>2013-03-23T10:50:02.000Z</time>
      </trkpt>
      <trkpt lat="43.54046" lon="5.71474">
        <ele>506.79998779297</ele>
        <time>2013-03-23T10:50:14.000Z</time>
      </trkpt>
      <trkpt lat="43.54075" lon="5.71443">
        <ele>508</ele>
        <time>2013-03-23T10:50:24.000Z</time>
      </trkpt>
      <trkpt lat="43.54078" lon="5.71438">
        <ele>508.39999389648</ele>
        <time>2013-03-23T10:50:25.000Z</time>
      </trkpt>
      <trkpt lat="43.54082" lon="5.71434">
        <ele>508.79998779297</ele>
        <time>2013-03-23T10:50:26.000Z</time>
      </trkpt>
      <trkpt lat="43.54125" lon="5.71387">
        <ele>505.60000610352</ele>
        <time>2013-03-23T10:50:36.000Z</time>
      </trkpt>
      <trkpt lat="43.54149" lon="5.71358">
        <ele>503</ele>
        <time>2013-03-23T10:50:41.000Z</time>
      </trkpt>
      <trkpt lat="43.54172" lon="5.71319">
        <ele>501</ele>
        <time>2013-03-23T10:50:46.000Z</time>
      </trkpt>
      <trkpt lat="43.54192" lon="5.71288">
        <ele>499.79998779297</ele>
        <time>2013-03-23T10:50:52.000Z</time>
      </trkpt>
      <trkpt lat="43.54201" lon="5.71272">
        <ele>499</ele>
        <time>2013-03-23T10:50:56.000Z</time>
      </trkpt>
      <trkpt lat="43.54204" lon="5.71267">
        <ele>498.79998779297</ele>
        <time>2013-03-23T10:50:57.000Z</time>
      </trkpt>
      <trkpt lat="43.54207" lon="5.7126">
        <ele>498.60000610352</ele>
        <time>2013-03-23T10:50:58.000Z</time>
      </trkpt>
      <trkpt lat="43.54211" lon="5.71253">
        <ele>498.20001220703</ele>
        <time>2013-03-23T10:50:59.000Z</time>
      </trkpt>
      <trkpt lat="43.54214" lon="5.71247">
        <ele>498</ele>
        <time>2013-03-23T10:51:00.000Z</time>
      </trkpt>
      <trkpt lat="43.5424" lon="5.71205">
        <ele>494.20001220703</ele>
        <time>2013-03-23T10:51:06.000Z</time>
      </trkpt>
      <trkpt lat="43.54245" lon="5.71198">
        <ele>493.39999389648</ele>
        <time>2013-03-23T10:51:07.000Z</time>
      </trkpt>
      <trkpt lat="43.54276" lon="5.71147">
        <ele>491.20001220703</ele>
        <time>2013-03-23T10:51:13.000Z</time>
      </trkpt>
      <trkpt lat="43.54308" lon="5.71092">
        <ele>489.60000610352</ele>
        <time>2013-03-23T10:51:19.000Z</time>
      </trkpt>
      <trkpt lat="43.54361" lon="5.71013">
        <ele>489.20001220703</ele>
        <time>2013-03-23T10:51:29.000Z</time>
      </trkpt>
      <trkpt lat="43.54406" lon="5.70946">
        <ele>489</ele>
        <time>2013-03-23T10:51:39.000Z</time>
      </trkpt>
      <trkpt lat="43.54458" lon="5.70861">
        <ele>487.79998779297</ele>
        <time>2013-03-23T10:51:51.000Z</time>
      </trkpt>
      <trkpt lat="43.5448" lon="5.70825">
        <ele>488.39999389648</ele>
        <time>2013-03-23T10:51:56.000Z</time>
      </trkpt>
      <trkpt lat="43.54498" lon="5.70798">
        <ele>488.79998779297</ele>
        <time>2013-03-23T10:52:00.000Z</time>
      </trkpt>
      <trkpt lat="43.54502" lon="5.70791">
        <ele>489</ele>
        <time>2013-03-23T10:52:01.000Z</time>
      </trkpt>
      <trkpt lat="43.54526" lon="5.70754">
        <ele>490.60000610352</ele>
        <time>2013-03-23T10:52:07.000Z</time>
      </trkpt>
      <trkpt lat="43.54537" lon="5.70737">
        <ele>491.79998779297</ele>
        <time>2013-03-23T10:52:10.000Z</time>
      </trkpt>
      <trkpt lat="43.5454" lon="5.70732">
        <ele>492.20001220703</ele>
        <time>2013-03-23T10:52:11.000Z</time>
      </trkpt>
      <trkpt lat="43.54558" lon="5.70706">
        <ele>493.79998779297</ele>
        <time>2013-03-23T10:52:16.000Z</time>
      </trkpt>
      <trkpt lat="43.54564" lon="5.70696">
        <ele>494.39999389648</ele>
        <time>2013-03-23T10:52:18.000Z</time>
      </trkpt>
      <trkpt lat="43.54574" lon="5.70682">
        <ele>495.20001220703</ele>
        <time>2013-03-23T10:52:21.000Z</time>
      </trkpt>
      <trkpt lat="43.5458" lon="5.70672">
        <ele>495.60000610352</ele>
        <time>2013-03-23T10:52:23.000Z</time>
      </trkpt>
      <trkpt lat="43.5461" lon="5.70623">
        <ele>497</ele>
        <time>2013-03-23T10:52:33.000Z</time>
      </trkpt>
      <trkpt lat="43.54613" lon="5.70619">
        <ele>497</ele>
        <time>2013-03-23T10:52:34.000Z</time>
      </trkpt>
      <trkpt lat="43.54616" lon="5.70614">
        <ele>497.20001220703</ele>
        <time>2013-03-23T10:52:35.000Z</time>
      </trkpt>
      <trkpt lat="43.54619" lon="5.7061">
        <ele>497.20001220703</ele>
        <time>2013-03-23T10:52:36.000Z</time>
      </trkpt>
      <trkpt lat="43.54621" lon="5.70605">
        <ele>497.39999389648</ele>
        <time>2013-03-23T10:52:37.000Z</time>
      </trkpt>
      <trkpt lat="43.54624" lon="5.706">
        <ele>497.60000610352</ele>
        <time>2013-03-23T10:52:38.000Z</time>
      </trkpt>
      <trkpt lat="43.54627" lon="5.70595">
        <ele>497.79998779297</ele>
        <time>2013-03-23T10:52:39.000Z</time>
      </trkpt>
      <trkpt lat="43.54629" lon="5.7059">
        <ele>497.79998779297</ele>
        <time>2013-03-23T10:52:40.000Z</time>
      </trkpt>
      <trkpt lat="43.54634" lon="5.7058">
        <ele>498.20001220703</ele>
        <time>2013-03-23T10:52:42.000Z</time>
      </trkpt>
      <trkpt lat="43.54648" lon="5.70561">
        <ele>499.39999389648</ele>
        <time>2013-03-23T10:52:47.000Z</time>
      </trkpt>
      <trkpt lat="43.54652" lon="5.70559">
        <ele>499.60000610352</ele>
        <time>2013-03-23T10:52:48.000Z</time>
      </trkpt>
      <trkpt lat="43.54682" lon="5.7056">
        <ele>500</ele>
        <time>2013-03-23T10:52:56.000Z</time>
      </trkpt>
      <trkpt lat="43.54686" lon="5.70562">
        <ele>499.79998779297</ele>
        <time>2013-03-23T10:52:57.000Z</time>
      </trkpt>
      <trkpt lat="43.54703" lon="5.70569">
        <ele>499.39999389648</ele>
        <time>2013-03-23T10:53:01.000Z</time>
      </trkpt>
      <trkpt lat="43.54716" lon="5.70572">
        <ele>499</ele>
        <time>2013-03-23T10:53:04.000Z</time>
      </trkpt>
      <trkpt lat="43.5478" lon="5.70586">
        <ele>497.79998779297</ele>
        <time>2013-03-23T10:53:17.000Z</time>
      </trkpt>
      <trkpt lat="43.54854" lon="5.70593">
        <ele>497.60000610352</ele>
        <time>2013-03-23T10:53:29.000Z</time>
      </trkpt>
      <trkpt lat="43.54918" lon="5.70594">
        <ele>497.60000610352</ele>
        <time>2013-03-23T10:53:39.000Z</time>
      </trkpt>
      <trkpt lat="43.5495" lon="5.70597">
        <ele>497.79998779297</ele>
        <time>2013-03-23T10:53:45.000Z</time>
      </trkpt>
      <trkpt lat="43.54989" lon="5.70602">
        <ele>498</ele>
        <time>2013-03-23T10:53:52.000Z</time>
      </trkpt>
      <trkpt lat="43.55055" lon="5.70611">
        <ele>497.79998779297</ele>
        <time>2013-03-23T10:54:04.000Z</time>
      </trkpt>
      <trkpt lat="43.55113" lon="5.70626">
        <ele>498.39999389648</ele>
        <time>2013-03-23T10:54:14.000Z</time>
      </trkpt>
      <trkpt lat="43.55178" lon="5.70644">
        <ele>499.60000610352</ele>
        <time>2013-03-23T10:54:25.000Z</time>
      </trkpt>
      <trkpt lat="43.55222" lon="5.70653">
        <ele>500.39999389648</ele>
        <time>2013-03-23T10:54:33.000Z</time>
      </trkpt>
      <trkpt lat="43.55293" lon="5.70663">
        <ele>500.79998779297</ele>
        <time>2013-03-23T10:54:46.000Z</time>
      </trkpt>
      <trkpt lat="43.55365" lon="5.70666">
        <ele>500.60000610352</ele>
        <time>2013-03-23T10:54:59.000Z</time>
      </trkpt>
      <trkpt lat="43.55433" lon="5.70646">
        <ele>501.79998779297</ele>
        <time>2013-03-23T10:55:11.000Z</time>
      </trkpt>
      <trkpt lat="43.55489" lon="5.7062">
        <ele>502.79998779297</ele>
        <time>2013-03-23T10:55:21.000Z</time>
      </trkpt>
      <trkpt lat="43.55548" lon="5.706">
        <ele>503</ele>
        <time>2013-03-23T10:55:33.000Z</time>
      </trkpt>
      <trkpt lat="43.5557" lon="5.70592">
        <ele>503.39999389648</ele>
        <time>2013-03-23T10:55:38.000Z</time>
      </trkpt>
      <trkpt lat="43.55586" lon="5.70583">
        <ele>503.79998779297</ele>
        <time>2013-03-23T10:55:42.000Z</time>
      </trkpt>
      <trkpt lat="43.55615" lon="5.70568">
        <ele>502.60000610352</ele>
        <time>2013-03-23T10:55:51.000Z</time>
      </trkpt>
      <trkpt lat="43.55616" lon="5.70569">
        <ele>502.39999389648</ele>
        <time>2013-03-23T10:55:52.000Z</time>
      </trkpt>
      <trkpt lat="43.55617" lon="5.7057">
        <ele>502.20001220703</ele>
        <time>2013-03-23T10:55:53.000Z</time>
      </trkpt>
      <trkpt lat="43.55619" lon="5.70572">
        <ele>502.20001220703</ele>
        <time>2013-03-23T10:55:54.000Z</time>
      </trkpt>
      <trkpt lat="43.5562" lon="5.70572">
        <ele>502</ele>
        <time>2013-03-23T10:55:55.000Z</time>
      </trkpt>
      <trkpt lat="43.55621" lon="5.70573">
        <ele>502</ele>
        <time>2013-03-23T10:56:05.000Z</time>
      </trkpt>
      <trkpt lat="43.55621" lon="5.70574">
        <ele>502</ele>
        <time>2013-03-23T10:56:20.000Z</time>
      </trkpt>
      <trkpt lat="43.5562" lon="5.70575">
        <ele>502</ele>
        <time>2013-03-23T10:56:39.000Z</time>
      </trkpt>
      <trkpt lat="43.55621" lon="5.70573">
        <ele>502</ele>
        <time>2013-03-23T10:56:56.000Z</time>
      </trkpt>
      <trkpt lat="43.5562" lon="5.70575">
        <ele>502</ele>
        <time>2013-03-23T10:57:13.000Z</time>
      </trkpt>
      <trkpt lat="43.55622" lon="5.70573">
        <ele>502</ele>
        <time>2013-03-23T10:57:36.000Z</time>
      </trkpt>
      <trkpt lat="43.55623" lon="5.70574">
        <ele>501.79998779297</ele>
        <time>2013-03-23T10:58:03.000Z</time>
      </trkpt>
      <trkpt lat="43.55622" lon="5.70573">
        <ele>501.79998779297</ele>
        <time>2013-03-23T10:58:23.000Z</time>
      </trkpt>
      <trkpt lat="43.55621" lon="5.70573">
        <ele>502</ele>
        <time>2013-03-23T10:58:49.000Z</time>
      </trkpt>
      <trkpt lat="43.55623" lon="5.70574">
        <ele>501.79998779297</ele>
        <time>2013-03-23T10:59:16.000Z</time>
      </trkpt>
      <trkpt lat="43.55621" lon="5.70574">
        <ele>502</ele>
        <time>2013-03-23T10:59:38.000Z</time>
      </trkpt>
      <trkpt lat="43.55621" lon="5.70573">
        <ele>502</ele>
        <time>2013-03-23T11:00:01.000Z</time>
      </trkpt>
      <trkpt lat="43.55623" lon="5.70576">
        <ele>501.79998779297</ele>
        <time>2013-03-23T11:00:07.000Z</time>
      </trkpt>
      <trkpt lat="43.55624" lon="5.70577">
        <ele>501.60000610352</ele>
        <time>2013-03-23T11:00:08.000Z</time>
      </trkpt>
      <trkpt lat="43.55624" lon="5.70579">
        <ele>501.60000610352</ele>
        <time>2013-03-23T11:00:09.000Z</time>
      </trkpt>
      <trkpt lat="43.55625" lon="5.70582">
        <ele>501.39999389648</ele>
        <time>2013-03-23T11:00:10.000Z</time>
      </trkpt>
      <trkpt lat="43.55625" lon="5.70585">
        <ele>501.39999389648</ele>
        <time>2013-03-23T11:00:11.000Z</time>
      </trkpt>
      <trkpt lat="43.55625" lon="5.70589">
        <ele>501.20001220703</ele>
        <time>2013-03-23T11:00:12.000Z</time>
      </trkpt>
      <trkpt lat="43.55625" lon="5.70593">
        <ele>501</ele>
        <time>2013-03-23T11:00:13.000Z</time>
      </trkpt>
      <trkpt lat="43.55625" lon="5.70626">
        <ele>500.20001220703</ele>
        <time>2013-03-23T11:00:19.000Z</time>
      </trkpt>
      <trkpt lat="43.55625" lon="5.70632">
        <ele>500</ele>
        <time>2013-03-23T11:00:20.000Z</time>
      </trkpt>
      <trkpt lat="43.55626" lon="5.70666">
        <ele>499</ele>
        <time>2013-03-23T11:00:25.000Z</time>
      </trkpt>
      <trkpt lat="43.55625" lon="5.70738">
        <ele>498</ele>
        <time>2013-03-23T11:00:35.000Z</time>
      </trkpt>
      <trkpt lat="43.55618" lon="5.70785">
        <ele>497.39999389648</ele>
        <time>2013-03-23T11:00:45.000Z</time>
      </trkpt>
      <trkpt lat="43.55619" lon="5.70787">
        <ele>497.60000610352</ele>
        <time>2013-03-23T11:00:46.000Z</time>
      </trkpt>
      <trkpt lat="43.55621" lon="5.70788">
        <ele>497.60000610352</ele>
        <time>2013-03-23T11:00:47.000Z</time>
      </trkpt>
      <trkpt lat="43.55622" lon="5.70786">
        <ele>497.79998779297</ele>
        <time>2013-03-23T11:00:48.000Z</time>
      </trkpt>
      <trkpt lat="43.55623" lon="5.70783">
        <ele>497.79998779297</ele>
        <time>2013-03-23T11:00:49.000Z</time>
      </trkpt>
      <trkpt lat="43.55624" lon="5.7078">
        <ele>498</ele>
        <time>2013-03-23T11:00:50.000Z</time>
      </trkpt>
      <trkpt lat="43.55625" lon="5.70776">
        <ele>498</ele>
        <time>2013-03-23T11:00:51.000Z</time>
      </trkpt>
      <trkpt lat="43.55626" lon="5.70773">
        <ele>498.20001220703</ele>
        <time>2013-03-23T11:00:52.000Z</time>
      </trkpt>
      <trkpt lat="43.55647" lon="5.70737">
        <ele>499.39999389648</ele>
        <time>2013-03-23T11:01:04.000Z</time>
      </trkpt>
      <trkpt lat="43.55668" lon="5.70709">
        <ele>500.20001220703</ele>
        <time>2013-03-23T11:01:16.000Z</time>
      </trkpt>
      <trkpt lat="43.5567" lon="5.70707">
        <ele>500.20001220703</ele>
        <time>2013-03-23T11:01:17.000Z</time>
      </trkpt>
      <trkpt lat="43.55694" lon="5.70681">
        <ele>502.39999389648</ele>
        <time>2013-03-23T11:01:30.000Z</time>
      </trkpt>
      <trkpt lat="43.55721" lon="5.70656">
        <ele>504.20001220703</ele>
        <time>2013-03-23T11:01:44.000Z</time>
      </trkpt>
      <trkpt lat="43.55725" lon="5.70653">
        <ele>504.60000610352</ele>
        <time>2013-03-23T11:01:46.000Z</time>
      </trkpt>
      <trkpt lat="43.55749" lon="5.70644">
        <ele>506.20001220703</ele>
        <time>2013-03-23T11:01:56.000Z</time>
      </trkpt>
      <trkpt lat="43.55754" lon="5.70643">
        <ele>506.79998779297</ele>
        <time>2013-03-23T11:01:58.000Z</time>
      </trkpt>
      <trkpt lat="43.5578" lon="5.70653">
        <ele>510.60000610352</ele>
        <time>2013-03-23T11:02:09.000Z</time>
      </trkpt>
      <trkpt lat="43.55809" lon="5.7067">
        <ele>515.20001220703</ele>
        <time>2013-03-23T11:02:23.000Z</time>
      </trkpt>
      <trkpt lat="43.55828" lon="5.70671">
        <ele>517.59997558594</ele>
        <time>2013-03-23T11:02:33.000Z</time>
      </trkpt>
      <trkpt lat="43.55836" lon="5.70648">
        <ele>517.59997558594</ele>
        <time>2013-03-23T11:02:43.000Z</time>
      </trkpt>
      <trkpt lat="43.55845" lon="5.70616">
        <ele>517.20001220703</ele>
        <time>2013-03-23T11:02:55.000Z</time>
      </trkpt>
      <trkpt lat="43.55862" lon="5.70599">
        <ele>518.40002441406</ele>
        <time>2013-03-23T11:03:06.000Z</time>
      </trkpt>
      <trkpt lat="43.55885" lon="5.70587">
        <ele>520.40002441406</ele>
        <time>2013-03-23T11:03:17.000Z</time>
      </trkpt>
      <trkpt lat="43.55892" lon="5.70587">
        <ele>521.40002441406</ele>
        <time>2013-03-23T11:03:20.000Z</time>
      </trkpt>
      <trkpt lat="43.55912" lon="5.70596">
        <ele>525</ele>
        <time>2013-03-23T11:03:29.000Z</time>
      </trkpt>
      <trkpt lat="43.55939" lon="5.70616">
        <ele>531.20001220703</ele>
        <time>2013-03-23T11:03:42.000Z</time>
      </trkpt>
      <trkpt lat="43.55961" lon="5.70622">
        <ele>535.20001220703</ele>
        <time>2013-03-23T11:03:52.000Z</time>
      </trkpt>
      <trkpt lat="43.55977" lon="5.70597">
        <ele>533.79998779297</ele>
        <time>2013-03-23T11:04:02.000Z</time>
      </trkpt>
      <trkpt lat="43.55996" lon="5.70583">
        <ele>534.40002441406</ele>
        <time>2013-03-23T11:04:12.000Z</time>
      </trkpt>
      <trkpt lat="43.56016" lon="5.70569">
        <ele>539.59997558594</ele>
        <time>2013-03-23T11:04:22.000Z</time>
      </trkpt>
      <trkpt lat="43.5602" lon="5.70537">
        <ele>542</ele>
        <time>2013-03-23T11:04:32.000Z</time>
      </trkpt>
      <trkpt lat="43.56014" lon="5.70503">
        <ele>542.40002441406</ele>
        <time>2013-03-23T11:04:43.000Z</time>
      </trkpt>
      <trkpt lat="43.56005" lon="5.70475">
        <ele>542.40002441406</ele>
        <time>2013-03-23T11:04:53.000Z</time>
      </trkpt>
      <trkpt lat="43.56002" lon="5.70467">
        <ele>542.59997558594</ele>
        <time>2013-03-23T11:04:56.000Z</time>
      </trkpt>
      <trkpt lat="43.55992" lon="5.70447">
        <ele>542.20001220703</ele>
        <time>2013-03-23T11:05:04.000Z</time>
      </trkpt>
      <trkpt lat="43.55989" lon="5.70409">
        <ele>543.79998779297</ele>
        <time>2013-03-23T11:05:14.000Z</time>
      </trkpt>
      <trkpt lat="43.55991" lon="5.70347">
        <ele>544.79998779297</ele>
        <time>2013-03-23T11:05:27.000Z</time>
      </trkpt>
      <trkpt lat="43.55977" lon="5.70296">
        <ele>545.20001220703</ele>
        <time>2013-03-23T11:05:39.000Z</time>
      </trkpt>
      <trkpt lat="43.55975" lon="5.70292">
        <ele>545.20001220703</ele>
        <time>2013-03-23T11:05:41.000Z</time>
      </trkpt>
      <trkpt lat="43.55973" lon="5.70291">
        <ele>545.20001220703</ele>
        <time>2013-03-23T11:05:42.000Z</time>
      </trkpt>
      <trkpt lat="43.55972" lon="5.70291">
        <ele>545</ele>
        <time>2013-03-23T11:05:43.000Z</time>
      </trkpt>
      <trkpt lat="43.5597" lon="5.70291">
        <ele>545</ele>
        <time>2013-03-23T11:05:44.000Z</time>
      </trkpt>
      <trkpt lat="43.55969" lon="5.7029">
        <ele>545</ele>
        <time>2013-03-23T11:05:45.000Z</time>
      </trkpt>
      <trkpt lat="43.55967" lon="5.70289">
        <ele>545</ele>
        <time>2013-03-23T11:05:46.000Z</time>
      </trkpt>
      <trkpt lat="43.55966" lon="5.70287">
        <ele>545</ele>
        <time>2013-03-23T11:05:47.000Z</time>
      </trkpt>
      <trkpt lat="43.55965" lon="5.70285">
        <ele>545</ele>
        <time>2013-03-23T11:05:48.000Z</time>
      </trkpt>
      <trkpt lat="43.55964" lon="5.70284">
        <ele>545</ele>
        <time>2013-03-23T11:05:49.000Z</time>
      </trkpt>
      <trkpt lat="43.55961" lon="5.70282">
        <ele>545</ele>
        <time>2013-03-23T11:05:54.000Z</time>
      </trkpt>
      <trkpt lat="43.55942" lon="5.70262">
        <ele>546</ele>
        <time>2013-03-23T11:06:03.000Z</time>
      </trkpt>
      <trkpt lat="43.55915" lon="5.70231">
        <ele>547.40002441406</ele>
        <time>2013-03-23T11:06:14.000Z</time>
      </trkpt>
      <trkpt lat="43.55907" lon="5.70218">
        <ele>546.79998779297</ele>
        <time>2013-03-23T11:06:18.000Z</time>
      </trkpt>
      <trkpt lat="43.55907" lon="5.70215">
        <ele>547</ele>
        <time>2013-03-23T11:06:19.000Z</time>
      </trkpt>
      <trkpt lat="43.55908" lon="5.70212">
        <ele>547.20001220703</ele>
        <time>2013-03-23T11:06:20.000Z</time>
      </trkpt>
      <trkpt lat="43.55917" lon="5.70182">
        <ele>549.40002441406</ele>
        <time>2013-03-23T11:06:29.000Z</time>
      </trkpt>
      <trkpt lat="43.55926" lon="5.70152">
        <ele>550.40002441406</ele>
        <time>2013-03-23T11:06:38.000Z</time>
      </trkpt>
      <trkpt lat="43.55926" lon="5.70149">
        <ele>550.59997558594</ele>
        <time>2013-03-23T11:06:39.000Z</time>
      </trkpt>
      <trkpt lat="43.55925" lon="5.70147">
        <ele>550.79998779297</ele>
        <time>2013-03-23T11:06:40.000Z</time>
      </trkpt>
      <trkpt lat="43.55924" lon="5.70146">
        <ele>550.79998779297</ele>
        <time>2013-03-23T11:06:41.000Z</time>
      </trkpt>
      <trkpt lat="43.55923" lon="5.70145">
        <ele>551</ele>
        <time>2013-03-23T11:06:42.000Z</time>
      </trkpt>
      <trkpt lat="43.55922" lon="5.70143">
        <ele>551</ele>
        <time>2013-03-23T11:06:43.000Z</time>
      </trkpt>
      <trkpt lat="43.55921" lon="5.70142">
        <ele>551.20001220703</ele>
        <time>2013-03-23T11:06:44.000Z</time>
      </trkpt>
      <trkpt lat="43.55921" lon="5.70138">
        <ele>551.40002441406</ele>
        <time>2013-03-23T11:06:52.000Z</time>
      </trkpt>
      <trkpt lat="43.5592" lon="5.70137">
        <ele>551.59997558594</ele>
        <time>2013-03-23T11:07:07.000Z</time>
      </trkpt>
      <trkpt lat="43.5592" lon="5.70135">
        <ele>551.59997558594</ele>
        <time>2013-03-23T11:07:08.000Z</time>
      </trkpt>
      <trkpt lat="43.55919" lon="5.70134">
        <ele>551.79998779297</ele>
        <time>2013-03-23T11:07:09.000Z</time>
      </trkpt>
      <trkpt lat="43.55917" lon="5.70132">
        <ele>552</ele>
        <time>2013-03-23T11:07:10.000Z</time>
      </trkpt>
      <trkpt lat="43.55915" lon="5.7013">
        <ele>552</ele>
        <time>2013-03-23T11:07:11.000Z</time>
      </trkpt>
      <trkpt lat="43.55914" lon="5.70129">
        <ele>552</ele>
        <time>2013-03-23T11:07:12.000Z</time>
      </trkpt>
      <trkpt lat="43.55912" lon="5.70127">
        <ele>551.79998779297</ele>
        <time>2013-03-23T11:07:13.000Z</time>
      </trkpt>
      <trkpt lat="43.5591" lon="5.70125">
        <ele>551.79998779297</ele>
        <time>2013-03-23T11:07:14.000Z</time>
      </trkpt>
      <trkpt lat="43.55909" lon="5.70124">
        <ele>551.79998779297</ele>
        <time>2013-03-23T11:07:15.000Z</time>
      </trkpt>
      <trkpt lat="43.55889" lon="5.70095">
        <ele>552.20001220703</ele>
        <time>2013-03-23T11:07:26.000Z</time>
      </trkpt>
      <trkpt lat="43.5587" lon="5.7005">
        <ele>552.79998779297</ele>
        <time>2013-03-23T11:07:40.000Z</time>
      </trkpt>
      <trkpt lat="43.55866" lon="5.70041">
        <ele>553.20001220703</ele>
        <time>2013-03-23T11:07:43.000Z</time>
      </trkpt>
      <trkpt lat="43.55851" lon="5.70011">
        <ele>554.20001220703</ele>
        <time>2013-03-23T11:07:54.000Z</time>
      </trkpt>
      <trkpt lat="43.55834" lon="5.69984">
        <ele>555.79998779297</ele>
        <time>2013-03-23T11:08:04.000Z</time>
      </trkpt>
      <trkpt lat="43.55819" lon="5.69952">
        <ele>555.59997558594</ele>
        <time>2013-03-23T11:08:15.000Z</time>
      </trkpt>
      <trkpt lat="43.55812" lon="5.69924">
        <ele>556.40002441406</ele>
        <time>2013-03-23T11:08:24.000Z</time>
      </trkpt>
      <trkpt lat="43.55809" lon="5.69864">
        <ele>557.79998779297</ele>
        <time>2013-03-23T11:08:40.000Z</time>
      </trkpt>
      <trkpt lat="43.55802" lon="5.69817">
        <ele>558.59997558594</ele>
        <time>2013-03-23T11:08:52.000Z</time>
      </trkpt>
      <trkpt lat="43.55787" lon="5.69759">
        <ele>558.79998779297</ele>
        <time>2013-03-23T11:09:06.000Z</time>
      </trkpt>
      <trkpt lat="43.55781" lon="5.69706">
        <ele>558.20001220703</ele>
        <time>2013-03-23T11:09:17.000Z</time>
      </trkpt>
      <trkpt lat="43.55775" lon="5.69641">
        <ele>558.20001220703</ele>
        <time>2013-03-23T11:09:30.000Z</time>
      </trkpt>
      <trkpt lat="43.55775" lon="5.69635">
        <ele>558.20001220703</ele>
        <time>2013-03-23T11:09:31.000Z</time>
      </trkpt>
      <trkpt lat="43.55774" lon="5.69629">
        <ele>558.40002441406</ele>
        <time>2013-03-23T11:09:32.000Z</time>
      </trkpt>
      <trkpt lat="43.5577" lon="5.6956">
        <ele>560</ele>
        <time>2013-03-23T11:09:44.000Z</time>
      </trkpt>
      <trkpt lat="43.5575" lon="5.69481">
        <ele>561.79998779297</ele>
        <time>2013-03-23T11:09:58.000Z</time>
      </trkpt>
      <trkpt lat="43.55729" lon="5.69388">
        <ele>558.40002441406</ele>
        <time>2013-03-23T11:10:15.000Z</time>
      </trkpt>
      <trkpt lat="43.55721" lon="5.69319">
        <ele>556</ele>
        <time>2013-03-23T11:10:28.000Z</time>
      </trkpt>
      <trkpt lat="43.55712" lon="5.69248">
        <ele>553.20001220703</ele>
        <time>2013-03-23T11:10:38.000Z</time>
      </trkpt>
      <trkpt lat="43.55709" lon="5.69214">
        <ele>552.20001220703</ele>
        <time>2013-03-23T11:10:42.000Z</time>
      </trkpt>
      <trkpt lat="43.55707" lon="5.69187">
        <ele>551.59997558594</ele>
        <time>2013-03-23T11:10:45.000Z</time>
      </trkpt>
      <trkpt lat="43.55706" lon="5.69178">
        <ele>551.40002441406</ele>
        <time>2013-03-23T11:10:46.000Z</time>
      </trkpt>
      <trkpt lat="43.55704" lon="5.69169">
        <ele>551</ele>
        <time>2013-03-23T11:10:47.000Z</time>
      </trkpt>
      <trkpt lat="43.55702" lon="5.6916">
        <ele>550.59997558594</ele>
        <time>2013-03-23T11:10:48.000Z</time>
      </trkpt>
      <trkpt lat="43.55683" lon="5.69108">
        <ele>549</ele>
        <time>2013-03-23T11:10:54.000Z</time>
      </trkpt>
      <trkpt lat="43.55679" lon="5.691">
        <ele>548.59997558594</ele>
        <time>2013-03-23T11:10:55.000Z</time>
      </trkpt>
      <trkpt lat="43.55677" lon="5.69091">
        <ele>548.59997558594</ele>
        <time>2013-03-23T11:10:56.000Z</time>
      </trkpt>
      <trkpt lat="43.55674" lon="5.69082">
        <ele>548.59997558594</ele>
        <time>2013-03-23T11:10:57.000Z</time>
      </trkpt>
      <trkpt lat="43.55672" lon="5.69072">
        <ele>548.40002441406</ele>
        <time>2013-03-23T11:10:58.000Z</time>
      </trkpt>
      <trkpt lat="43.55671" lon="5.69063">
        <ele>548.40002441406</ele>
        <time>2013-03-23T11:10:59.000Z</time>
      </trkpt>
      <trkpt lat="43.55669" lon="5.69054">
        <ele>548.40002441406</ele>
        <time>2013-03-23T11:11:00.000Z</time>
      </trkpt>
      <trkpt lat="43.55666" lon="5.69046">
        <ele>548.40002441406</ele>
        <time>2013-03-23T11:11:01.000Z</time>
      </trkpt>
      <trkpt lat="43.55664" lon="5.69038">
        <ele>548.20001220703</ele>
        <time>2013-03-23T11:11:02.000Z</time>
      </trkpt>
      <trkpt lat="43.5566" lon="5.69031">
        <ele>548</ele>
        <time>2013-03-23T11:11:03.000Z</time>
      </trkpt>
      <trkpt lat="43.55656" lon="5.69024">
        <ele>547.59997558594</ele>
        <time>2013-03-23T11:11:04.000Z</time>
      </trkpt>
      <trkpt lat="43.55652" lon="5.69017">
        <ele>547.40002441406</ele>
        <time>2013-03-23T11:11:05.000Z</time>
      </trkpt>
      <trkpt lat="43.5561" lon="5.68933">
        <ele>546</ele>
        <time>2013-03-23T11:11:16.000Z</time>
      </trkpt>
      <trkpt lat="43.55565" lon="5.68867">
        <ele>545.79998779297</ele>
        <time>2013-03-23T11:11:26.000Z</time>
      </trkpt>
      <trkpt lat="43.55533" lon="5.6882">
        <ele>547</ele>
        <time>2013-03-23T11:11:35.000Z</time>
      </trkpt>
      <trkpt lat="43.55532" lon="5.68805">
        <ele>547.79998779297</ele>
        <time>2013-03-23T11:11:39.000Z</time>
      </trkpt>
      <trkpt lat="43.55534" lon="5.68802">
        <ele>548</ele>
        <time>2013-03-23T11:11:40.000Z</time>
      </trkpt>
      <trkpt lat="43.55555" lon="5.68786">
        <ele>549.59997558594</ele>
        <time>2013-03-23T11:11:49.000Z</time>
      </trkpt>
      <trkpt lat="43.55575" lon="5.68785">
        <ele>550</ele>
        <time>2013-03-23T11:11:58.000Z</time>
      </trkpt>
      <trkpt lat="43.55599" lon="5.68785">
        <ele>549.79998779297</ele>
        <time>2013-03-23T11:12:07.000Z</time>
      </trkpt>
      <trkpt lat="43.55633" lon="5.68794">
        <ele>548.59997558594</ele>
        <time>2013-03-23T11:12:20.000Z</time>
      </trkpt>
      <trkpt lat="43.55636" lon="5.68795">
        <ele>548.59997558594</ele>
        <time>2013-03-23T11:12:27.000Z</time>
      </trkpt>
      <trkpt lat="43.55636" lon="5.68796">
        <ele>548.59997558594</ele>
        <time>2013-03-23T11:12:41.000Z</time>
      </trkpt>
      <trkpt lat="43.55636" lon="5.68797">
        <ele>548.59997558594</ele>
        <time>2013-03-23T11:12:42.000Z</time>
      </trkpt>
      <trkpt lat="43.55636" lon="5.68797">
        <ele>548.59997558594</ele>
        <time>2013-03-23T11:12:43.000Z</time>
      </trkpt>
      <trkpt lat="43.55636" lon="5.68797">
        <ele>548.59997558594</ele>
        <time>2013-03-23T11:12:44.000Z</time>
      </trkpt>
      <trkpt lat="43.55636" lon="5.68798">
        <ele>548.59997558594</ele>
        <time>2013-03-23T11:12:46.000Z</time>
      </trkpt>
      <trkpt lat="43.55635" lon="5.68799">
        <ele>548.59997558594</ele>
        <time>2013-03-23T11:13:08.000Z</time>
      </trkpt>
      <trkpt lat="43.55635" lon="5.68799">
        <ele>548.59997558594</ele>
        <time>2013-03-23T11:13:10.000Z</time>
      </trkpt>
      <trkpt lat="43.55638" lon="5.688">
        <ele>548.40002441406</ele>
        <time>2013-03-23T11:13:31.000Z</time>
      </trkpt>
      <trkpt lat="43.55636" lon="5.68797">
        <ele>548.59997558594</ele>
        <time>2013-03-23T11:13:46.000Z</time>
      </trkpt>
      <trkpt lat="43.55633" lon="5.68794">
        <ele>548.59997558594</ele>
        <time>2013-03-23T11:13:52.000Z</time>
      </trkpt>
      <trkpt lat="43.55632" lon="5.68792">
        <ele>548.79998779297</ele>
        <time>2013-03-23T11:13:53.000Z</time>
      </trkpt>
      <trkpt lat="43.55631" lon="5.6879">
        <ele>548.79998779297</ele>
        <time>2013-03-23T11:13:54.000Z</time>
      </trkpt>
      <trkpt lat="43.55629" lon="5.68788">
        <ele>548.79998779297</ele>
        <time>2013-03-23T11:13:55.000Z</time>
      </trkpt>
      <trkpt lat="43.55627" lon="5.68785">
        <ele>549</ele>
        <time>2013-03-23T11:13:56.000Z</time>
      </trkpt>
      <trkpt lat="43.55627" lon="5.68782">
        <ele>549</ele>
        <time>2013-03-23T11:13:57.000Z</time>
      </trkpt>
      <trkpt lat="43.55626" lon="5.68778">
        <ele>549.20001220703</ele>
        <time>2013-03-23T11:13:58.000Z</time>
      </trkpt>
      <trkpt lat="43.55626" lon="5.68731">
        <ele>550.40002441406</ele>
        <time>2013-03-23T11:14:09.000Z</time>
      </trkpt>
      <trkpt lat="43.55627" lon="5.68725">
        <ele>550.59997558594</ele>
        <time>2013-03-23T11:14:10.000Z</time>
      </trkpt>
      <trkpt lat="43.55627" lon="5.68719">
        <ele>550.79998779297</ele>
        <time>2013-03-23T11:14:11.000Z</time>
      </trkpt>
      <trkpt lat="43.55625" lon="5.68707">
        <ele>551.20001220703</ele>
        <time>2013-03-23T11:14:13.000Z</time>
      </trkpt>
      <trkpt lat="43.55624" lon="5.68701">
        <ele>551.40002441406</ele>
        <time>2013-03-23T11:14:14.000Z</time>
      </trkpt>
      <trkpt lat="43.55621" lon="5.68696">
        <ele>551.59997558594</ele>
        <time>2013-03-23T11:14:15.000Z</time>
      </trkpt>
      <trkpt lat="43.55604" lon="5.68661">
        <ele>553.20001220703</ele>
        <time>2013-03-23T11:14:23.000Z</time>
      </trkpt>
      <trkpt lat="43.5558" lon="5.68617">
        <ele>555.20001220703</ele>
        <time>2013-03-23T11:14:35.000Z</time>
      </trkpt>
      <trkpt lat="43.55553" lon="5.68577">
        <ele>555.79998779297</ele>
        <time>2013-03-23T11:14:46.000Z</time>
      </trkpt>
      <trkpt lat="43.55519" lon="5.68567">
        <ele>555.79998779297</ele>
        <time>2013-03-23T11:14:56.000Z</time>
      </trkpt>
      <trkpt lat="43.55498" lon="5.68573">
        <ele>555.20001220703</ele>
        <time>2013-03-23T11:15:03.000Z</time>
      </trkpt>
      <trkpt lat="43.55496" lon="5.68571">
        <ele>555.20001220703</ele>
        <time>2013-03-23T11:15:04.000Z</time>
      </trkpt>
      <trkpt lat="43.55495" lon="5.68568">
        <ele>555.20001220703</ele>
        <time>2013-03-23T11:15:05.000Z</time>
      </trkpt>
      <trkpt lat="43.55488" lon="5.6856">
        <ele>555.20001220703</ele>
        <time>2013-03-23T11:15:12.000Z</time>
      </trkpt>
      <trkpt lat="43.55488" lon="5.68561">
        <ele>555.20001220703</ele>
        <time>2013-03-23T11:15:13.000Z</time>
      </trkpt>
      <trkpt lat="43.55488" lon="5.68563">
        <ele>555</ele>
        <time>2013-03-23T11:15:14.000Z</time>
      </trkpt>
      <trkpt lat="43.55493" lon="5.68572">
        <ele>555</ele>
        <time>2013-03-23T11:15:20.000Z</time>
      </trkpt>
      <trkpt lat="43.55495" lon="5.68579">
        <ele>554.79998779297</ele>
        <time>2013-03-23T11:15:25.000Z</time>
      </trkpt>
      <trkpt lat="43.55496" lon="5.6858">
        <ele>554.79998779297</ele>
        <time>2013-03-23T11:15:26.000Z</time>
      </trkpt>
      <trkpt lat="43.55498" lon="5.6858">
        <ele>555</ele>
        <time>2013-03-23T11:15:27.000Z</time>
      </trkpt>
      <trkpt lat="43.55525" lon="5.68566">
        <ele>555.79998779297</ele>
        <time>2013-03-23T11:15:35.000Z</time>
      </trkpt>
      <trkpt lat="43.55551" lon="5.68574">
        <ele>555.79998779297</ele>
        <time>2013-03-23T11:15:42.000Z</time>
      </trkpt>
      <trkpt lat="43.55554" lon="5.68577">
        <ele>555.79998779297</ele>
        <time>2013-03-23T11:15:43.000Z</time>
      </trkpt>
      <trkpt lat="43.55561" lon="5.68586">
        <ele>555.59997558594</ele>
        <time>2013-03-23T11:15:45.000Z</time>
      </trkpt>
      <trkpt lat="43.55601" lon="5.68656">
        <ele>553.40002441406</ele>
        <time>2013-03-23T11:15:57.000Z</time>
      </trkpt>
      <trkpt lat="43.55618" lon="5.68691">
        <ele>552</ele>
        <time>2013-03-23T11:16:02.000Z</time>
      </trkpt>
      <trkpt lat="43.55631" lon="5.68718">
        <ele>550.59997558594</ele>
        <time>2013-03-23T11:16:07.000Z</time>
      </trkpt>
      <trkpt lat="43.55632" lon="5.68719">
        <ele>550.59997558594</ele>
        <time>2013-03-23T11:16:08.000Z</time>
      </trkpt>
      <trkpt lat="43.55634" lon="5.68719">
        <ele>550.40002441406</ele>
        <time>2013-03-23T11:16:09.000Z</time>
      </trkpt>
      <trkpt lat="43.55635" lon="5.68721">
        <ele>550.40002441406</ele>
        <time>2013-03-23T11:16:10.000Z</time>
      </trkpt>
      <trkpt lat="43.55637" lon="5.68723">
        <ele>550.20001220703</ele>
        <time>2013-03-23T11:16:11.000Z</time>
      </trkpt>
      <trkpt lat="43.55637" lon="5.68726">
        <ele>550</ele>
        <time>2013-03-23T11:16:12.000Z</time>
      </trkpt>
      <trkpt lat="43.55638" lon="5.68728">
        <ele>550</ele>
        <time>2013-03-23T11:16:13.000Z</time>
      </trkpt>
      <trkpt lat="43.5564" lon="5.6873">
        <ele>549.79998779297</ele>
        <time>2013-03-23T11:16:14.000Z</time>
      </trkpt>
      <trkpt lat="43.55641" lon="5.68733">
        <ele>549.59997558594</ele>
        <time>2013-03-23T11:16:15.000Z</time>
      </trkpt>
      <trkpt lat="43.55643" lon="5.68737">
        <ele>549.40002441406</ele>
        <time>2013-03-23T11:16:16.000Z</time>
      </trkpt>
      <trkpt lat="43.55644" lon="5.68741">
        <ele>549.20001220703</ele>
        <time>2013-03-23T11:16:17.000Z</time>
      </trkpt>
      <trkpt lat="43.55645" lon="5.68747">
        <ele>549</ele>
        <time>2013-03-23T11:16:18.000Z</time>
      </trkpt>
      <trkpt lat="43.5565" lon="5.68756">
        <ele>548.59997558594</ele>
        <time>2013-03-23T11:16:20.000Z</time>
      </trkpt>
      <trkpt lat="43.55662" lon="5.68773">
        <ele>548</ele>
        <time>2013-03-23T11:16:24.000Z</time>
      </trkpt>
      <trkpt lat="43.5567" lon="5.68779">
        <ele>547.79998779297</ele>
        <time>2013-03-23T11:16:26.000Z</time>
      </trkpt>
      <trkpt lat="43.55674" lon="5.68779">
        <ele>547.59997558594</ele>
        <time>2013-03-23T11:16:27.000Z</time>
      </trkpt>
      <trkpt lat="43.55689" lon="5.68779">
        <ele>547</ele>
        <time>2013-03-23T11:16:32.000Z</time>
      </trkpt>
      <trkpt lat="43.55692" lon="5.68783">
        <ele>546.79998779297</ele>
        <time>2013-03-23T11:16:33.000Z</time>
      </trkpt>
      <trkpt lat="43.55696" lon="5.68786">
        <ele>546.79998779297</ele>
        <time>2013-03-23T11:16:34.000Z</time>
      </trkpt>
      <trkpt lat="43.557" lon="5.68788">
        <ele>546.59997558594</ele>
        <time>2013-03-23T11:16:35.000Z</time>
      </trkpt>
      <trkpt lat="43.55704" lon="5.6879">
        <ele>546.40002441406</ele>
        <time>2013-03-23T11:16:36.000Z</time>
      </trkpt>
      <trkpt lat="43.55736" lon="5.68799">
        <ele>545</ele>
        <time>2013-03-23T11:16:42.000Z</time>
      </trkpt>
      <trkpt lat="43.55742" lon="5.68799">
        <ele>544.59997558594</ele>
        <time>2013-03-23T11:16:43.000Z</time>
      </trkpt>
      <trkpt lat="43.55747" lon="5.68796">
        <ele>544.40002441406</ele>
        <time>2013-03-23T11:16:44.000Z</time>
      </trkpt>
      <trkpt lat="43.55752" lon="5.68791">
        <ele>544.40002441406</ele>
        <time>2013-03-23T11:16:45.000Z</time>
      </trkpt>
      <trkpt lat="43.55755" lon="5.68785">
        <ele>544.40002441406</ele>
        <time>2013-03-23T11:16:46.000Z</time>
      </trkpt>
      <trkpt lat="43.55756" lon="5.68777">
        <ele>544.59997558594</ele>
        <time>2013-03-23T11:16:47.000Z</time>
      </trkpt>
      <trkpt lat="43.55756" lon="5.68769">
        <ele>544.79998779297</ele>
        <time>2013-03-23T11:16:48.000Z</time>
      </trkpt>
      <trkpt lat="43.55754" lon="5.68761">
        <ele>544.79998779297</ele>
        <time>2013-03-23T11:16:49.000Z</time>
      </trkpt>
      <trkpt lat="43.55752" lon="5.68753">
        <ele>544.79998779297</ele>
        <time>2013-03-23T11:16:50.000Z</time>
      </trkpt>
      <trkpt lat="43.5575" lon="5.68744">
        <ele>545</ele>
        <time>2013-03-23T11:16:51.000Z</time>
      </trkpt>
      <trkpt lat="43.55737" lon="5.68694">
        <ele>546.79998779297</ele>
        <time>2013-03-23T11:16:59.000Z</time>
      </trkpt>
      <trkpt lat="43.55735" lon="5.68689">
        <ele>547</ele>
        <time>2013-03-23T11:17:00.000Z</time>
      </trkpt>
      <trkpt lat="43.55734" lon="5.68684">
        <ele>547.20001220703</ele>
        <time>2013-03-23T11:17:01.000Z</time>
      </trkpt>
      <trkpt lat="43.55725" lon="5.6865">
        <ele>548.79998779297</ele>
        <time>2013-03-23T11:17:07.000Z</time>
      </trkpt>
      <trkpt lat="43.55724" lon="5.68644">
        <ele>549</ele>
        <time>2013-03-23T11:17:08.000Z</time>
      </trkpt>
      <trkpt lat="43.55713" lon="5.68587">
        <ele>551.59997558594</ele>
        <time>2013-03-23T11:17:18.000Z</time>
      </trkpt>
      <trkpt lat="43.55711" lon="5.68534">
        <ele>553</ele>
        <time>2013-03-23T11:17:27.000Z</time>
      </trkpt>
      <trkpt lat="43.55709" lon="5.68529">
        <ele>553.20001220703</ele>
        <time>2013-03-23T11:17:28.000Z</time>
      </trkpt>
      <trkpt lat="43.55708" lon="5.68523">
        <ele>553.40002441406</ele>
        <time>2013-03-23T11:17:29.000Z</time>
      </trkpt>
      <trkpt lat="43.55698" lon="5.68461">
        <ele>554.59997558594</ele>
        <time>2013-03-23T11:17:40.000Z</time>
      </trkpt>
      <trkpt lat="43.55698" lon="5.68455">
        <ele>554.59997558594</ele>
        <time>2013-03-23T11:17:41.000Z</time>
      </trkpt>
      <trkpt lat="43.55702" lon="5.68421">
        <ele>554.79998779297</ele>
        <time>2013-03-23T11:17:49.000Z</time>
      </trkpt>
      <trkpt lat="43.55704" lon="5.68405">
        <ele>555.40002441406</ele>
        <time>2013-03-23T11:17:53.000Z</time>
      </trkpt>
      <trkpt lat="43.55705" lon="5.68403">
        <ele>555.40002441406</ele>
        <time>2013-03-23T11:17:54.000Z</time>
      </trkpt>
      <trkpt lat="43.55707" lon="5.684">
        <ele>555.59997558594</ele>
        <time>2013-03-23T11:17:55.000Z</time>
      </trkpt>
      <trkpt lat="43.55709" lon="5.68398">
        <ele>555.59997558594</ele>
        <time>2013-03-23T11:17:56.000Z</time>
      </trkpt>
      <trkpt lat="43.5571" lon="5.68395">
        <ele>555.79998779297</ele>
        <time>2013-03-23T11:17:57.000Z</time>
      </trkpt>
      <trkpt lat="43.55711" lon="5.68392">
        <ele>556</ele>
        <time>2013-03-23T11:17:58.000Z</time>
      </trkpt>
      <trkpt lat="43.55711" lon="5.68388">
        <ele>556.20001220703</ele>
        <time>2013-03-23T11:17:59.000Z</time>
      </trkpt>
      <trkpt lat="43.55722" lon="5.68345">
        <ele>558</ele>
        <time>2013-03-23T11:18:11.000Z</time>
      </trkpt>
      <trkpt lat="43.55723" lon="5.68302">
        <ele>559.59997558594</ele>
        <time>2013-03-23T11:18:23.000Z</time>
      </trkpt>
      <trkpt lat="43.55723" lon="5.68298">
        <ele>559.79998779297</ele>
        <time>2013-03-23T11:18:30.000Z</time>
      </trkpt>
      <trkpt lat="43.55723" lon="5.68288">
        <ele>560</ele>
        <time>2013-03-23T11:18:38.000Z</time>
      </trkpt>
      <trkpt lat="43.55723" lon="5.68278">
        <ele>560.40002441406</ele>
        <time>2013-03-23T11:18:42.000Z</time>
      </trkpt>
      <trkpt lat="43.55723" lon="5.68275">
        <ele>560.40002441406</ele>
        <time>2013-03-23T11:18:43.000Z</time>
      </trkpt>
      <trkpt lat="43.55723" lon="5.68272">
        <ele>560.59997558594</ele>
        <time>2013-03-23T11:18:44.000Z</time>
      </trkpt>
      <trkpt lat="43.55723" lon="5.6827">
        <ele>560.59997558594</ele>
        <time>2013-03-23T11:18:45.000Z</time>
      </trkpt>
      <trkpt lat="43.55723" lon="5.68267">
        <ele>560.59997558594</ele>
        <time>2013-03-23T11:18:46.000Z</time>
      </trkpt>
      <trkpt lat="43.55723" lon="5.68265">
        <ele>560.79998779297</ele>
        <time>2013-03-23T11:18:47.000Z</time>
      </trkpt>
      <trkpt lat="43.55723" lon="5.68241">
        <ele>561.59997558594</ele>
        <time>2013-03-23T11:18:56.000Z</time>
      </trkpt>
      <trkpt lat="43.55722" lon="5.68213">
        <ele>562.59997558594</ele>
        <time>2013-03-23T11:19:05.000Z</time>
      </trkpt>
      <trkpt lat="43.55721" lon="5.68182">
        <ele>563.59997558594</ele>
        <time>2013-03-23T11:19:15.000Z</time>
      </trkpt>
      <trkpt lat="43.55721" lon="5.6817">
        <ele>564</ele>
        <time>2013-03-23T11:19:19.000Z</time>
      </trkpt>
      <trkpt lat="43.55721" lon="5.68167">
        <ele>564.20001220703</ele>
        <time>2013-03-23T11:19:20.000Z</time>
      </trkpt>
      <trkpt lat="43.55721" lon="5.68163">
        <ele>564.40002441406</ele>
        <time>2013-03-23T11:19:21.000Z</time>
      </trkpt>
      <trkpt lat="43.5572" lon="5.68159">
        <ele>564.40002441406</ele>
        <time>2013-03-23T11:19:22.000Z</time>
      </trkpt>
      <trkpt lat="43.5572" lon="5.68156">
        <ele>564.59997558594</ele>
        <time>2013-03-23T11:19:23.000Z</time>
      </trkpt>
      <trkpt lat="43.5572" lon="5.68154">
        <ele>564.79998779297</ele>
        <time>2013-03-23T11:19:24.000Z</time>
      </trkpt>
      <trkpt lat="43.55719" lon="5.68116">
        <ele>566.20001220703</ele>
        <time>2013-03-23T11:19:36.000Z</time>
      </trkpt>
      <trkpt lat="43.55719" lon="5.68078">
        <ele>567.79998779297</ele>
        <time>2013-03-23T11:19:47.000Z</time>
      </trkpt>
      <trkpt lat="43.55718" lon="5.68052">
        <ele>568.79998779297</ele>
        <time>2013-03-23T11:19:57.000Z</time>
      </trkpt>
      <trkpt lat="43.55717" lon="5.68047">
        <ele>569</ele>
        <time>2013-03-23T11:19:59.000Z</time>
      </trkpt>
      <trkpt lat="43.55717" lon="5.68044">
        <ele>569.20001220703</ele>
        <time>2013-03-23T11:20:00.000Z</time>
      </trkpt>
      <trkpt lat="43.55717" lon="5.68042">
        <ele>569.40002441406</ele>
        <time>2013-03-23T11:20:01.000Z</time>
      </trkpt>
      <trkpt lat="43.55717" lon="5.68039">
        <ele>569.40002441406</ele>
        <time>2013-03-23T11:20:02.000Z</time>
      </trkpt>
      <trkpt lat="43.55717" lon="5.68037">
        <ele>569.59997558594</ele>
        <time>2013-03-23T11:20:03.000Z</time>
      </trkpt>
      <trkpt lat="43.55715" lon="5.68004">
        <ele>570.79998779297</ele>
        <time>2013-03-23T11:20:14.000Z</time>
      </trkpt>
      <trkpt lat="43.55714" lon="5.67968">
        <ele>572.79998779297</ele>
        <time>2013-03-23T11:20:26.000Z</time>
      </trkpt>
      <trkpt lat="43.55713" lon="5.67938">
        <ele>574.20001220703</ele>
        <time>2013-03-23T11:20:36.000Z</time>
      </trkpt>
      <trkpt lat="43.55714" lon="5.67908">
        <ele>575.79998779297</ele>
        <time>2013-03-23T11:20:47.000Z</time>
      </trkpt>
      <trkpt lat="43.55713" lon="5.67905">
        <ele>575.79998779297</ele>
        <time>2013-03-23T11:20:48.000Z</time>
      </trkpt>
      <trkpt lat="43.55713" lon="5.67903">
        <ele>576</ele>
        <time>2013-03-23T11:20:49.000Z</time>
      </trkpt>
      <trkpt lat="43.55713" lon="5.679">
        <ele>576</ele>
        <time>2013-03-23T11:20:50.000Z</time>
      </trkpt>
      <trkpt lat="43.55714" lon="5.67896">
        <ele>576.20001220703</ele>
        <time>2013-03-23T11:20:51.000Z</time>
      </trkpt>
      <trkpt lat="43.55714" lon="5.67893">
        <ele>576.20001220703</ele>
        <time>2013-03-23T11:20:52.000Z</time>
      </trkpt>
      <trkpt lat="43.55714" lon="5.6789">
        <ele>576.40002441406</ele>
        <time>2013-03-23T11:20:53.000Z</time>
      </trkpt>
      <trkpt lat="43.55714" lon="5.67887">
        <ele>576.59997558594</ele>
        <time>2013-03-23T11:20:54.000Z</time>
      </trkpt>
      <trkpt lat="43.55714" lon="5.67884">
        <ele>576.59997558594</ele>
        <time>2013-03-23T11:20:55.000Z</time>
      </trkpt>
      <trkpt lat="43.55714" lon="5.67881">
        <ele>576.79998779297</ele>
        <time>2013-03-23T11:20:56.000Z</time>
      </trkpt>
      <trkpt lat="43.55714" lon="5.67879">
        <ele>576.79998779297</ele>
        <time>2013-03-23T11:20:57.000Z</time>
      </trkpt>
      <trkpt lat="43.55714" lon="5.67877">
        <ele>577</ele>
        <time>2013-03-23T11:20:58.000Z</time>
      </trkpt>
      <trkpt lat="43.55709" lon="5.67856">
        <ele>578</ele>
        <time>2013-03-23T11:21:06.000Z</time>
      </trkpt>
      <trkpt lat="43.55711" lon="5.67828">
        <ele>579.20001220703</ele>
        <time>2013-03-23T11:21:15.000Z</time>
      </trkpt>
      <trkpt lat="43.55711" lon="5.67817">
        <ele>579.79998779297</ele>
        <time>2013-03-23T11:21:19.000Z</time>
      </trkpt>
      <trkpt lat="43.5571" lon="5.67814">
        <ele>580</ele>
        <time>2013-03-23T11:21:20.000Z</time>
      </trkpt>
      <trkpt lat="43.55709" lon="5.67812">
        <ele>580.20001220703</ele>
        <time>2013-03-23T11:21:21.000Z</time>
      </trkpt>
      <trkpt lat="43.55708" lon="5.67809">
        <ele>580.40002441406</ele>
        <time>2013-03-23T11:21:22.000Z</time>
      </trkpt>
      <trkpt lat="43.55708" lon="5.67806">
        <ele>580.59997558594</ele>
        <time>2013-03-23T11:21:23.000Z</time>
      </trkpt>
      <trkpt lat="43.55708" lon="5.67803">
        <ele>580.79998779297</ele>
        <time>2013-03-23T11:21:24.000Z</time>
      </trkpt>
      <trkpt lat="43.5571" lon="5.67764">
        <ele>583</ele>
        <time>2013-03-23T11:21:34.000Z</time>
      </trkpt>
      <trkpt lat="43.55708" lon="5.67726">
        <ele>584.79998779297</ele>
        <time>2013-03-23T11:21:44.000Z</time>
      </trkpt>
      <trkpt lat="43.55708" lon="5.67696">
        <ele>586.20001220703</ele>
        <time>2013-03-23T11:21:53.000Z</time>
      </trkpt>
      <trkpt lat="43.55708" lon="5.67666">
        <ele>587.40002441406</ele>
        <time>2013-03-23T11:22:02.000Z</time>
      </trkpt>
      <trkpt lat="43.55708" lon="5.67642">
        <ele>588.40002441406</ele>
        <time>2013-03-23T11:22:10.000Z</time>
      </trkpt>
      <trkpt lat="43.55707" lon="5.67619">
        <ele>589.40002441406</ele>
        <time>2013-03-23T11:22:21.000Z</time>
      </trkpt>
      <trkpt lat="43.55706" lon="5.6762">
        <ele>589.40002441406</ele>
        <time>2013-03-23T11:22:28.000Z</time>
      </trkpt>
      <trkpt lat="43.55705" lon="5.67615">
        <ele>589.59997558594</ele>
        <time>2013-03-23T11:22:37.000Z</time>
      </trkpt>
      <trkpt lat="43.55705" lon="5.67603">
        <ele>590</ele>
        <time>2013-03-23T11:22:46.000Z</time>
      </trkpt>
      <trkpt lat="43.55703" lon="5.67597">
        <ele>590.20001220703</ele>
        <time>2013-03-23T11:22:51.000Z</time>
      </trkpt>
      <trkpt lat="43.55703" lon="5.67596">
        <ele>590.40002441406</ele>
        <time>2013-03-23T11:22:52.000Z</time>
      </trkpt>
      <trkpt lat="43.55703" lon="5.67594">
        <ele>590.40002441406</ele>
        <time>2013-03-23T11:22:53.000Z</time>
      </trkpt>
      <trkpt lat="43.55703" lon="5.67591">
        <ele>590.59997558594</ele>
        <time>2013-03-23T11:22:54.000Z</time>
      </trkpt>
      <trkpt lat="43.55703" lon="5.67589">
        <ele>590.59997558594</ele>
        <time>2013-03-23T11:22:55.000Z</time>
      </trkpt>
      <trkpt lat="43.55703" lon="5.67586">
        <ele>590.79998779297</ele>
        <time>2013-03-23T11:22:56.000Z</time>
      </trkpt>
      <trkpt lat="43.55703" lon="5.67584">
        <ele>590.79998779297</ele>
        <time>2013-03-23T11:22:57.000Z</time>
      </trkpt>
      <trkpt lat="43.55703" lon="5.67583">
        <ele>591</ele>
        <time>2013-03-23T11:22:58.000Z</time>
      </trkpt>
      <trkpt lat="43.55703" lon="5.67581">
        <ele>591</ele>
        <time>2013-03-23T11:22:59.000Z</time>
      </trkpt>
      <trkpt lat="43.55703" lon="5.67579">
        <ele>591.20001220703</ele>
        <time>2013-03-23T11:23:00.000Z</time>
      </trkpt>
      <trkpt lat="43.55703" lon="5.67576">
        <ele>591.40002441406</ele>
        <time>2013-03-23T11:23:01.000Z</time>
      </trkpt>
      <trkpt lat="43.55703" lon="5.67574">
        <ele>591.40002441406</ele>
        <time>2013-03-23T11:23:02.000Z</time>
      </trkpt>
      <trkpt lat="43.55704" lon="5.67571">
        <ele>591.59997558594</ele>
        <time>2013-03-23T11:23:03.000Z</time>
      </trkpt>
      <trkpt lat="43.55703" lon="5.67569">
        <ele>591.79998779297</ele>
        <time>2013-03-23T11:23:04.000Z</time>
      </trkpt>
      <trkpt lat="43.55703" lon="5.67567">
        <ele>592</ele>
        <time>2013-03-23T11:23:05.000Z</time>
      </trkpt>
      <trkpt lat="43.55703" lon="5.67565">
        <ele>592</ele>
        <time>2013-03-23T11:23:06.000Z</time>
      </trkpt>
      <trkpt lat="43.55703" lon="5.67563">
        <ele>592.20001220703</ele>
        <time>2013-03-23T11:23:07.000Z</time>
      </trkpt>
      <trkpt lat="43.55702" lon="5.67561">
        <ele>592.20001220703</ele>
        <time>2013-03-23T11:23:08.000Z</time>
      </trkpt>
      <trkpt lat="43.55702" lon="5.67559">
        <ele>592.40002441406</ele>
        <time>2013-03-23T11:23:09.000Z</time>
      </trkpt>
      <trkpt lat="43.55701" lon="5.67557">
        <ele>592.59997558594</ele>
        <time>2013-03-23T11:23:10.000Z</time>
      </trkpt>
      <trkpt lat="43.55701" lon="5.67555">
        <ele>592.59997558594</ele>
        <time>2013-03-23T11:23:11.000Z</time>
      </trkpt>
      <trkpt lat="43.55701" lon="5.67553">
        <ele>592.79998779297</ele>
        <time>2013-03-23T11:23:12.000Z</time>
      </trkpt>
      <trkpt lat="43.557" lon="5.67551">
        <ele>592.79998779297</ele>
        <time>2013-03-23T11:23:13.000Z</time>
      </trkpt>
      <trkpt lat="43.557" lon="5.67549">
        <ele>593</ele>
        <time>2013-03-23T11:23:14.000Z</time>
      </trkpt>
      <trkpt lat="43.55701" lon="5.67547">
        <ele>593.20001220703</ele>
        <time>2013-03-23T11:23:15.000Z</time>
      </trkpt>
      <trkpt lat="43.557" lon="5.67544">
        <ele>593.40002441406</ele>
        <time>2013-03-23T11:23:16.000Z</time>
      </trkpt>
      <trkpt lat="43.55699" lon="5.67541">
        <ele>593.59997558594</ele>
        <time>2013-03-23T11:23:20.000Z</time>
      </trkpt>
      <trkpt lat="43.55699" lon="5.6754">
        <ele>593.59997558594</ele>
        <time>2013-03-23T11:23:21.000Z</time>
      </trkpt>
      <trkpt lat="43.557" lon="5.67541">
        <ele>593.59997558594</ele>
        <time>2013-03-23T11:23:29.000Z</time>
      </trkpt>
      <trkpt lat="43.557" lon="5.67541">
        <ele>593.59997558594</ele>
        <time>2013-03-23T11:23:46.000Z</time>
      </trkpt>
      <trkpt lat="43.55701" lon="5.67542">
        <ele>593.40002441406</ele>
        <time>2013-03-23T11:24:03.000Z</time>
      </trkpt>
      <trkpt lat="43.55699" lon="5.67539">
        <ele>593.59997558594</ele>
        <time>2013-03-23T11:24:14.000Z</time>
      </trkpt>
      <trkpt lat="43.55698" lon="5.67539">
        <ele>593.79998779297</ele>
        <time>2013-03-23T11:24:30.000Z</time>
      </trkpt>
      <trkpt lat="43.55701" lon="5.6754">
        <ele>593.59997558594</ele>
        <time>2013-03-23T11:24:44.000Z</time>
      </trkpt>
      <trkpt lat="43.55703" lon="5.6754">
        <ele>593.59997558594</ele>
        <time>2013-03-23T11:24:45.000Z</time>
      </trkpt>
      <trkpt lat="43.55704" lon="5.67539">
        <ele>593.59997558594</ele>
        <time>2013-03-23T11:24:46.000Z</time>
      </trkpt>
      <trkpt lat="43.55706" lon="5.67539">
        <ele>593.59997558594</ele>
        <time>2013-03-23T11:24:47.000Z</time>
      </trkpt>
      <trkpt lat="43.55707" lon="5.67537">
        <ele>593.59997558594</ele>
        <time>2013-03-23T11:24:48.000Z</time>
      </trkpt>
      <trkpt lat="43.55709" lon="5.67536">
        <ele>593.79998779297</ele>
        <time>2013-03-23T11:24:49.000Z</time>
      </trkpt>
      <trkpt lat="43.5571" lon="5.67535">
        <ele>593.79998779297</ele>
        <time>2013-03-23T11:24:50.000Z</time>
      </trkpt>
      <trkpt lat="43.55712" lon="5.67534">
        <ele>593.79998779297</ele>
        <time>2013-03-23T11:24:51.000Z</time>
      </trkpt>
      <trkpt lat="43.55714" lon="5.67532">
        <ele>594</ele>
        <time>2013-03-23T11:24:52.000Z</time>
      </trkpt>
      <trkpt lat="43.55717" lon="5.6753">
        <ele>594</ele>
        <time>2013-03-23T11:24:53.000Z</time>
      </trkpt>
      <trkpt lat="43.5572" lon="5.67528">
        <ele>594</ele>
        <time>2013-03-23T11:24:54.000Z</time>
      </trkpt>
      <trkpt lat="43.55723" lon="5.67526">
        <ele>594.20001220703</ele>
        <time>2013-03-23T11:24:55.000Z</time>
      </trkpt>
      <trkpt lat="43.55753" lon="5.67505">
        <ele>594.59997558594</ele>
        <time>2013-03-23T11:25:06.000Z</time>
      </trkpt>
      <trkpt lat="43.55792" lon="5.67483">
        <ele>594.59997558594</ele>
        <time>2013-03-23T11:25:18.000Z</time>
      </trkpt>
      <trkpt lat="43.55804" lon="5.67476">
        <ele>594.40002441406</ele>
        <time>2013-03-23T11:25:21.000Z</time>
      </trkpt>
      <trkpt lat="43.55843" lon="5.67456">
        <ele>592.79998779297</ele>
        <time>2013-03-23T11:25:30.000Z</time>
      </trkpt>
      <trkpt lat="43.55848" lon="5.67453">
        <ele>592.40002441406</ele>
        <time>2013-03-23T11:25:31.000Z</time>
      </trkpt>
      <trkpt lat="43.55873" lon="5.67433">
        <ele>590.59997558594</ele>
        <time>2013-03-23T11:25:36.000Z</time>
      </trkpt>
      <trkpt lat="43.55877" lon="5.67426">
        <ele>590.40002441406</ele>
        <time>2013-03-23T11:25:37.000Z</time>
      </trkpt>
      <trkpt lat="43.5588" lon="5.67416">
        <ele>590.20001220703</ele>
        <time>2013-03-23T11:25:38.000Z</time>
      </trkpt>
      <trkpt lat="43.55881" lon="5.67406">
        <ele>589.79998779297</ele>
        <time>2013-03-23T11:25:39.000Z</time>
      </trkpt>
      <trkpt lat="43.55883" lon="5.67395">
        <ele>589.40002441406</ele>
        <time>2013-03-23T11:25:40.000Z</time>
      </trkpt>
      <trkpt lat="43.55885" lon="5.67385">
        <ele>589</ele>
        <time>2013-03-23T11:25:41.000Z</time>
      </trkpt>
      <trkpt lat="43.55889" lon="5.67376">
        <ele>588.59997558594</ele>
        <time>2013-03-23T11:25:42.000Z</time>
      </trkpt>
      <trkpt lat="43.55893" lon="5.67367">
        <ele>588.20001220703</ele>
        <time>2013-03-23T11:25:43.000Z</time>
      </trkpt>
      <trkpt lat="43.55899" lon="5.67359">
        <ele>587.59997558594</ele>
        <time>2013-03-23T11:25:44.000Z</time>
      </trkpt>
      <trkpt lat="43.55907" lon="5.67355">
        <ele>587</ele>
        <time>2013-03-23T11:25:45.000Z</time>
      </trkpt>
      <trkpt lat="43.55915" lon="5.67353">
        <ele>586.40002441406</ele>
        <time>2013-03-23T11:25:46.000Z</time>
      </trkpt>
      <trkpt lat="43.55924" lon="5.67349">
        <ele>586.20001220703</ele>
        <time>2013-03-23T11:25:47.000Z</time>
      </trkpt>
      <trkpt lat="43.55932" lon="5.67342">
        <ele>586</ele>
        <time>2013-03-23T11:25:48.000Z</time>
      </trkpt>
      <trkpt lat="43.55939" lon="5.67334">
        <ele>586</ele>
        <time>2013-03-23T11:25:49.000Z</time>
      </trkpt>
      <trkpt lat="43.5596" lon="5.67313">
        <ele>585.40002441406</ele>
        <time>2013-03-23T11:25:52.000Z</time>
      </trkpt>
      <trkpt lat="43.56005" lon="5.67278">
        <ele>585.40002441406</ele>
        <time>2013-03-23T11:26:00.000Z</time>
      </trkpt>
      <trkpt lat="43.5601" lon="5.67276">
        <ele>586</ele>
        <time>2013-03-23T11:26:02.000Z</time>
      </trkpt>
      <trkpt lat="43.56012" lon="5.67274">
        <ele>586.20001220703</ele>
        <time>2013-03-23T11:26:03.000Z</time>
      </trkpt>
      <trkpt lat="43.56013" lon="5.67271">
        <ele>586.40002441406</ele>
        <time>2013-03-23T11:26:04.000Z</time>
      </trkpt>
      <trkpt lat="43.56015" lon="5.67267">
        <ele>586.59997558594</ele>
        <time>2013-03-23T11:26:05.000Z</time>
      </trkpt>
      <trkpt lat="43.56017" lon="5.67264">
        <ele>586.79998779297</ele>
        <time>2013-03-23T11:26:06.000Z</time>
      </trkpt>
      <trkpt lat="43.56023" lon="5.67257">
        <ele>587.59997558594</ele>
        <time>2013-03-23T11:26:09.000Z</time>
      </trkpt>
      <trkpt lat="43.56035" lon="5.67244">
        <ele>589.59997558594</ele>
        <time>2013-03-23T11:26:15.000Z</time>
      </trkpt>
      <trkpt lat="43.56037" lon="5.67243">
        <ele>589.79998779297</ele>
        <time>2013-03-23T11:26:16.000Z</time>
      </trkpt>
      <trkpt lat="43.56047" lon="5.67236">
        <ele>591.79998779297</ele>
        <time>2013-03-23T11:26:22.000Z</time>
      </trkpt>
      <trkpt lat="43.56048" lon="5.67234">
        <ele>592</ele>
        <time>2013-03-23T11:26:23.000Z</time>
      </trkpt>
      <trkpt lat="43.56057" lon="5.67227">
        <ele>593.40002441406</ele>
        <time>2013-03-23T11:26:29.000Z</time>
      </trkpt>
      <trkpt lat="43.56058" lon="5.67225">
        <ele>593.59997558594</ele>
        <time>2013-03-23T11:26:30.000Z</time>
      </trkpt>
      <trkpt lat="43.5606" lon="5.67224">
        <ele>593.79998779297</ele>
        <time>2013-03-23T11:26:31.000Z</time>
      </trkpt>
      <trkpt lat="43.56061" lon="5.67223">
        <ele>594.20001220703</ele>
        <time>2013-03-23T11:26:32.000Z</time>
      </trkpt>
      <trkpt lat="43.56063" lon="5.67222">
        <ele>594.40002441406</ele>
        <time>2013-03-23T11:26:33.000Z</time>
      </trkpt>
      <trkpt lat="43.56064" lon="5.67221">
        <ele>594.59997558594</ele>
        <time>2013-03-23T11:26:34.000Z</time>
      </trkpt>
      <trkpt lat="43.56066" lon="5.6722">
        <ele>594.79998779297</ele>
        <time>2013-03-23T11:26:35.000Z</time>
      </trkpt>
      <trkpt lat="43.56067" lon="5.6722">
        <ele>595</ele>
        <time>2013-03-23T11:26:36.000Z</time>
      </trkpt>
      <trkpt lat="43.56069" lon="5.6722">
        <ele>595.20001220703</ele>
        <time>2013-03-23T11:26:37.000Z</time>
      </trkpt>
      <trkpt lat="43.5607" lon="5.6722">
        <ele>595.40002441406</ele>
        <time>2013-03-23T11:26:38.000Z</time>
      </trkpt>
      <trkpt lat="43.56072" lon="5.6722">
        <ele>595.59997558594</ele>
        <time>2013-03-23T11:26:39.000Z</time>
      </trkpt>
      <trkpt lat="43.56073" lon="5.67219">
        <ele>595.79998779297</ele>
        <time>2013-03-23T11:26:40.000Z</time>
      </trkpt>
      <trkpt lat="43.56074" lon="5.67218">
        <ele>596</ele>
        <time>2013-03-23T11:26:41.000Z</time>
      </trkpt>
      <trkpt lat="43.56075" lon="5.67216">
        <ele>596.20001220703</ele>
        <time>2013-03-23T11:26:42.000Z</time>
      </trkpt>
      <trkpt lat="43.56076" lon="5.67215">
        <ele>596.40002441406</ele>
        <time>2013-03-23T11:26:43.000Z</time>
      </trkpt>
      <trkpt lat="43.56077" lon="5.67213">
        <ele>596.40002441406</ele>
        <time>2013-03-23T11:26:44.000Z</time>
      </trkpt>
      <trkpt lat="43.56078" lon="5.67211">
        <ele>596.59997558594</ele>
        <time>2013-03-23T11:26:45.000Z</time>
      </trkpt>
      <trkpt lat="43.56079" lon="5.67209">
        <ele>596.79998779297</ele>
        <time>2013-03-23T11:26:46.000Z</time>
      </trkpt>
      <trkpt lat="43.5608" lon="5.67207">
        <ele>597</ele>
        <time>2013-03-23T11:26:47.000Z</time>
      </trkpt>
      <trkpt lat="43.56094" lon="5.67183">
        <ele>598.20001220703</ele>
        <time>2013-03-23T11:26:57.000Z</time>
      </trkpt>
      <trkpt lat="43.56103" lon="5.67149">
        <ele>599.40002441406</ele>
        <time>2013-03-23T11:27:08.000Z</time>
      </trkpt>
      <trkpt lat="43.56112" lon="5.67108">
        <ele>600.59997558594</ele>
        <time>2013-03-23T11:27:20.000Z</time>
      </trkpt>
      <trkpt lat="43.56131" lon="5.67085">
        <ele>602.20001220703</ele>
        <time>2013-03-23T11:27:31.000Z</time>
      </trkpt>
      <trkpt lat="43.56134" lon="5.67078">
        <ele>603</ele>
        <time>2013-03-23T11:27:41.000Z</time>
      </trkpt>
      <trkpt lat="43.56137" lon="5.67072">
        <ele>603.40002441406</ele>
        <time>2013-03-23T11:27:46.000Z</time>
      </trkpt>
      <trkpt lat="43.56139" lon="5.67066">
        <ele>604</ele>
        <time>2013-03-23T11:27:49.000Z</time>
      </trkpt>
      <trkpt lat="43.5614" lon="5.67065">
        <ele>604</ele>
        <time>2013-03-23T11:27:50.000Z</time>
      </trkpt>
      <trkpt lat="43.56142" lon="5.67064">
        <ele>604.20001220703</ele>
        <time>2013-03-23T11:27:51.000Z</time>
      </trkpt>
      <trkpt lat="43.56143" lon="5.67063">
        <ele>604.40002441406</ele>
        <time>2013-03-23T11:27:52.000Z</time>
      </trkpt>
      <trkpt lat="43.56144" lon="5.67061">
        <ele>604.59997558594</ele>
        <time>2013-03-23T11:27:53.000Z</time>
      </trkpt>
      <trkpt lat="43.56149" lon="5.67054">
        <ele>605.20001220703</ele>
        <time>2013-03-23T11:27:57.000Z</time>
      </trkpt>
      <trkpt lat="43.56152" lon="5.67052">
        <ele>605.59997558594</ele>
        <time>2013-03-23T11:28:07.000Z</time>
      </trkpt>
      <trkpt lat="43.56152" lon="5.6705">
        <ele>605.59997558594</ele>
        <time>2013-03-23T11:28:08.000Z</time>
      </trkpt>
      <trkpt lat="43.56152" lon="5.67048">
        <ele>605.79998779297</ele>
        <time>2013-03-23T11:28:09.000Z</time>
      </trkpt>
      <trkpt lat="43.56153" lon="5.67045">
        <ele>606</ele>
        <time>2013-03-23T11:28:10.000Z</time>
      </trkpt>
      <trkpt lat="43.56153" lon="5.67042">
        <ele>606.20001220703</ele>
        <time>2013-03-23T11:28:18.000Z</time>
      </trkpt>
      <trkpt lat="43.56154" lon="5.67043">
        <ele>606.20001220703</ele>
        <time>2013-03-23T11:28:32.000Z</time>
      </trkpt>
      <trkpt lat="43.56155" lon="5.67043">
        <ele>606.20001220703</ele>
        <time>2013-03-23T11:28:34.000Z</time>
      </trkpt>
      <trkpt lat="43.56156" lon="5.67042">
        <ele>606.40002441406</ele>
        <time>2013-03-23T11:28:35.000Z</time>
      </trkpt>
      <trkpt lat="43.56157" lon="5.6704">
        <ele>606.40002441406</ele>
        <time>2013-03-23T11:28:36.000Z</time>
      </trkpt>
      <trkpt lat="43.56158" lon="5.67038">
        <ele>606.59997558594</ele>
        <time>2013-03-23T11:28:37.000Z</time>
      </trkpt>
      <trkpt lat="43.5616" lon="5.67035">
        <ele>606.79998779297</ele>
        <time>2013-03-23T11:28:38.000Z</time>
      </trkpt>
      <trkpt lat="43.56163" lon="5.67033">
        <ele>607.20001220703</ele>
        <time>2013-03-23T11:28:39.000Z</time>
      </trkpt>
      <trkpt lat="43.56165" lon="5.6703">
        <ele>607.40002441406</ele>
        <time>2013-03-23T11:28:40.000Z</time>
      </trkpt>
      <trkpt lat="43.56167" lon="5.67027">
        <ele>607.59997558594</ele>
        <time>2013-03-23T11:28:41.000Z</time>
      </trkpt>
      <trkpt lat="43.56169" lon="5.67024">
        <ele>607.79998779297</ele>
        <time>2013-03-23T11:28:42.000Z</time>
      </trkpt>
      <trkpt lat="43.56193" lon="5.66984">
        <ele>609.20001220703</ele>
        <time>2013-03-23T11:28:54.000Z</time>
      </trkpt>
      <trkpt lat="43.56197" lon="5.66975">
        <ele>609.59997558594</ele>
        <time>2013-03-23T11:28:56.000Z</time>
      </trkpt>
      <trkpt lat="43.56198" lon="5.66969">
        <ele>610</ele>
        <time>2013-03-23T11:28:57.000Z</time>
      </trkpt>
      <trkpt lat="43.56199" lon="5.66963">
        <ele>610.20001220703</ele>
        <time>2013-03-23T11:28:58.000Z</time>
      </trkpt>
      <trkpt lat="43.56201" lon="5.66956">
        <ele>610.40002441406</ele>
        <time>2013-03-23T11:28:59.000Z</time>
      </trkpt>
      <trkpt lat="43.56204" lon="5.66949">
        <ele>610.79998779297</ele>
        <time>2013-03-23T11:29:00.000Z</time>
      </trkpt>
      <trkpt lat="43.56208" lon="5.66944">
        <ele>611</ele>
        <time>2013-03-23T11:29:01.000Z</time>
      </trkpt>
      <trkpt lat="43.56214" lon="5.66943">
        <ele>611.20001220703</ele>
        <time>2013-03-23T11:29:02.000Z</time>
      </trkpt>
      <trkpt lat="43.56219" lon="5.66944">
        <ele>611.20001220703</ele>
        <time>2013-03-23T11:29:03.000Z</time>
      </trkpt>
      <trkpt lat="43.56224" lon="5.66946">
        <ele>611</ele>
        <time>2013-03-23T11:29:04.000Z</time>
      </trkpt>
      <trkpt lat="43.56229" lon="5.66948">
        <ele>611</ele>
        <time>2013-03-23T11:29:05.000Z</time>
      </trkpt>
      <trkpt lat="43.56233" lon="5.66949">
        <ele>610.79998779297</ele>
        <time>2013-03-23T11:29:06.000Z</time>
      </trkpt>
      <trkpt lat="43.56238" lon="5.66951">
        <ele>610.79998779297</ele>
        <time>2013-03-23T11:29:07.000Z</time>
      </trkpt>
      <trkpt lat="43.56243" lon="5.66953">
        <ele>610.79998779297</ele>
        <time>2013-03-23T11:29:08.000Z</time>
      </trkpt>
      <trkpt lat="43.56247" lon="5.66955">
        <ele>610.59997558594</ele>
        <time>2013-03-23T11:29:09.000Z</time>
      </trkpt>
      <trkpt lat="43.56251" lon="5.66959">
        <ele>610.40002441406</ele>
        <time>2013-03-23T11:29:10.000Z</time>
      </trkpt>
      <trkpt lat="43.56254" lon="5.66964">
        <ele>610.40002441406</ele>
        <time>2013-03-23T11:29:11.000Z</time>
      </trkpt>
      <trkpt lat="43.56257" lon="5.6697">
        <ele>610</ele>
        <time>2013-03-23T11:29:12.000Z</time>
      </trkpt>
      <trkpt lat="43.56258" lon="5.66976">
        <ele>609.79998779297</ele>
        <time>2013-03-23T11:29:13.000Z</time>
      </trkpt>
      <trkpt lat="43.56259" lon="5.66981">
        <ele>609.59997558594</ele>
        <time>2013-03-23T11:29:14.000Z</time>
      </trkpt>
      <trkpt lat="43.56277" lon="5.67016">
        <ele>608.59997558594</ele>
        <time>2013-03-23T11:29:22.000Z</time>
      </trkpt>
      <trkpt lat="43.56302" lon="5.67048">
        <ele>608.59997558594</ele>
        <time>2013-03-23T11:29:30.000Z</time>
      </trkpt>
      <trkpt lat="43.56305" lon="5.67051">
        <ele>608.79998779297</ele>
        <time>2013-03-23T11:29:31.000Z</time>
      </trkpt>
      <trkpt lat="43.56308" lon="5.67053">
        <ele>609</ele>
        <time>2013-03-23T11:29:32.000Z</time>
      </trkpt>
      <trkpt lat="43.56312" lon="5.67054">
        <ele>609.20001220703</ele>
        <time>2013-03-23T11:29:33.000Z</time>
      </trkpt>
      <trkpt lat="43.56315" lon="5.67055">
        <ele>609.40002441406</ele>
        <time>2013-03-23T11:29:34.000Z</time>
      </trkpt>
      <trkpt lat="43.56318" lon="5.67055">
        <ele>609.59997558594</ele>
        <time>2013-03-23T11:29:35.000Z</time>
      </trkpt>
      <trkpt lat="43.56321" lon="5.67055">
        <ele>609.79998779297</ele>
        <time>2013-03-23T11:29:36.000Z</time>
      </trkpt>
      <trkpt lat="43.5633" lon="5.67054">
        <ele>610.59997558594</ele>
        <time>2013-03-23T11:29:39.000Z</time>
      </trkpt>
      <trkpt lat="43.56355" lon="5.67052">
        <ele>611.59997558594</ele>
        <time>2013-03-23T11:29:47.000Z</time>
      </trkpt>
      <trkpt lat="43.56386" lon="5.67045">
        <ele>612.79998779297</ele>
        <time>2013-03-23T11:29:58.000Z</time>
      </trkpt>
      <trkpt lat="43.56416" lon="5.67037">
        <ele>614.20001220703</ele>
        <time>2013-03-23T11:30:09.000Z</time>
      </trkpt>
      <trkpt lat="43.56428" lon="5.67033">
        <ele>611.59997558594</ele>
        <time>2013-03-23T11:30:19.000Z</time>
      </trkpt>
      <trkpt lat="43.5643" lon="5.67038">
        <ele>611</ele>
        <time>2013-03-23T11:30:43.000Z</time>
      </trkpt>
      <trkpt lat="43.56436" lon="5.67031">
        <ele>609.79998779297</ele>
        <time>2013-03-23T11:30:50.000Z</time>
      </trkpt>
      <trkpt lat="43.56438" lon="5.67027">
        <ele>609.59997558594</ele>
        <time>2013-03-23T11:30:51.000Z</time>
      </trkpt>
      <trkpt lat="43.56438" lon="5.67023">
        <ele>609.59997558594</ele>
        <time>2013-03-23T11:30:52.000Z</time>
      </trkpt>
      <trkpt lat="43.56438" lon="5.67018">
        <ele>609.79998779297</ele>
        <time>2013-03-23T11:30:53.000Z</time>
      </trkpt>
      <trkpt lat="43.56437" lon="5.67013">
        <ele>609.79998779297</ele>
        <time>2013-03-23T11:30:54.000Z</time>
      </trkpt>
      <trkpt lat="43.56438" lon="5.67009">
        <ele>609.79998779297</ele>
        <time>2013-03-23T11:30:55.000Z</time>
      </trkpt>
      <trkpt lat="43.56438" lon="5.67005">
        <ele>609.79998779297</ele>
        <time>2013-03-23T11:30:56.000Z</time>
      </trkpt>
      <trkpt lat="43.56445" lon="5.66981">
        <ele>608.20001220703</ele>
        <time>2013-03-23T11:31:02.000Z</time>
      </trkpt>
      <trkpt lat="43.56458" lon="5.66958">
        <ele>604.79998779297</ele>
        <time>2013-03-23T11:31:09.000Z</time>
      </trkpt>
      <trkpt lat="43.56468" lon="5.66951">
        <ele>602</ele>
        <time>2013-03-23T11:31:14.000Z</time>
      </trkpt>
      <trkpt lat="43.56469" lon="5.6695">
        <ele>601.59997558594</ele>
        <time>2013-03-23T11:31:15.000Z</time>
      </trkpt>
      <trkpt lat="43.56469" lon="5.66947">
        <ele>601.40002441406</ele>
        <time>2013-03-23T11:31:16.000Z</time>
      </trkpt>
      <trkpt lat="43.5647" lon="5.66946">
        <ele>601.40002441406</ele>
        <time>2013-03-23T11:31:17.000Z</time>
      </trkpt>
      <trkpt lat="43.56469" lon="5.66944">
        <ele>601.40002441406</ele>
        <time>2013-03-23T11:31:18.000Z</time>
      </trkpt>
      <trkpt lat="43.56469" lon="5.66943">
        <ele>601.40002441406</ele>
        <time>2013-03-23T11:31:19.000Z</time>
      </trkpt>
      <trkpt lat="43.56469" lon="5.66926">
        <ele>601.59997558594</ele>
        <time>2013-03-23T11:31:26.000Z</time>
      </trkpt>
      <trkpt lat="43.5647" lon="5.66924">
        <ele>601.20001220703</ele>
        <time>2013-03-23T11:31:27.000Z</time>
      </trkpt>
      <trkpt lat="43.56472" lon="5.66924">
        <ele>600.79998779297</ele>
        <time>2013-03-23T11:31:28.000Z</time>
      </trkpt>
      <trkpt lat="43.56474" lon="5.66922">
        <ele>600</ele>
        <time>2013-03-23T11:31:30.000Z</time>
      </trkpt>
      <trkpt lat="43.56474" lon="5.6692">
        <ele>600</ele>
        <time>2013-03-23T11:31:31.000Z</time>
      </trkpt>
      <trkpt lat="43.56475" lon="5.66917">
        <ele>599.79998779297</ele>
        <time>2013-03-23T11:31:32.000Z</time>
      </trkpt>
      <trkpt lat="43.56475" lon="5.66914">
        <ele>599.40002441406</ele>
        <time>2013-03-23T11:31:33.000Z</time>
      </trkpt>
      <trkpt lat="43.56477" lon="5.6691">
        <ele>598.79998779297</ele>
        <time>2013-03-23T11:31:34.000Z</time>
      </trkpt>
      <trkpt lat="43.56478" lon="5.66906">
        <ele>598.40002441406</ele>
        <time>2013-03-23T11:31:35.000Z</time>
      </trkpt>
      <trkpt lat="43.56478" lon="5.66901">
        <ele>598</ele>
        <time>2013-03-23T11:31:36.000Z</time>
      </trkpt>
      <trkpt lat="43.56477" lon="5.66895">
        <ele>598</ele>
        <time>2013-03-23T11:31:37.000Z</time>
      </trkpt>
      <trkpt lat="43.56476" lon="5.6689">
        <ele>598.20001220703</ele>
        <time>2013-03-23T11:31:38.000Z</time>
      </trkpt>
      <trkpt lat="43.56475" lon="5.66885">
        <ele>598.20001220703</ele>
        <time>2013-03-23T11:31:39.000Z</time>
      </trkpt>
      <trkpt lat="43.56475" lon="5.66881">
        <ele>598</ele>
        <time>2013-03-23T11:31:40.000Z</time>
      </trkpt>
      <trkpt lat="43.56477" lon="5.66878">
        <ele>597.40002441406</ele>
        <time>2013-03-23T11:31:41.000Z</time>
      </trkpt>
      <trkpt lat="43.56478" lon="5.66875">
        <ele>597</ele>
        <time>2013-03-23T11:31:42.000Z</time>
      </trkpt>
      <trkpt lat="43.56479" lon="5.66873">
        <ele>596.40002441406</ele>
        <time>2013-03-23T11:31:43.000Z</time>
      </trkpt>
      <trkpt lat="43.56481" lon="5.66869">
        <ele>595.79998779297</ele>
        <time>2013-03-23T11:31:45.000Z</time>
      </trkpt>
      <trkpt lat="43.56482" lon="5.66867">
        <ele>595.40002441406</ele>
        <time>2013-03-23T11:31:46.000Z</time>
      </trkpt>
      <trkpt lat="43.56483" lon="5.66865">
        <ele>594.79998779297</ele>
        <time>2013-03-23T11:31:47.000Z</time>
      </trkpt>
      <trkpt lat="43.56485" lon="5.66861">
        <ele>594</ele>
        <time>2013-03-23T11:31:48.000Z</time>
      </trkpt>
      <trkpt lat="43.56486" lon="5.66858">
        <ele>593.40002441406</ele>
        <time>2013-03-23T11:31:49.000Z</time>
      </trkpt>
      <trkpt lat="43.56492" lon="5.66845">
        <ele>591.20001220703</ele>
        <time>2013-03-23T11:31:53.000Z</time>
      </trkpt>
      <trkpt lat="43.56495" lon="5.66839">
        <ele>589.59997558594</ele>
        <time>2013-03-23T11:31:57.000Z</time>
      </trkpt>
      <trkpt lat="43.565" lon="5.66828">
        <ele>587.40002441406</ele>
        <time>2013-03-23T11:32:01.000Z</time>
      </trkpt>
      <trkpt lat="43.56502" lon="5.66823">
        <ele>586.59997558594</ele>
        <time>2013-03-23T11:32:02.000Z</time>
      </trkpt>
      <trkpt lat="43.56503" lon="5.66818">
        <ele>585.59997558594</ele>
        <time>2013-03-23T11:32:03.000Z</time>
      </trkpt>
      <trkpt lat="43.56511" lon="5.66801">
        <ele>581.40002441406</ele>
        <time>2013-03-23T11:32:06.000Z</time>
      </trkpt>
      <trkpt lat="43.56517" lon="5.66789">
        <ele>578.59997558594</ele>
        <time>2013-03-23T11:32:08.000Z</time>
      </trkpt>
      <trkpt lat="43.56519" lon="5.66784">
        <ele>577.40002441406</ele>
        <time>2013-03-23T11:32:09.000Z</time>
      </trkpt>
      <trkpt lat="43.5652" lon="5.66778">
        <ele>576.79998779297</ele>
        <time>2013-03-23T11:32:10.000Z</time>
      </trkpt>
      <trkpt lat="43.56522" lon="5.66773">
        <ele>576</ele>
        <time>2013-03-23T11:32:11.000Z</time>
      </trkpt>
      <trkpt lat="43.56525" lon="5.66769">
        <ele>574.59997558594</ele>
        <time>2013-03-23T11:32:12.000Z</time>
      </trkpt>
      <trkpt lat="43.56529" lon="5.66765">
        <ele>573.20001220703</ele>
        <time>2013-03-23T11:32:13.000Z</time>
      </trkpt>
      <trkpt lat="43.56532" lon="5.66763">
        <ele>572</ele>
        <time>2013-03-23T11:32:14.000Z</time>
      </trkpt>
      <trkpt lat="43.56535" lon="5.6676">
        <ele>570.79998779297</ele>
        <time>2013-03-23T11:32:15.000Z</time>
      </trkpt>
      <trkpt lat="43.56538" lon="5.66756">
        <ele>569.59997558594</ele>
        <time>2013-03-23T11:32:16.000Z</time>
      </trkpt>
      <trkpt lat="43.56542" lon="5.66751">
        <ele>568.40002441406</ele>
        <time>2013-03-23T11:32:17.000Z</time>
      </trkpt>
      <trkpt lat="43.56545" lon="5.66746">
        <ele>567.40002441406</ele>
        <time>2013-03-23T11:32:18.000Z</time>
      </trkpt>
      <trkpt lat="43.5655" lon="5.66735">
        <ele>565.40002441406</ele>
        <time>2013-03-23T11:32:21.000Z</time>
      </trkpt>
      <trkpt lat="43.56551" lon="5.66734">
        <ele>565</ele>
        <time>2013-03-23T11:32:28.000Z</time>
      </trkpt>
      <trkpt lat="43.56552" lon="5.66732">
        <ele>564.79998779297</ele>
        <time>2013-03-23T11:32:50.000Z</time>
      </trkpt>
      <trkpt lat="43.5655" lon="5.66731">
        <ele>565.40002441406</ele>
        <time>2013-03-23T11:33:08.000Z</time>
      </trkpt>
      <trkpt lat="43.5655" lon="5.66729">
        <ele>565.40002441406</ele>
        <time>2013-03-23T11:33:32.000Z</time>
      </trkpt>
      <trkpt lat="43.56551" lon="5.66726">
        <ele>565.20001220703</ele>
        <time>2013-03-23T11:33:38.000Z</time>
      </trkpt>
      <trkpt lat="43.56551" lon="5.66723">
        <ele>565</ele>
        <time>2013-03-23T11:33:39.000Z</time>
      </trkpt>
      <trkpt lat="43.56552" lon="5.66719">
        <ele>564.59997558594</ele>
        <time>2013-03-23T11:33:40.000Z</time>
      </trkpt>
      <trkpt lat="43.56554" lon="5.66714">
        <ele>563.79998779297</ele>
        <time>2013-03-23T11:33:41.000Z</time>
      </trkpt>
      <trkpt lat="43.56557" lon="5.66708">
        <ele>562.79998779297</ele>
        <time>2013-03-23T11:33:42.000Z</time>
      </trkpt>
      <trkpt lat="43.56561" lon="5.66701">
        <ele>561.79998779297</ele>
        <time>2013-03-23T11:33:43.000Z</time>
      </trkpt>
      <trkpt lat="43.5659" lon="5.66659">
        <ele>555.20001220703</ele>
        <time>2013-03-23T11:33:49.000Z</time>
      </trkpt>
      <trkpt lat="43.56596" lon="5.66654">
        <ele>555.59997558594</ele>
        <time>2013-03-23T11:33:50.000Z</time>
      </trkpt>
      <trkpt lat="43.56648" lon="5.66617">
        <ele>559.79998779297</ele>
        <time>2013-03-23T11:33:59.000Z</time>
      </trkpt>
      <trkpt lat="43.56652" lon="5.66612">
        <ele>560.20001220703</ele>
        <time>2013-03-23T11:34:00.000Z</time>
      </trkpt>
      <trkpt lat="43.56661" lon="5.66596">
        <ele>561.20001220703</ele>
        <time>2013-03-23T11:34:03.000Z</time>
      </trkpt>
      <trkpt lat="43.56663" lon="5.66591">
        <ele>561.40002441406</ele>
        <time>2013-03-23T11:34:04.000Z</time>
      </trkpt>
      <trkpt lat="43.5668" lon="5.66575">
        <ele>562.59997558594</ele>
        <time>2013-03-23T11:34:10.000Z</time>
      </trkpt>
      <trkpt lat="43.56689" lon="5.6657">
        <ele>562.79998779297</ele>
        <time>2013-03-23T11:34:13.000Z</time>
      </trkpt>
      <trkpt lat="43.56712" lon="5.66554">
        <ele>562.79998779297</ele>
        <time>2013-03-23T11:34:21.000Z</time>
      </trkpt>
      <trkpt lat="43.56716" lon="5.66552">
        <ele>562.59997558594</ele>
        <time>2013-03-23T11:34:22.000Z</time>
      </trkpt>
      <trkpt lat="43.56735" lon="5.6654">
        <ele>561.59997558594</ele>
        <time>2013-03-23T11:34:27.000Z</time>
      </trkpt>
      <trkpt lat="43.5674" lon="5.66536">
        <ele>561.20001220703</ele>
        <time>2013-03-23T11:34:28.000Z</time>
      </trkpt>
      <trkpt lat="43.56744" lon="5.66533">
        <ele>560.79998779297</ele>
        <time>2013-03-23T11:34:29.000Z</time>
      </trkpt>
      <trkpt lat="43.56765" lon="5.66519">
        <ele>557</ele>
        <time>2013-03-23T11:34:33.000Z</time>
      </trkpt>
      <trkpt lat="43.5677" lon="5.66515">
        <ele>556</ele>
        <time>2013-03-23T11:34:34.000Z</time>
      </trkpt>
      <trkpt lat="43.56776" lon="5.6651">
        <ele>554.59997558594</ele>
        <time>2013-03-23T11:34:35.000Z</time>
      </trkpt>
      <trkpt lat="43.56781" lon="5.66504">
        <ele>553.20001220703</ele>
        <time>2013-03-23T11:34:36.000Z</time>
      </trkpt>
      <trkpt lat="43.56786" lon="5.66499">
        <ele>552</ele>
        <time>2013-03-23T11:34:37.000Z</time>
      </trkpt>
      <trkpt lat="43.56791" lon="5.66493">
        <ele>551.20001220703</ele>
        <time>2013-03-23T11:34:38.000Z</time>
      </trkpt>
      <trkpt lat="43.56797" lon="5.66486">
        <ele>550.40002441406</ele>
        <time>2013-03-23T11:34:39.000Z</time>
      </trkpt>
      <trkpt lat="43.56815" lon="5.6646">
        <ele>547.20001220703</ele>
        <time>2013-03-23T11:34:42.000Z</time>
      </trkpt>
      <trkpt lat="43.56833" lon="5.66426">
        <ele>543.59997558594</ele>
        <time>2013-03-23T11:34:45.000Z</time>
      </trkpt>
      <trkpt lat="43.56854" lon="5.66381">
        <ele>542.79998779297</ele>
        <time>2013-03-23T11:34:49.000Z</time>
      </trkpt>
      <trkpt lat="43.56882" lon="5.66319">
        <ele>538.79998779297</ele>
        <time>2013-03-23T11:34:55.000Z</time>
      </trkpt>
      <trkpt lat="43.56891" lon="5.66299">
        <ele>536.79998779297</ele>
        <time>2013-03-23T11:34:57.000Z</time>
      </trkpt>
      <trkpt lat="43.569" lon="5.66251">
        <ele>535</ele>
        <time>2013-03-23T11:35:01.000Z</time>
      </trkpt>
      <trkpt lat="43.56919" lon="5.66209">
        <ele>538.59997558594</ele>
        <time>2013-03-23T11:35:06.000Z</time>
      </trkpt>
      <trkpt lat="43.56929" lon="5.66202">
        <ele>538.59997558594</ele>
        <time>2013-03-23T11:35:08.000Z</time>
      </trkpt>
      <trkpt lat="43.56952" lon="5.66183">
        <ele>538.40002441406</ele>
        <time>2013-03-23T11:35:13.000Z</time>
      </trkpt>
      <trkpt lat="43.57002" lon="5.66137">
        <ele>537.59997558594</ele>
        <time>2013-03-23T11:35:23.000Z</time>
      </trkpt>
      <trkpt lat="43.57024" lon="5.66117">
        <ele>536.20001220703</ele>
        <time>2013-03-23T11:35:27.000Z</time>
      </trkpt>
      <trkpt lat="43.57042" lon="5.66103">
        <ele>534.40002441406</ele>
        <time>2013-03-23T11:35:30.000Z</time>
      </trkpt>
      <trkpt lat="43.57046" lon="5.66096">
        <ele>534.20001220703</ele>
        <time>2013-03-23T11:35:31.000Z</time>
      </trkpt>
      <trkpt lat="43.57053" lon="5.66082">
        <ele>534.20001220703</ele>
        <time>2013-03-23T11:35:33.000Z</time>
      </trkpt>
      <trkpt lat="43.57055" lon="5.66079">
        <ele>534</ele>
        <time>2013-03-23T11:35:34.000Z</time>
      </trkpt>
      <trkpt lat="43.57057" lon="5.66077">
        <ele>533.79998779297</ele>
        <time>2013-03-23T11:35:35.000Z</time>
      </trkpt>
      <trkpt lat="43.57059" lon="5.66075">
        <ele>533.40002441406</ele>
        <time>2013-03-23T11:35:36.000Z</time>
      </trkpt>
      <trkpt lat="43.57062" lon="5.66072">
        <ele>533.20001220703</ele>
        <time>2013-03-23T11:35:37.000Z</time>
      </trkpt>
      <trkpt lat="43.57066" lon="5.66069">
        <ele>532.40002441406</ele>
        <time>2013-03-23T11:35:38.000Z</time>
      </trkpt>
      <trkpt lat="43.5707" lon="5.66067">
        <ele>531.59997558594</ele>
        <time>2013-03-23T11:35:39.000Z</time>
      </trkpt>
      <trkpt lat="43.57075" lon="5.66065">
        <ele>530.79998779297</ele>
        <time>2013-03-23T11:35:40.000Z</time>
      </trkpt>
      <trkpt lat="43.57078" lon="5.6606">
        <ele>530.20001220703</ele>
        <time>2013-03-23T11:35:41.000Z</time>
      </trkpt>
      <trkpt lat="43.57081" lon="5.66054">
        <ele>529.79998779297</ele>
        <time>2013-03-23T11:35:42.000Z</time>
      </trkpt>
      <trkpt lat="43.57085" lon="5.6605">
        <ele>529.59997558594</ele>
        <time>2013-03-23T11:35:43.000Z</time>
      </trkpt>
      <trkpt lat="43.5709" lon="5.66048">
        <ele>529.59997558594</ele>
        <time>2013-03-23T11:35:44.000Z</time>
      </trkpt>
      <trkpt lat="43.57095" lon="5.66047">
        <ele>529.59997558594</ele>
        <time>2013-03-23T11:35:45.000Z</time>
      </trkpt>
      <trkpt lat="43.57101" lon="5.66048">
        <ele>529.59997558594</ele>
        <time>2013-03-23T11:35:46.000Z</time>
      </trkpt>
      <trkpt lat="43.57108" lon="5.66049">
        <ele>529.40002441406</ele>
        <time>2013-03-23T11:35:47.000Z</time>
      </trkpt>
      <trkpt lat="43.57149" lon="5.66057">
        <ele>528.79998779297</ele>
        <time>2013-03-23T11:35:53.000Z</time>
      </trkpt>
      <trkpt lat="43.57155" lon="5.66059">
        <ele>528.79998779297</ele>
        <time>2013-03-23T11:35:54.000Z</time>
      </trkpt>
      <trkpt lat="43.57165" lon="5.66063">
        <ele>528.59997558594</ele>
        <time>2013-03-23T11:35:56.000Z</time>
      </trkpt>
      <trkpt lat="43.57169" lon="5.66066">
        <ele>529</ele>
        <time>2013-03-23T11:35:57.000Z</time>
      </trkpt>
      <trkpt lat="43.57173" lon="5.6607">
        <ele>529.40002441406</ele>
        <time>2013-03-23T11:35:58.000Z</time>
      </trkpt>
      <trkpt lat="43.57174" lon="5.66074">
        <ele>529.59997558594</ele>
        <time>2013-03-23T11:35:59.000Z</time>
      </trkpt>
      <trkpt lat="43.57175" lon="5.66079">
        <ele>529.59997558594</ele>
        <time>2013-03-23T11:36:00.000Z</time>
      </trkpt>
      <trkpt lat="43.57176" lon="5.66082">
        <ele>529.40002441406</ele>
        <time>2013-03-23T11:36:01.000Z</time>
      </trkpt>
      <trkpt lat="43.57182" lon="5.66123">
        <ele>529.40002441406</ele>
        <time>2013-03-23T11:36:10.000Z</time>
      </trkpt>
      <trkpt lat="43.57189" lon="5.66176">
        <ele>529</ele>
        <time>2013-03-23T11:36:20.000Z</time>
      </trkpt>
      <trkpt lat="43.57189" lon="5.66208">
        <ele>528</ele>
        <time>2013-03-23T11:36:25.000Z</time>
      </trkpt>
      <trkpt lat="43.57189" lon="5.66221">
        <ele>527.40002441406</ele>
        <time>2013-03-23T11:36:27.000Z</time>
      </trkpt>
      <trkpt lat="43.57189" lon="5.66248">
        <ele>526.40002441406</ele>
        <time>2013-03-23T11:36:32.000Z</time>
      </trkpt>
      <trkpt lat="43.57191" lon="5.6625">
        <ele>526.79998779297</ele>
        <time>2013-03-23T11:36:33.000Z</time>
      </trkpt>
      <trkpt lat="43.57193" lon="5.6625">
        <ele>527</ele>
        <time>2013-03-23T11:36:34.000Z</time>
      </trkpt>
      <trkpt lat="43.57193" lon="5.66249">
        <ele>527</ele>
        <time>2013-03-23T11:36:35.000Z</time>
      </trkpt>
      <trkpt lat="43.57193" lon="5.66248">
        <ele>527.20001220703</ele>
        <time>2013-03-23T11:36:36.000Z</time>
      </trkpt>
      <trkpt lat="43.57193" lon="5.66246">
        <ele>527.20001220703</ele>
        <time>2013-03-23T11:36:37.000Z</time>
      </trkpt>
      <trkpt lat="43.57196" lon="5.66237">
        <ele>528</ele>
        <time>2013-03-23T11:36:41.000Z</time>
      </trkpt>
      <trkpt lat="43.57202" lon="5.66224">
        <ele>529.40002441406</ele>
        <time>2013-03-23T11:36:47.000Z</time>
      </trkpt>
      <trkpt lat="43.57206" lon="5.66189">
        <ele>531.40002441406</ele>
        <time>2013-03-23T11:37:00.000Z</time>
      </trkpt>
      <trkpt lat="43.57212" lon="5.66155">
        <ele>533.40002441406</ele>
        <time>2013-03-23T11:37:11.000Z</time>
      </trkpt>
      <trkpt lat="43.57213" lon="5.66142">
        <ele>533.79998779297</ele>
        <time>2013-03-23T11:37:15.000Z</time>
      </trkpt>
      <trkpt lat="43.57213" lon="5.66104">
        <ele>535.20001220703</ele>
        <time>2013-03-23T11:37:27.000Z</time>
      </trkpt>
      <trkpt lat="43.57214" lon="5.66097">
        <ele>535.40002441406</ele>
        <time>2013-03-23T11:37:29.000Z</time>
      </trkpt>
      <trkpt lat="43.57216" lon="5.66064">
        <ele>536.79998779297</ele>
        <time>2013-03-23T11:37:41.000Z</time>
      </trkpt>
      <trkpt lat="43.57218" lon="5.66035">
        <ele>538.20001220703</ele>
        <time>2013-03-23T11:37:53.000Z</time>
      </trkpt>
      <trkpt lat="43.57222" lon="5.66019">
        <ele>539.40002441406</ele>
        <time>2013-03-23T11:38:00.000Z</time>
      </trkpt>
      <trkpt lat="43.57229" lon="5.65994">
        <ele>541.59997558594</ele>
        <time>2013-03-23T11:38:12.000Z</time>
      </trkpt>
      <trkpt lat="43.5723" lon="5.6599">
        <ele>542</ele>
        <time>2013-03-23T11:38:14.000Z</time>
      </trkpt>
      <trkpt lat="43.57242" lon="5.65976">
        <ele>544.59997558594</ele>
        <time>2013-03-23T11:38:24.000Z</time>
      </trkpt>
      <trkpt lat="43.57247" lon="5.65972">
        <ele>545.59997558594</ele>
        <time>2013-03-23T11:38:27.000Z</time>
      </trkpt>
      <trkpt lat="43.57265" lon="5.65956">
        <ele>547</ele>
        <time>2013-03-23T11:38:38.000Z</time>
      </trkpt>
      <trkpt lat="43.57288" lon="5.65931">
        <ele>548</ele>
        <time>2013-03-23T11:38:47.000Z</time>
      </trkpt>
      <trkpt lat="43.57298" lon="5.65914">
        <ele>548.40002441406</ele>
        <time>2013-03-23T11:38:51.000Z</time>
      </trkpt>
      <trkpt lat="43.573" lon="5.65909">
        <ele>548.20001220703</ele>
        <time>2013-03-23T11:38:52.000Z</time>
      </trkpt>
      <trkpt lat="43.57312" lon="5.65876">
        <ele>547.59997558594</ele>
        <time>2013-03-23T11:38:58.000Z</time>
      </trkpt>
      <trkpt lat="43.57312" lon="5.65871">
        <ele>547.59997558594</ele>
        <time>2013-03-23T11:38:59.000Z</time>
      </trkpt>
      <trkpt lat="43.57312" lon="5.65866">
        <ele>547.59997558594</ele>
        <time>2013-03-23T11:39:00.000Z</time>
      </trkpt>
      <trkpt lat="43.57312" lon="5.6586">
        <ele>547.59997558594</ele>
        <time>2013-03-23T11:39:01.000Z</time>
      </trkpt>
      <trkpt lat="43.57312" lon="5.65855">
        <ele>547.40002441406</ele>
        <time>2013-03-23T11:39:02.000Z</time>
      </trkpt>
      <trkpt lat="43.57313" lon="5.65836">
        <ele>547.20001220703</ele>
        <time>2013-03-23T11:39:06.000Z</time>
      </trkpt>
      <trkpt lat="43.57315" lon="5.65833">
        <ele>547</ele>
        <time>2013-03-23T11:39:07.000Z</time>
      </trkpt>
      <trkpt lat="43.57318" lon="5.6583">
        <ele>546.79998779297</ele>
        <time>2013-03-23T11:39:08.000Z</time>
      </trkpt>
      <trkpt lat="43.57321" lon="5.65829">
        <ele>546.59997558594</ele>
        <time>2013-03-23T11:39:09.000Z</time>
      </trkpt>
      <trkpt lat="43.57329" lon="5.65831">
        <ele>546.20001220703</ele>
        <time>2013-03-23T11:39:11.000Z</time>
      </trkpt>
      <trkpt lat="43.57335" lon="5.6583">
        <ele>545.59997558594</ele>
        <time>2013-03-23T11:39:13.000Z</time>
      </trkpt>
      <trkpt lat="43.57338" lon="5.65827">
        <ele>545</ele>
        <time>2013-03-23T11:39:14.000Z</time>
      </trkpt>
      <trkpt lat="43.5734" lon="5.65822">
        <ele>544.79998779297</ele>
        <time>2013-03-23T11:39:15.000Z</time>
      </trkpt>
      <trkpt lat="43.57342" lon="5.65817">
        <ele>544.59997558594</ele>
        <time>2013-03-23T11:39:16.000Z</time>
      </trkpt>
      <trkpt lat="43.57343" lon="5.65811">
        <ele>544.40002441406</ele>
        <time>2013-03-23T11:39:17.000Z</time>
      </trkpt>
      <trkpt lat="43.57344" lon="5.65804">
        <ele>544.40002441406</ele>
        <time>2013-03-23T11:39:18.000Z</time>
      </trkpt>
      <trkpt lat="43.57345" lon="5.65797">
        <ele>544.40002441406</ele>
        <time>2013-03-23T11:39:19.000Z</time>
      </trkpt>
      <trkpt lat="43.57347" lon="5.65789">
        <ele>544.20001220703</ele>
        <time>2013-03-23T11:39:20.000Z</time>
      </trkpt>
      <trkpt lat="43.57348" lon="5.65783">
        <ele>544.20001220703</ele>
        <time>2013-03-23T11:39:21.000Z</time>
      </trkpt>
      <trkpt lat="43.57351" lon="5.65779">
        <ele>544</ele>
        <time>2013-03-23T11:39:22.000Z</time>
      </trkpt>
      <trkpt lat="43.57353" lon="5.65779">
        <ele>543.40002441406</ele>
        <time>2013-03-23T11:39:23.000Z</time>
      </trkpt>
      <trkpt lat="43.57356" lon="5.65783">
        <ele>543</ele>
        <time>2013-03-23T11:39:24.000Z</time>
      </trkpt>
      <trkpt lat="43.57358" lon="5.65787">
        <ele>542.40002441406</ele>
        <time>2013-03-23T11:39:25.000Z</time>
      </trkpt>
      <trkpt lat="43.5736" lon="5.65792">
        <ele>542</ele>
        <time>2013-03-23T11:39:26.000Z</time>
      </trkpt>
      <trkpt lat="43.57362" lon="5.65796">
        <ele>541.79998779297</ele>
        <time>2013-03-23T11:39:27.000Z</time>
      </trkpt>
      <trkpt lat="43.57363" lon="5.65797">
        <ele>541.40002441406</ele>
        <time>2013-03-23T11:39:28.000Z</time>
      </trkpt>
      <trkpt lat="43.57365" lon="5.65797">
        <ele>541</ele>
        <time>2013-03-23T11:39:29.000Z</time>
      </trkpt>
      <trkpt lat="43.57367" lon="5.65795">
        <ele>540.79998779297</ele>
        <time>2013-03-23T11:39:30.000Z</time>
      </trkpt>
      <trkpt lat="43.57368" lon="5.65791">
        <ele>540.79998779297</ele>
        <time>2013-03-23T11:39:31.000Z</time>
      </trkpt>
      <trkpt lat="43.57369" lon="5.65787">
        <ele>540.79998779297</ele>
        <time>2013-03-23T11:39:32.000Z</time>
      </trkpt>
      <trkpt lat="43.57369" lon="5.65781">
        <ele>541</ele>
        <time>2013-03-23T11:39:33.000Z</time>
      </trkpt>
      <trkpt lat="43.57371" lon="5.65769">
        <ele>541.20001220703</ele>
        <time>2013-03-23T11:39:35.000Z</time>
      </trkpt>
      <trkpt lat="43.57373" lon="5.65763">
        <ele>541.20001220703</ele>
        <time>2013-03-23T11:39:36.000Z</time>
      </trkpt>
      <trkpt lat="43.57376" lon="5.65757">
        <ele>541</ele>
        <time>2013-03-23T11:39:37.000Z</time>
      </trkpt>
      <trkpt lat="43.57378" lon="5.65752">
        <ele>540.79998779297</ele>
        <time>2013-03-23T11:39:38.000Z</time>
      </trkpt>
      <trkpt lat="43.57382" lon="5.65746">
        <ele>540.59997558594</ele>
        <time>2013-03-23T11:39:39.000Z</time>
      </trkpt>
      <trkpt lat="43.57384" lon="5.65739">
        <ele>540.20001220703</ele>
        <time>2013-03-23T11:39:40.000Z</time>
      </trkpt>
      <trkpt lat="43.57387" lon="5.65732">
        <ele>539.79998779297</ele>
        <time>2013-03-23T11:39:41.000Z</time>
      </trkpt>
      <trkpt lat="43.5739" lon="5.65725">
        <ele>539.40002441406</ele>
        <time>2013-03-23T11:39:42.000Z</time>
      </trkpt>
      <trkpt lat="43.57397" lon="5.65702">
        <ele>538.40002441406</ele>
        <time>2013-03-23T11:39:45.000Z</time>
      </trkpt>
      <trkpt lat="43.57399" lon="5.65694">
        <ele>538.20001220703</ele>
        <time>2013-03-23T11:39:46.000Z</time>
      </trkpt>
      <trkpt lat="43.574" lon="5.65685">
        <ele>538</ele>
        <time>2013-03-23T11:39:47.000Z</time>
      </trkpt>
      <trkpt lat="43.574" lon="5.65677">
        <ele>538</ele>
        <time>2013-03-23T11:39:48.000Z</time>
      </trkpt>
      <trkpt lat="43.574" lon="5.65669">
        <ele>538.20001220703</ele>
        <time>2013-03-23T11:39:49.000Z</time>
      </trkpt>
      <trkpt lat="43.574" lon="5.65661">
        <ele>538.20001220703</ele>
        <time>2013-03-23T11:39:50.000Z</time>
      </trkpt>
      <trkpt lat="43.574" lon="5.65653">
        <ele>538.40002441406</ele>
        <time>2013-03-23T11:39:51.000Z</time>
      </trkpt>
      <trkpt lat="43.57403" lon="5.65637">
        <ele>538.40002441406</ele>
        <time>2013-03-23T11:39:53.000Z</time>
      </trkpt>
      <trkpt lat="43.57412" lon="5.65605">
        <ele>537.79998779297</ele>
        <time>2013-03-23T11:39:58.000Z</time>
      </trkpt>
      <trkpt lat="43.57415" lon="5.65602">
        <ele>537.59997558594</ele>
        <time>2013-03-23T11:39:59.000Z</time>
      </trkpt>
      <trkpt lat="43.57426" lon="5.656">
        <ele>539.20001220703</ele>
        <time>2013-03-23T11:40:05.000Z</time>
      </trkpt>
      <trkpt lat="43.5743" lon="5.65602">
        <ele>539.79998779297</ele>
        <time>2013-03-23T11:40:07.000Z</time>
      </trkpt>
      <trkpt lat="43.5744" lon="5.65602">
        <ele>541.59997558594</ele>
        <time>2013-03-23T11:40:14.000Z</time>
      </trkpt>
      <trkpt lat="43.57445" lon="5.65603">
        <ele>542.40002441406</ele>
        <time>2013-03-23T11:40:23.000Z</time>
      </trkpt>
      <trkpt lat="43.57449" lon="5.65602">
        <ele>543.20001220703</ele>
        <time>2013-03-23T11:40:31.000Z</time>
      </trkpt>
      <trkpt lat="43.57458" lon="5.656">
        <ele>544.79998779297</ele>
        <time>2013-03-23T11:40:44.000Z</time>
      </trkpt>
      <trkpt lat="43.57466" lon="5.656">
        <ele>546.20001220703</ele>
        <time>2013-03-23T11:40:55.000Z</time>
      </trkpt>
      <trkpt lat="43.57475" lon="5.65599">
        <ele>548</ele>
        <time>2013-03-23T11:41:05.000Z</time>
      </trkpt>
      <trkpt lat="43.57484" lon="5.65594">
        <ele>549.40002441406</ele>
        <time>2013-03-23T11:41:18.000Z</time>
      </trkpt>
      <trkpt lat="43.57492" lon="5.656">
        <ele>550.79998779297</ele>
        <time>2013-03-23T11:41:29.000Z</time>
      </trkpt>
      <trkpt lat="43.57498" lon="5.65604">
        <ele>552</ele>
        <time>2013-03-23T11:41:40.000Z</time>
      </trkpt>
      <trkpt lat="43.57505" lon="5.65602">
        <ele>553.59997558594</ele>
        <time>2013-03-23T11:41:50.000Z</time>
      </trkpt>
      <trkpt lat="43.57511" lon="5.65603">
        <ele>555</ele>
        <time>2013-03-23T11:42:01.000Z</time>
      </trkpt>
      <trkpt lat="43.57517" lon="5.65603">
        <ele>556.40002441406</ele>
        <time>2013-03-23T11:42:11.000Z</time>
      </trkpt>
      <trkpt lat="43.57523" lon="5.65603">
        <ele>557.79998779297</ele>
        <time>2013-03-23T11:42:20.000Z</time>
      </trkpt>
      <trkpt lat="43.57531" lon="5.65609">
        <ele>559.79998779297</ele>
        <time>2013-03-23T11:42:33.000Z</time>
      </trkpt>
      <trkpt lat="43.57533" lon="5.65611">
        <ele>560.20001220703</ele>
        <time>2013-03-23T11:42:41.000Z</time>
      </trkpt>
      <trkpt lat="43.57537" lon="5.65609">
        <ele>561</ele>
        <time>2013-03-23T11:42:55.000Z</time>
      </trkpt>
      <trkpt lat="43.57547" lon="5.65606">
        <ele>563.40002441406</ele>
        <time>2013-03-23T11:43:05.000Z</time>
      </trkpt>
      <trkpt lat="43.57549" lon="5.65606">
        <ele>563.79998779297</ele>
        <time>2013-03-23T11:43:06.000Z</time>
      </trkpt>
      <trkpt lat="43.5756" lon="5.65609">
        <ele>566.40002441406</ele>
        <time>2013-03-23T11:43:15.000Z</time>
      </trkpt>
      <trkpt lat="43.57574" lon="5.65607">
        <ele>569.79998779297</ele>
        <time>2013-03-23T11:43:26.000Z</time>
      </trkpt>
      <trkpt lat="43.57578" lon="5.65608">
        <ele>570.59997558594</ele>
        <time>2013-03-23T11:43:29.000Z</time>
      </trkpt>
      <trkpt lat="43.57588" lon="5.65607">
        <ele>572.59997558594</ele>
        <time>2013-03-23T11:43:37.000Z</time>
      </trkpt>
      <trkpt lat="43.57595" lon="5.65607">
        <ele>573.59997558594</ele>
        <time>2013-03-23T11:43:44.000Z</time>
      </trkpt>
      <trkpt lat="43.576" lon="5.65607">
        <ele>574.20001220703</ele>
        <time>2013-03-23T11:43:54.000Z</time>
      </trkpt>
      <trkpt lat="43.57602" lon="5.65606">
        <ele>574.59997558594</ele>
        <time>2013-03-23T11:44:02.000Z</time>
      </trkpt>
      <trkpt lat="43.57612" lon="5.65602">
        <ele>576</ele>
        <time>2013-03-23T11:44:13.000Z</time>
      </trkpt>
      <trkpt lat="43.57615" lon="5.65603">
        <ele>576.40002441406</ele>
        <time>2013-03-23T11:44:15.000Z</time>
      </trkpt>
      <trkpt lat="43.57629" lon="5.65599">
        <ele>578.40002441406</ele>
        <time>2013-03-23T11:44:27.000Z</time>
      </trkpt>
      <trkpt lat="43.57632" lon="5.65598">
        <ele>578.79998779297</ele>
        <time>2013-03-23T11:44:30.000Z</time>
      </trkpt>
      <trkpt lat="43.57643" lon="5.65598">
        <ele>580.40002441406</ele>
        <time>2013-03-23T11:44:40.000Z</time>
      </trkpt>
      <trkpt lat="43.57653" lon="5.65601">
        <ele>581.79998779297</ele>
        <time>2013-03-23T11:44:50.000Z</time>
      </trkpt>
      <trkpt lat="43.5766" lon="5.65599">
        <ele>582.79998779297</ele>
        <time>2013-03-23T11:44:56.000Z</time>
      </trkpt>
      <trkpt lat="43.57665" lon="5.65599">
        <ele>583.40002441406</ele>
        <time>2013-03-23T11:45:06.000Z</time>
      </trkpt>
      <trkpt lat="43.57672" lon="5.65597">
        <ele>584.40002441406</ele>
        <time>2013-03-23T11:45:17.000Z</time>
      </trkpt>
      <trkpt lat="43.57674" lon="5.65595">
        <ele>584.59997558594</ele>
        <time>2013-03-23T11:45:28.000Z</time>
      </trkpt>
      <trkpt lat="43.57675" lon="5.65594">
        <ele>584.79998779297</ele>
        <time>2013-03-23T11:45:30.000Z</time>
      </trkpt>
      <trkpt lat="43.57683" lon="5.65591">
        <ele>585.79998779297</ele>
        <time>2013-03-23T11:45:37.000Z</time>
      </trkpt>
      <trkpt lat="43.57693" lon="5.65591">
        <ele>587.59997558594</ele>
        <time>2013-03-23T11:45:46.000Z</time>
      </trkpt>
      <trkpt lat="43.57698" lon="5.65588">
        <ele>588</ele>
        <time>2013-03-23T11:45:50.000Z</time>
      </trkpt>
      <trkpt lat="43.57709" lon="5.65587">
        <ele>589.59997558594</ele>
        <time>2013-03-23T11:46:01.000Z</time>
      </trkpt>
      <trkpt lat="43.57718" lon="5.65584">
        <ele>591</ele>
        <time>2013-03-23T11:46:12.000Z</time>
      </trkpt>
      <trkpt lat="43.57726" lon="5.65587">
        <ele>592.40002441406</ele>
        <time>2013-03-23T11:46:21.000Z</time>
      </trkpt>
      <trkpt lat="43.57731" lon="5.65589">
        <ele>593.20001220703</ele>
        <time>2013-03-23T11:46:26.000Z</time>
      </trkpt>
      <trkpt lat="43.5774" lon="5.65592">
        <ele>594.79998779297</ele>
        <time>2013-03-23T11:46:37.000Z</time>
      </trkpt>
      <trkpt lat="43.57748" lon="5.65592">
        <ele>596.20001220703</ele>
        <time>2013-03-23T11:46:48.000Z</time>
      </trkpt>
      <trkpt lat="43.57752" lon="5.65591">
        <ele>596.20001220703</ele>
        <time>2013-03-23T11:46:54.000Z</time>
      </trkpt>
      <trkpt lat="43.5776" lon="5.65587">
        <ele>595</ele>
        <time>2013-03-23T11:47:07.000Z</time>
      </trkpt>
      <trkpt lat="43.57762" lon="5.65587">
        <ele>594.79998779297</ele>
        <time>2013-03-23T11:47:10.000Z</time>
      </trkpt>
      <trkpt lat="43.57773" lon="5.65578">
        <ele>593.59997558594</ele>
        <time>2013-03-23T11:47:23.000Z</time>
      </trkpt>
      <trkpt lat="43.57777" lon="5.65574">
        <ele>593.40002441406</ele>
        <time>2013-03-23T11:47:32.000Z</time>
      </trkpt>
      <trkpt lat="43.57777" lon="5.65573">
        <ele>593.40002441406</ele>
        <time>2013-03-23T11:47:42.000Z</time>
      </trkpt>
      <trkpt lat="43.57781" lon="5.6557">
        <ele>593.20001220703</ele>
        <time>2013-03-23T11:47:51.000Z</time>
      </trkpt>
      <trkpt lat="43.57779" lon="5.65571">
        <ele>593.40002441406</ele>
        <time>2013-03-23T11:48:02.000Z</time>
      </trkpt>
      <trkpt lat="43.57779" lon="5.65571">
        <ele>593.40002441406</ele>
        <time>2013-03-23T11:48:09.000Z</time>
      </trkpt>
      <trkpt lat="43.5778" lon="5.65572">
        <ele>593.20001220703</ele>
        <time>2013-03-23T11:48:21.000Z</time>
      </trkpt>
      <trkpt lat="43.57786" lon="5.65574">
        <ele>592.40002441406</ele>
        <time>2013-03-23T11:48:25.000Z</time>
      </trkpt>
      <trkpt lat="43.57788" lon="5.65576">
        <ele>592.20001220703</ele>
        <time>2013-03-23T11:48:26.000Z</time>
      </trkpt>
      <trkpt lat="43.57791" lon="5.65577">
        <ele>591.79998779297</ele>
        <time>2013-03-23T11:48:27.000Z</time>
      </trkpt>
      <trkpt lat="43.57792" lon="5.65578">
        <ele>591.59997558594</ele>
        <time>2013-03-23T11:48:28.000Z</time>
      </trkpt>
      <trkpt lat="43.57793" lon="5.65578">
        <ele>591.40002441406</ele>
        <time>2013-03-23T11:48:29.000Z</time>
      </trkpt>
      <trkpt lat="43.57795" lon="5.65579">
        <ele>591.40002441406</ele>
        <time>2013-03-23T11:48:30.000Z</time>
      </trkpt>
      <trkpt lat="43.57796" lon="5.65579">
        <ele>591.20001220703</ele>
        <time>2013-03-23T11:48:31.000Z</time>
      </trkpt>
      <trkpt lat="43.57798" lon="5.65579">
        <ele>591</ele>
        <time>2013-03-23T11:48:32.000Z</time>
      </trkpt>
      <trkpt lat="43.578" lon="5.65581">
        <ele>590.59997558594</ele>
        <time>2013-03-23T11:48:33.000Z</time>
      </trkpt>
      <trkpt lat="43.57802" lon="5.65582">
        <ele>590.40002441406</ele>
        <time>2013-03-23T11:48:34.000Z</time>
      </trkpt>
      <trkpt lat="43.57809" lon="5.6559">
        <ele>590</ele>
        <time>2013-03-23T11:48:38.000Z</time>
      </trkpt>
      <trkpt lat="43.57811" lon="5.65591">
        <ele>589.79998779297</ele>
        <time>2013-03-23T11:48:39.000Z</time>
      </trkpt>
      <trkpt lat="43.57813" lon="5.6559">
        <ele>589.59997558594</ele>
        <time>2013-03-23T11:48:40.000Z</time>
      </trkpt>
      <trkpt lat="43.57816" lon="5.65589">
        <ele>589.20001220703</ele>
        <time>2013-03-23T11:48:41.000Z</time>
      </trkpt>
      <trkpt lat="43.57821" lon="5.65584">
        <ele>588.20001220703</ele>
        <time>2013-03-23T11:48:44.000Z</time>
      </trkpt>
      <trkpt lat="43.57822" lon="5.65583">
        <ele>588.20001220703</ele>
        <time>2013-03-23T11:48:45.000Z</time>
      </trkpt>
      <trkpt lat="43.57825" lon="5.65578">
        <ele>588.20001220703</ele>
        <time>2013-03-23T11:48:53.000Z</time>
      </trkpt>
      <trkpt lat="43.57827" lon="5.65574">
        <ele>588.20001220703</ele>
        <time>2013-03-23T11:49:02.000Z</time>
      </trkpt>
      <trkpt lat="43.57827" lon="5.65574">
        <ele>588.20001220703</ele>
        <time>2013-03-23T11:49:03.000Z</time>
      </trkpt>
      <trkpt lat="43.57832" lon="5.65569">
        <ele>588.20001220703</ele>
        <time>2013-03-23T11:49:08.000Z</time>
      </trkpt>
      <trkpt lat="43.57834" lon="5.65568">
        <ele>587.79998779297</ele>
        <time>2013-03-23T11:49:09.000Z</time>
      </trkpt>
      <trkpt lat="43.57835" lon="5.65566">
        <ele>587.20001220703</ele>
        <time>2013-03-23T11:49:10.000Z</time>
      </trkpt>
      <trkpt lat="43.57837" lon="5.65564">
        <ele>586.59997558594</ele>
        <time>2013-03-23T11:49:11.000Z</time>
      </trkpt>
      <trkpt lat="43.57838" lon="5.65562">
        <ele>586.40002441406</ele>
        <time>2013-03-23T11:49:12.000Z</time>
      </trkpt>
      <trkpt lat="43.57839" lon="5.65559">
        <ele>585.79998779297</ele>
        <time>2013-03-23T11:49:13.000Z</time>
      </trkpt>
      <trkpt lat="43.57841" lon="5.65556">
        <ele>585</ele>
        <time>2013-03-23T11:49:14.000Z</time>
      </trkpt>
      <trkpt lat="43.57843" lon="5.65554">
        <ele>584.40002441406</ele>
        <time>2013-03-23T11:49:15.000Z</time>
      </trkpt>
      <trkpt lat="43.57845" lon="5.65551">
        <ele>583.79998779297</ele>
        <time>2013-03-23T11:49:16.000Z</time>
      </trkpt>
      <trkpt lat="43.57847" lon="5.65549">
        <ele>583.20001220703</ele>
        <time>2013-03-23T11:49:17.000Z</time>
      </trkpt>
      <trkpt lat="43.57855" lon="5.65541">
        <ele>580</ele>
        <time>2013-03-23T11:49:21.000Z</time>
      </trkpt>
      <trkpt lat="43.57861" lon="5.65536">
        <ele>577.59997558594</ele>
        <time>2013-03-23T11:49:23.000Z</time>
      </trkpt>
      <trkpt lat="43.57875" lon="5.65524">
        <ele>572.20001220703</ele>
        <time>2013-03-23T11:49:27.000Z</time>
      </trkpt>
      <trkpt lat="43.5789" lon="5.65515">
        <ele>566.40002441406</ele>
        <time>2013-03-23T11:49:32.000Z</time>
      </trkpt>
      <trkpt lat="43.57895" lon="5.65511">
        <ele>565</ele>
        <time>2013-03-23T11:49:34.000Z</time>
      </trkpt>
      <trkpt lat="43.57896" lon="5.65508">
        <ele>564.79998779297</ele>
        <time>2013-03-23T11:49:35.000Z</time>
      </trkpt>
      <trkpt lat="43.57899" lon="5.65504">
        <ele>564.20001220703</ele>
        <time>2013-03-23T11:49:36.000Z</time>
      </trkpt>
      <trkpt lat="43.57905" lon="5.65495">
        <ele>562.59997558594</ele>
        <time>2013-03-23T11:49:38.000Z</time>
      </trkpt>
      <trkpt lat="43.57909" lon="5.65492">
        <ele>561.59997558594</ele>
        <time>2013-03-23T11:49:39.000Z</time>
      </trkpt>
      <trkpt lat="43.57912" lon="5.65489">
        <ele>561</ele>
        <time>2013-03-23T11:49:40.000Z</time>
      </trkpt>
      <trkpt lat="43.57916" lon="5.65485">
        <ele>559.79998779297</ele>
        <time>2013-03-23T11:49:42.000Z</time>
      </trkpt>
      <trkpt lat="43.57926" lon="5.65471">
        <ele>558.40002441406</ele>
        <time>2013-03-23T11:49:46.000Z</time>
      </trkpt>
      <trkpt lat="43.57929" lon="5.65466">
        <ele>558</ele>
        <time>2013-03-23T11:49:47.000Z</time>
      </trkpt>
      <trkpt lat="43.57934" lon="5.65456">
        <ele>557.79998779297</ele>
        <time>2013-03-23T11:49:49.000Z</time>
      </trkpt>
      <trkpt lat="43.57942" lon="5.65437">
        <ele>557.79998779297</ele>
        <time>2013-03-23T11:49:56.000Z</time>
      </trkpt>
      <trkpt lat="43.57944" lon="5.65436">
        <ele>557.20001220703</ele>
        <time>2013-03-23T11:49:57.000Z</time>
      </trkpt>
      <trkpt lat="43.57946" lon="5.65435">
        <ele>556.40002441406</ele>
        <time>2013-03-23T11:49:58.000Z</time>
      </trkpt>
      <trkpt lat="43.57948" lon="5.65432">
        <ele>556</ele>
        <time>2013-03-23T11:49:59.000Z</time>
      </trkpt>
      <trkpt lat="43.5795" lon="5.65428">
        <ele>556</ele>
        <time>2013-03-23T11:50:00.000Z</time>
      </trkpt>
      <trkpt lat="43.57951" lon="5.65423">
        <ele>556.20001220703</ele>
        <time>2013-03-23T11:50:01.000Z</time>
      </trkpt>
      <trkpt lat="43.57953" lon="5.65415">
        <ele>556.40002441406</ele>
        <time>2013-03-23T11:50:03.000Z</time>
      </trkpt>
      <trkpt lat="43.57955" lon="5.65406">
        <ele>555.79998779297</ele>
        <time>2013-03-23T11:50:14.000Z</time>
      </trkpt>
      <trkpt lat="43.57956" lon="5.65407">
        <ele>555.59997558594</ele>
        <time>2013-03-23T11:50:32.000Z</time>
      </trkpt>
      <trkpt lat="43.57956" lon="5.65406">
        <ele>555.40002441406</ele>
        <time>2013-03-23T11:50:55.000Z</time>
      </trkpt>
      <trkpt lat="43.57959" lon="5.65405">
        <ele>554.40002441406</ele>
        <time>2013-03-23T11:51:19.000Z</time>
      </trkpt>
      <trkpt lat="43.57959" lon="5.65405">
        <ele>554.20001220703</ele>
        <time>2013-03-23T11:51:45.000Z</time>
      </trkpt>
      <trkpt lat="43.57958" lon="5.65402">
        <ele>554.59997558594</ele>
        <time>2013-03-23T11:51:55.000Z</time>
      </trkpt>
      <trkpt lat="43.57958" lon="5.65397">
        <ele>555</ele>
        <time>2013-03-23T11:51:58.000Z</time>
      </trkpt>
      <trkpt lat="43.57962" lon="5.65366">
        <ele>553.59997558594</ele>
        <time>2013-03-23T11:52:06.000Z</time>
      </trkpt>
      <trkpt lat="43.57962" lon="5.65358">
        <ele>554</ele>
        <time>2013-03-23T11:52:08.000Z</time>
      </trkpt>
      <trkpt lat="43.57966" lon="5.65325">
        <ele>552.79998779297</ele>
        <time>2013-03-23T11:52:17.000Z</time>
      </trkpt>
      <trkpt lat="43.57964" lon="5.65297">
        <ele>554</ele>
        <time>2013-03-23T11:52:24.000Z</time>
      </trkpt>
      <trkpt lat="43.57964" lon="5.65295">
        <ele>554</ele>
        <time>2013-03-23T11:52:25.000Z</time>
      </trkpt>
      <trkpt lat="43.57974" lon="5.65258">
        <ele>550.20001220703</ele>
        <time>2013-03-23T11:52:32.000Z</time>
      </trkpt>
      <trkpt lat="43.57988" lon="5.6522">
        <ele>545</ele>
        <time>2013-03-23T11:52:37.000Z</time>
      </trkpt>
      <trkpt lat="43.57991" lon="5.65212">
        <ele>544</ele>
        <time>2013-03-23T11:52:38.000Z</time>
      </trkpt>
      <trkpt lat="43.57992" lon="5.65197">
        <ele>543.59997558594</ele>
        <time>2013-03-23T11:52:40.000Z</time>
      </trkpt>
      <trkpt lat="43.57993" lon="5.65189">
        <ele>543.40002441406</ele>
        <time>2013-03-23T11:52:41.000Z</time>
      </trkpt>
      <trkpt lat="43.57998" lon="5.65166">
        <ele>542</ele>
        <time>2013-03-23T11:52:44.000Z</time>
      </trkpt>
      <trkpt lat="43.58002" lon="5.65126">
        <ele>542.59997558594</ele>
        <time>2013-03-23T11:52:50.000Z</time>
      </trkpt>
      <trkpt lat="43.58" lon="5.65113">
        <ele>544.20001220703</ele>
        <time>2013-03-23T11:52:53.000Z</time>
      </trkpt>
      <trkpt lat="43.58" lon="5.65095">
        <ele>545.20001220703</ele>
        <time>2013-03-23T11:52:57.000Z</time>
      </trkpt>
      <trkpt lat="43.58003" lon="5.65065">
        <ele>546.59997558594</ele>
        <time>2013-03-23T11:53:04.000Z</time>
      </trkpt>
      <trkpt lat="43.58003" lon="5.65055">
        <ele>547.40002441406</ele>
        <time>2013-03-23T11:53:07.000Z</time>
      </trkpt>
      <trkpt lat="43.58023" lon="5.65027">
        <ele>543.79998779297</ele>
        <time>2013-03-23T11:53:15.000Z</time>
      </trkpt>
      <trkpt lat="43.58035" lon="5.6501">
        <ele>541.20001220703</ele>
        <time>2013-03-23T11:53:19.000Z</time>
      </trkpt>
      <trkpt lat="43.58037" lon="5.64982">
        <ele>542.20001220703</ele>
        <time>2013-03-23T11:53:24.000Z</time>
      </trkpt>
      <trkpt lat="43.58048" lon="5.64958">
        <ele>539.59997558594</ele>
        <time>2013-03-23T11:53:29.000Z</time>
      </trkpt>
      <trkpt lat="43.58049" lon="5.64943">
        <ele>540</ele>
        <time>2013-03-23T11:53:32.000Z</time>
      </trkpt>
      <trkpt lat="43.58046" lon="5.64921">
        <ele>542.20001220703</ele>
        <time>2013-03-23T11:53:36.000Z</time>
      </trkpt>
      <trkpt lat="43.58056" lon="5.64877">
        <ele>539</ele>
        <time>2013-03-23T11:53:45.000Z</time>
      </trkpt>
      <trkpt lat="43.58052" lon="5.64843">
        <ele>540.79998779297</ele>
        <time>2013-03-23T11:53:52.000Z</time>
      </trkpt>
      <trkpt lat="43.58053" lon="5.64822">
        <ele>540.79998779297</ele>
        <time>2013-03-23T11:53:56.000Z</time>
      </trkpt>
      <trkpt lat="43.58055" lon="5.64784">
        <ele>541.59997558594</ele>
        <time>2013-03-23T11:54:03.000Z</time>
      </trkpt>
      <trkpt lat="43.58065" lon="5.6474">
        <ele>538.59997558594</ele>
        <time>2013-03-23T11:54:10.000Z</time>
      </trkpt>
      <trkpt lat="43.5807" lon="5.64725">
        <ele>537.20001220703</ele>
        <time>2013-03-23T11:54:12.000Z</time>
      </trkpt>
      <trkpt lat="43.58085" lon="5.64696">
        <ele>531.79998779297</ele>
        <time>2013-03-23T11:54:16.000Z</time>
      </trkpt>
      <trkpt lat="43.58096" lon="5.64676">
        <ele>530.79998779297</ele>
        <time>2013-03-23T11:54:19.000Z</time>
      </trkpt>
      <trkpt lat="43.58097" lon="5.6467">
        <ele>530.79998779297</ele>
        <time>2013-03-23T11:54:20.000Z</time>
      </trkpt>
      <trkpt lat="43.581" lon="5.64663">
        <ele>530.79998779297</ele>
        <time>2013-03-23T11:54:22.000Z</time>
      </trkpt>
      <trkpt lat="43.58101" lon="5.6466">
        <ele>531</ele>
        <time>2013-03-23T11:54:27.000Z</time>
      </trkpt>
      <trkpt lat="43.58099" lon="5.6466">
        <ele>531.40002441406</ele>
        <time>2013-03-23T11:54:37.000Z</time>
      </trkpt>
      <trkpt lat="43.581" lon="5.64659">
        <ele>531</ele>
        <time>2013-03-23T11:54:51.000Z</time>
      </trkpt>
      <trkpt lat="43.581" lon="5.6466">
        <ele>531.20001220703</ele>
        <time>2013-03-23T11:55:10.000Z</time>
      </trkpt>
      <trkpt lat="43.58101" lon="5.64658">
        <ele>531</ele>
        <time>2013-03-23T11:55:22.000Z</time>
      </trkpt>
      <trkpt lat="43.581" lon="5.6466">
        <ele>531.20001220703</ele>
        <time>2013-03-23T11:55:39.000Z</time>
      </trkpt>
      <trkpt lat="43.58102" lon="5.6466">
        <ele>530.59997558594</ele>
        <time>2013-03-23T11:55:58.000Z</time>
      </trkpt>
      <trkpt lat="43.58102" lon="5.64661">
        <ele>530.59997558594</ele>
        <time>2013-03-23T11:56:14.000Z</time>
      </trkpt>
      <trkpt lat="43.58102" lon="5.6466">
        <ele>530.59997558594</ele>
        <time>2013-03-23T11:56:18.000Z</time>
      </trkpt>
      <trkpt lat="43.58103" lon="5.64658">
        <ele>530.59997558594</ele>
        <time>2013-03-23T11:56:37.000Z</time>
      </trkpt>
      <trkpt lat="43.58103" lon="5.64658">
        <ele>530.79998779297</ele>
        <time>2013-03-23T11:56:40.000Z</time>
      </trkpt>
      <trkpt lat="43.58103" lon="5.64656">
        <ele>530.79998779297</ele>
        <time>2013-03-23T11:56:54.000Z</time>
      </trkpt>
      <trkpt lat="43.58104" lon="5.64657">
        <ele>530.40002441406</ele>
        <time>2013-03-23T11:57:09.000Z</time>
      </trkpt>
      <trkpt lat="43.58107" lon="5.64662">
        <ele>529.59997558594</ele>
        <time>2013-03-23T11:57:11.000Z</time>
      </trkpt>
      <trkpt lat="43.58109" lon="5.64665">
        <ele>528.79998779297</ele>
        <time>2013-03-23T11:57:12.000Z</time>
      </trkpt>
      <trkpt lat="43.58111" lon="5.64669">
        <ele>528.20001220703</ele>
        <time>2013-03-23T11:57:13.000Z</time>
      </trkpt>
      <trkpt lat="43.58114" lon="5.64673">
        <ele>527.40002441406</ele>
        <time>2013-03-23T11:57:14.000Z</time>
      </trkpt>
      <trkpt lat="43.58117" lon="5.64679">
        <ele>526.20001220703</ele>
        <time>2013-03-23T11:57:15.000Z</time>
      </trkpt>
      <trkpt lat="43.58127" lon="5.64693">
        <ele>523.20001220703</ele>
        <time>2013-03-23T11:57:17.000Z</time>
      </trkpt>
      <trkpt lat="43.58143" lon="5.64722">
        <ele>517.79998779297</ele>
        <time>2013-03-23T11:57:20.000Z</time>
      </trkpt>
      <trkpt lat="43.58154" lon="5.6474">
        <ele>514.40002441406</ele>
        <time>2013-03-23T11:57:22.000Z</time>
      </trkpt>
      <trkpt lat="43.58159" lon="5.64745">
        <ele>512.79998779297</ele>
        <time>2013-03-23T11:57:23.000Z</time>
      </trkpt>
      <trkpt lat="43.58165" lon="5.64747">
        <ele>511.39999389648</ele>
        <time>2013-03-23T11:57:24.000Z</time>
      </trkpt>
      <trkpt lat="43.58171" lon="5.64746">
        <ele>510.39999389648</ele>
        <time>2013-03-23T11:57:25.000Z</time>
      </trkpt>
      <trkpt lat="43.58178" lon="5.64744">
        <ele>509.39999389648</ele>
        <time>2013-03-23T11:57:26.000Z</time>
      </trkpt>
      <trkpt lat="43.58184" lon="5.6474">
        <ele>508.60000610352</ele>
        <time>2013-03-23T11:57:27.000Z</time>
      </trkpt>
      <trkpt lat="43.58196" lon="5.64736">
        <ele>506.79998779297</ele>
        <time>2013-03-23T11:57:29.000Z</time>
      </trkpt>
      <trkpt lat="43.58201" lon="5.64738">
        <ele>505.79998779297</ele>
        <time>2013-03-23T11:57:30.000Z</time>
      </trkpt>
      <trkpt lat="43.58205" lon="5.64741">
        <ele>505</ele>
        <time>2013-03-23T11:57:31.000Z</time>
      </trkpt>
      <trkpt lat="43.58208" lon="5.64747">
        <ele>504</ele>
        <time>2013-03-23T11:57:32.000Z</time>
      </trkpt>
      <trkpt lat="43.58211" lon="5.64756">
        <ele>503.39999389648</ele>
        <time>2013-03-23T11:57:33.000Z</time>
      </trkpt>
      <trkpt lat="43.58222" lon="5.64783">
        <ele>501</ele>
        <time>2013-03-23T11:57:36.000Z</time>
      </trkpt>
      <trkpt lat="43.58226" lon="5.64792">
        <ele>500.20001220703</ele>
        <time>2013-03-23T11:57:37.000Z</time>
      </trkpt>
      <trkpt lat="43.58228" lon="5.64801">
        <ele>499.60000610352</ele>
        <time>2013-03-23T11:57:38.000Z</time>
      </trkpt>
      <trkpt lat="43.5823" lon="5.6481">
        <ele>499</ele>
        <time>2013-03-23T11:57:39.000Z</time>
      </trkpt>
      <trkpt lat="43.58234" lon="5.64818">
        <ele>498.20001220703</ele>
        <time>2013-03-23T11:57:40.000Z</time>
      </trkpt>
      <trkpt lat="43.58238" lon="5.64825">
        <ele>497.20001220703</ele>
        <time>2013-03-23T11:57:41.000Z</time>
      </trkpt>
      <trkpt lat="43.58242" lon="5.64833">
        <ele>496.39999389648</ele>
        <time>2013-03-23T11:57:42.000Z</time>
      </trkpt>
      <trkpt lat="43.58246" lon="5.64841">
        <ele>495.20001220703</ele>
        <time>2013-03-23T11:57:43.000Z</time>
      </trkpt>
      <trkpt lat="43.58249" lon="5.6485">
        <ele>494.20001220703</ele>
        <time>2013-03-23T11:57:44.000Z</time>
      </trkpt>
      <trkpt lat="43.5825" lon="5.6486">
        <ele>493.39999389648</ele>
        <time>2013-03-23T11:57:45.000Z</time>
      </trkpt>
      <trkpt lat="43.58249" lon="5.64869">
        <ele>493</ele>
        <time>2013-03-23T11:57:46.000Z</time>
      </trkpt>
      <trkpt lat="43.58246" lon="5.64879">
        <ele>492.79998779297</ele>
        <time>2013-03-23T11:57:47.000Z</time>
      </trkpt>
      <trkpt lat="43.58243" lon="5.6489">
        <ele>492.79998779297</ele>
        <time>2013-03-23T11:57:48.000Z</time>
      </trkpt>
      <trkpt lat="43.58241" lon="5.64901">
        <ele>492.60000610352</ele>
        <time>2013-03-23T11:57:49.000Z</time>
      </trkpt>
      <trkpt lat="43.5824" lon="5.64912">
        <ele>492.20001220703</ele>
        <time>2013-03-23T11:57:50.000Z</time>
      </trkpt>
      <trkpt lat="43.58239" lon="5.64923">
        <ele>491.79998779297</ele>
        <time>2013-03-23T11:57:51.000Z</time>
      </trkpt>
      <trkpt lat="43.58237" lon="5.64933">
        <ele>491.79998779297</ele>
        <time>2013-03-23T11:57:52.000Z</time>
      </trkpt>
      <trkpt lat="43.58234" lon="5.64943">
        <ele>491.79998779297</ele>
        <time>2013-03-23T11:57:53.000Z</time>
      </trkpt>
      <trkpt lat="43.58233" lon="5.64952">
        <ele>491.60000610352</ele>
        <time>2013-03-23T11:57:54.000Z</time>
      </trkpt>
      <trkpt lat="43.58235" lon="5.64961">
        <ele>490.79998779297</ele>
        <time>2013-03-23T11:57:55.000Z</time>
      </trkpt>
      <trkpt lat="43.58238" lon="5.64971">
        <ele>489.60000610352</ele>
        <time>2013-03-23T11:57:56.000Z</time>
      </trkpt>
      <trkpt lat="43.58242" lon="5.6498">
        <ele>488</ele>
        <time>2013-03-23T11:57:57.000Z</time>
      </trkpt>
      <trkpt lat="43.58247" lon="5.64989">
        <ele>486.20001220703</ele>
        <time>2013-03-23T11:57:58.000Z</time>
      </trkpt>
      <trkpt lat="43.58252" lon="5.64999">
        <ele>484.20001220703</ele>
        <time>2013-03-23T11:57:59.000Z</time>
      </trkpt>
      <trkpt lat="43.58256" lon="5.6501">
        <ele>482.20001220703</ele>
        <time>2013-03-23T11:58:00.000Z</time>
      </trkpt>
      <trkpt lat="43.58257" lon="5.65022">
        <ele>480.79998779297</ele>
        <time>2013-03-23T11:58:01.000Z</time>
      </trkpt>
      <trkpt lat="43.58258" lon="5.65034">
        <ele>480</ele>
        <time>2013-03-23T11:58:02.000Z</time>
      </trkpt>
      <trkpt lat="43.58258" lon="5.65046">
        <ele>479</ele>
        <time>2013-03-23T11:58:03.000Z</time>
      </trkpt>
      <trkpt lat="43.58259" lon="5.65058">
        <ele>478</ele>
        <time>2013-03-23T11:58:04.000Z</time>
      </trkpt>
      <trkpt lat="43.58261" lon="5.65093">
        <ele>475.39999389648</ele>
        <time>2013-03-23T11:58:07.000Z</time>
      </trkpt>
      <trkpt lat="43.58261" lon="5.65103">
        <ele>475.20001220703</ele>
        <time>2013-03-23T11:58:08.000Z</time>
      </trkpt>
      <trkpt lat="43.58261" lon="5.6512">
        <ele>475</ele>
        <time>2013-03-23T11:58:10.000Z</time>
      </trkpt>
      <trkpt lat="43.58262" lon="5.65127">
        <ele>474.60000610352</ele>
        <time>2013-03-23T11:58:11.000Z</time>
      </trkpt>
      <trkpt lat="43.58264" lon="5.65132">
        <ele>473.79998779297</ele>
        <time>2013-03-23T11:58:12.000Z</time>
      </trkpt>
      <trkpt lat="43.5827" lon="5.65134">
        <ele>472.20001220703</ele>
        <time>2013-03-23T11:58:13.000Z</time>
      </trkpt>
      <trkpt lat="43.58275" lon="5.65133">
        <ele>470.79998779297</ele>
        <time>2013-03-23T11:58:14.000Z</time>
      </trkpt>
      <trkpt lat="43.58281" lon="5.6513">
        <ele>469.20001220703</ele>
        <time>2013-03-23T11:58:15.000Z</time>
      </trkpt>
      <trkpt lat="43.58288" lon="5.65125">
        <ele>467.39999389648</ele>
        <time>2013-03-23T11:58:16.000Z</time>
      </trkpt>
      <trkpt lat="43.58296" lon="5.6512">
        <ele>465.39999389648</ele>
        <time>2013-03-23T11:58:17.000Z</time>
      </trkpt>
      <trkpt lat="43.58312" lon="5.65113">
        <ele>460.79998779297</ele>
        <time>2013-03-23T11:58:19.000Z</time>
      </trkpt>
      <trkpt lat="43.58319" lon="5.65109">
        <ele>458.79998779297</ele>
        <time>2013-03-23T11:58:20.000Z</time>
      </trkpt>
      <trkpt lat="43.58325" lon="5.65104">
        <ele>457.39999389648</ele>
        <time>2013-03-23T11:58:21.000Z</time>
      </trkpt>
      <trkpt lat="43.58328" lon="5.65098">
        <ele>456.39999389648</ele>
        <time>2013-03-23T11:58:22.000Z</time>
      </trkpt>
      <trkpt lat="43.5833" lon="5.65089">
        <ele>455.79998779297</ele>
        <time>2013-03-23T11:58:23.000Z</time>
      </trkpt>
      <trkpt lat="43.5833" lon="5.6508">
        <ele>456</ele>
        <time>2013-03-23T11:58:24.000Z</time>
      </trkpt>
      <trkpt lat="43.58329" lon="5.6507">
        <ele>456.39999389648</ele>
        <time>2013-03-23T11:58:25.000Z</time>
      </trkpt>
      <trkpt lat="43.58328" lon="5.65059">
        <ele>457</ele>
        <time>2013-03-23T11:58:26.000Z</time>
      </trkpt>
      <trkpt lat="43.58327" lon="5.65039">
        <ele>457.79998779297</ele>
        <time>2013-03-23T11:58:28.000Z</time>
      </trkpt>
      <trkpt lat="43.5833" lon="5.65029">
        <ele>457.39999389648</ele>
        <time>2013-03-23T11:58:29.000Z</time>
      </trkpt>
      <trkpt lat="43.58345" lon="5.64992">
        <ele>454</ele>
        <time>2013-03-23T11:58:33.000Z</time>
      </trkpt>
      <trkpt lat="43.5835" lon="5.64984">
        <ele>453.39999389648</ele>
        <time>2013-03-23T11:58:34.000Z</time>
      </trkpt>
      <trkpt lat="43.58356" lon="5.64976">
        <ele>452.20001220703</ele>
        <time>2013-03-23T11:58:35.000Z</time>
      </trkpt>
      <trkpt lat="43.58362" lon="5.64969">
        <ele>451</ele>
        <time>2013-03-23T11:58:36.000Z</time>
      </trkpt>
      <trkpt lat="43.58369" lon="5.64963">
        <ele>449.39999389648</ele>
        <time>2013-03-23T11:58:37.000Z</time>
      </trkpt>
      <trkpt lat="43.58377" lon="5.64959">
        <ele>447.39999389648</ele>
        <time>2013-03-23T11:58:38.000Z</time>
      </trkpt>
      <trkpt lat="43.58385" lon="5.64956">
        <ele>445.20001220703</ele>
        <time>2013-03-23T11:58:39.000Z</time>
      </trkpt>
      <trkpt lat="43.58393" lon="5.64955">
        <ele>442.79998779297</ele>
        <time>2013-03-23T11:58:40.000Z</time>
      </trkpt>
      <trkpt lat="43.58402" lon="5.64954">
        <ele>440</ele>
        <time>2013-03-23T11:58:41.000Z</time>
      </trkpt>
      <trkpt lat="43.58412" lon="5.64955">
        <ele>437.20001220703</ele>
        <time>2013-03-23T11:58:42.000Z</time>
      </trkpt>
      <trkpt lat="43.58438" lon="5.64956">
        <ele>431.39999389648</ele>
        <time>2013-03-23T11:58:45.000Z</time>
      </trkpt>
      <trkpt lat="43.58445" lon="5.64956">
        <ele>430</ele>
        <time>2013-03-23T11:58:46.000Z</time>
      </trkpt>
      <trkpt lat="43.58459" lon="5.64953">
        <ele>427.20001220703</ele>
        <time>2013-03-23T11:58:48.000Z</time>
      </trkpt>
      <trkpt lat="43.5848" lon="5.64951">
        <ele>423</ele>
        <time>2013-03-23T11:58:51.000Z</time>
      </trkpt>
      <trkpt lat="43.58487" lon="5.64952">
        <ele>421.60000610352</ele>
        <time>2013-03-23T11:58:52.000Z</time>
      </trkpt>
      <trkpt lat="43.585" lon="5.64954">
        <ele>419</ele>
        <time>2013-03-23T11:58:54.000Z</time>
      </trkpt>
      <trkpt lat="43.58505" lon="5.64953">
        <ele>418.60000610352</ele>
        <time>2013-03-23T11:58:55.000Z</time>
      </trkpt>
      <trkpt lat="43.5851" lon="5.64952">
        <ele>418.20001220703</ele>
        <time>2013-03-23T11:58:56.000Z</time>
      </trkpt>
      <trkpt lat="43.58514" lon="5.64951">
        <ele>417.79998779297</ele>
        <time>2013-03-23T11:58:57.000Z</time>
      </trkpt>
      <trkpt lat="43.58517" lon="5.6495">
        <ele>417.60000610352</ele>
        <time>2013-03-23T11:58:58.000Z</time>
      </trkpt>
      <trkpt lat="43.58523" lon="5.6495">
        <ele>417</ele>
        <time>2013-03-23T11:59:01.000Z</time>
      </trkpt>
      <trkpt lat="43.58525" lon="5.64951">
        <ele>416.79998779297</ele>
        <time>2013-03-23T11:59:02.000Z</time>
      </trkpt>
      <trkpt lat="43.58526" lon="5.64953">
        <ele>416.60000610352</ele>
        <time>2013-03-23T11:59:03.000Z</time>
      </trkpt>
      <trkpt lat="43.58525" lon="5.64954">
        <ele>416.79998779297</ele>
        <time>2013-03-23T11:59:10.000Z</time>
      </trkpt>
      <trkpt lat="43.58527" lon="5.64974">
        <ele>416.20001220703</ele>
        <time>2013-03-23T11:59:18.000Z</time>
      </trkpt>
      <trkpt lat="43.58524" lon="5.65026">
        <ele>415.39999389648</ele>
        <time>2013-03-23T11:59:28.000Z</time>
      </trkpt>
      <trkpt lat="43.58522" lon="5.65099">
        <ele>415</ele>
        <time>2013-03-23T11:59:41.000Z</time>
      </trkpt>
      <trkpt lat="43.58522" lon="5.65128">
        <ele>415.20001220703</ele>
        <time>2013-03-23T11:59:46.000Z</time>
      </trkpt>
      <trkpt lat="43.58531" lon="5.65169">
        <ele>414.60000610352</ele>
        <time>2013-03-23T11:59:55.000Z</time>
      </trkpt>
      <trkpt lat="43.58536" lon="5.65198">
        <ele>416</ele>
        <time>2013-03-23T12:00:05.000Z</time>
      </trkpt>
      <trkpt lat="43.5854" lon="5.65236">
        <ele>417.60000610352</ele>
        <time>2013-03-23T12:00:15.000Z</time>
      </trkpt>
      <trkpt lat="43.58543" lon="5.65245">
        <ele>418</ele>
        <time>2013-03-23T12:00:17.000Z</time>
      </trkpt>
      <trkpt lat="43.58545" lon="5.65249">
        <ele>418</ele>
        <time>2013-03-23T12:00:18.000Z</time>
      </trkpt>
      <trkpt lat="43.58546" lon="5.65252">
        <ele>417.79998779297</ele>
        <time>2013-03-23T12:00:19.000Z</time>
      </trkpt>
      <trkpt lat="43.58557" lon="5.65276">
        <ele>417</ele>
        <time>2013-03-23T12:00:25.000Z</time>
      </trkpt>
      <trkpt lat="43.58568" lon="5.65323">
        <ele>416.79998779297</ele>
        <time>2013-03-23T12:00:36.000Z</time>
      </trkpt>
      <trkpt lat="43.58569" lon="5.65334">
        <ele>417</ele>
        <time>2013-03-23T12:00:43.000Z</time>
      </trkpt>
      <trkpt lat="43.58569" lon="5.65335">
        <ele>417</ele>
        <time>2013-03-23T12:00:44.000Z</time>
      </trkpt>
      <trkpt lat="43.58576" lon="5.65349">
        <ele>416.60000610352</ele>
        <time>2013-03-23T12:00:57.000Z</time>
      </trkpt>
      <trkpt lat="43.5859" lon="5.6535">
        <ele>415.39999389648</ele>
        <time>2013-03-23T12:01:08.000Z</time>
      </trkpt>
      <trkpt lat="43.586" lon="5.65362">
        <ele>414.60000610352</ele>
        <time>2013-03-23T12:01:19.000Z</time>
      </trkpt>
      <trkpt lat="43.58602" lon="5.65365">
        <ele>414.60000610352</ele>
        <time>2013-03-23T12:01:21.000Z</time>
      </trkpt>
      <trkpt lat="43.58603" lon="5.65366">
        <ele>414.60000610352</ele>
        <time>2013-03-23T12:01:22.000Z</time>
      </trkpt>
      <trkpt lat="43.58608" lon="5.65377">
        <ele>414.39999389648</ele>
        <time>2013-03-23T12:01:31.000Z</time>
      </trkpt>
      <trkpt lat="43.58609" lon="5.65378">
        <ele>414.39999389648</ele>
        <time>2013-03-23T12:01:32.000Z</time>
      </trkpt>
      <trkpt lat="43.5861" lon="5.65379">
        <ele>414.39999389648</ele>
        <time>2013-03-23T12:01:33.000Z</time>
      </trkpt>
      <trkpt lat="43.58612" lon="5.6538">
        <ele>414.39999389648</ele>
        <time>2013-03-23T12:01:34.000Z</time>
      </trkpt>
      <trkpt lat="43.5862" lon="5.65405">
        <ele>415</ele>
        <time>2013-03-23T12:01:43.000Z</time>
      </trkpt>
      <trkpt lat="43.58621" lon="5.65408">
        <ele>415</ele>
        <time>2013-03-23T12:01:44.000Z</time>
      </trkpt>
      <trkpt lat="43.5862" lon="5.65417">
        <ele>415.39999389648</ele>
        <time>2013-03-23T12:01:47.000Z</time>
      </trkpt>
      <trkpt lat="43.58618" lon="5.65426">
        <ele>415.79998779297</ele>
        <time>2013-03-23T12:01:49.000Z</time>
      </trkpt>
      <trkpt lat="43.58621" lon="5.65444">
        <ele>416.20001220703</ele>
        <time>2013-03-23T12:01:56.000Z</time>
      </trkpt>
      <trkpt lat="43.58625" lon="5.65451">
        <ele>416.20001220703</ele>
        <time>2013-03-23T12:01:59.000Z</time>
      </trkpt>
      <trkpt lat="43.58628" lon="5.65461">
        <ele>416.39999389648</ele>
        <time>2013-03-23T12:02:02.000Z</time>
      </trkpt>
      <trkpt lat="43.58639" lon="5.65505">
        <ele>416.79998779297</ele>
        <time>2013-03-23T12:02:13.000Z</time>
      </trkpt>
      <trkpt lat="43.58647" lon="5.65533">
        <ele>415.39999389648</ele>
        <time>2013-03-23T12:02:19.000Z</time>
      </trkpt>
      <trkpt lat="43.58655" lon="5.65568">
        <ele>413.39999389648</ele>
        <time>2013-03-23T12:02:24.000Z</time>
      </trkpt>
      <trkpt lat="43.58659" lon="5.65585">
        <ele>412.39999389648</ele>
        <time>2013-03-23T12:02:26.000Z</time>
      </trkpt>
      <trkpt lat="43.58673" lon="5.65636">
        <ele>406.60000610352</ele>
        <time>2013-03-23T12:02:32.000Z</time>
      </trkpt>
      <trkpt lat="43.58674" lon="5.65642">
        <ele>406</ele>
        <time>2013-03-23T12:02:33.000Z</time>
      </trkpt>
      <trkpt lat="43.58673" lon="5.65648">
        <ele>405.60000610352</ele>
        <time>2013-03-23T12:02:34.000Z</time>
      </trkpt>
      <trkpt lat="43.58672" lon="5.65654">
        <ele>405.20001220703</ele>
        <time>2013-03-23T12:02:35.000Z</time>
      </trkpt>
      <trkpt lat="43.5867" lon="5.65659">
        <ele>405</ele>
        <time>2013-03-23T12:02:36.000Z</time>
      </trkpt>
      <trkpt lat="43.58668" lon="5.65665">
        <ele>404.79998779297</ele>
        <time>2013-03-23T12:02:37.000Z</time>
      </trkpt>
      <trkpt lat="43.58665" lon="5.65671">
        <ele>404.79998779297</ele>
        <time>2013-03-23T12:02:38.000Z</time>
      </trkpt>
      <trkpt lat="43.58662" lon="5.65677">
        <ele>404.60000610352</ele>
        <time>2013-03-23T12:02:39.000Z</time>
      </trkpt>
      <trkpt lat="43.58642" lon="5.6571">
        <ele>404.39999389648</ele>
        <time>2013-03-23T12:02:44.000Z</time>
      </trkpt>
      <trkpt lat="43.58639" lon="5.65719">
        <ele>404</ele>
        <time>2013-03-23T12:02:45.000Z</time>
      </trkpt>
      <trkpt lat="43.58638" lon="5.65729">
        <ele>403.20001220703</ele>
        <time>2013-03-23T12:02:46.000Z</time>
      </trkpt>
      <trkpt lat="43.58637" lon="5.65738">
        <ele>402.39999389648</ele>
        <time>2013-03-23T12:02:47.000Z</time>
      </trkpt>
      <trkpt lat="43.58637" lon="5.65747">
        <ele>401.39999389648</ele>
        <time>2013-03-23T12:02:48.000Z</time>
      </trkpt>
      <trkpt lat="43.58638" lon="5.65755">
        <ele>401</ele>
        <time>2013-03-23T12:02:49.000Z</time>
      </trkpt>
      <trkpt lat="43.58639" lon="5.65762">
        <ele>400.79998779297</ele>
        <time>2013-03-23T12:02:50.000Z</time>
      </trkpt>
      <trkpt lat="43.58641" lon="5.65768">
        <ele>400.60000610352</ele>
        <time>2013-03-23T12:02:51.000Z</time>
      </trkpt>
      <trkpt lat="43.58647" lon="5.65793">
        <ele>400.20001220703</ele>
        <time>2013-03-23T12:02:55.000Z</time>
      </trkpt>
      <trkpt lat="43.5865" lon="5.65798">
        <ele>400</ele>
        <time>2013-03-23T12:02:56.000Z</time>
      </trkpt>
      <trkpt lat="43.58653" lon="5.65802">
        <ele>399.60000610352</ele>
        <time>2013-03-23T12:02:57.000Z</time>
      </trkpt>
      <trkpt lat="43.58671" lon="5.65822">
        <ele>398.39999389648</ele>
        <time>2013-03-23T12:03:05.000Z</time>
      </trkpt>
      <trkpt lat="43.58688" lon="5.65839">
        <ele>397.60000610352</ele>
        <time>2013-03-23T12:03:11.000Z</time>
      </trkpt>
      <trkpt lat="43.58691" lon="5.65841">
        <ele>397.20001220703</ele>
        <time>2013-03-23T12:03:12.000Z</time>
      </trkpt>
      <trkpt lat="43.58695" lon="5.65842">
        <ele>397</ele>
        <time>2013-03-23T12:03:13.000Z</time>
      </trkpt>
      <trkpt lat="43.58699" lon="5.65843">
        <ele>396.79998779297</ele>
        <time>2013-03-23T12:03:14.000Z</time>
      </trkpt>
      <trkpt lat="43.58704" lon="5.65844">
        <ele>396.39999389648</ele>
        <time>2013-03-23T12:03:15.000Z</time>
      </trkpt>
      <trkpt lat="43.58708" lon="5.65845">
        <ele>396.20001220703</ele>
        <time>2013-03-23T12:03:16.000Z</time>
      </trkpt>
      <trkpt lat="43.58743" lon="5.65852">
        <ele>394</ele>
        <time>2013-03-23T12:03:25.000Z</time>
      </trkpt>
      <trkpt lat="43.58751" lon="5.65854">
        <ele>393.60000610352</ele>
        <time>2013-03-23T12:03:27.000Z</time>
      </trkpt>
      <trkpt lat="43.58756" lon="5.65854">
        <ele>393.60000610352</ele>
        <time>2013-03-23T12:03:28.000Z</time>
      </trkpt>
      <trkpt lat="43.58761" lon="5.65854">
        <ele>393.39999389648</ele>
        <time>2013-03-23T12:03:29.000Z</time>
      </trkpt>
      <trkpt lat="43.58766" lon="5.65853">
        <ele>393.39999389648</ele>
        <time>2013-03-23T12:03:30.000Z</time>
      </trkpt>
      <trkpt lat="43.58772" lon="5.65851">
        <ele>393.20001220703</ele>
        <time>2013-03-23T12:03:31.000Z</time>
      </trkpt>
      <trkpt lat="43.58777" lon="5.65851">
        <ele>393</ele>
        <time>2013-03-23T12:03:32.000Z</time>
      </trkpt>
      <trkpt lat="43.58784" lon="5.65852">
        <ele>393</ele>
        <time>2013-03-23T12:03:33.000Z</time>
      </trkpt>
      <trkpt lat="43.5879" lon="5.65854">
        <ele>392.60000610352</ele>
        <time>2013-03-23T12:03:34.000Z</time>
      </trkpt>
      <trkpt lat="43.58796" lon="5.65858">
        <ele>392.39999389648</ele>
        <time>2013-03-23T12:03:35.000Z</time>
      </trkpt>
      <trkpt lat="43.58803" lon="5.65862">
        <ele>392</ele>
        <time>2013-03-23T12:03:36.000Z</time>
      </trkpt>
      <trkpt lat="43.5881" lon="5.65866">
        <ele>391.60000610352</ele>
        <time>2013-03-23T12:03:37.000Z</time>
      </trkpt>
      <trkpt lat="43.58816" lon="5.65868">
        <ele>391.39999389648</ele>
        <time>2013-03-23T12:03:38.000Z</time>
      </trkpt>
      <trkpt lat="43.58823" lon="5.6587">
        <ele>391</ele>
        <time>2013-03-23T12:03:39.000Z</time>
      </trkpt>
      <trkpt lat="43.58829" lon="5.6587">
        <ele>390.79998779297</ele>
        <time>2013-03-23T12:03:40.000Z</time>
      </trkpt>
      <trkpt lat="43.58836" lon="5.65869">
        <ele>390.60000610352</ele>
        <time>2013-03-23T12:03:41.000Z</time>
      </trkpt>
      <trkpt lat="43.58843" lon="5.65866">
        <ele>390.39999389648</ele>
        <time>2013-03-23T12:03:42.000Z</time>
      </trkpt>
      <trkpt lat="43.58865" lon="5.65864">
        <ele>389.60000610352</ele>
        <time>2013-03-23T12:03:45.000Z</time>
      </trkpt>
      <trkpt lat="43.58873" lon="5.65867">
        <ele>389.20001220703</ele>
        <time>2013-03-23T12:03:46.000Z</time>
      </trkpt>
      <trkpt lat="43.58896" lon="5.65881">
        <ele>387.39999389648</ele>
        <time>2013-03-23T12:03:49.000Z</time>
      </trkpt>
      <trkpt lat="43.58919" lon="5.65897">
        <ele>385.60000610352</ele>
        <time>2013-03-23T12:03:52.000Z</time>
      </trkpt>
      <trkpt lat="43.58957" lon="5.65934">
        <ele>381.79998779297</ele>
        <time>2013-03-23T12:03:57.000Z</time>
      </trkpt>
      <trkpt lat="43.58983" lon="5.65953">
        <ele>380.39999389648</ele>
        <time>2013-03-23T12:04:00.000Z</time>
      </trkpt>
      <trkpt lat="43.58993" lon="5.65959">
        <ele>380</ele>
        <time>2013-03-23T12:04:01.000Z</time>
      </trkpt>
      <trkpt lat="43.59045" lon="5.65976">
        <ele>379.60000610352</ele>
        <time>2013-03-23T12:04:07.000Z</time>
      </trkpt>
      <trkpt lat="43.59054" lon="5.65974">
        <ele>379.39999389648</ele>
        <time>2013-03-23T12:04:08.000Z</time>
      </trkpt>
      <trkpt lat="43.59062" lon="5.65969">
        <ele>379.39999389648</ele>
        <time>2013-03-23T12:04:09.000Z</time>
      </trkpt>
      <trkpt lat="43.59069" lon="5.65962">
        <ele>379.39999389648</ele>
        <time>2013-03-23T12:04:10.000Z</time>
      </trkpt>
      <trkpt lat="43.59075" lon="5.65954">
        <ele>379.39999389648</ele>
        <time>2013-03-23T12:04:11.000Z</time>
      </trkpt>
      <trkpt lat="43.59089" lon="5.65941">
        <ele>379.60000610352</ele>
        <time>2013-03-23T12:04:13.000Z</time>
      </trkpt>
      <trkpt lat="43.59097" lon="5.65939">
        <ele>379.60000610352</ele>
        <time>2013-03-23T12:04:14.000Z</time>
      </trkpt>
      <trkpt lat="43.59104" lon="5.65943">
        <ele>379.60000610352</ele>
        <time>2013-03-23T12:04:15.000Z</time>
      </trkpt>
      <trkpt lat="43.59117" lon="5.65954">
        <ele>379.20001220703</ele>
        <time>2013-03-23T12:04:17.000Z</time>
      </trkpt>
      <trkpt lat="43.59124" lon="5.65958">
        <ele>379</ele>
        <time>2013-03-23T12:04:18.000Z</time>
      </trkpt>
      <trkpt lat="43.59132" lon="5.6596">
        <ele>378.79998779297</ele>
        <time>2013-03-23T12:04:19.000Z</time>
      </trkpt>
      <trkpt lat="43.5914" lon="5.65962">
        <ele>378.60000610352</ele>
        <time>2013-03-23T12:04:20.000Z</time>
      </trkpt>
      <trkpt lat="43.59147" lon="5.65964">
        <ele>378.39999389648</ele>
        <time>2013-03-23T12:04:21.000Z</time>
      </trkpt>
      <trkpt lat="43.59155" lon="5.65965">
        <ele>378.20001220703</ele>
        <time>2013-03-23T12:04:22.000Z</time>
      </trkpt>
      <trkpt lat="43.59162" lon="5.65964">
        <ele>378.20001220703</ele>
        <time>2013-03-23T12:04:23.000Z</time>
      </trkpt>
      <trkpt lat="43.59168" lon="5.65962">
        <ele>378.20001220703</ele>
        <time>2013-03-23T12:04:24.000Z</time>
      </trkpt>
      <trkpt lat="43.59175" lon="5.65959">
        <ele>378.20001220703</ele>
        <time>2013-03-23T12:04:25.000Z</time>
      </trkpt>
      <trkpt lat="43.59182" lon="5.65957">
        <ele>378.20001220703</ele>
        <time>2013-03-23T12:04:26.000Z</time>
      </trkpt>
      <trkpt lat="43.59214" lon="5.65951">
        <ele>377.60000610352</ele>
        <time>2013-03-23T12:04:31.000Z</time>
      </trkpt>
      <trkpt lat="43.59221" lon="5.65951">
        <ele>377.39999389648</ele>
        <time>2013-03-23T12:04:32.000Z</time>
      </trkpt>
      <trkpt lat="43.59227" lon="5.65952">
        <ele>377.20001220703</ele>
        <time>2013-03-23T12:04:33.000Z</time>
      </trkpt>
      <trkpt lat="43.59294" lon="5.65964">
        <ele>375.79998779297</ele>
        <time>2013-03-23T12:04:44.000Z</time>
      </trkpt>
      <trkpt lat="43.59378" lon="5.65981">
        <ele>373.20001220703</ele>
        <time>2013-03-23T12:04:56.000Z</time>
      </trkpt>
      <trkpt lat="43.59442" lon="5.65997">
        <ele>370.60000610352</ele>
        <time>2013-03-23T12:05:06.000Z</time>
      </trkpt>
      <trkpt lat="43.59448" lon="5.65998">
        <ele>370.60000610352</ele>
        <time>2013-03-23T12:05:07.000Z</time>
      </trkpt>
      <trkpt lat="43.59454" lon="5.66">
        <ele>370.39999389648</ele>
        <time>2013-03-23T12:05:08.000Z</time>
      </trkpt>
      <trkpt lat="43.59505" lon="5.66023">
        <ele>368.39999389648</ele>
        <time>2013-03-23T12:05:16.000Z</time>
      </trkpt>
      <trkpt lat="43.59537" lon="5.66027">
        <ele>367.79998779297</ele>
        <time>2013-03-23T12:05:21.000Z</time>
      </trkpt>
      <trkpt lat="43.59562" lon="5.66033">
        <ele>367.20001220703</ele>
        <time>2013-03-23T12:05:25.000Z</time>
      </trkpt>
      <trkpt lat="43.59567" lon="5.66036">
        <ele>367</ele>
        <time>2013-03-23T12:05:26.000Z</time>
      </trkpt>
      <trkpt lat="43.59573" lon="5.66041">
        <ele>366.60000610352</ele>
        <time>2013-03-23T12:05:27.000Z</time>
      </trkpt>
      <trkpt lat="43.5959" lon="5.66056">
        <ele>365.39999389648</ele>
        <time>2013-03-23T12:05:30.000Z</time>
      </trkpt>
      <trkpt lat="43.59609" lon="5.66073">
        <ele>364.20001220703</ele>
        <time>2013-03-23T12:05:33.000Z</time>
      </trkpt>
      <trkpt lat="43.59617" lon="5.66077">
        <ele>363.79998779297</ele>
        <time>2013-03-23T12:05:34.000Z</time>
      </trkpt>
      <trkpt lat="43.59624" lon="5.66079">
        <ele>363.60000610352</ele>
        <time>2013-03-23T12:05:35.000Z</time>
      </trkpt>
      <trkpt lat="43.59632" lon="5.66081">
        <ele>363.39999389648</ele>
        <time>2013-03-23T12:05:36.000Z</time>
      </trkpt>
      <trkpt lat="43.5964" lon="5.66082">
        <ele>363.20001220703</ele>
        <time>2013-03-23T12:05:37.000Z</time>
      </trkpt>
      <trkpt lat="43.59708" lon="5.6608">
        <ele>362</ele>
        <time>2013-03-23T12:05:46.000Z</time>
      </trkpt>
      <trkpt lat="43.598" lon="5.66082">
        <ele>360.20001220703</ele>
        <time>2013-03-23T12:05:58.000Z</time>
      </trkpt>
      <trkpt lat="43.59865" lon="5.66081">
        <ele>358.20001220703</ele>
        <time>2013-03-23T12:06:07.000Z</time>
      </trkpt>
      <trkpt lat="43.59879" lon="5.66084">
        <ele>357.60000610352</ele>
        <time>2013-03-23T12:06:09.000Z</time>
      </trkpt>
      <trkpt lat="43.59886" lon="5.66087">
        <ele>357.39999389648</ele>
        <time>2013-03-23T12:06:10.000Z</time>
      </trkpt>
      <trkpt lat="43.59948" lon="5.66111">
        <ele>353.79998779297</ele>
        <time>2013-03-23T12:06:19.000Z</time>
      </trkpt>
      <trkpt lat="43.60003" lon="5.66122">
        <ele>349.60000610352</ele>
        <time>2013-03-23T12:06:27.000Z</time>
      </trkpt>
      <trkpt lat="43.60061" lon="5.66131">
        <ele>347</ele>
        <time>2013-03-23T12:06:35.000Z</time>
      </trkpt>
      <trkpt lat="43.60085" lon="5.66134">
        <ele>345.79998779297</ele>
        <time>2013-03-23T12:06:38.000Z</time>
      </trkpt>
      <trkpt lat="43.60091" lon="5.66137">
        <ele>345.60000610352</ele>
        <time>2013-03-23T12:06:39.000Z</time>
      </trkpt>
      <trkpt lat="43.60103" lon="5.66142">
        <ele>345.39999389648</ele>
        <time>2013-03-23T12:06:41.000Z</time>
      </trkpt>
      <trkpt lat="43.60109" lon="5.66142">
        <ele>345.20001220703</ele>
        <time>2013-03-23T12:06:42.000Z</time>
      </trkpt>
      <trkpt lat="43.60115" lon="5.66139">
        <ele>345</ele>
        <time>2013-03-23T12:06:43.000Z</time>
      </trkpt>
      <trkpt lat="43.60143" lon="5.66113">
        <ele>344</ele>
        <time>2013-03-23T12:06:47.000Z</time>
      </trkpt>
      <trkpt lat="43.6015" lon="5.66104">
        <ele>343.79998779297</ele>
        <time>2013-03-23T12:06:48.000Z</time>
      </trkpt>
      <trkpt lat="43.60156" lon="5.66094">
        <ele>343.39999389648</ele>
        <time>2013-03-23T12:06:49.000Z</time>
      </trkpt>
      <trkpt lat="43.60162" lon="5.66084">
        <ele>343</ele>
        <time>2013-03-23T12:06:50.000Z</time>
      </trkpt>
      <trkpt lat="43.60167" lon="5.66073">
        <ele>343.39999389648</ele>
        <time>2013-03-23T12:06:51.000Z</time>
      </trkpt>
      <trkpt lat="43.60172" lon="5.66063">
        <ele>343.79998779297</ele>
        <time>2013-03-23T12:06:52.000Z</time>
      </trkpt>
      <trkpt lat="43.60176" lon="5.66053">
        <ele>344.20001220703</ele>
        <time>2013-03-23T12:06:53.000Z</time>
      </trkpt>
      <trkpt lat="43.60181" lon="5.66044">
        <ele>344.39999389648</ele>
        <time>2013-03-23T12:06:54.000Z</time>
      </trkpt>
      <trkpt lat="43.60187" lon="5.66037">
        <ele>344.60000610352</ele>
        <time>2013-03-23T12:06:55.000Z</time>
      </trkpt>
      <trkpt lat="43.60193" lon="5.66031">
        <ele>344.60000610352</ele>
        <time>2013-03-23T12:06:56.000Z</time>
      </trkpt>
      <trkpt lat="43.60199" lon="5.66027">
        <ele>344.60000610352</ele>
        <time>2013-03-23T12:06:57.000Z</time>
      </trkpt>
      <trkpt lat="43.60205" lon="5.66024">
        <ele>344.39999389648</ele>
        <time>2013-03-23T12:06:58.000Z</time>
      </trkpt>
      <trkpt lat="43.6021" lon="5.66022">
        <ele>344</ele>
        <time>2013-03-23T12:06:59.000Z</time>
      </trkpt>
      <trkpt lat="43.60221" lon="5.66021">
        <ele>343.60000610352</ele>
        <time>2013-03-23T12:07:01.000Z</time>
      </trkpt>
      <trkpt lat="43.60243" lon="5.66021">
        <ele>342.39999389648</ele>
        <time>2013-03-23T12:07:05.000Z</time>
      </trkpt>
      <trkpt lat="43.60248" lon="5.66019">
        <ele>342</ele>
        <time>2013-03-23T12:07:06.000Z</time>
      </trkpt>
      <trkpt lat="43.60254" lon="5.66016">
        <ele>342</ele>
        <time>2013-03-23T12:07:07.000Z</time>
      </trkpt>
      <trkpt lat="43.60259" lon="5.66011">
        <ele>342</ele>
        <time>2013-03-23T12:07:08.000Z</time>
      </trkpt>
      <trkpt lat="43.60265" lon="5.66005">
        <ele>342</ele>
        <time>2013-03-23T12:07:09.000Z</time>
      </trkpt>
      <trkpt lat="43.60316" lon="5.65945">
        <ele>341.79998779297</ele>
        <time>2013-03-23T12:07:19.000Z</time>
      </trkpt>
      <trkpt lat="43.60325" lon="5.65931">
        <ele>341.39999389648</ele>
        <time>2013-03-23T12:07:21.000Z</time>
      </trkpt>
      <trkpt lat="43.60353" lon="5.65894">
        <ele>340.79998779297</ele>
        <time>2013-03-23T12:07:27.000Z</time>
      </trkpt>
      <trkpt lat="43.60358" lon="5.65892">
        <ele>340.60000610352</ele>
        <time>2013-03-23T12:07:28.000Z</time>
      </trkpt>
      <trkpt lat="43.60371" lon="5.65889">
        <ele>340.39999389648</ele>
        <time>2013-03-23T12:07:30.000Z</time>
      </trkpt>
      <trkpt lat="43.60377" lon="5.6589">
        <ele>340.20001220703</ele>
        <time>2013-03-23T12:07:31.000Z</time>
      </trkpt>
      <trkpt lat="43.6039" lon="5.65892">
        <ele>339.79998779297</ele>
        <time>2013-03-23T12:07:33.000Z</time>
      </trkpt>
      <trkpt lat="43.60409" lon="5.65894">
        <ele>339.39999389648</ele>
        <time>2013-03-23T12:07:36.000Z</time>
      </trkpt>
      <trkpt lat="43.60422" lon="5.65895">
        <ele>339.20001220703</ele>
        <time>2013-03-23T12:07:38.000Z</time>
      </trkpt>
      <trkpt lat="43.60428" lon="5.65896">
        <ele>339</ele>
        <time>2013-03-23T12:07:39.000Z</time>
      </trkpt>
      <trkpt lat="43.60435" lon="5.65897">
        <ele>339</ele>
        <time>2013-03-23T12:07:40.000Z</time>
      </trkpt>
      <trkpt lat="43.60441" lon="5.659">
        <ele>339</ele>
        <time>2013-03-23T12:07:41.000Z</time>
      </trkpt>
      <trkpt lat="43.60447" lon="5.65904">
        <ele>338.79998779297</ele>
        <time>2013-03-23T12:07:42.000Z</time>
      </trkpt>
      <trkpt lat="43.60452" lon="5.65908">
        <ele>338.60000610352</ele>
        <time>2013-03-23T12:07:43.000Z</time>
      </trkpt>
      <trkpt lat="43.60457" lon="5.65911">
        <ele>338.60000610352</ele>
        <time>2013-03-23T12:07:44.000Z</time>
      </trkpt>
      <trkpt lat="43.60463" lon="5.65913">
        <ele>338.39999389648</ele>
        <time>2013-03-23T12:07:45.000Z</time>
      </trkpt>
      <trkpt lat="43.6047" lon="5.65915">
        <ele>338.39999389648</ele>
        <time>2013-03-23T12:07:46.000Z</time>
      </trkpt>
      <trkpt lat="43.60477" lon="5.65915">
        <ele>338.20001220703</ele>
        <time>2013-03-23T12:07:47.000Z</time>
      </trkpt>
      <trkpt lat="43.60484" lon="5.65915">
        <ele>338.20001220703</ele>
        <time>2013-03-23T12:07:48.000Z</time>
      </trkpt>
      <trkpt lat="43.6049" lon="5.65916">
        <ele>338</ele>
        <time>2013-03-23T12:07:49.000Z</time>
      </trkpt>
      <trkpt lat="43.60498" lon="5.65917">
        <ele>338</ele>
        <time>2013-03-23T12:07:50.000Z</time>
      </trkpt>
      <trkpt lat="43.60562" lon="5.65929">
        <ele>337</ele>
        <time>2013-03-23T12:07:59.000Z</time>
      </trkpt>
      <trkpt lat="43.60578" lon="5.65934">
        <ele>336.79998779297</ele>
        <time>2013-03-23T12:08:04.000Z</time>
      </trkpt>
      <trkpt lat="43.60581" lon="5.65935">
        <ele>336.79998779297</ele>
        <time>2013-03-23T12:08:10.000Z</time>
      </trkpt>
      <trkpt lat="43.60581" lon="5.65937">
        <ele>336.60000610352</ele>
        <time>2013-03-23T12:08:28.000Z</time>
      </trkpt>
      <trkpt lat="43.6058" lon="5.65936">
        <ele>336.60000610352</ele>
        <time>2013-03-23T12:08:50.000Z</time>
      </trkpt>
      <trkpt lat="43.60579" lon="5.65937">
        <ele>336.60000610352</ele>
        <time>2013-03-23T12:09:12.000Z</time>
      </trkpt>
      <trkpt lat="43.60581" lon="5.65937">
        <ele>336.60000610352</ele>
        <time>2013-03-23T12:09:31.000Z</time>
      </trkpt>
      <trkpt lat="43.60583" lon="5.65937">
        <ele>336.60000610352</ele>
        <time>2013-03-23T12:09:42.000Z</time>
      </trkpt>
      <trkpt lat="43.60583" lon="5.65939">
        <ele>336.60000610352</ele>
        <time>2013-03-23T12:09:46.000Z</time>
      </trkpt>
      <trkpt lat="43.60584" lon="5.65953">
        <ele>336.39999389648</ele>
        <time>2013-03-23T12:09:52.000Z</time>
      </trkpt>
      <trkpt lat="43.60584" lon="5.65954">
        <ele>336.39999389648</ele>
        <time>2013-03-23T12:09:53.000Z</time>
      </trkpt>
      <trkpt lat="43.60585" lon="5.65956">
        <ele>336.39999389648</ele>
        <time>2013-03-23T12:09:54.000Z</time>
      </trkpt>
      <trkpt lat="43.60585" lon="5.65957">
        <ele>336.39999389648</ele>
        <time>2013-03-23T12:09:55.000Z</time>
      </trkpt>
      <trkpt lat="43.60587" lon="5.65965">
        <ele>336.20001220703</ele>
        <time>2013-03-23T12:10:03.000Z</time>
      </trkpt>
      <trkpt lat="43.60586" lon="5.65965">
        <ele>336.20001220703</ele>
        <time>2013-03-23T12:10:27.000Z</time>
      </trkpt>
      <trkpt lat="43.60588" lon="5.65967">
        <ele>336.20001220703</ele>
        <time>2013-03-23T12:10:48.000Z</time>
      </trkpt>
      <trkpt lat="43.60593" lon="5.65997">
        <ele>335.60000610352</ele>
        <time>2013-03-23T12:10:56.000Z</time>
      </trkpt>
      <trkpt lat="43.60602" lon="5.66019">
        <ele>334.39999389648</ele>
        <time>2013-03-23T12:11:00.000Z</time>
      </trkpt>
      <trkpt lat="43.60606" lon="5.66023">
        <ele>334.20001220703</ele>
        <time>2013-03-23T12:11:01.000Z</time>
      </trkpt>
      <trkpt lat="43.60618" lon="5.66033">
        <ele>333.60000610352</ele>
        <time>2013-03-23T12:11:04.000Z</time>
      </trkpt>
      <trkpt lat="43.60622" lon="5.66035">
        <ele>333.39999389648</ele>
        <time>2013-03-23T12:11:05.000Z</time>
      </trkpt>
      <trkpt lat="43.60627" lon="5.66034">
        <ele>333.39999389648</ele>
        <time>2013-03-23T12:11:06.000Z</time>
      </trkpt>
      <trkpt lat="43.60632" lon="5.66033">
        <ele>333.20001220703</ele>
        <time>2013-03-23T12:11:07.000Z</time>
      </trkpt>
      <trkpt lat="43.60637" lon="5.66032">
        <ele>333.20001220703</ele>
        <time>2013-03-23T12:11:08.000Z</time>
      </trkpt>
      <trkpt lat="43.60642" lon="5.66029">
        <ele>333.20001220703</ele>
        <time>2013-03-23T12:11:09.000Z</time>
      </trkpt>
      <trkpt lat="43.60647" lon="5.66026">
        <ele>333</ele>
        <time>2013-03-23T12:11:10.000Z</time>
      </trkpt>
      <trkpt lat="43.60652" lon="5.66023">
        <ele>333</ele>
        <time>2013-03-23T12:11:11.000Z</time>
      </trkpt>
      <trkpt lat="43.60657" lon="5.66021">
        <ele>333</ele>
        <time>2013-03-23T12:11:12.000Z</time>
      </trkpt>
      <trkpt lat="43.60662" lon="5.6602">
        <ele>332.79998779297</ele>
        <time>2013-03-23T12:11:13.000Z</time>
      </trkpt>
      <trkpt lat="43.60668" lon="5.6602">
        <ele>332.60000610352</ele>
        <time>2013-03-23T12:11:14.000Z</time>
      </trkpt>
      <trkpt lat="43.60674" lon="5.66021">
        <ele>332.20001220703</ele>
        <time>2013-03-23T12:11:15.000Z</time>
      </trkpt>
      <trkpt lat="43.60693" lon="5.66022">
        <ele>330.79998779297</ele>
        <time>2013-03-23T12:11:18.000Z</time>
      </trkpt>
      <trkpt lat="43.60698" lon="5.66021">
        <ele>330.60000610352</ele>
        <time>2013-03-23T12:11:19.000Z</time>
      </trkpt>
      <trkpt lat="43.60703" lon="5.66018">
        <ele>330.39999389648</ele>
        <time>2013-03-23T12:11:20.000Z</time>
      </trkpt>
      <trkpt lat="43.60707" lon="5.66013">
        <ele>330.20001220703</ele>
        <time>2013-03-23T12:11:21.000Z</time>
      </trkpt>
      <trkpt lat="43.6071" lon="5.66007">
        <ele>330.20001220703</ele>
        <time>2013-03-23T12:11:22.000Z</time>
      </trkpt>
      <trkpt lat="43.60713" lon="5.66">
        <ele>330.20001220703</ele>
        <time>2013-03-23T12:11:23.000Z</time>
      </trkpt>
      <trkpt lat="43.60716" lon="5.65994">
        <ele>330.20001220703</ele>
        <time>2013-03-23T12:11:24.000Z</time>
      </trkpt>
      <trkpt lat="43.60718" lon="5.6599">
        <ele>330.20001220703</ele>
        <time>2013-03-23T12:11:25.000Z</time>
      </trkpt>
      <trkpt lat="43.60723" lon="5.65985">
        <ele>330.20001220703</ele>
        <time>2013-03-23T12:11:26.000Z</time>
      </trkpt>
      <trkpt lat="43.60731" lon="5.65983">
        <ele>329.79998779297</ele>
        <time>2013-03-23T12:11:28.000Z</time>
      </trkpt>
      <trkpt lat="43.60735" lon="5.65985">
        <ele>329.60000610352</ele>
        <time>2013-03-23T12:11:29.000Z</time>
      </trkpt>
      <trkpt lat="43.60738" lon="5.65988">
        <ele>329.20001220703</ele>
        <time>2013-03-23T12:11:30.000Z</time>
      </trkpt>
      <trkpt lat="43.6077" lon="5.66054">
        <ele>325.39999389648</ele>
        <time>2013-03-23T12:11:41.000Z</time>
      </trkpt>
      <trkpt lat="43.60783" lon="5.66074">
        <ele>323.79998779297</ele>
        <time>2013-03-23T12:11:44.000Z</time>
      </trkpt>
      <trkpt lat="43.60789" lon="5.6608">
        <ele>323.20001220703</ele>
        <time>2013-03-23T12:11:45.000Z</time>
      </trkpt>
      <trkpt lat="43.60795" lon="5.66083">
        <ele>322.79998779297</ele>
        <time>2013-03-23T12:11:46.000Z</time>
      </trkpt>
      <trkpt lat="43.60802" lon="5.66085">
        <ele>322.39999389648</ele>
        <time>2013-03-23T12:11:47.000Z</time>
      </trkpt>
      <trkpt lat="43.60809" lon="5.66085">
        <ele>322</ele>
        <time>2013-03-23T12:11:48.000Z</time>
      </trkpt>
      <trkpt lat="43.60816" lon="5.66084">
        <ele>321.79998779297</ele>
        <time>2013-03-23T12:11:49.000Z</time>
      </trkpt>
      <trkpt lat="43.60823" lon="5.66081">
        <ele>321.60000610352</ele>
        <time>2013-03-23T12:11:50.000Z</time>
      </trkpt>
      <trkpt lat="43.6083" lon="5.66077">
        <ele>321.60000610352</ele>
        <time>2013-03-23T12:11:51.000Z</time>
      </trkpt>
      <trkpt lat="43.60836" lon="5.66072">
        <ele>321.60000610352</ele>
        <time>2013-03-23T12:11:52.000Z</time>
      </trkpt>
      <trkpt lat="43.60843" lon="5.66067">
        <ele>321.39999389648</ele>
        <time>2013-03-23T12:11:53.000Z</time>
      </trkpt>
      <trkpt lat="43.60911" lon="5.66016">
        <ele>320</ele>
        <time>2013-03-23T12:12:03.000Z</time>
      </trkpt>
      <trkpt lat="43.60977" lon="5.65988">
        <ele>319.20001220703</ele>
        <time>2013-03-23T12:12:12.000Z</time>
      </trkpt>
      <trkpt lat="43.61041" lon="5.6599">
        <ele>316.20001220703</ele>
        <time>2013-03-23T12:12:21.000Z</time>
      </trkpt>
      <trkpt lat="43.61127" lon="5.65985">
        <ele>314.39999389648</ele>
        <time>2013-03-23T12:12:33.000Z</time>
      </trkpt>
      <trkpt lat="43.61189" lon="5.65957">
        <ele>316.60000610352</ele>
        <time>2013-03-23T12:12:44.000Z</time>
      </trkpt>
      <trkpt lat="43.61213" lon="5.65946">
        <ele>318</ele>
        <time>2013-03-23T12:12:49.000Z</time>
      </trkpt>
      <trkpt lat="43.61269" lon="5.6592">
        <ele>320.20001220703</ele>
        <time>2013-03-23T12:13:00.000Z</time>
      </trkpt>
      <trkpt lat="43.61322" lon="5.65875">
        <ele>321</ele>
        <time>2013-03-23T12:13:12.000Z</time>
      </trkpt>
      <trkpt lat="43.61372" lon="5.65824">
        <ele>320.39999389648</ele>
        <time>2013-03-23T12:13:25.000Z</time>
      </trkpt>
      <trkpt lat="43.61395" lon="5.6581">
        <ele>319.79998779297</ele>
        <time>2013-03-23T12:13:30.000Z</time>
      </trkpt>
      <trkpt lat="43.614" lon="5.65809">
        <ele>319.60000610352</ele>
        <time>2013-03-23T12:13:31.000Z</time>
      </trkpt>
      <trkpt lat="43.61421" lon="5.65808">
        <ele>319.39999389648</ele>
        <time>2013-03-23T12:13:35.000Z</time>
      </trkpt>
      <trkpt lat="43.61485" lon="5.65823">
        <ele>321.39999389648</ele>
        <time>2013-03-23T12:13:48.000Z</time>
      </trkpt>
      <trkpt lat="43.61526" lon="5.65824">
        <ele>321.20001220703</ele>
        <time>2013-03-23T12:13:57.000Z</time>
      </trkpt>
      <trkpt lat="43.61531" lon="5.65823">
        <ele>321.20001220703</ele>
        <time>2013-03-23T12:13:58.000Z</time>
      </trkpt>
      <trkpt lat="43.61544" lon="5.65819">
        <ele>321.60000610352</ele>
        <time>2013-03-23T12:14:01.000Z</time>
      </trkpt>
      <trkpt lat="43.61549" lon="5.65817">
        <ele>321.79998779297</ele>
        <time>2013-03-23T12:14:02.000Z</time>
      </trkpt>
      <trkpt lat="43.61581" lon="5.65805">
        <ele>323.20001220703</ele>
        <time>2013-03-23T12:14:09.000Z</time>
      </trkpt>
      <trkpt lat="43.61586" lon="5.65802">
        <ele>323.60000610352</ele>
        <time>2013-03-23T12:14:10.000Z</time>
      </trkpt>
      <trkpt lat="43.6159" lon="5.658">
        <ele>323.79998779297</ele>
        <time>2013-03-23T12:14:11.000Z</time>
      </trkpt>
      <trkpt lat="43.61595" lon="5.65798">
        <ele>324</ele>
        <time>2013-03-23T12:14:12.000Z</time>
      </trkpt>
      <trkpt lat="43.616" lon="5.65798">
        <ele>323.79998779297</ele>
        <time>2013-03-23T12:14:13.000Z</time>
      </trkpt>
      <trkpt lat="43.61604" lon="5.65796">
        <ele>324</ele>
        <time>2013-03-23T12:14:14.000Z</time>
      </trkpt>
      <trkpt lat="43.61609" lon="5.65793">
        <ele>324</ele>
        <time>2013-03-23T12:14:15.000Z</time>
      </trkpt>
      <trkpt lat="43.61618" lon="5.65789">
        <ele>324.20001220703</ele>
        <time>2013-03-23T12:14:17.000Z</time>
      </trkpt>
      <trkpt lat="43.61646" lon="5.65779">
        <ele>324</ele>
        <time>2013-03-23T12:14:23.000Z</time>
      </trkpt>
      <trkpt lat="43.61654" lon="5.65774">
        <ele>324</ele>
        <time>2013-03-23T12:14:25.000Z</time>
      </trkpt>
      <trkpt lat="43.61667" lon="5.65769">
        <ele>323.60000610352</ele>
        <time>2013-03-23T12:14:28.000Z</time>
      </trkpt>
      <trkpt lat="43.61676" lon="5.65765">
        <ele>323.20001220703</ele>
        <time>2013-03-23T12:14:30.000Z</time>
      </trkpt>
      <trkpt lat="43.6168" lon="5.65763">
        <ele>323</ele>
        <time>2013-03-23T12:14:31.000Z</time>
      </trkpt>
      <trkpt lat="43.61736" lon="5.65739">
        <ele>321.20001220703</ele>
        <time>2013-03-23T12:14:44.000Z</time>
      </trkpt>
      <trkpt lat="43.6178" lon="5.65704">
        <ele>318.60000610352</ele>
        <time>2013-03-23T12:14:54.000Z</time>
      </trkpt>
      <trkpt lat="43.61815" lon="5.65649">
        <ele>316.60000610352</ele>
        <time>2013-03-23T12:15:05.000Z</time>
      </trkpt>
      <trkpt lat="43.61826" lon="5.65629">
        <ele>315.60000610352</ele>
        <time>2013-03-23T12:15:09.000Z</time>
      </trkpt>
      <trkpt lat="43.61832" lon="5.6562">
        <ele>315</ele>
        <time>2013-03-23T12:15:11.000Z</time>
      </trkpt>
      <trkpt lat="43.61835" lon="5.65615">
        <ele>314.79998779297</ele>
        <time>2013-03-23T12:15:12.000Z</time>
      </trkpt>
      <trkpt lat="43.61838" lon="5.6561">
        <ele>314.60000610352</ele>
        <time>2013-03-23T12:15:13.000Z</time>
      </trkpt>
      <trkpt lat="43.61853" lon="5.65584">
        <ele>313</ele>
        <time>2013-03-23T12:15:17.000Z</time>
      </trkpt>
      <trkpt lat="43.61859" lon="5.6557">
        <ele>312.39999389648</ele>
        <time>2013-03-23T12:15:19.000Z</time>
      </trkpt>
      <trkpt lat="43.61869" lon="5.65534">
        <ele>311.60000610352</ele>
        <time>2013-03-23T12:15:24.000Z</time>
      </trkpt>
      <trkpt lat="43.61892" lon="5.65449">
        <ele>311.79998779297</ele>
        <time>2013-03-23T12:15:33.000Z</time>
      </trkpt>
      <trkpt lat="43.61934" lon="5.65341">
        <ele>311.60000610352</ele>
        <time>2013-03-23T12:15:44.000Z</time>
      </trkpt>
      <trkpt lat="43.61986" lon="5.65254">
        <ele>308.20001220703</ele>
        <time>2013-03-23T12:15:54.000Z</time>
      </trkpt>
      <trkpt lat="43.62049" lon="5.6515">
        <ele>310.39999389648</ele>
        <time>2013-03-23T12:16:07.000Z</time>
      </trkpt>
      <trkpt lat="43.62098" lon="5.65044">
        <ele>313.79998779297</ele>
        <time>2013-03-23T12:16:19.000Z</time>
      </trkpt>
      <trkpt lat="43.62124" lon="5.64969">
        <ele>313.39999389648</ele>
        <time>2013-03-23T12:16:27.000Z</time>
      </trkpt>
      <trkpt lat="43.62177" lon="5.64894">
        <ele>305.79998779297</ele>
        <time>2013-03-23T12:16:36.000Z</time>
      </trkpt>
      <trkpt lat="43.62191" lon="5.64877">
        <ele>305.79998779297</ele>
        <time>2013-03-23T12:16:38.000Z</time>
      </trkpt>
      <trkpt lat="43.62242" lon="5.6481">
        <ele>302.60000610352</ele>
        <time>2013-03-23T12:16:46.000Z</time>
      </trkpt>
      <trkpt lat="43.62308" lon="5.64752">
        <ele>302.60000610352</ele>
        <time>2013-03-23T12:16:55.000Z</time>
      </trkpt>
      <trkpt lat="43.62388" lon="5.64703">
        <ele>300.79998779297</ele>
        <time>2013-03-23T12:17:06.000Z</time>
      </trkpt>
      <trkpt lat="43.62473" lon="5.6466">
        <ele>300.79998779297</ele>
        <time>2013-03-23T12:17:18.000Z</time>
      </trkpt>
      <trkpt lat="43.62495" lon="5.64657">
        <ele>302.20001220703</ele>
        <time>2013-03-23T12:17:21.000Z</time>
      </trkpt>
      <trkpt lat="43.62524" lon="5.6466">
        <ele>304.39999389648</ele>
        <time>2013-03-23T12:17:25.000Z</time>
      </trkpt>
      <trkpt lat="43.62544" lon="5.6466">
        <ele>305.79998779297</ele>
        <time>2013-03-23T12:17:28.000Z</time>
      </trkpt>
      <trkpt lat="43.62589" lon="5.64662">
        <ele>308.60000610352</ele>
        <time>2013-03-23T12:17:36.000Z</time>
      </trkpt>
      <trkpt lat="43.62595" lon="5.64663">
        <ele>308.79998779297</ele>
        <time>2013-03-23T12:17:37.000Z</time>
      </trkpt>
      <trkpt lat="43.62599" lon="5.64665">
        <ele>308.79998779297</ele>
        <time>2013-03-23T12:17:38.000Z</time>
      </trkpt>
      <trkpt lat="43.62618" lon="5.64679">
        <ele>309</ele>
        <time>2013-03-23T12:17:43.000Z</time>
      </trkpt>
      <trkpt lat="43.62622" lon="5.64684">
        <ele>309</ele>
        <time>2013-03-23T12:17:44.000Z</time>
      </trkpt>
      <trkpt lat="43.62659" lon="5.64748">
        <ele>305.79998779297</ele>
        <time>2013-03-23T12:17:54.000Z</time>
      </trkpt>
      <trkpt lat="43.62664" lon="5.64766">
        <ele>305.60000610352</ele>
        <time>2013-03-23T12:17:56.000Z</time>
      </trkpt>
      <trkpt lat="43.62666" lon="5.64775">
        <ele>305.60000610352</ele>
        <time>2013-03-23T12:17:57.000Z</time>
      </trkpt>
      <trkpt lat="43.62671" lon="5.64803">
        <ele>306.20001220703</ele>
        <time>2013-03-23T12:18:00.000Z</time>
      </trkpt>
      <trkpt lat="43.62675" lon="5.64812">
        <ele>306.39999389648</ele>
        <time>2013-03-23T12:18:01.000Z</time>
      </trkpt>
      <trkpt lat="43.6268" lon="5.6482">
        <ele>306.79998779297</ele>
        <time>2013-03-23T12:18:02.000Z</time>
      </trkpt>
      <trkpt lat="43.62687" lon="5.64825">
        <ele>307</ele>
        <time>2013-03-23T12:18:03.000Z</time>
      </trkpt>
      <trkpt lat="43.62695" lon="5.64828">
        <ele>307.39999389648</ele>
        <time>2013-03-23T12:18:04.000Z</time>
      </trkpt>
      <trkpt lat="43.62703" lon="5.64827">
        <ele>307.39999389648</ele>
        <time>2013-03-23T12:18:05.000Z</time>
      </trkpt>
      <trkpt lat="43.6271" lon="5.64823">
        <ele>307.39999389648</ele>
        <time>2013-03-23T12:18:06.000Z</time>
      </trkpt>
      <trkpt lat="43.62718" lon="5.64817">
        <ele>307.20001220703</ele>
        <time>2013-03-23T12:18:07.000Z</time>
      </trkpt>
      <trkpt lat="43.62724" lon="5.64809">
        <ele>306.79998779297</ele>
        <time>2013-03-23T12:18:08.000Z</time>
      </trkpt>
      <trkpt lat="43.62729" lon="5.64798">
        <ele>306.39999389648</ele>
        <time>2013-03-23T12:18:09.000Z</time>
      </trkpt>
      <trkpt lat="43.62733" lon="5.64787">
        <ele>305.60000610352</ele>
        <time>2013-03-23T12:18:10.000Z</time>
      </trkpt>
      <trkpt lat="43.62774" lon="5.64701">
        <ele>302</ele>
        <time>2013-03-23T12:18:18.000Z</time>
      </trkpt>
      <trkpt lat="43.62801" lon="5.64646">
        <ele>299.60000610352</ele>
        <time>2013-03-23T12:18:23.000Z</time>
      </trkpt>
      <trkpt lat="43.6284" lon="5.64565">
        <ele>291.20001220703</ele>
        <time>2013-03-23T12:18:30.000Z</time>
      </trkpt>
      <trkpt lat="43.62853" lon="5.64542">
        <ele>290</ele>
        <time>2013-03-23T12:18:32.000Z</time>
      </trkpt>
      <trkpt lat="43.62861" lon="5.64531">
        <ele>289</ele>
        <time>2013-03-23T12:18:33.000Z</time>
      </trkpt>
      <trkpt lat="43.6287" lon="5.64521">
        <ele>288</ele>
        <time>2013-03-23T12:18:34.000Z</time>
      </trkpt>
      <trkpt lat="43.62879" lon="5.64512">
        <ele>286.79998779297</ele>
        <time>2013-03-23T12:18:35.000Z</time>
      </trkpt>
      <trkpt lat="43.62889" lon="5.64504">
        <ele>285.39999389648</ele>
        <time>2013-03-23T12:18:36.000Z</time>
      </trkpt>
      <trkpt lat="43.62909" lon="5.64489">
        <ele>283.39999389648</ele>
        <time>2013-03-23T12:18:38.000Z</time>
      </trkpt>
      <trkpt lat="43.6292" lon="5.64484">
        <ele>282.60000610352</ele>
        <time>2013-03-23T12:18:39.000Z</time>
      </trkpt>
      <trkpt lat="43.62932" lon="5.64481">
        <ele>282</ele>
        <time>2013-03-23T12:18:40.000Z</time>
      </trkpt>
      <trkpt lat="43.62944" lon="5.64479">
        <ele>281.39999389648</ele>
        <time>2013-03-23T12:18:41.000Z</time>
      </trkpt>
      <trkpt lat="43.62955" lon="5.64478">
        <ele>280.79998779297</ele>
        <time>2013-03-23T12:18:42.000Z</time>
      </trkpt>
      <trkpt lat="43.63025" lon="5.64472">
        <ele>276.39999389648</ele>
        <time>2013-03-23T12:18:48.000Z</time>
      </trkpt>
      <trkpt lat="43.63059" lon="5.64468">
        <ele>273.39999389648</ele>
        <time>2013-03-23T12:18:51.000Z</time>
      </trkpt>
      <trkpt lat="43.63114" lon="5.64457">
        <ele>269.60000610352</ele>
        <time>2013-03-23T12:18:56.000Z</time>
      </trkpt>
      <trkpt lat="43.63145" lon="5.64449">
        <ele>268.20001220703</ele>
        <time>2013-03-23T12:18:59.000Z</time>
      </trkpt>
      <trkpt lat="43.63155" lon="5.64445">
        <ele>267.60000610352</ele>
        <time>2013-03-23T12:19:00.000Z</time>
      </trkpt>
      <trkpt lat="43.63232" lon="5.64393">
        <ele>266.60000610352</ele>
        <time>2013-03-23T12:19:09.000Z</time>
      </trkpt>
      <trkpt lat="43.6324" lon="5.64389">
        <ele>266.60000610352</ele>
        <time>2013-03-23T12:19:10.000Z</time>
      </trkpt>
      <trkpt lat="43.63247" lon="5.64385">
        <ele>266.60000610352</ele>
        <time>2013-03-23T12:19:11.000Z</time>
      </trkpt>
      <trkpt lat="43.63254" lon="5.64383">
        <ele>266.79998779297</ele>
        <time>2013-03-23T12:19:12.000Z</time>
      </trkpt>
      <trkpt lat="43.6326" lon="5.64382">
        <ele>267</ele>
        <time>2013-03-23T12:19:13.000Z</time>
      </trkpt>
      <trkpt lat="43.63265" lon="5.64382">
        <ele>267.20001220703</ele>
        <time>2013-03-23T12:19:14.000Z</time>
      </trkpt>
      <trkpt lat="43.6327" lon="5.6438">
        <ele>267.39999389648</ele>
        <time>2013-03-23T12:19:15.000Z</time>
      </trkpt>
      <trkpt lat="43.63274" lon="5.64376">
        <ele>267.60000610352</ele>
        <time>2013-03-23T12:19:16.000Z</time>
      </trkpt>
      <trkpt lat="43.63277" lon="5.6437">
        <ele>267.60000610352</ele>
        <time>2013-03-23T12:19:17.000Z</time>
      </trkpt>
      <trkpt lat="43.63282" lon="5.64355">
        <ele>267.39999389648</ele>
        <time>2013-03-23T12:19:19.000Z</time>
      </trkpt>
      <trkpt lat="43.63292" lon="5.64331">
        <ele>266.79998779297</ele>
        <time>2013-03-23T12:19:22.000Z</time>
      </trkpt>
      <trkpt lat="43.63298" lon="5.64314">
        <ele>266.79998779297</ele>
        <time>2013-03-23T12:19:24.000Z</time>
      </trkpt>
      <trkpt lat="43.63339" lon="5.64247">
        <ele>265.20001220703</ele>
        <time>2013-03-23T12:19:34.000Z</time>
      </trkpt>
      <trkpt lat="43.63401" lon="5.64194">
        <ele>267.39999389648</ele>
        <time>2013-03-23T12:19:46.000Z</time>
      </trkpt>
      <trkpt lat="43.63476" lon="5.64147">
        <ele>267.39999389648</ele>
        <time>2013-03-23T12:19:58.000Z</time>
      </trkpt>
      <trkpt lat="43.63528" lon="5.64085">
        <ele>267.79998779297</ele>
        <time>2013-03-23T12:20:08.000Z</time>
      </trkpt>
      <trkpt lat="43.63552" lon="5.64015">
        <ele>267.39999389648</ele>
        <time>2013-03-23T12:20:17.000Z</time>
      </trkpt>
      <trkpt lat="43.63555" lon="5.64009">
        <ele>267.39999389648</ele>
        <time>2013-03-23T12:20:18.000Z</time>
      </trkpt>
      <trkpt lat="43.63559" lon="5.64005">
        <ele>267.20001220703</ele>
        <time>2013-03-23T12:20:19.000Z</time>
      </trkpt>
      <trkpt lat="43.63563" lon="5.64002">
        <ele>267</ele>
        <time>2013-03-23T12:20:20.000Z</time>
      </trkpt>
      <trkpt lat="43.63568" lon="5.64">
        <ele>266.79998779297</ele>
        <time>2013-03-23T12:20:21.000Z</time>
      </trkpt>
      <trkpt lat="43.63572" lon="5.63995">
        <ele>266.60000610352</ele>
        <time>2013-03-23T12:20:22.000Z</time>
      </trkpt>
      <trkpt lat="43.63574" lon="5.63988">
        <ele>266.39999389648</ele>
        <time>2013-03-23T12:20:23.000Z</time>
      </trkpt>
      <trkpt lat="43.63575" lon="5.63981">
        <ele>266.39999389648</ele>
        <time>2013-03-23T12:20:24.000Z</time>
      </trkpt>
      <trkpt lat="43.63576" lon="5.63974">
        <ele>266.39999389648</ele>
        <time>2013-03-23T12:20:25.000Z</time>
      </trkpt>
      <trkpt lat="43.63582" lon="5.63901">
        <ele>266</ele>
        <time>2013-03-23T12:20:37.000Z</time>
      </trkpt>
      <trkpt lat="43.63582" lon="5.63897">
        <ele>266</ele>
        <time>2013-03-23T12:20:46.000Z</time>
      </trkpt>
      <trkpt lat="43.63582" lon="5.63896">
        <ele>266</ele>
        <time>2013-03-23T12:20:54.000Z</time>
      </trkpt>
    </trkseg>
  </trk>
</gpx>